<?xml version="1.0" encoding="UTF-8" standalone="no" ?>
<gpx xmlns="http://www.topografix.com/GPX/1/1" xmlns:xsi="http://www.w3.org/2001/XMLSchema-instance" xsi:schemaLocation="http://www.topografix.com/GPX/1/1 http://www.topografix.com/GPX/1/1/gpx.xsd" version="1.1" creator="VisuGPX - https://www.visugpx.com">
  <metadata>
    <name>rando roquebrune sur argent 3 km</name>
    <desc><![CDATA[[url]https://rando-pedestre-33.over-blog.com/2023/05/rando-roquebrune-sur-argens-3-km.html
[/url]]]></desc>
  </metadata>
  <trk>
    <name><![CDATA[rando roquebrune sur argent 3 km]]></name>
    <trkseg>
      <trkpt lat="43.44" lon="6.6339">
        <ele>48.6</ele>
        <time>2023-05-17T10:33:23Z</time>
      </trkpt>
      <trkpt lat="43.44002" lon="6.63392">
        <ele>48.7</ele>
        <time>2023-05-17T10:33:24Z</time>
      </trkpt>
      <trkpt lat="43.44003" lon="6.63392">
        <ele>48.7</ele>
        <time>2023-05-17T10:33:25Z</time>
      </trkpt>
      <trkpt lat="43.44003" lon="6.6339">
        <ele>48.7</ele>
        <time>2023-05-17T10:33:26Z</time>
      </trkpt>
      <trkpt lat="43.44003" lon="6.63389">
        <ele>48.7</ele>
        <time>2023-05-17T10:33:27Z</time>
      </trkpt>
      <trkpt lat="43.44002" lon="6.63389">
        <ele>48.7</ele>
        <time>2023-05-17T10:33:28Z</time>
      </trkpt>
      <trkpt lat="43.44001" lon="6.63389">
        <ele>48.7</ele>
        <time>2023-05-17T10:33:29Z</time>
      </trkpt>
      <trkpt lat="43.44" lon="6.63388">
        <ele>48.7</ele>
        <time>2023-05-17T10:33:30Z</time>
      </trkpt>
      <trkpt lat="43.43999" lon="6.63387">
        <ele>48.7</ele>
        <time>2023-05-17T10:33:31Z</time>
      </trkpt>
      <trkpt lat="43.43999" lon="6.63386">
        <ele>48.7</ele>
        <time>2023-05-17T10:33:32Z</time>
      </trkpt>
      <trkpt lat="43.43999" lon="6.63385">
        <ele>48.7</ele>
        <time>2023-05-17T10:33:33Z</time>
      </trkpt>
      <trkpt lat="43.43998" lon="6.63384">
        <ele>48.7</ele>
        <time>2023-05-17T10:33:34Z</time>
      </trkpt>
      <trkpt lat="43.43998" lon="6.63382">
        <ele>48.7</ele>
        <time>2023-05-17T10:33:35Z</time>
      </trkpt>
      <trkpt lat="43.43998" lon="6.63381">
        <ele>48.7</ele>
        <time>2023-05-17T10:33:36Z</time>
      </trkpt>
      <trkpt lat="43.43997" lon="6.6338">
        <ele>48.7</ele>
        <time>2023-05-17T10:33:37Z</time>
      </trkpt>
      <trkpt lat="43.43996" lon="6.63378">
        <ele>48.7</ele>
        <time>2023-05-17T10:33:39Z</time>
      </trkpt>
      <trkpt lat="43.43995" lon="6.63377">
        <ele>48.8</ele>
        <time>2023-05-17T10:33:40Z</time>
      </trkpt>
      <trkpt lat="43.43993" lon="6.63376">
        <ele>48.8</ele>
        <time>2023-05-17T10:33:41Z</time>
      </trkpt>
      <trkpt lat="43.43992" lon="6.63375">
        <ele>48.8</ele>
        <time>2023-05-17T10:33:42Z</time>
      </trkpt>
      <trkpt lat="43.43991" lon="6.63373">
        <ele>48.9</ele>
        <time>2023-05-17T10:33:43Z</time>
      </trkpt>
      <trkpt lat="43.4399" lon="6.63371">
        <ele>48.9</ele>
        <time>2023-05-17T10:33:44Z</time>
      </trkpt>
      <trkpt lat="43.43989" lon="6.63369">
        <ele>48.9</ele>
        <time>2023-05-17T10:33:45Z</time>
      </trkpt>
      <trkpt lat="43.43989" lon="6.63367">
        <ele>48.9</ele>
        <time>2023-05-17T10:33:46Z</time>
      </trkpt>
      <trkpt lat="43.43989" lon="6.63365">
        <ele>49</ele>
        <time>2023-05-17T10:33:48Z</time>
      </trkpt>
      <trkpt lat="43.43989" lon="6.63363">
        <ele>49</ele>
        <time>2023-05-17T10:33:49Z</time>
      </trkpt>
      <trkpt lat="43.43989" lon="6.63361">
        <ele>49</ele>
        <time>2023-05-17T10:33:50Z</time>
      </trkpt>
      <trkpt lat="43.43989" lon="6.6336">
        <ele>49.1</ele>
        <time>2023-05-17T10:33:51Z</time>
      </trkpt>
      <trkpt lat="43.43989" lon="6.63358">
        <ele>49.1</ele>
        <time>2023-05-17T10:33:52Z</time>
      </trkpt>
      <trkpt lat="43.43989" lon="6.63357">
        <ele>49.1</ele>
        <time>2023-05-17T10:33:53Z</time>
      </trkpt>
      <trkpt lat="43.43988" lon="6.63355">
        <ele>49.1</ele>
        <time>2023-05-17T10:33:54Z</time>
      </trkpt>
      <trkpt lat="43.43987" lon="6.63356">
        <ele>49.1</ele>
        <time>2023-05-17T10:33:55Z</time>
      </trkpt>
      <trkpt lat="43.43986" lon="6.63357">
        <ele>49.2</ele>
        <time>2023-05-17T10:33:57Z</time>
      </trkpt>
      <trkpt lat="43.43985" lon="6.63358">
        <ele>49.2</ele>
        <time>2023-05-17T10:33:58Z</time>
      </trkpt>
      <trkpt lat="43.43984" lon="6.6336">
        <ele>49.2</ele>
        <time>2023-05-17T10:33:59Z</time>
      </trkpt>
      <trkpt lat="43.43983" lon="6.63361">
        <ele>49.3</ele>
        <time>2023-05-17T10:34:00Z</time>
      </trkpt>
      <trkpt lat="43.43983" lon="6.63363">
        <ele>49.3</ele>
        <time>2023-05-17T10:34:02Z</time>
      </trkpt>
      <trkpt lat="43.43983" lon="6.63364">
        <ele>49.3</ele>
        <time>2023-05-17T10:34:03Z</time>
      </trkpt>
      <trkpt lat="43.43982" lon="6.63367">
        <ele>49.3</ele>
        <time>2023-05-17T10:34:04Z</time>
      </trkpt>
      <trkpt lat="43.43982" lon="6.63368">
        <ele>49.4</ele>
        <time>2023-05-17T10:34:05Z</time>
      </trkpt>
      <trkpt lat="43.4398" lon="6.6337">
        <ele>49.4</ele>
        <time>2023-05-17T10:34:07Z</time>
      </trkpt>
      <trkpt lat="43.43979" lon="6.63371">
        <ele>49.4</ele>
        <time>2023-05-17T10:34:08Z</time>
      </trkpt>
      <trkpt lat="43.43979" lon="6.63372">
        <ele>49.4</ele>
        <time>2023-05-17T10:34:09Z</time>
      </trkpt>
      <trkpt lat="43.43979" lon="6.63373">
        <ele>49.5</ele>
        <time>2023-05-17T10:34:10Z</time>
      </trkpt>
      <trkpt lat="43.43979" lon="6.63374">
        <ele>49.5</ele>
        <time>2023-05-17T10:34:11Z</time>
      </trkpt>
      <trkpt lat="43.43979" lon="6.63376">
        <ele>49.5</ele>
        <time>2023-05-17T10:34:12Z</time>
      </trkpt>
      <trkpt lat="43.4398" lon="6.63378">
        <ele>49.5</ele>
        <time>2023-05-17T10:34:13Z</time>
      </trkpt>
      <trkpt lat="43.43982" lon="6.63379">
        <ele>49.6</ele>
        <time>2023-05-17T10:34:15Z</time>
      </trkpt>
      <trkpt lat="43.43983" lon="6.63378">
        <ele>49.6</ele>
        <time>2023-05-17T10:34:16Z</time>
      </trkpt>
      <trkpt lat="43.43985" lon="6.63377">
        <ele>49.6</ele>
        <time>2023-05-17T10:34:17Z</time>
      </trkpt>
      <trkpt lat="43.43985" lon="6.63375">
        <ele>49.7</ele>
        <time>2023-05-17T10:34:19Z</time>
      </trkpt>
      <trkpt lat="43.43985" lon="6.63374">
        <ele>49.7</ele>
        <time>2023-05-17T10:34:20Z</time>
      </trkpt>
      <trkpt lat="43.43985" lon="6.63374">
        <ele>49.7</ele>
        <time>2023-05-17T10:34:21Z</time>
      </trkpt>
      <trkpt lat="43.43984" lon="6.63373">
        <ele>49.7</ele>
        <time>2023-05-17T10:34:22Z</time>
      </trkpt>
      <trkpt lat="43.43984" lon="6.63373">
        <ele>49.7</ele>
        <time>2023-05-17T10:34:23Z</time>
      </trkpt>
      <trkpt lat="43.43984" lon="6.63373">
        <ele>49.7</ele>
        <time>2023-05-17T10:34:24Z</time>
      </trkpt>
      <trkpt lat="43.43984" lon="6.63373">
        <ele>49.7</ele>
        <time>2023-05-17T10:34:25Z</time>
      </trkpt>
      <trkpt lat="43.43984" lon="6.63373">
        <ele>49.7</ele>
        <time>2023-05-17T10:34:26Z</time>
      </trkpt>
      <trkpt lat="43.43984" lon="6.63373">
        <ele>49.7</ele>
        <time>2023-05-17T10:34:27Z</time>
      </trkpt>
      <trkpt lat="43.43984" lon="6.63373">
        <ele>49.7</ele>
        <time>2023-05-17T10:34:28Z</time>
      </trkpt>
      <trkpt lat="43.43984" lon="6.63373">
        <ele>49.7</ele>
        <time>2023-05-17T10:34:29Z</time>
      </trkpt>
      <trkpt lat="43.43984" lon="6.63373">
        <ele>49.7</ele>
        <time>2023-05-17T10:34:30Z</time>
      </trkpt>
      <trkpt lat="43.43984" lon="6.63373">
        <ele>49.7</ele>
        <time>2023-05-17T10:34:31Z</time>
      </trkpt>
      <trkpt lat="43.43984" lon="6.63373">
        <ele>49.7</ele>
        <time>2023-05-17T10:34:32Z</time>
      </trkpt>
      <trkpt lat="43.43984" lon="6.63373">
        <ele>49.7</ele>
        <time>2023-05-17T10:34:33Z</time>
      </trkpt>
      <trkpt lat="43.43984" lon="6.63373">
        <ele>49.7</ele>
        <time>2023-05-17T10:34:34Z</time>
      </trkpt>
      <trkpt lat="43.43984" lon="6.63373">
        <ele>49.7</ele>
        <time>2023-05-17T10:34:35Z</time>
      </trkpt>
      <trkpt lat="43.43984" lon="6.63373">
        <ele>49.7</ele>
        <time>2023-05-17T10:34:36Z</time>
      </trkpt>
      <trkpt lat="43.43984" lon="6.63372">
        <ele>49.7</ele>
        <time>2023-05-17T10:34:37Z</time>
      </trkpt>
      <trkpt lat="43.43984" lon="6.63372">
        <ele>49.7</ele>
        <time>2023-05-17T10:34:38Z</time>
      </trkpt>
      <trkpt lat="43.43984" lon="6.63372">
        <ele>49.7</ele>
        <time>2023-05-17T10:34:39Z</time>
      </trkpt>
      <trkpt lat="43.43984" lon="6.63372">
        <ele>49.7</ele>
        <time>2023-05-17T10:34:40Z</time>
      </trkpt>
      <trkpt lat="43.43984" lon="6.63372">
        <ele>49.7</ele>
        <time>2023-05-17T10:34:41Z</time>
      </trkpt>
      <trkpt lat="43.43983" lon="6.63372">
        <ele>49.7</ele>
        <time>2023-05-17T10:34:42Z</time>
      </trkpt>
      <trkpt lat="43.43984" lon="6.63372">
        <ele>49.7</ele>
        <time>2023-05-17T10:34:43Z</time>
      </trkpt>
      <trkpt lat="43.43984" lon="6.63372">
        <ele>49.7</ele>
        <time>2023-05-17T10:34:44Z</time>
      </trkpt>
      <trkpt lat="43.43984" lon="6.63372">
        <ele>49.7</ele>
        <time>2023-05-17T10:34:45Z</time>
      </trkpt>
      <trkpt lat="43.43984" lon="6.63372">
        <ele>49.7</ele>
        <time>2023-05-17T10:34:46Z</time>
      </trkpt>
      <trkpt lat="43.43984" lon="6.63371">
        <ele>49.7</ele>
        <time>2023-05-17T10:34:47Z</time>
      </trkpt>
      <trkpt lat="43.43983" lon="6.63371">
        <ele>49.8</ele>
        <time>2023-05-17T10:34:48Z</time>
      </trkpt>
      <trkpt lat="43.43983" lon="6.6337">
        <ele>49.8</ele>
        <time>2023-05-17T10:34:49Z</time>
      </trkpt>
      <trkpt lat="43.43983" lon="6.63369">
        <ele>49.8</ele>
        <time>2023-05-17T10:34:50Z</time>
      </trkpt>
      <trkpt lat="43.43983" lon="6.63368">
        <ele>49.8</ele>
        <time>2023-05-17T10:34:51Z</time>
      </trkpt>
      <trkpt lat="43.43982" lon="6.63368">
        <ele>49.8</ele>
        <time>2023-05-17T10:34:52Z</time>
      </trkpt>
      <trkpt lat="43.43981" lon="6.63367">
        <ele>49.8</ele>
        <time>2023-05-17T10:34:53Z</time>
      </trkpt>
      <trkpt lat="43.4398" lon="6.63365">
        <ele>49.9</ele>
        <time>2023-05-17T10:34:54Z</time>
      </trkpt>
      <trkpt lat="43.4398" lon="6.63365">
        <ele>49.9</ele>
        <time>2023-05-17T10:34:55Z</time>
      </trkpt>
      <trkpt lat="43.4398" lon="6.63364">
        <ele>49.9</ele>
        <time>2023-05-17T10:34:56Z</time>
      </trkpt>
      <trkpt lat="43.43978" lon="6.63363">
        <ele>49.9</ele>
        <time>2023-05-17T10:34:58Z</time>
      </trkpt>
      <trkpt lat="43.43975" lon="6.63362">
        <ele>50</ele>
        <time>2023-05-17T10:34:59Z</time>
      </trkpt>
      <trkpt lat="43.43974" lon="6.63364">
        <ele>50</ele>
        <time>2023-05-17T10:35:00Z</time>
      </trkpt>
      <trkpt lat="43.43973" lon="6.63365">
        <ele>50.1</ele>
        <time>2023-05-17T10:35:01Z</time>
      </trkpt>
      <trkpt lat="43.43972" lon="6.63366">
        <ele>50.1</ele>
        <time>2023-05-17T10:35:02Z</time>
      </trkpt>
      <trkpt lat="43.43971" lon="6.63369">
        <ele>50.1</ele>
        <time>2023-05-17T10:35:03Z</time>
      </trkpt>
      <trkpt lat="43.4397" lon="6.6337">
        <ele>50.2</ele>
        <time>2023-05-17T10:35:04Z</time>
      </trkpt>
      <trkpt lat="43.4397" lon="6.63373">
        <ele>50.2</ele>
        <time>2023-05-17T10:35:06Z</time>
      </trkpt>
      <trkpt lat="43.43971" lon="6.63375">
        <ele>50.2</ele>
        <time>2023-05-17T10:35:07Z</time>
      </trkpt>
      <trkpt lat="43.43971" lon="6.63376">
        <ele>50.2</ele>
        <time>2023-05-17T10:35:08Z</time>
      </trkpt>
      <trkpt lat="43.43971" lon="6.63379">
        <ele>50.3</ele>
        <time>2023-05-17T10:35:09Z</time>
      </trkpt>
      <trkpt lat="43.43971" lon="6.6338">
        <ele>50.3</ele>
        <time>2023-05-17T10:35:11Z</time>
      </trkpt>
      <trkpt lat="43.43971" lon="6.63379">
        <ele>50.3</ele>
        <time>2023-05-17T10:35:12Z</time>
      </trkpt>
      <trkpt lat="43.43972" lon="6.63379">
        <ele>50.3</ele>
        <time>2023-05-17T10:35:13Z</time>
      </trkpt>
      <trkpt lat="43.43972" lon="6.63378">
        <ele>50.3</ele>
        <time>2023-05-17T10:35:15Z</time>
      </trkpt>
      <trkpt lat="43.43972" lon="6.63378">
        <ele>50.3</ele>
        <time>2023-05-17T10:35:16Z</time>
      </trkpt>
      <trkpt lat="43.43972" lon="6.63378">
        <ele>50.3</ele>
        <time>2023-05-17T10:35:17Z</time>
      </trkpt>
      <trkpt lat="43.43972" lon="6.63378">
        <ele>50.3</ele>
        <time>2023-05-17T10:35:19Z</time>
      </trkpt>
      <trkpt lat="43.43972" lon="6.63378">
        <ele>50.3</ele>
        <time>2023-05-17T10:35:20Z</time>
      </trkpt>
      <trkpt lat="43.43972" lon="6.63378">
        <ele>50.3</ele>
        <time>2023-05-17T10:35:21Z</time>
      </trkpt>
      <trkpt lat="43.43972" lon="6.63378">
        <ele>50.3</ele>
        <time>2023-05-17T10:35:23Z</time>
      </trkpt>
      <trkpt lat="43.43972" lon="6.63377">
        <ele>50.3</ele>
        <time>2023-05-17T10:35:24Z</time>
      </trkpt>
      <trkpt lat="43.43972" lon="6.63377">
        <ele>50.4</ele>
        <time>2023-05-17T10:35:25Z</time>
      </trkpt>
      <trkpt lat="43.43972" lon="6.63377">
        <ele>50.4</ele>
        <time>2023-05-17T10:35:26Z</time>
      </trkpt>
      <trkpt lat="43.43972" lon="6.63377">
        <ele>50.4</ele>
        <time>2023-05-17T10:35:27Z</time>
      </trkpt>
      <trkpt lat="43.43972" lon="6.63377">
        <ele>50.4</ele>
        <time>2023-05-17T10:35:28Z</time>
      </trkpt>
      <trkpt lat="43.43972" lon="6.63377">
        <ele>50.4</ele>
        <time>2023-05-17T10:35:29Z</time>
      </trkpt>
      <trkpt lat="43.43972" lon="6.63377">
        <ele>50.4</ele>
        <time>2023-05-17T10:35:30Z</time>
      </trkpt>
      <trkpt lat="43.43972" lon="6.63377">
        <ele>50.4</ele>
        <time>2023-05-17T10:35:31Z</time>
      </trkpt>
      <trkpt lat="43.4397" lon="6.63374">
        <ele>50.4</ele>
        <time>2023-05-17T10:35:37Z</time>
      </trkpt>
      <trkpt lat="43.4397" lon="6.63375">
        <ele>50.4</ele>
        <time>2023-05-17T10:35:38Z</time>
      </trkpt>
      <trkpt lat="43.4397" lon="6.63376">
        <ele>50.4</ele>
        <time>2023-05-17T10:35:39Z</time>
      </trkpt>
      <trkpt lat="43.4397" lon="6.63376">
        <ele>50.4</ele>
        <time>2023-05-17T10:35:40Z</time>
      </trkpt>
      <trkpt lat="43.4397" lon="6.63376">
        <ele>50.5</ele>
        <time>2023-05-17T10:35:41Z</time>
      </trkpt>
      <trkpt lat="43.4397" lon="6.63376">
        <ele>50.5</ele>
        <time>2023-05-17T10:35:42Z</time>
      </trkpt>
      <trkpt lat="43.4397" lon="6.63377">
        <ele>50.5</ele>
        <time>2023-05-17T10:35:43Z</time>
      </trkpt>
      <trkpt lat="43.4397" lon="6.63377">
        <ele>50.5</ele>
        <time>2023-05-17T10:35:44Z</time>
      </trkpt>
      <trkpt lat="43.4397" lon="6.63377">
        <ele>50.5</ele>
        <time>2023-05-17T10:35:45Z</time>
      </trkpt>
      <trkpt lat="43.4397" lon="6.63377">
        <ele>50.5</ele>
        <time>2023-05-17T10:35:46Z</time>
      </trkpt>
      <trkpt lat="43.4397" lon="6.63378">
        <ele>50.5</ele>
        <time>2023-05-17T10:35:47Z</time>
      </trkpt>
      <trkpt lat="43.43971" lon="6.63378">
        <ele>50.5</ele>
        <time>2023-05-17T10:35:48Z</time>
      </trkpt>
      <trkpt lat="43.43971" lon="6.63378">
        <ele>50.5</ele>
        <time>2023-05-17T10:35:49Z</time>
      </trkpt>
      <trkpt lat="43.43971" lon="6.63378">
        <ele>50.5</ele>
        <time>2023-05-17T10:35:50Z</time>
      </trkpt>
      <trkpt lat="43.43971" lon="6.63379">
        <ele>50.5</ele>
        <time>2023-05-17T10:35:51Z</time>
      </trkpt>
      <trkpt lat="43.43971" lon="6.63379">
        <ele>50.5</ele>
        <time>2023-05-17T10:35:53Z</time>
      </trkpt>
      <trkpt lat="43.43971" lon="6.63379">
        <ele>50.5</ele>
        <time>2023-05-17T10:35:54Z</time>
      </trkpt>
      <trkpt lat="43.43971" lon="6.63379">
        <ele>50.5</ele>
        <time>2023-05-17T10:35:55Z</time>
      </trkpt>
      <trkpt lat="43.43971" lon="6.63379">
        <ele>50.5</ele>
        <time>2023-05-17T10:35:56Z</time>
      </trkpt>
      <trkpt lat="43.43971" lon="6.6338">
        <ele>50.5</ele>
        <time>2023-05-17T10:35:57Z</time>
      </trkpt>
      <trkpt lat="43.43973" lon="6.63383">
        <ele>50.6</ele>
        <time>2023-05-17T10:35:58Z</time>
      </trkpt>
      <trkpt lat="43.43974" lon="6.63384">
        <ele>50.6</ele>
        <time>2023-05-17T10:35:59Z</time>
      </trkpt>
      <trkpt lat="43.43975" lon="6.63386">
        <ele>50.7</ele>
        <time>2023-05-17T10:36:00Z</time>
      </trkpt>
      <trkpt lat="43.43976" lon="6.63387">
        <ele>50.7</ele>
        <time>2023-05-17T10:36:02Z</time>
      </trkpt>
      <trkpt lat="43.43977" lon="6.63388">
        <ele>50.7</ele>
        <time>2023-05-17T10:36:03Z</time>
      </trkpt>
      <trkpt lat="43.43978" lon="6.6339">
        <ele>50.7</ele>
        <time>2023-05-17T10:36:04Z</time>
      </trkpt>
      <trkpt lat="43.43979" lon="6.63391">
        <ele>50.8</ele>
        <time>2023-05-17T10:36:05Z</time>
      </trkpt>
      <trkpt lat="43.4398" lon="6.63392">
        <ele>50.8</ele>
        <time>2023-05-17T10:36:06Z</time>
      </trkpt>
      <trkpt lat="43.43981" lon="6.63392">
        <ele>50.8</ele>
        <time>2023-05-17T10:36:07Z</time>
      </trkpt>
      <trkpt lat="43.43982" lon="6.63392">
        <ele>50.8</ele>
        <time>2023-05-17T10:36:08Z</time>
      </trkpt>
      <trkpt lat="43.43981" lon="6.6339">
        <ele>50.9</ele>
        <time>2023-05-17T10:36:10Z</time>
      </trkpt>
      <trkpt lat="43.43981" lon="6.6339">
        <ele>50.9</ele>
        <time>2023-05-17T10:36:11Z</time>
      </trkpt>
      <trkpt lat="43.4398" lon="6.63389">
        <ele>50.9</ele>
        <time>2023-05-17T10:36:12Z</time>
      </trkpt>
      <trkpt lat="43.43979" lon="6.63388">
        <ele>50.9</ele>
        <time>2023-05-17T10:36:14Z</time>
      </trkpt>
      <trkpt lat="43.43981" lon="6.63387">
        <ele>50.9</ele>
        <time>2023-05-17T10:36:15Z</time>
      </trkpt>
      <trkpt lat="43.43981" lon="6.63386">
        <ele>51</ele>
        <time>2023-05-17T10:36:16Z</time>
      </trkpt>
      <trkpt lat="43.43981" lon="6.63386">
        <ele>51</ele>
        <time>2023-05-17T10:36:17Z</time>
      </trkpt>
      <trkpt lat="43.43981" lon="6.63386">
        <ele>51</ele>
        <time>2023-05-17T10:36:19Z</time>
      </trkpt>
      <trkpt lat="43.43981" lon="6.63386">
        <ele>51</ele>
        <time>2023-05-17T10:36:20Z</time>
      </trkpt>
      <trkpt lat="43.43981" lon="6.63386">
        <ele>51</ele>
        <time>2023-05-17T10:36:21Z</time>
      </trkpt>
      <trkpt lat="43.43981" lon="6.63386">
        <ele>51</ele>
        <time>2023-05-17T10:36:23Z</time>
      </trkpt>
      <trkpt lat="43.43981" lon="6.63386">
        <ele>51</ele>
        <time>2023-05-17T10:36:24Z</time>
      </trkpt>
      <trkpt lat="43.43981" lon="6.63386">
        <ele>51</ele>
        <time>2023-05-17T10:36:25Z</time>
      </trkpt>
      <trkpt lat="43.43981" lon="6.63386">
        <ele>51</ele>
        <time>2023-05-17T10:36:27Z</time>
      </trkpt>
      <trkpt lat="43.43981" lon="6.63386">
        <ele>51</ele>
        <time>2023-05-17T10:36:28Z</time>
      </trkpt>
      <trkpt lat="43.43981" lon="6.63386">
        <ele>51</ele>
        <time>2023-05-17T10:36:29Z</time>
      </trkpt>
      <trkpt lat="43.43981" lon="6.63386">
        <ele>51</ele>
        <time>2023-05-17T10:36:30Z</time>
      </trkpt>
      <trkpt lat="43.43981" lon="6.63386">
        <ele>51</ele>
        <time>2023-05-17T10:36:32Z</time>
      </trkpt>
      <trkpt lat="43.43981" lon="6.63386">
        <ele>51</ele>
        <time>2023-05-17T10:36:33Z</time>
      </trkpt>
      <trkpt lat="43.43981" lon="6.63386">
        <ele>51</ele>
        <time>2023-05-17T10:36:34Z</time>
      </trkpt>
      <trkpt lat="43.43981" lon="6.63386">
        <ele>51</ele>
        <time>2023-05-17T10:36:36Z</time>
      </trkpt>
      <trkpt lat="43.43981" lon="6.63386">
        <ele>51</ele>
        <time>2023-05-17T10:36:37Z</time>
      </trkpt>
      <trkpt lat="43.43981" lon="6.63386">
        <ele>51</ele>
        <time>2023-05-17T10:36:38Z</time>
      </trkpt>
      <trkpt lat="43.43981" lon="6.63386">
        <ele>51</ele>
        <time>2023-05-17T10:36:39Z</time>
      </trkpt>
      <trkpt lat="43.43981" lon="6.63386">
        <ele>51</ele>
        <time>2023-05-17T10:36:40Z</time>
      </trkpt>
      <trkpt lat="43.43981" lon="6.63386">
        <ele>51</ele>
        <time>2023-05-17T10:36:41Z</time>
      </trkpt>
      <trkpt lat="43.43981" lon="6.63386">
        <ele>51</ele>
        <time>2023-05-17T10:36:42Z</time>
      </trkpt>
      <trkpt lat="43.43981" lon="6.63386">
        <ele>51</ele>
        <time>2023-05-17T10:36:43Z</time>
      </trkpt>
      <trkpt lat="43.43981" lon="6.63386">
        <ele>51</ele>
        <time>2023-05-17T10:36:44Z</time>
      </trkpt>
      <trkpt lat="43.43981" lon="6.63386">
        <ele>51</ele>
        <time>2023-05-17T10:36:45Z</time>
      </trkpt>
      <trkpt lat="43.43981" lon="6.63386">
        <ele>51</ele>
        <time>2023-05-17T10:36:46Z</time>
      </trkpt>
      <trkpt lat="43.43981" lon="6.63386">
        <ele>51</ele>
        <time>2023-05-17T10:36:47Z</time>
      </trkpt>
      <trkpt lat="43.4398" lon="6.63386">
        <ele>51</ele>
        <time>2023-05-17T10:36:48Z</time>
      </trkpt>
      <trkpt lat="43.4398" lon="6.63386">
        <ele>51</ele>
        <time>2023-05-17T10:36:49Z</time>
      </trkpt>
      <trkpt lat="43.4398" lon="6.63386">
        <ele>51</ele>
        <time>2023-05-17T10:36:50Z</time>
      </trkpt>
      <trkpt lat="43.4398" lon="6.63386">
        <ele>51</ele>
        <time>2023-05-17T10:36:51Z</time>
      </trkpt>
      <trkpt lat="43.4398" lon="6.63386">
        <ele>51</ele>
        <time>2023-05-17T10:36:52Z</time>
      </trkpt>
      <trkpt lat="43.4398" lon="6.63386">
        <ele>51</ele>
        <time>2023-05-17T10:36:53Z</time>
      </trkpt>
      <trkpt lat="43.4398" lon="6.63386">
        <ele>51</ele>
        <time>2023-05-17T10:36:54Z</time>
      </trkpt>
      <trkpt lat="43.4398" lon="6.63386">
        <ele>51</ele>
        <time>2023-05-17T10:36:55Z</time>
      </trkpt>
      <trkpt lat="43.4398" lon="6.63386">
        <ele>51</ele>
        <time>2023-05-17T10:36:56Z</time>
      </trkpt>
      <trkpt lat="43.4398" lon="6.63386">
        <ele>51</ele>
        <time>2023-05-17T10:36:57Z</time>
      </trkpt>
      <trkpt lat="43.4398" lon="6.63386">
        <ele>51</ele>
        <time>2023-05-17T10:36:58Z</time>
      </trkpt>
      <trkpt lat="43.4398" lon="6.63386">
        <ele>51</ele>
        <time>2023-05-17T10:36:59Z</time>
      </trkpt>
      <trkpt lat="43.4398" lon="6.63386">
        <ele>51</ele>
        <time>2023-05-17T10:37:00Z</time>
      </trkpt>
      <trkpt lat="43.4398" lon="6.63386">
        <ele>51</ele>
        <time>2023-05-17T10:37:01Z</time>
      </trkpt>
      <trkpt lat="43.4398" lon="6.63386">
        <ele>51</ele>
        <time>2023-05-17T10:37:02Z</time>
      </trkpt>
      <trkpt lat="43.4398" lon="6.63386">
        <ele>51</ele>
        <time>2023-05-17T10:37:03Z</time>
      </trkpt>
      <trkpt lat="43.4398" lon="6.63386">
        <ele>51</ele>
        <time>2023-05-17T10:37:04Z</time>
      </trkpt>
      <trkpt lat="43.4398" lon="6.63386">
        <ele>51</ele>
        <time>2023-05-17T10:37:05Z</time>
      </trkpt>
      <trkpt lat="43.4398" lon="6.63386">
        <ele>51</ele>
        <time>2023-05-17T10:37:06Z</time>
      </trkpt>
      <trkpt lat="43.4398" lon="6.63386">
        <ele>51</ele>
        <time>2023-05-17T10:37:07Z</time>
      </trkpt>
      <trkpt lat="43.4398" lon="6.63386">
        <ele>51</ele>
        <time>2023-05-17T10:37:08Z</time>
      </trkpt>
      <trkpt lat="43.4398" lon="6.63385">
        <ele>51</ele>
        <time>2023-05-17T10:37:09Z</time>
      </trkpt>
      <trkpt lat="43.4398" lon="6.63385">
        <ele>51</ele>
        <time>2023-05-17T10:37:10Z</time>
      </trkpt>
      <trkpt lat="43.4398" lon="6.63385">
        <ele>51</ele>
        <time>2023-05-17T10:37:11Z</time>
      </trkpt>
      <trkpt lat="43.4398" lon="6.63385">
        <ele>51</ele>
        <time>2023-05-17T10:37:12Z</time>
      </trkpt>
      <trkpt lat="43.43979" lon="6.63385">
        <ele>51</ele>
        <time>2023-05-17T10:37:13Z</time>
      </trkpt>
      <trkpt lat="43.43979" lon="6.63385">
        <ele>51</ele>
        <time>2023-05-17T10:37:14Z</time>
      </trkpt>
      <trkpt lat="43.43976" lon="6.63384">
        <ele>51.1</ele>
        <time>2023-05-17T10:37:15Z</time>
      </trkpt>
      <trkpt lat="43.43976" lon="6.63384">
        <ele>51.1</ele>
        <time>2023-05-17T10:37:16Z</time>
      </trkpt>
      <trkpt lat="43.43975" lon="6.63384">
        <ele>51.1</ele>
        <time>2023-05-17T10:37:17Z</time>
      </trkpt>
      <trkpt lat="43.43975" lon="6.63384">
        <ele>51.1</ele>
        <time>2023-05-17T10:37:18Z</time>
      </trkpt>
      <trkpt lat="43.43974" lon="6.63383">
        <ele>51.1</ele>
        <time>2023-05-17T10:37:19Z</time>
      </trkpt>
      <trkpt lat="43.43974" lon="6.63382">
        <ele>51.2</ele>
        <time>2023-05-17T10:37:21Z</time>
      </trkpt>
      <trkpt lat="43.43973" lon="6.63382">
        <ele>51.2</ele>
        <time>2023-05-17T10:37:22Z</time>
      </trkpt>
      <trkpt lat="43.43973" lon="6.63381">
        <ele>51.2</ele>
        <time>2023-05-17T10:37:23Z</time>
      </trkpt>
      <trkpt lat="43.43972" lon="6.63379">
        <ele>51.2</ele>
        <time>2023-05-17T10:37:24Z</time>
      </trkpt>
      <trkpt lat="43.43971" lon="6.63379">
        <ele>51.3</ele>
        <time>2023-05-17T10:37:25Z</time>
      </trkpt>
      <trkpt lat="43.43969" lon="6.63378">
        <ele>51.3</ele>
        <time>2023-05-17T10:37:26Z</time>
      </trkpt>
      <trkpt lat="43.43968" lon="6.63377">
        <ele>52.9</ele>
        <time>2023-05-17T10:37:28Z</time>
      </trkpt>
      <trkpt lat="43.43968" lon="6.63376">
        <ele>53</ele>
        <time>2023-05-17T10:37:29Z</time>
      </trkpt>
      <trkpt lat="43.43967" lon="6.63375">
        <ele>53.2</ele>
        <time>2023-05-17T10:37:30Z</time>
      </trkpt>
      <trkpt lat="43.43966" lon="6.63374">
        <ele>53.2</ele>
        <time>2023-05-17T10:37:31Z</time>
      </trkpt>
      <trkpt lat="43.43966" lon="6.63373">
        <ele>53.3</ele>
        <time>2023-05-17T10:37:32Z</time>
      </trkpt>
      <trkpt lat="43.43966" lon="6.63371">
        <ele>53.4</ele>
        <time>2023-05-17T10:37:33Z</time>
      </trkpt>
      <trkpt lat="43.43965" lon="6.63369">
        <ele>53.6</ele>
        <time>2023-05-17T10:37:34Z</time>
      </trkpt>
      <trkpt lat="43.43966" lon="6.63369">
        <ele>53.7</ele>
        <time>2023-05-17T10:37:35Z</time>
      </trkpt>
      <trkpt lat="43.43967" lon="6.63367">
        <ele>53.8</ele>
        <time>2023-05-17T10:37:37Z</time>
      </trkpt>
      <trkpt lat="43.43967" lon="6.63366">
        <ele>53.9</ele>
        <time>2023-05-17T10:37:38Z</time>
      </trkpt>
      <trkpt lat="43.43966" lon="6.63365">
        <ele>54</ele>
        <time>2023-05-17T10:37:39Z</time>
      </trkpt>
      <trkpt lat="43.43965" lon="6.63366">
        <ele>54.1</ele>
        <time>2023-05-17T10:37:41Z</time>
      </trkpt>
      <trkpt lat="43.43964" lon="6.63367">
        <ele>54.2</ele>
        <time>2023-05-17T10:37:42Z</time>
      </trkpt>
      <trkpt lat="43.43963" lon="6.63369">
        <ele>54.3</ele>
        <time>2023-05-17T10:37:43Z</time>
      </trkpt>
      <trkpt lat="43.43962" lon="6.6337">
        <ele>54.5</ele>
        <time>2023-05-17T10:37:45Z</time>
      </trkpt>
      <trkpt lat="43.43961" lon="6.6337">
        <ele>54.6</ele>
        <time>2023-05-17T10:37:46Z</time>
      </trkpt>
      <trkpt lat="43.4396" lon="6.63371">
        <ele>54.7</ele>
        <time>2023-05-17T10:37:47Z</time>
      </trkpt>
      <trkpt lat="43.43959" lon="6.63371">
        <ele>54.7</ele>
        <time>2023-05-17T10:37:48Z</time>
      </trkpt>
      <trkpt lat="43.43958" lon="6.63371">
        <ele>54.9</ele>
        <time>2023-05-17T10:37:49Z</time>
      </trkpt>
      <trkpt lat="43.43957" lon="6.6337">
        <ele>54.9</ele>
        <time>2023-05-17T10:37:51Z</time>
      </trkpt>
      <trkpt lat="43.43956" lon="6.6337">
        <ele>55</ele>
        <time>2023-05-17T10:37:52Z</time>
      </trkpt>
      <trkpt lat="43.43956" lon="6.6337">
        <ele>55.1</ele>
        <time>2023-05-17T10:37:53Z</time>
      </trkpt>
      <trkpt lat="43.43955" lon="6.6337">
        <ele>55.1</ele>
        <time>2023-05-17T10:37:54Z</time>
      </trkpt>
      <trkpt lat="43.43954" lon="6.6337">
        <ele>55.2</ele>
        <time>2023-05-17T10:37:55Z</time>
      </trkpt>
      <trkpt lat="43.43953" lon="6.63369">
        <ele>55.3</ele>
        <time>2023-05-17T10:37:56Z</time>
      </trkpt>
      <trkpt lat="43.43953" lon="6.63369">
        <ele>55.3</ele>
        <time>2023-05-17T10:37:57Z</time>
      </trkpt>
      <trkpt lat="43.43952" lon="6.63368">
        <ele>55.4</ele>
        <time>2023-05-17T10:37:58Z</time>
      </trkpt>
      <trkpt lat="43.43951" lon="6.63368">
        <ele>55.5</ele>
        <time>2023-05-17T10:37:59Z</time>
      </trkpt>
      <trkpt lat="43.43951" lon="6.63367">
        <ele>55.5</ele>
        <time>2023-05-17T10:38:01Z</time>
      </trkpt>
      <trkpt lat="43.4395" lon="6.63366">
        <ele>55.6</ele>
        <time>2023-05-17T10:38:02Z</time>
      </trkpt>
      <trkpt lat="43.43949" lon="6.63365">
        <ele>55.7</ele>
        <time>2023-05-17T10:38:03Z</time>
      </trkpt>
      <trkpt lat="43.43948" lon="6.63363">
        <ele>55.8</ele>
        <time>2023-05-17T10:38:05Z</time>
      </trkpt>
      <trkpt lat="43.43948" lon="6.63363">
        <ele>55.9</ele>
        <time>2023-05-17T10:38:06Z</time>
      </trkpt>
      <trkpt lat="43.43947" lon="6.63362">
        <ele>55.9</ele>
        <time>2023-05-17T10:38:07Z</time>
      </trkpt>
      <trkpt lat="43.43947" lon="6.6336">
        <ele>56</ele>
        <time>2023-05-17T10:38:08Z</time>
      </trkpt>
      <trkpt lat="43.43946" lon="6.63359">
        <ele>56.1</ele>
        <time>2023-05-17T10:38:09Z</time>
      </trkpt>
      <trkpt lat="43.43946" lon="6.63358">
        <ele>56.1</ele>
        <time>2023-05-17T10:38:10Z</time>
      </trkpt>
      <trkpt lat="43.43946" lon="6.63358">
        <ele>56.1</ele>
        <time>2023-05-17T10:38:11Z</time>
      </trkpt>
      <trkpt lat="43.43946" lon="6.63358">
        <ele>56.1</ele>
        <time>2023-05-17T10:38:12Z</time>
      </trkpt>
      <trkpt lat="43.43945" lon="6.63358">
        <ele>56.2</ele>
        <time>2023-05-17T10:38:14Z</time>
      </trkpt>
      <trkpt lat="43.43945" lon="6.63358">
        <ele>56.2</ele>
        <time>2023-05-17T10:38:15Z</time>
      </trkpt>
      <trkpt lat="43.43944" lon="6.63357">
        <ele>56.3</ele>
        <time>2023-05-17T10:38:16Z</time>
      </trkpt>
      <trkpt lat="43.43943" lon="6.63357">
        <ele>56.3</ele>
        <time>2023-05-17T10:38:17Z</time>
      </trkpt>
      <trkpt lat="43.43942" lon="6.63356">
        <ele>56.4</ele>
        <time>2023-05-17T10:38:19Z</time>
      </trkpt>
      <trkpt lat="43.43941" lon="6.63356">
        <ele>56.5</ele>
        <time>2023-05-17T10:38:20Z</time>
      </trkpt>
      <trkpt lat="43.43941" lon="6.63355">
        <ele>56.6</ele>
        <time>2023-05-17T10:38:21Z</time>
      </trkpt>
      <trkpt lat="43.4394" lon="6.63355">
        <ele>56.6</ele>
        <time>2023-05-17T10:38:22Z</time>
      </trkpt>
      <trkpt lat="43.43939" lon="6.63355">
        <ele>56.7</ele>
        <time>2023-05-17T10:38:24Z</time>
      </trkpt>
      <trkpt lat="43.43937" lon="6.63354">
        <ele>56.8</ele>
        <time>2023-05-17T10:38:25Z</time>
      </trkpt>
      <trkpt lat="43.43937" lon="6.63354">
        <ele>56.8</ele>
        <time>2023-05-17T10:38:26Z</time>
      </trkpt>
      <trkpt lat="43.43936" lon="6.63353">
        <ele>56.9</ele>
        <time>2023-05-17T10:38:28Z</time>
      </trkpt>
      <trkpt lat="43.43935" lon="6.63353">
        <ele>57</ele>
        <time>2023-05-17T10:38:29Z</time>
      </trkpt>
      <trkpt lat="43.43933" lon="6.63352">
        <ele>57.1</ele>
        <time>2023-05-17T10:38:30Z</time>
      </trkpt>
      <trkpt lat="43.43932" lon="6.63351">
        <ele>57.2</ele>
        <time>2023-05-17T10:38:31Z</time>
      </trkpt>
      <trkpt lat="43.43932" lon="6.6335">
        <ele>57.3</ele>
        <time>2023-05-17T10:38:32Z</time>
      </trkpt>
      <trkpt lat="43.43931" lon="6.63349">
        <ele>57.4</ele>
        <time>2023-05-17T10:38:33Z</time>
      </trkpt>
      <trkpt lat="43.43931" lon="6.63349">
        <ele>57.4</ele>
        <time>2023-05-17T10:38:34Z</time>
      </trkpt>
      <trkpt lat="43.43932" lon="6.63349">
        <ele>57.4</ele>
        <time>2023-05-17T10:38:35Z</time>
      </trkpt>
      <trkpt lat="43.43932" lon="6.63349">
        <ele>57.5</ele>
        <time>2023-05-17T10:38:36Z</time>
      </trkpt>
      <trkpt lat="43.43932" lon="6.63349">
        <ele>57.5</ele>
        <time>2023-05-17T10:38:38Z</time>
      </trkpt>
      <trkpt lat="43.43932" lon="6.63349">
        <ele>57.5</ele>
        <time>2023-05-17T10:38:39Z</time>
      </trkpt>
      <trkpt lat="43.43931" lon="6.63347">
        <ele>57.6</ele>
        <time>2023-05-17T10:38:40Z</time>
      </trkpt>
      <trkpt lat="43.43931" lon="6.63346">
        <ele>57.7</ele>
        <time>2023-05-17T10:38:41Z</time>
      </trkpt>
      <trkpt lat="43.4393" lon="6.63344">
        <ele>57.9</ele>
        <time>2023-05-17T10:38:43Z</time>
      </trkpt>
      <trkpt lat="43.43929" lon="6.63343">
        <ele>58</ele>
        <time>2023-05-17T10:38:44Z</time>
      </trkpt>
      <trkpt lat="43.43929" lon="6.63341">
        <ele>58.1</ele>
        <time>2023-05-17T10:38:45Z</time>
      </trkpt>
      <trkpt lat="43.43929" lon="6.63339">
        <ele>58.3</ele>
        <time>2023-05-17T10:38:46Z</time>
      </trkpt>
      <trkpt lat="43.43928" lon="6.63338">
        <ele>58.4</ele>
        <time>2023-05-17T10:38:47Z</time>
      </trkpt>
      <trkpt lat="43.43928" lon="6.63336">
        <ele>58.5</ele>
        <time>2023-05-17T10:38:48Z</time>
      </trkpt>
      <trkpt lat="43.43928" lon="6.63336">
        <ele>58.5</ele>
        <time>2023-05-17T10:38:49Z</time>
      </trkpt>
      <trkpt lat="43.43927" lon="6.63334">
        <ele>58.7</ele>
        <time>2023-05-17T10:38:50Z</time>
      </trkpt>
      <trkpt lat="43.43927" lon="6.63333">
        <ele>58.8</ele>
        <time>2023-05-17T10:38:52Z</time>
      </trkpt>
      <trkpt lat="43.43927" lon="6.63332">
        <ele>58.9</ele>
        <time>2023-05-17T10:38:53Z</time>
      </trkpt>
      <trkpt lat="43.43926" lon="6.6333">
        <ele>59</ele>
        <time>2023-05-17T10:38:54Z</time>
      </trkpt>
      <trkpt lat="43.43925" lon="6.63331">
        <ele>59.1</ele>
        <time>2023-05-17T10:38:56Z</time>
      </trkpt>
      <trkpt lat="43.43925" lon="6.6333">
        <ele>59.1</ele>
        <time>2023-05-17T10:38:57Z</time>
      </trkpt>
      <trkpt lat="43.43924" lon="6.6333">
        <ele>59.2</ele>
        <time>2023-05-17T10:38:58Z</time>
      </trkpt>
      <trkpt lat="43.43924" lon="6.63329">
        <ele>59.3</ele>
        <time>2023-05-17T10:38:59Z</time>
      </trkpt>
      <trkpt lat="43.43923" lon="6.63328">
        <ele>59.4</ele>
        <time>2023-05-17T10:39:00Z</time>
      </trkpt>
      <trkpt lat="43.43923" lon="6.63328">
        <ele>59.4</ele>
        <time>2023-05-17T10:39:02Z</time>
      </trkpt>
      <trkpt lat="43.43922" lon="6.63327">
        <ele>59.5</ele>
        <time>2023-05-17T10:39:03Z</time>
      </trkpt>
      <trkpt lat="43.43923" lon="6.63328">
        <ele>59.5</ele>
        <time>2023-05-17T10:39:04Z</time>
      </trkpt>
      <trkpt lat="43.43924" lon="6.63329">
        <ele>59.6</ele>
        <time>2023-05-17T10:39:06Z</time>
      </trkpt>
      <trkpt lat="43.43924" lon="6.63329">
        <ele>59.7</ele>
        <time>2023-05-17T10:39:07Z</time>
      </trkpt>
      <trkpt lat="43.43924" lon="6.6333">
        <ele>59.7</ele>
        <time>2023-05-17T10:39:13Z</time>
      </trkpt>
      <trkpt lat="43.43923" lon="6.63329">
        <ele>59.8</ele>
        <time>2023-05-17T10:39:15Z</time>
      </trkpt>
      <trkpt lat="43.43923" lon="6.6333">
        <ele>59.9</ele>
        <time>2023-05-17T10:39:16Z</time>
      </trkpt>
      <trkpt lat="43.43923" lon="6.6333">
        <ele>59.9</ele>
        <time>2023-05-17T10:39:17Z</time>
      </trkpt>
      <trkpt lat="43.43922" lon="6.63329">
        <ele>60</ele>
        <time>2023-05-17T10:39:19Z</time>
      </trkpt>
      <trkpt lat="43.43921" lon="6.63327">
        <ele>60.2</ele>
        <time>2023-05-17T10:39:20Z</time>
      </trkpt>
      <trkpt lat="43.4392" lon="6.63326">
        <ele>60.3</ele>
        <time>2023-05-17T10:39:21Z</time>
      </trkpt>
      <trkpt lat="43.43919" lon="6.63325">
        <ele>60.4</ele>
        <time>2023-05-17T10:39:22Z</time>
      </trkpt>
      <trkpt lat="43.43918" lon="6.63323">
        <ele>60.7</ele>
        <time>2023-05-17T10:39:23Z</time>
      </trkpt>
      <trkpt lat="43.43917" lon="6.63323">
        <ele>60.8</ele>
        <time>2023-05-17T10:39:24Z</time>
      </trkpt>
      <trkpt lat="43.43916" lon="6.63322">
        <ele>60.9</ele>
        <time>2023-05-17T10:39:25Z</time>
      </trkpt>
      <trkpt lat="43.43915" lon="6.63322">
        <ele>61</ele>
        <time>2023-05-17T10:39:26Z</time>
      </trkpt>
      <trkpt lat="43.43913" lon="6.63321">
        <ele>61.3</ele>
        <time>2023-05-17T10:39:28Z</time>
      </trkpt>
      <trkpt lat="43.43912" lon="6.63322">
        <ele>61.4</ele>
        <time>2023-05-17T10:39:29Z</time>
      </trkpt>
      <trkpt lat="43.43911" lon="6.63323">
        <ele>61.5</ele>
        <time>2023-05-17T10:39:30Z</time>
      </trkpt>
      <trkpt lat="43.4391" lon="6.63323">
        <ele>61.6</ele>
        <time>2023-05-17T10:39:31Z</time>
      </trkpt>
      <trkpt lat="43.43909" lon="6.63323">
        <ele>61.8</ele>
        <time>2023-05-17T10:39:32Z</time>
      </trkpt>
      <trkpt lat="43.43909" lon="6.63322">
        <ele>61.9</ele>
        <time>2023-05-17T10:39:33Z</time>
      </trkpt>
      <trkpt lat="43.43908" lon="6.63323">
        <ele>62</ele>
        <time>2023-05-17T10:39:34Z</time>
      </trkpt>
      <trkpt lat="43.43907" lon="6.63323">
        <ele>62.1</ele>
        <time>2023-05-17T10:39:35Z</time>
      </trkpt>
      <trkpt lat="43.43907" lon="6.63325">
        <ele>62.2</ele>
        <time>2023-05-17T10:39:37Z</time>
      </trkpt>
      <trkpt lat="43.43906" lon="6.63326">
        <ele>62.3</ele>
        <time>2023-05-17T10:39:38Z</time>
      </trkpt>
      <trkpt lat="43.43906" lon="6.63327">
        <ele>62.5</ele>
        <time>2023-05-17T10:39:39Z</time>
      </trkpt>
      <trkpt lat="43.43904" lon="6.6333">
        <ele>62.8</ele>
        <time>2023-05-17T10:39:40Z</time>
      </trkpt>
      <trkpt lat="43.43904" lon="6.63331">
        <ele>62.9</ele>
        <time>2023-05-17T10:39:41Z</time>
      </trkpt>
      <trkpt lat="43.43904" lon="6.63333">
        <ele>63</ele>
        <time>2023-05-17T10:39:42Z</time>
      </trkpt>
      <trkpt lat="43.43903" lon="6.63335">
        <ele>63.2</ele>
        <time>2023-05-17T10:39:43Z</time>
      </trkpt>
      <trkpt lat="43.43903" lon="6.63335">
        <ele>63.3</ele>
        <time>2023-05-17T10:39:44Z</time>
      </trkpt>
      <trkpt lat="43.43902" lon="6.63335">
        <ele>63.4</ele>
        <time>2023-05-17T10:39:46Z</time>
      </trkpt>
      <trkpt lat="43.43901" lon="6.63335">
        <ele>63.5</ele>
        <time>2023-05-17T10:39:47Z</time>
      </trkpt>
      <trkpt lat="43.43899" lon="6.63335">
        <ele>63.7</ele>
        <time>2023-05-17T10:39:48Z</time>
      </trkpt>
      <trkpt lat="43.43899" lon="6.63335">
        <ele>63.8</ele>
        <time>2023-05-17T10:39:49Z</time>
      </trkpt>
      <trkpt lat="43.43898" lon="6.63335">
        <ele>63.9</ele>
        <time>2023-05-17T10:39:50Z</time>
      </trkpt>
      <trkpt lat="43.43898" lon="6.63335">
        <ele>63.9</ele>
        <time>2023-05-17T10:39:51Z</time>
      </trkpt>
      <trkpt lat="43.43897" lon="6.63335">
        <ele>64</ele>
        <time>2023-05-17T10:39:52Z</time>
      </trkpt>
      <trkpt lat="43.43896" lon="6.63336">
        <ele>64.2</ele>
        <time>2023-05-17T10:39:53Z</time>
      </trkpt>
      <trkpt lat="43.43896" lon="6.63337">
        <ele>64.2</ele>
        <time>2023-05-17T10:39:54Z</time>
      </trkpt>
      <trkpt lat="43.43896" lon="6.63338">
        <ele>64.3</ele>
        <time>2023-05-17T10:39:56Z</time>
      </trkpt>
      <trkpt lat="43.43896" lon="6.63338">
        <ele>64.3</ele>
        <time>2023-05-17T10:39:57Z</time>
      </trkpt>
      <trkpt lat="43.43896" lon="6.63338">
        <ele>64.4</ele>
        <time>2023-05-17T10:39:58Z</time>
      </trkpt>
      <trkpt lat="43.43896" lon="6.63337">
        <ele>64.4</ele>
        <time>2023-05-17T10:40:00Z</time>
      </trkpt>
      <trkpt lat="43.43896" lon="6.63337">
        <ele>64.4</ele>
        <time>2023-05-17T10:40:01Z</time>
      </trkpt>
      <trkpt lat="43.43896" lon="6.63337">
        <ele>64.4</ele>
        <time>2023-05-17T10:40:02Z</time>
      </trkpt>
      <trkpt lat="43.43896" lon="6.63337">
        <ele>64.5</ele>
        <time>2023-05-17T10:40:04Z</time>
      </trkpt>
      <trkpt lat="43.43896" lon="6.63337">
        <ele>64.5</ele>
        <time>2023-05-17T10:40:05Z</time>
      </trkpt>
      <trkpt lat="43.43897" lon="6.63337">
        <ele>64.5</ele>
        <time>2023-05-17T10:40:06Z</time>
      </trkpt>
      <trkpt lat="43.43897" lon="6.63337">
        <ele>64.5</ele>
        <time>2023-05-17T10:40:07Z</time>
      </trkpt>
      <trkpt lat="43.43896" lon="6.63338">
        <ele>64.6</ele>
        <time>2023-05-17T10:40:08Z</time>
      </trkpt>
      <trkpt lat="43.43895" lon="6.6334">
        <ele>64.8</ele>
        <time>2023-05-17T10:40:09Z</time>
      </trkpt>
      <trkpt lat="43.43895" lon="6.6334">
        <ele>64.9</ele>
        <time>2023-05-17T10:40:10Z</time>
      </trkpt>
      <trkpt lat="43.43894" lon="6.63341">
        <ele>65</ele>
        <time>2023-05-17T10:40:11Z</time>
      </trkpt>
      <trkpt lat="43.43894" lon="6.63341">
        <ele>65</ele>
        <time>2023-05-17T10:40:12Z</time>
      </trkpt>
      <trkpt lat="43.43892" lon="6.6334">
        <ele>65.2</ele>
        <time>2023-05-17T10:40:13Z</time>
      </trkpt>
      <trkpt lat="43.43892" lon="6.6334">
        <ele>65.3</ele>
        <time>2023-05-17T10:40:14Z</time>
      </trkpt>
      <trkpt lat="43.43891" lon="6.6334">
        <ele>65.4</ele>
        <time>2023-05-17T10:40:15Z</time>
      </trkpt>
      <trkpt lat="43.43889" lon="6.63341">
        <ele>65.6</ele>
        <time>2023-05-17T10:40:17Z</time>
      </trkpt>
      <trkpt lat="43.43887" lon="6.63342">
        <ele>65.7</ele>
        <time>2023-05-17T10:40:18Z</time>
      </trkpt>
      <trkpt lat="43.43887" lon="6.63343">
        <ele>65.8</ele>
        <time>2023-05-17T10:40:19Z</time>
      </trkpt>
      <trkpt lat="43.43887" lon="6.63344">
        <ele>65.9</ele>
        <time>2023-05-17T10:40:20Z</time>
      </trkpt>
      <trkpt lat="43.43887" lon="6.63346">
        <ele>66.1</ele>
        <time>2023-05-17T10:40:22Z</time>
      </trkpt>
      <trkpt lat="43.43887" lon="6.63348">
        <ele>66.2</ele>
        <time>2023-05-17T10:40:23Z</time>
      </trkpt>
      <trkpt lat="43.43887" lon="6.63348">
        <ele>66.2</ele>
        <time>2023-05-17T10:40:24Z</time>
      </trkpt>
      <trkpt lat="43.43888" lon="6.63348">
        <ele>66.2</ele>
        <time>2023-05-17T10:40:25Z</time>
      </trkpt>
      <trkpt lat="43.43887" lon="6.63349">
        <ele>66.3</ele>
        <time>2023-05-17T10:40:27Z</time>
      </trkpt>
      <trkpt lat="43.43886" lon="6.63349">
        <ele>66.4</ele>
        <time>2023-05-17T10:40:28Z</time>
      </trkpt>
      <trkpt lat="43.43886" lon="6.6335">
        <ele>66.4</ele>
        <time>2023-05-17T10:40:29Z</time>
      </trkpt>
      <trkpt lat="43.43885" lon="6.6335">
        <ele>66.5</ele>
        <time>2023-05-17T10:40:30Z</time>
      </trkpt>
      <trkpt lat="43.43885" lon="6.63351">
        <ele>66.6</ele>
        <time>2023-05-17T10:40:31Z</time>
      </trkpt>
      <trkpt lat="43.43884" lon="6.63351">
        <ele>66.6</ele>
        <time>2023-05-17T10:40:32Z</time>
      </trkpt>
      <trkpt lat="43.43883" lon="6.6335">
        <ele>66.7</ele>
        <time>2023-05-17T10:40:33Z</time>
      </trkpt>
      <trkpt lat="43.43881" lon="6.6335">
        <ele>66.8</ele>
        <time>2023-05-17T10:40:35Z</time>
      </trkpt>
      <trkpt lat="43.4388" lon="6.63348">
        <ele>66.9</ele>
        <time>2023-05-17T10:40:36Z</time>
      </trkpt>
      <trkpt lat="43.4388" lon="6.63347">
        <ele>67</ele>
        <time>2023-05-17T10:40:37Z</time>
      </trkpt>
      <trkpt lat="43.43878" lon="6.63346">
        <ele>67.1</ele>
        <time>2023-05-17T10:40:39Z</time>
      </trkpt>
      <trkpt lat="43.43877" lon="6.63345">
        <ele>67.2</ele>
        <time>2023-05-17T10:40:40Z</time>
      </trkpt>
      <trkpt lat="43.43875" lon="6.63346">
        <ele>67.3</ele>
        <time>2023-05-17T10:40:41Z</time>
      </trkpt>
      <trkpt lat="43.43875" lon="6.63346">
        <ele>67.3</ele>
        <time>2023-05-17T10:40:42Z</time>
      </trkpt>
      <trkpt lat="43.43875" lon="6.63347">
        <ele>67.4</ele>
        <time>2023-05-17T10:40:43Z</time>
      </trkpt>
      <trkpt lat="43.43875" lon="6.63348">
        <ele>67.4</ele>
        <time>2023-05-17T10:40:44Z</time>
      </trkpt>
      <trkpt lat="43.43874" lon="6.63349">
        <ele>67.5</ele>
        <time>2023-05-17T10:40:45Z</time>
      </trkpt>
      <trkpt lat="43.43874" lon="6.63351">
        <ele>67.6</ele>
        <time>2023-05-17T10:40:47Z</time>
      </trkpt>
      <trkpt lat="43.43873" lon="6.63352">
        <ele>67.6</ele>
        <time>2023-05-17T10:40:48Z</time>
      </trkpt>
      <trkpt lat="43.43873" lon="6.63353">
        <ele>67.7</ele>
        <time>2023-05-17T10:40:49Z</time>
      </trkpt>
      <trkpt lat="43.43872" lon="6.63354">
        <ele>67.7</ele>
        <time>2023-05-17T10:40:50Z</time>
      </trkpt>
      <trkpt lat="43.43871" lon="6.63354">
        <ele>67.8</ele>
        <time>2023-05-17T10:40:51Z</time>
      </trkpt>
      <trkpt lat="43.43871" lon="6.63355">
        <ele>67.8</ele>
        <time>2023-05-17T10:40:52Z</time>
      </trkpt>
      <trkpt lat="43.4387" lon="6.63355">
        <ele>67.9</ele>
        <time>2023-05-17T10:40:53Z</time>
      </trkpt>
      <trkpt lat="43.43869" lon="6.63355">
        <ele>67.9</ele>
        <time>2023-05-17T10:40:54Z</time>
      </trkpt>
      <trkpt lat="43.43868" lon="6.63355">
        <ele>68</ele>
        <time>2023-05-17T10:40:56Z</time>
      </trkpt>
      <trkpt lat="43.43866" lon="6.63355">
        <ele>68.2</ele>
        <time>2023-05-17T10:40:57Z</time>
      </trkpt>
      <trkpt lat="43.43865" lon="6.63355">
        <ele>68.2</ele>
        <time>2023-05-17T10:40:58Z</time>
      </trkpt>
      <trkpt lat="43.43863" lon="6.63355">
        <ele>68.4</ele>
        <time>2023-05-17T10:40:59Z</time>
      </trkpt>
      <trkpt lat="43.43862" lon="6.63354">
        <ele>68.5</ele>
        <time>2023-05-17T10:41:00Z</time>
      </trkpt>
      <trkpt lat="43.43861" lon="6.63354">
        <ele>68.5</ele>
        <time>2023-05-17T10:41:01Z</time>
      </trkpt>
      <trkpt lat="43.4386" lon="6.63354">
        <ele>68.6</ele>
        <time>2023-05-17T10:41:02Z</time>
      </trkpt>
      <trkpt lat="43.43858" lon="6.63355">
        <ele>68.7</ele>
        <time>2023-05-17T10:41:04Z</time>
      </trkpt>
      <trkpt lat="43.43857" lon="6.63355">
        <ele>68.8</ele>
        <time>2023-05-17T10:41:05Z</time>
      </trkpt>
      <trkpt lat="43.43855" lon="6.63354">
        <ele>69</ele>
        <time>2023-05-17T10:41:06Z</time>
      </trkpt>
      <trkpt lat="43.43855" lon="6.63354">
        <ele>69</ele>
        <time>2023-05-17T10:41:07Z</time>
      </trkpt>
      <trkpt lat="43.43854" lon="6.63353">
        <ele>69.1</ele>
        <time>2023-05-17T10:41:08Z</time>
      </trkpt>
      <trkpt lat="43.43853" lon="6.63353">
        <ele>69.2</ele>
        <time>2023-05-17T10:41:09Z</time>
      </trkpt>
      <trkpt lat="43.43852" lon="6.63353">
        <ele>69.3</ele>
        <time>2023-05-17T10:41:10Z</time>
      </trkpt>
      <trkpt lat="43.4385" lon="6.63354">
        <ele>69.4</ele>
        <time>2023-05-17T10:41:11Z</time>
      </trkpt>
      <trkpt lat="43.4385" lon="6.63354">
        <ele>69.5</ele>
        <time>2023-05-17T10:41:13Z</time>
      </trkpt>
      <trkpt lat="43.43849" lon="6.63355">
        <ele>69.5</ele>
        <time>2023-05-17T10:41:14Z</time>
      </trkpt>
      <trkpt lat="43.43849" lon="6.63356">
        <ele>69.6</ele>
        <time>2023-05-17T10:41:15Z</time>
      </trkpt>
      <trkpt lat="43.43848" lon="6.63357">
        <ele>69.8</ele>
        <time>2023-05-17T10:41:16Z</time>
      </trkpt>
      <trkpt lat="43.43847" lon="6.63358">
        <ele>69.8</ele>
        <time>2023-05-17T10:41:17Z</time>
      </trkpt>
      <trkpt lat="43.43847" lon="6.63359">
        <ele>69.9</ele>
        <time>2023-05-17T10:41:18Z</time>
      </trkpt>
      <trkpt lat="43.43847" lon="6.63359">
        <ele>70</ele>
        <time>2023-05-17T10:41:19Z</time>
      </trkpt>
      <trkpt lat="43.43846" lon="6.6336">
        <ele>70</ele>
        <time>2023-05-17T10:41:20Z</time>
      </trkpt>
      <trkpt lat="43.43845" lon="6.63361">
        <ele>70.1</ele>
        <time>2023-05-17T10:41:21Z</time>
      </trkpt>
      <trkpt lat="43.43845" lon="6.63362">
        <ele>70.2</ele>
        <time>2023-05-17T10:41:22Z</time>
      </trkpt>
      <trkpt lat="43.43844" lon="6.63363">
        <ele>70.3</ele>
        <time>2023-05-17T10:41:24Z</time>
      </trkpt>
      <trkpt lat="43.43843" lon="6.63364">
        <ele>70.4</ele>
        <time>2023-05-17T10:41:25Z</time>
      </trkpt>
      <trkpt lat="43.43842" lon="6.63366">
        <ele>70.6</ele>
        <time>2023-05-17T10:41:26Z</time>
      </trkpt>
      <trkpt lat="43.43841" lon="6.63366">
        <ele>70.6</ele>
        <time>2023-05-17T10:41:27Z</time>
      </trkpt>
      <trkpt lat="43.43841" lon="6.63367">
        <ele>70.7</ele>
        <time>2023-05-17T10:41:28Z</time>
      </trkpt>
      <trkpt lat="43.4384" lon="6.63368">
        <ele>70.8</ele>
        <time>2023-05-17T10:41:29Z</time>
      </trkpt>
      <trkpt lat="43.43839" lon="6.63369">
        <ele>70.9</ele>
        <time>2023-05-17T10:41:31Z</time>
      </trkpt>
      <trkpt lat="43.43839" lon="6.6337">
        <ele>71</ele>
        <time>2023-05-17T10:41:32Z</time>
      </trkpt>
      <trkpt lat="43.43838" lon="6.63371">
        <ele>71</ele>
        <time>2023-05-17T10:41:33Z</time>
      </trkpt>
      <trkpt lat="43.43838" lon="6.63372">
        <ele>71.1</ele>
        <time>2023-05-17T10:41:34Z</time>
      </trkpt>
      <trkpt lat="43.43837" lon="6.63372">
        <ele>71.2</ele>
        <time>2023-05-17T10:41:35Z</time>
      </trkpt>
      <trkpt lat="43.43836" lon="6.63372">
        <ele>71.3</ele>
        <time>2023-05-17T10:41:37Z</time>
      </trkpt>
      <trkpt lat="43.43835" lon="6.63372">
        <ele>71.4</ele>
        <time>2023-05-17T10:41:38Z</time>
      </trkpt>
      <trkpt lat="43.43834" lon="6.63373">
        <ele>71.5</ele>
        <time>2023-05-17T10:41:40Z</time>
      </trkpt>
      <trkpt lat="43.43833" lon="6.63374">
        <ele>71.6</ele>
        <time>2023-05-17T10:41:41Z</time>
      </trkpt>
      <trkpt lat="43.43832" lon="6.63375">
        <ele>71.7</ele>
        <time>2023-05-17T10:41:42Z</time>
      </trkpt>
      <trkpt lat="43.43831" lon="6.63375">
        <ele>71.8</ele>
        <time>2023-05-17T10:41:44Z</time>
      </trkpt>
      <trkpt lat="43.4383" lon="6.63376">
        <ele>71.9</ele>
        <time>2023-05-17T10:41:45Z</time>
      </trkpt>
      <trkpt lat="43.43829" lon="6.63377">
        <ele>72.1</ele>
        <time>2023-05-17T10:41:46Z</time>
      </trkpt>
      <trkpt lat="43.43828" lon="6.63377">
        <ele>72.1</ele>
        <time>2023-05-17T10:41:47Z</time>
      </trkpt>
      <trkpt lat="43.43828" lon="6.63377">
        <ele>72.2</ele>
        <time>2023-05-17T10:41:48Z</time>
      </trkpt>
      <trkpt lat="43.43826" lon="6.63377">
        <ele>72.4</ele>
        <time>2023-05-17T10:41:49Z</time>
      </trkpt>
      <trkpt lat="43.43825" lon="6.63377">
        <ele>72.5</ele>
        <time>2023-05-17T10:41:50Z</time>
      </trkpt>
      <trkpt lat="43.43824" lon="6.63377">
        <ele>72.6</ele>
        <time>2023-05-17T10:41:51Z</time>
      </trkpt>
      <trkpt lat="43.43823" lon="6.63377">
        <ele>72.7</ele>
        <time>2023-05-17T10:41:52Z</time>
      </trkpt>
      <trkpt lat="43.43822" lon="6.63377">
        <ele>72.8</ele>
        <time>2023-05-17T10:41:54Z</time>
      </trkpt>
      <trkpt lat="43.43821" lon="6.63377">
        <ele>72.9</ele>
        <time>2023-05-17T10:41:55Z</time>
      </trkpt>
      <trkpt lat="43.4382" lon="6.63377">
        <ele>73</ele>
        <time>2023-05-17T10:41:56Z</time>
      </trkpt>
      <trkpt lat="43.43819" lon="6.63378">
        <ele>73.1</ele>
        <time>2023-05-17T10:41:57Z</time>
      </trkpt>
      <trkpt lat="43.43817" lon="6.63378">
        <ele>73.3</ele>
        <time>2023-05-17T10:41:58Z</time>
      </trkpt>
      <trkpt lat="43.43815" lon="6.63378">
        <ele>73.5</ele>
        <time>2023-05-17T10:41:59Z</time>
      </trkpt>
      <trkpt lat="43.43814" lon="6.63378">
        <ele>73.6</ele>
        <time>2023-05-17T10:42:00Z</time>
      </trkpt>
      <trkpt lat="43.43813" lon="6.63377">
        <ele>73.7</ele>
        <time>2023-05-17T10:42:01Z</time>
      </trkpt>
      <trkpt lat="43.43812" lon="6.63378">
        <ele>73.8</ele>
        <time>2023-05-17T10:42:02Z</time>
      </trkpt>
      <trkpt lat="43.43812" lon="6.63378">
        <ele>73.8</ele>
        <time>2023-05-17T10:42:04Z</time>
      </trkpt>
      <trkpt lat="43.43813" lon="6.63379">
        <ele>73.9</ele>
        <time>2023-05-17T10:42:05Z</time>
      </trkpt>
      <trkpt lat="43.43814" lon="6.63379">
        <ele>74</ele>
        <time>2023-05-17T10:42:06Z</time>
      </trkpt>
      <trkpt lat="43.43814" lon="6.63379">
        <ele>74</ele>
        <time>2023-05-17T10:42:08Z</time>
      </trkpt>
      <trkpt lat="43.43813" lon="6.63379">
        <ele>74.1</ele>
        <time>2023-05-17T10:42:09Z</time>
      </trkpt>
      <trkpt lat="43.43812" lon="6.6338">
        <ele>74.2</ele>
        <time>2023-05-17T10:42:10Z</time>
      </trkpt>
      <trkpt lat="43.43812" lon="6.63381">
        <ele>74.2</ele>
        <time>2023-05-17T10:42:11Z</time>
      </trkpt>
      <trkpt lat="43.43811" lon="6.63381">
        <ele>74.3</ele>
        <time>2023-05-17T10:42:12Z</time>
      </trkpt>
      <trkpt lat="43.43811" lon="6.63381">
        <ele>74.4</ele>
        <time>2023-05-17T10:42:13Z</time>
      </trkpt>
      <trkpt lat="43.43811" lon="6.6338">
        <ele>74.4</ele>
        <time>2023-05-17T10:42:14Z</time>
      </trkpt>
      <trkpt lat="43.43812" lon="6.63379">
        <ele>74.5</ele>
        <time>2023-05-17T10:42:15Z</time>
      </trkpt>
      <trkpt lat="43.43812" lon="6.63378">
        <ele>74.6</ele>
        <time>2023-05-17T10:42:17Z</time>
      </trkpt>
      <trkpt lat="43.43812" lon="6.63378">
        <ele>74.6</ele>
        <time>2023-05-17T10:42:18Z</time>
      </trkpt>
      <trkpt lat="43.43812" lon="6.63377">
        <ele>74.7</ele>
        <time>2023-05-17T10:42:19Z</time>
      </trkpt>
      <trkpt lat="43.43811" lon="6.63377">
        <ele>74.7</ele>
        <time>2023-05-17T10:42:21Z</time>
      </trkpt>
      <trkpt lat="43.4381" lon="6.63375">
        <ele>74.9</ele>
        <time>2023-05-17T10:42:22Z</time>
      </trkpt>
      <trkpt lat="43.43809" lon="6.63373">
        <ele>75</ele>
        <time>2023-05-17T10:42:23Z</time>
      </trkpt>
      <trkpt lat="43.43808" lon="6.63372">
        <ele>75.1</ele>
        <time>2023-05-17T10:42:24Z</time>
      </trkpt>
      <trkpt lat="43.43807" lon="6.6337">
        <ele>75.2</ele>
        <time>2023-05-17T10:42:26Z</time>
      </trkpt>
      <trkpt lat="43.43806" lon="6.63368">
        <ele>75.3</ele>
        <time>2023-05-17T10:42:27Z</time>
      </trkpt>
      <trkpt lat="43.43806" lon="6.63366">
        <ele>75.4</ele>
        <time>2023-05-17T10:42:28Z</time>
      </trkpt>
      <trkpt lat="43.43806" lon="6.63365">
        <ele>75.5</ele>
        <time>2023-05-17T10:42:29Z</time>
      </trkpt>
      <trkpt lat="43.43806" lon="6.63364">
        <ele>75.5</ele>
        <time>2023-05-17T10:42:31Z</time>
      </trkpt>
      <trkpt lat="43.43804" lon="6.63363">
        <ele>75.6</ele>
        <time>2023-05-17T10:42:32Z</time>
      </trkpt>
      <trkpt lat="43.43802" lon="6.63363">
        <ele>75.8</ele>
        <time>2023-05-17T10:42:33Z</time>
      </trkpt>
      <trkpt lat="43.43802" lon="6.63363">
        <ele>75.8</ele>
        <time>2023-05-17T10:42:34Z</time>
      </trkpt>
      <trkpt lat="43.43801" lon="6.63364">
        <ele>75.9</ele>
        <time>2023-05-17T10:42:35Z</time>
      </trkpt>
      <trkpt lat="43.43799" lon="6.63366">
        <ele>76</ele>
        <time>2023-05-17T10:42:36Z</time>
      </trkpt>
      <trkpt lat="43.43799" lon="6.63367">
        <ele>76.1</ele>
        <time>2023-05-17T10:42:37Z</time>
      </trkpt>
      <trkpt lat="43.43798" lon="6.63371">
        <ele>76.3</ele>
        <time>2023-05-17T10:42:38Z</time>
      </trkpt>
      <trkpt lat="43.43798" lon="6.63373">
        <ele>76.3</ele>
        <time>2023-05-17T10:42:40Z</time>
      </trkpt>
      <trkpt lat="43.43798" lon="6.63375">
        <ele>76.4</ele>
        <time>2023-05-17T10:42:41Z</time>
      </trkpt>
      <trkpt lat="43.43799" lon="6.63377">
        <ele>76.5</ele>
        <time>2023-05-17T10:42:42Z</time>
      </trkpt>
      <trkpt lat="43.43799" lon="6.63379">
        <ele>76.6</ele>
        <time>2023-05-17T10:42:43Z</time>
      </trkpt>
      <trkpt lat="43.43799" lon="6.63381">
        <ele>76.7</ele>
        <time>2023-05-17T10:42:44Z</time>
      </trkpt>
      <trkpt lat="43.438" lon="6.63383">
        <ele>76.7</ele>
        <time>2023-05-17T10:42:45Z</time>
      </trkpt>
      <trkpt lat="43.43801" lon="6.63385">
        <ele>76.8</ele>
        <time>2023-05-17T10:42:46Z</time>
      </trkpt>
      <trkpt lat="43.43801" lon="6.63387">
        <ele>76.9</ele>
        <time>2023-05-17T10:42:47Z</time>
      </trkpt>
      <trkpt lat="43.43801" lon="6.63388">
        <ele>76.9</ele>
        <time>2023-05-17T10:42:49Z</time>
      </trkpt>
      <trkpt lat="43.43801" lon="6.63389">
        <ele>76.9</ele>
        <time>2023-05-17T10:42:50Z</time>
      </trkpt>
      <trkpt lat="43.43801" lon="6.63389">
        <ele>77</ele>
        <time>2023-05-17T10:42:51Z</time>
      </trkpt>
      <trkpt lat="43.43801" lon="6.6339">
        <ele>77</ele>
        <time>2023-05-17T10:42:52Z</time>
      </trkpt>
      <trkpt lat="43.43802" lon="6.63391">
        <ele>77</ele>
        <time>2023-05-17T10:42:53Z</time>
      </trkpt>
      <trkpt lat="43.43802" lon="6.63392">
        <ele>77</ele>
        <time>2023-05-17T10:42:54Z</time>
      </trkpt>
      <trkpt lat="43.43803" lon="6.63394">
        <ele>77.1</ele>
        <time>2023-05-17T10:42:55Z</time>
      </trkpt>
      <trkpt lat="43.43803" lon="6.63395">
        <ele>77.1</ele>
        <time>2023-05-17T10:42:56Z</time>
      </trkpt>
      <trkpt lat="43.43803" lon="6.63396">
        <ele>77.1</ele>
        <time>2023-05-17T10:42:57Z</time>
      </trkpt>
      <trkpt lat="43.43803" lon="6.63397">
        <ele>77.2</ele>
        <time>2023-05-17T10:42:59Z</time>
      </trkpt>
      <trkpt lat="43.43803" lon="6.63398">
        <ele>77.2</ele>
        <time>2023-05-17T10:43:00Z</time>
      </trkpt>
      <trkpt lat="43.43803" lon="6.63399">
        <ele>77.2</ele>
        <time>2023-05-17T10:43:01Z</time>
      </trkpt>
      <trkpt lat="43.43804" lon="6.634">
        <ele>77.3</ele>
        <time>2023-05-17T10:43:02Z</time>
      </trkpt>
      <trkpt lat="43.43804" lon="6.63402">
        <ele>77.3</ele>
        <time>2023-05-17T10:43:03Z</time>
      </trkpt>
      <trkpt lat="43.43805" lon="6.63404">
        <ele>77.4</ele>
        <time>2023-05-17T10:43:04Z</time>
      </trkpt>
      <trkpt lat="43.43805" lon="6.63406">
        <ele>77.4</ele>
        <time>2023-05-17T10:43:05Z</time>
      </trkpt>
      <trkpt lat="43.43805" lon="6.63409">
        <ele>77.5</ele>
        <time>2023-05-17T10:43:06Z</time>
      </trkpt>
      <trkpt lat="43.43805" lon="6.63409">
        <ele>77.5</ele>
        <time>2023-05-17T10:43:08Z</time>
      </trkpt>
      <trkpt lat="43.43805" lon="6.6341">
        <ele>77.5</ele>
        <time>2023-05-17T10:43:09Z</time>
      </trkpt>
      <trkpt lat="43.43805" lon="6.63411">
        <ele>77.6</ele>
        <time>2023-05-17T10:43:10Z</time>
      </trkpt>
      <trkpt lat="43.43805" lon="6.63412">
        <ele>77.6</ele>
        <time>2023-05-17T10:43:12Z</time>
      </trkpt>
      <trkpt lat="43.43805" lon="6.63413">
        <ele>77.6</ele>
        <time>2023-05-17T10:43:13Z</time>
      </trkpt>
      <trkpt lat="43.43805" lon="6.63414">
        <ele>77.6</ele>
        <time>2023-05-17T10:43:14Z</time>
      </trkpt>
      <trkpt lat="43.43804" lon="6.63415">
        <ele>77.7</ele>
        <time>2023-05-17T10:43:16Z</time>
      </trkpt>
      <trkpt lat="43.43804" lon="6.63416">
        <ele>77.7</ele>
        <time>2023-05-17T10:43:17Z</time>
      </trkpt>
      <trkpt lat="43.43803" lon="6.63417">
        <ele>77.7</ele>
        <time>2023-05-17T10:43:18Z</time>
      </trkpt>
      <trkpt lat="43.43803" lon="6.63418">
        <ele>77.8</ele>
        <time>2023-05-17T10:43:19Z</time>
      </trkpt>
      <trkpt lat="43.43803" lon="6.63419">
        <ele>77.8</ele>
        <time>2023-05-17T10:43:20Z</time>
      </trkpt>
      <trkpt lat="43.43803" lon="6.63421">
        <ele>77.9</ele>
        <time>2023-05-17T10:43:21Z</time>
      </trkpt>
      <trkpt lat="43.43802" lon="6.63422">
        <ele>77.9</ele>
        <time>2023-05-17T10:43:22Z</time>
      </trkpt>
      <trkpt lat="43.43802" lon="6.63424">
        <ele>78</ele>
        <time>2023-05-17T10:43:23Z</time>
      </trkpt>
      <trkpt lat="43.43802" lon="6.63425">
        <ele>78</ele>
        <time>2023-05-17T10:43:25Z</time>
      </trkpt>
      <trkpt lat="43.43801" lon="6.63427">
        <ele>78.1</ele>
        <time>2023-05-17T10:43:26Z</time>
      </trkpt>
      <trkpt lat="43.43801" lon="6.63429">
        <ele>78.2</ele>
        <time>2023-05-17T10:43:27Z</time>
      </trkpt>
      <trkpt lat="43.43801" lon="6.63431">
        <ele>78.3</ele>
        <time>2023-05-17T10:43:28Z</time>
      </trkpt>
      <trkpt lat="43.43801" lon="6.63433">
        <ele>78.4</ele>
        <time>2023-05-17T10:43:29Z</time>
      </trkpt>
      <trkpt lat="43.438" lon="6.63437">
        <ele>78.5</ele>
        <time>2023-05-17T10:43:30Z</time>
      </trkpt>
      <trkpt lat="43.438" lon="6.63438">
        <ele>78.6</ele>
        <time>2023-05-17T10:43:31Z</time>
      </trkpt>
      <trkpt lat="43.43799" lon="6.63439">
        <ele>78.7</ele>
        <time>2023-05-17T10:43:32Z</time>
      </trkpt>
      <trkpt lat="43.43799" lon="6.63441">
        <ele>78.8</ele>
        <time>2023-05-17T10:43:33Z</time>
      </trkpt>
      <trkpt lat="43.43799" lon="6.63443">
        <ele>78.9</ele>
        <time>2023-05-17T10:43:34Z</time>
      </trkpt>
      <trkpt lat="43.43799" lon="6.63446">
        <ele>79</ele>
        <time>2023-05-17T10:43:36Z</time>
      </trkpt>
      <trkpt lat="43.43799" lon="6.63448">
        <ele>79.1</ele>
        <time>2023-05-17T10:43:37Z</time>
      </trkpt>
      <trkpt lat="43.43799" lon="6.63451">
        <ele>79.3</ele>
        <time>2023-05-17T10:43:38Z</time>
      </trkpt>
      <trkpt lat="43.43799" lon="6.63452">
        <ele>79.3</ele>
        <time>2023-05-17T10:43:39Z</time>
      </trkpt>
      <trkpt lat="43.43798" lon="6.63454">
        <ele>79.4</ele>
        <time>2023-05-17T10:43:40Z</time>
      </trkpt>
      <trkpt lat="43.43799" lon="6.63457">
        <ele>79.6</ele>
        <time>2023-05-17T10:43:41Z</time>
      </trkpt>
      <trkpt lat="43.43799" lon="6.63458">
        <ele>79.6</ele>
        <time>2023-05-17T10:43:43Z</time>
      </trkpt>
      <trkpt lat="43.43799" lon="6.6346">
        <ele>79.7</ele>
        <time>2023-05-17T10:43:44Z</time>
      </trkpt>
      <trkpt lat="43.438" lon="6.63462">
        <ele>79.8</ele>
        <time>2023-05-17T10:43:45Z</time>
      </trkpt>
      <trkpt lat="43.438" lon="6.63463">
        <ele>79.8</ele>
        <time>2023-05-17T10:43:46Z</time>
      </trkpt>
      <trkpt lat="43.438" lon="6.63464">
        <ele>79.9</ele>
        <time>2023-05-17T10:43:47Z</time>
      </trkpt>
      <trkpt lat="43.43801" lon="6.63465">
        <ele>80</ele>
        <time>2023-05-17T10:43:48Z</time>
      </trkpt>
      <trkpt lat="43.43801" lon="6.63467">
        <ele>80</ele>
        <time>2023-05-17T10:43:49Z</time>
      </trkpt>
      <trkpt lat="43.43801" lon="6.63468">
        <ele>80.1</ele>
        <time>2023-05-17T10:43:50Z</time>
      </trkpt>
      <trkpt lat="43.43801" lon="6.63469">
        <ele>80.1</ele>
        <time>2023-05-17T10:43:51Z</time>
      </trkpt>
      <trkpt lat="43.43801" lon="6.6347">
        <ele>80.1</ele>
        <time>2023-05-17T10:43:53Z</time>
      </trkpt>
      <trkpt lat="43.43801" lon="6.63471">
        <ele>80.2</ele>
        <time>2023-05-17T10:43:54Z</time>
      </trkpt>
      <trkpt lat="43.43801" lon="6.63472">
        <ele>80.2</ele>
        <time>2023-05-17T10:43:55Z</time>
      </trkpt>
      <trkpt lat="43.438" lon="6.63474">
        <ele>80.3</ele>
        <time>2023-05-17T10:43:57Z</time>
      </trkpt>
      <trkpt lat="43.438" lon="6.63475">
        <ele>80.3</ele>
        <time>2023-05-17T10:43:58Z</time>
      </trkpt>
      <trkpt lat="43.438" lon="6.63476">
        <ele>80.4</ele>
        <time>2023-05-17T10:43:59Z</time>
      </trkpt>
      <trkpt lat="43.43799" lon="6.63477">
        <ele>80.5</ele>
        <time>2023-05-17T10:44:00Z</time>
      </trkpt>
      <trkpt lat="43.43799" lon="6.63479">
        <ele>80.5</ele>
        <time>2023-05-17T10:44:01Z</time>
      </trkpt>
      <trkpt lat="43.43799" lon="6.6348">
        <ele>80.6</ele>
        <time>2023-05-17T10:44:02Z</time>
      </trkpt>
      <trkpt lat="43.43799" lon="6.63481">
        <ele>80.6</ele>
        <time>2023-05-17T10:44:03Z</time>
      </trkpt>
      <trkpt lat="43.43799" lon="6.63482">
        <ele>80.6</ele>
        <time>2023-05-17T10:44:04Z</time>
      </trkpt>
      <trkpt lat="43.43799" lon="6.63483">
        <ele>80.7</ele>
        <time>2023-05-17T10:44:06Z</time>
      </trkpt>
      <trkpt lat="43.43799" lon="6.63485">
        <ele>80.7</ele>
        <time>2023-05-17T10:44:07Z</time>
      </trkpt>
      <trkpt lat="43.43798" lon="6.63486">
        <ele>80.8</ele>
        <time>2023-05-17T10:44:08Z</time>
      </trkpt>
      <trkpt lat="43.43798" lon="6.63487">
        <ele>80.8</ele>
        <time>2023-05-17T10:44:09Z</time>
      </trkpt>
      <trkpt lat="43.43798" lon="6.63488">
        <ele>80.8</ele>
        <time>2023-05-17T10:44:11Z</time>
      </trkpt>
      <trkpt lat="43.43798" lon="6.6349">
        <ele>80.9</ele>
        <time>2023-05-17T10:44:12Z</time>
      </trkpt>
      <trkpt lat="43.43797" lon="6.63492">
        <ele>80.9</ele>
        <time>2023-05-17T10:44:13Z</time>
      </trkpt>
      <trkpt lat="43.43797" lon="6.63493">
        <ele>81</ele>
        <time>2023-05-17T10:44:14Z</time>
      </trkpt>
      <trkpt lat="43.43797" lon="6.63494">
        <ele>81</ele>
        <time>2023-05-17T10:44:15Z</time>
      </trkpt>
      <trkpt lat="43.43796" lon="6.63494">
        <ele>81</ele>
        <time>2023-05-17T10:44:16Z</time>
      </trkpt>
      <trkpt lat="43.43795" lon="6.63496">
        <ele>81.1</ele>
        <time>2023-05-17T10:44:17Z</time>
      </trkpt>
      <trkpt lat="43.43795" lon="6.63497">
        <ele>81.1</ele>
        <time>2023-05-17T10:44:18Z</time>
      </trkpt>
      <trkpt lat="43.43794" lon="6.63498">
        <ele>81.2</ele>
        <time>2023-05-17T10:44:19Z</time>
      </trkpt>
      <trkpt lat="43.43793" lon="6.63498">
        <ele>81.2</ele>
        <time>2023-05-17T10:44:20Z</time>
      </trkpt>
      <trkpt lat="43.43791" lon="6.635">
        <ele>81.3</ele>
        <time>2023-05-17T10:44:22Z</time>
      </trkpt>
      <trkpt lat="43.4379" lon="6.63501">
        <ele>81.3</ele>
        <time>2023-05-17T10:44:23Z</time>
      </trkpt>
      <trkpt lat="43.43789" lon="6.63502">
        <ele>81.4</ele>
        <time>2023-05-17T10:44:24Z</time>
      </trkpt>
      <trkpt lat="43.43788" lon="6.63503">
        <ele>81.4</ele>
        <time>2023-05-17T10:44:25Z</time>
      </trkpt>
      <trkpt lat="43.43788" lon="6.63504">
        <ele>81.4</ele>
        <time>2023-05-17T10:44:26Z</time>
      </trkpt>
      <trkpt lat="43.43788" lon="6.63506">
        <ele>81.5</ele>
        <time>2023-05-17T10:44:27Z</time>
      </trkpt>
      <trkpt lat="43.43788" lon="6.63507">
        <ele>81.6</ele>
        <time>2023-05-17T10:44:28Z</time>
      </trkpt>
      <trkpt lat="43.4379" lon="6.63509">
        <ele>81.6</ele>
        <time>2023-05-17T10:44:30Z</time>
      </trkpt>
      <trkpt lat="43.4379" lon="6.63509">
        <ele>81.6</ele>
        <time>2023-05-17T10:44:31Z</time>
      </trkpt>
      <trkpt lat="43.43792" lon="6.63509">
        <ele>81.7</ele>
        <time>2023-05-17T10:44:32Z</time>
      </trkpt>
      <trkpt lat="43.43791" lon="6.63508">
        <ele>81.7</ele>
        <time>2023-05-17T10:44:34Z</time>
      </trkpt>
      <trkpt lat="43.43791" lon="6.63508">
        <ele>81.7</ele>
        <time>2023-05-17T10:44:35Z</time>
      </trkpt>
      <trkpt lat="43.43791" lon="6.63508">
        <ele>81.8</ele>
        <time>2023-05-17T10:44:36Z</time>
      </trkpt>
      <trkpt lat="43.43791" lon="6.63507">
        <ele>81.8</ele>
        <time>2023-05-17T10:44:37Z</time>
      </trkpt>
      <trkpt lat="43.43791" lon="6.63508">
        <ele>81.8</ele>
        <time>2023-05-17T10:44:39Z</time>
      </trkpt>
      <trkpt lat="43.4379" lon="6.63508">
        <ele>81.8</ele>
        <time>2023-05-17T10:44:40Z</time>
      </trkpt>
      <trkpt lat="43.43789" lon="6.6351">
        <ele>81.9</ele>
        <time>2023-05-17T10:44:41Z</time>
      </trkpt>
      <trkpt lat="43.43788" lon="6.63512">
        <ele>82</ele>
        <time>2023-05-17T10:44:42Z</time>
      </trkpt>
      <trkpt lat="43.43787" lon="6.63514">
        <ele>82</ele>
        <time>2023-05-17T10:44:43Z</time>
      </trkpt>
      <trkpt lat="43.43787" lon="6.63515">
        <ele>82.1</ele>
        <time>2023-05-17T10:44:44Z</time>
      </trkpt>
      <trkpt lat="43.43786" lon="6.63516">
        <ele>82.2</ele>
        <time>2023-05-17T10:44:45Z</time>
      </trkpt>
      <trkpt lat="43.43785" lon="6.63517">
        <ele>82.2</ele>
        <time>2023-05-17T10:44:46Z</time>
      </trkpt>
      <trkpt lat="43.43784" lon="6.63518">
        <ele>82.3</ele>
        <time>2023-05-17T10:44:47Z</time>
      </trkpt>
      <trkpt lat="43.43783" lon="6.63519">
        <ele>82.4</ele>
        <time>2023-05-17T10:44:48Z</time>
      </trkpt>
      <trkpt lat="43.43782" lon="6.6352">
        <ele>82.4</ele>
        <time>2023-05-17T10:44:50Z</time>
      </trkpt>
      <trkpt lat="43.43781" lon="6.63521">
        <ele>82.5</ele>
        <time>2023-05-17T10:44:51Z</time>
      </trkpt>
      <trkpt lat="43.4378" lon="6.63522">
        <ele>82.6</ele>
        <time>2023-05-17T10:44:52Z</time>
      </trkpt>
      <trkpt lat="43.43779" lon="6.63523">
        <ele>82.6</ele>
        <time>2023-05-17T10:44:53Z</time>
      </trkpt>
      <trkpt lat="43.43779" lon="6.63523">
        <ele>82.7</ele>
        <time>2023-05-17T10:44:54Z</time>
      </trkpt>
      <trkpt lat="43.43778" lon="6.63524">
        <ele>82.7</ele>
        <time>2023-05-17T10:44:55Z</time>
      </trkpt>
      <trkpt lat="43.43777" lon="6.63524">
        <ele>82.8</ele>
        <time>2023-05-17T10:44:56Z</time>
      </trkpt>
      <trkpt lat="43.43775" lon="6.63525">
        <ele>82.8</ele>
        <time>2023-05-17T10:44:57Z</time>
      </trkpt>
      <trkpt lat="43.43775" lon="6.63525">
        <ele>82.9</ele>
        <time>2023-05-17T10:44:58Z</time>
      </trkpt>
      <trkpt lat="43.43774" lon="6.63526">
        <ele>82.9</ele>
        <time>2023-05-17T10:45:00Z</time>
      </trkpt>
      <trkpt lat="43.43773" lon="6.63527">
        <ele>83</ele>
        <time>2023-05-17T10:45:01Z</time>
      </trkpt>
      <trkpt lat="43.43772" lon="6.63528">
        <ele>83.1</ele>
        <time>2023-05-17T10:45:02Z</time>
      </trkpt>
      <trkpt lat="43.43771" lon="6.63529">
        <ele>83.1</ele>
        <time>2023-05-17T10:45:03Z</time>
      </trkpt>
      <trkpt lat="43.4377" lon="6.6353">
        <ele>83.2</ele>
        <time>2023-05-17T10:45:04Z</time>
      </trkpt>
      <trkpt lat="43.4377" lon="6.63531">
        <ele>83.2</ele>
        <time>2023-05-17T10:45:05Z</time>
      </trkpt>
      <trkpt lat="43.43769" lon="6.63532">
        <ele>83.2</ele>
        <time>2023-05-17T10:45:06Z</time>
      </trkpt>
      <trkpt lat="43.43768" lon="6.63532">
        <ele>83.2</ele>
        <time>2023-05-17T10:45:07Z</time>
      </trkpt>
      <trkpt lat="43.43768" lon="6.63533">
        <ele>83.3</ele>
        <time>2023-05-17T10:45:09Z</time>
      </trkpt>
      <trkpt lat="43.43767" lon="6.63533">
        <ele>83.3</ele>
        <time>2023-05-17T10:45:10Z</time>
      </trkpt>
      <trkpt lat="43.43766" lon="6.63534">
        <ele>83.3</ele>
        <time>2023-05-17T10:45:11Z</time>
      </trkpt>
      <trkpt lat="43.43765" lon="6.63535">
        <ele>83.3</ele>
        <time>2023-05-17T10:45:12Z</time>
      </trkpt>
      <trkpt lat="43.43765" lon="6.63535">
        <ele>83.4</ele>
        <time>2023-05-17T10:45:13Z</time>
      </trkpt>
      <trkpt lat="43.43764" lon="6.63536">
        <ele>83.4</ele>
        <time>2023-05-17T10:45:14Z</time>
      </trkpt>
      <trkpt lat="43.43763" lon="6.63536">
        <ele>83.4</ele>
        <time>2023-05-17T10:45:15Z</time>
      </trkpt>
      <trkpt lat="43.43761" lon="6.63537">
        <ele>83.4</ele>
        <time>2023-05-17T10:45:16Z</time>
      </trkpt>
      <trkpt lat="43.43761" lon="6.63536">
        <ele>83.4</ele>
        <time>2023-05-17T10:45:18Z</time>
      </trkpt>
      <trkpt lat="43.43759" lon="6.63536">
        <ele>83.4</ele>
        <time>2023-05-17T10:45:19Z</time>
      </trkpt>
      <trkpt lat="43.43759" lon="6.63536">
        <ele>83.4</ele>
        <time>2023-05-17T10:45:20Z</time>
      </trkpt>
      <trkpt lat="43.43758" lon="6.63536">
        <ele>83.4</ele>
        <time>2023-05-17T10:45:21Z</time>
      </trkpt>
      <trkpt lat="43.43756" lon="6.63536">
        <ele>83.4</ele>
        <time>2023-05-17T10:45:22Z</time>
      </trkpt>
      <trkpt lat="43.43756" lon="6.63536">
        <ele>83.5</ele>
        <time>2023-05-17T10:45:23Z</time>
      </trkpt>
      <trkpt lat="43.43755" lon="6.63536">
        <ele>83.5</ele>
        <time>2023-05-17T10:45:25Z</time>
      </trkpt>
      <trkpt lat="43.43754" lon="6.63536">
        <ele>83.5</ele>
        <time>2023-05-17T10:45:26Z</time>
      </trkpt>
      <trkpt lat="43.43752" lon="6.63536">
        <ele>83.5</ele>
        <time>2023-05-17T10:45:27Z</time>
      </trkpt>
      <trkpt lat="43.43751" lon="6.63536">
        <ele>83.5</ele>
        <time>2023-05-17T10:45:28Z</time>
      </trkpt>
      <trkpt lat="43.4375" lon="6.63536">
        <ele>83.5</ele>
        <time>2023-05-17T10:45:29Z</time>
      </trkpt>
      <trkpt lat="43.43749" lon="6.63535">
        <ele>83.5</ele>
        <time>2023-05-17T10:45:30Z</time>
      </trkpt>
      <trkpt lat="43.43748" lon="6.63535">
        <ele>83.5</ele>
        <time>2023-05-17T10:45:31Z</time>
      </trkpt>
      <trkpt lat="43.43747" lon="6.63535">
        <ele>83.5</ele>
        <time>2023-05-17T10:45:32Z</time>
      </trkpt>
      <trkpt lat="43.43746" lon="6.63534">
        <ele>83.5</ele>
        <time>2023-05-17T10:45:33Z</time>
      </trkpt>
      <trkpt lat="43.43745" lon="6.63534">
        <ele>83.5</ele>
        <time>2023-05-17T10:45:34Z</time>
      </trkpt>
      <trkpt lat="43.43744" lon="6.63533">
        <ele>83.5</ele>
        <time>2023-05-17T10:45:36Z</time>
      </trkpt>
      <trkpt lat="43.43742" lon="6.63533">
        <ele>83.5</ele>
        <time>2023-05-17T10:45:37Z</time>
      </trkpt>
      <trkpt lat="43.43742" lon="6.63534">
        <ele>83.6</ele>
        <time>2023-05-17T10:45:38Z</time>
      </trkpt>
      <trkpt lat="43.43741" lon="6.63534">
        <ele>83.6</ele>
        <time>2023-05-17T10:45:39Z</time>
      </trkpt>
      <trkpt lat="43.43739" lon="6.63537">
        <ele>83.6</ele>
        <time>2023-05-17T10:45:40Z</time>
      </trkpt>
      <trkpt lat="43.43739" lon="6.63538">
        <ele>83.6</ele>
        <time>2023-05-17T10:45:41Z</time>
      </trkpt>
      <trkpt lat="43.43738" lon="6.63539">
        <ele>83.6</ele>
        <time>2023-05-17T10:45:42Z</time>
      </trkpt>
      <trkpt lat="43.43738" lon="6.6354">
        <ele>83.7</ele>
        <time>2023-05-17T10:45:43Z</time>
      </trkpt>
      <trkpt lat="43.43737" lon="6.63542">
        <ele>83.7</ele>
        <time>2023-05-17T10:45:44Z</time>
      </trkpt>
      <trkpt lat="43.43737" lon="6.63543">
        <ele>83.7</ele>
        <time>2023-05-17T10:45:45Z</time>
      </trkpt>
      <trkpt lat="43.43736" lon="6.63545">
        <ele>83.7</ele>
        <time>2023-05-17T10:45:46Z</time>
      </trkpt>
      <trkpt lat="43.43736" lon="6.63547">
        <ele>83.8</ele>
        <time>2023-05-17T10:45:47Z</time>
      </trkpt>
      <trkpt lat="43.43736" lon="6.63549">
        <ele>83.8</ele>
        <time>2023-05-17T10:45:48Z</time>
      </trkpt>
      <trkpt lat="43.43735" lon="6.6355">
        <ele>83.8</ele>
        <time>2023-05-17T10:45:49Z</time>
      </trkpt>
      <trkpt lat="43.43735" lon="6.63552">
        <ele>83.9</ele>
        <time>2023-05-17T10:45:51Z</time>
      </trkpt>
      <trkpt lat="43.43735" lon="6.63554">
        <ele>83.9</ele>
        <time>2023-05-17T10:45:52Z</time>
      </trkpt>
      <trkpt lat="43.43735" lon="6.63556">
        <ele>83.9</ele>
        <time>2023-05-17T10:45:53Z</time>
      </trkpt>
      <trkpt lat="43.43735" lon="6.63557">
        <ele>83.9</ele>
        <time>2023-05-17T10:45:54Z</time>
      </trkpt>
      <trkpt lat="43.43736" lon="6.63558">
        <ele>84</ele>
        <time>2023-05-17T10:45:55Z</time>
      </trkpt>
      <trkpt lat="43.43736" lon="6.6356">
        <ele>84</ele>
        <time>2023-05-17T10:45:56Z</time>
      </trkpt>
      <trkpt lat="43.43735" lon="6.63563">
        <ele>84</ele>
        <time>2023-05-17T10:45:58Z</time>
      </trkpt>
      <trkpt lat="43.43735" lon="6.63564">
        <ele>84</ele>
        <time>2023-05-17T10:45:59Z</time>
      </trkpt>
      <trkpt lat="43.43735" lon="6.63565">
        <ele>84</ele>
        <time>2023-05-17T10:46:00Z</time>
      </trkpt>
      <trkpt lat="43.43734" lon="6.63567">
        <ele>84.1</ele>
        <time>2023-05-17T10:46:01Z</time>
      </trkpt>
      <trkpt lat="43.43733" lon="6.63569">
        <ele>84.1</ele>
        <time>2023-05-17T10:46:02Z</time>
      </trkpt>
      <trkpt lat="43.43733" lon="6.6357">
        <ele>84.1</ele>
        <time>2023-05-17T10:46:03Z</time>
      </trkpt>
      <trkpt lat="43.43733" lon="6.63571">
        <ele>84.1</ele>
        <time>2023-05-17T10:46:04Z</time>
      </trkpt>
      <trkpt lat="43.43732" lon="6.63573">
        <ele>84.1</ele>
        <time>2023-05-17T10:46:05Z</time>
      </trkpt>
      <trkpt lat="43.43732" lon="6.63574">
        <ele>84.1</ele>
        <time>2023-05-17T10:46:06Z</time>
      </trkpt>
      <trkpt lat="43.43731" lon="6.63576">
        <ele>84.1</ele>
        <time>2023-05-17T10:46:08Z</time>
      </trkpt>
      <trkpt lat="43.43731" lon="6.63577">
        <ele>84.1</ele>
        <time>2023-05-17T10:46:09Z</time>
      </trkpt>
      <trkpt lat="43.43729" lon="6.63579">
        <ele>84.2</ele>
        <time>2023-05-17T10:46:10Z</time>
      </trkpt>
      <trkpt lat="43.43729" lon="6.6358">
        <ele>84.2</ele>
        <time>2023-05-17T10:46:11Z</time>
      </trkpt>
      <trkpt lat="43.43729" lon="6.63582">
        <ele>84.2</ele>
        <time>2023-05-17T10:46:12Z</time>
      </trkpt>
      <trkpt lat="43.43728" lon="6.63584">
        <ele>84.2</ele>
        <time>2023-05-17T10:46:13Z</time>
      </trkpt>
      <trkpt lat="43.43728" lon="6.63585">
        <ele>84.2</ele>
        <time>2023-05-17T10:46:14Z</time>
      </trkpt>
      <trkpt lat="43.43729" lon="6.63586">
        <ele>84.2</ele>
        <time>2023-05-17T10:46:16Z</time>
      </trkpt>
      <trkpt lat="43.43729" lon="6.63587">
        <ele>84.2</ele>
        <time>2023-05-17T10:46:17Z</time>
      </trkpt>
      <trkpt lat="43.43729" lon="6.63587">
        <ele>84.2</ele>
        <time>2023-05-17T10:46:18Z</time>
      </trkpt>
      <trkpt lat="43.43729" lon="6.63586">
        <ele>84.2</ele>
        <time>2023-05-17T10:46:19Z</time>
      </trkpt>
      <trkpt lat="43.43729" lon="6.63586">
        <ele>84.2</ele>
        <time>2023-05-17T10:46:21Z</time>
      </trkpt>
      <trkpt lat="43.43729" lon="6.63586">
        <ele>84.2</ele>
        <time>2023-05-17T10:46:22Z</time>
      </trkpt>
      <trkpt lat="43.43729" lon="6.63586">
        <ele>84.2</ele>
        <time>2023-05-17T10:46:23Z</time>
      </trkpt>
      <trkpt lat="43.43729" lon="6.63586">
        <ele>84.2</ele>
        <time>2023-05-17T10:46:24Z</time>
      </trkpt>
      <trkpt lat="43.43728" lon="6.63586">
        <ele>84.2</ele>
        <time>2023-05-17T10:46:26Z</time>
      </trkpt>
      <trkpt lat="43.43727" lon="6.63588">
        <ele>84.1</ele>
        <time>2023-05-17T10:46:27Z</time>
      </trkpt>
      <trkpt lat="43.43726" lon="6.63589">
        <ele>84.1</ele>
        <time>2023-05-17T10:46:28Z</time>
      </trkpt>
      <trkpt lat="43.43726" lon="6.63591">
        <ele>84.1</ele>
        <time>2023-05-17T10:46:29Z</time>
      </trkpt>
      <trkpt lat="43.43725" lon="6.63591">
        <ele>84.1</ele>
        <time>2023-05-17T10:46:31Z</time>
      </trkpt>
      <trkpt lat="43.43725" lon="6.63592">
        <ele>84.1</ele>
        <time>2023-05-17T10:46:32Z</time>
      </trkpt>
      <trkpt lat="43.43725" lon="6.63592">
        <ele>84.1</ele>
        <time>2023-05-17T10:46:33Z</time>
      </trkpt>
      <trkpt lat="43.43725" lon="6.63592">
        <ele>84.1</ele>
        <time>2023-05-17T10:46:35Z</time>
      </trkpt>
      <trkpt lat="43.43725" lon="6.63593">
        <ele>84.1</ele>
        <time>2023-05-17T10:46:36Z</time>
      </trkpt>
      <trkpt lat="43.43724" lon="6.63593">
        <ele>84.1</ele>
        <time>2023-05-17T10:46:41Z</time>
      </trkpt>
      <trkpt lat="43.43724" lon="6.63593">
        <ele>84.1</ele>
        <time>2023-05-17T10:46:42Z</time>
      </trkpt>
      <trkpt lat="43.43724" lon="6.63594">
        <ele>84.1</ele>
        <time>2023-05-17T10:46:44Z</time>
      </trkpt>
      <trkpt lat="43.43724" lon="6.63594">
        <ele>84.1</ele>
        <time>2023-05-17T10:46:45Z</time>
      </trkpt>
      <trkpt lat="43.43724" lon="6.63595">
        <ele>84.1</ele>
        <time>2023-05-17T10:46:46Z</time>
      </trkpt>
      <trkpt lat="43.43723" lon="6.63595">
        <ele>84.1</ele>
        <time>2023-05-17T10:46:48Z</time>
      </trkpt>
      <trkpt lat="43.43723" lon="6.63595">
        <ele>84.1</ele>
        <time>2023-05-17T10:46:49Z</time>
      </trkpt>
      <trkpt lat="43.43723" lon="6.63596">
        <ele>84.1</ele>
        <time>2023-05-17T10:46:50Z</time>
      </trkpt>
      <trkpt lat="43.43723" lon="6.63596">
        <ele>84.1</ele>
        <time>2023-05-17T10:46:52Z</time>
      </trkpt>
      <trkpt lat="43.43723" lon="6.63596">
        <ele>84.1</ele>
        <time>2023-05-17T10:46:53Z</time>
      </trkpt>
      <trkpt lat="43.43723" lon="6.63597">
        <ele>84.1</ele>
        <time>2023-05-17T10:46:54Z</time>
      </trkpt>
      <trkpt lat="43.4372" lon="6.63599">
        <ele>84</ele>
        <time>2023-05-17T10:46:55Z</time>
      </trkpt>
      <trkpt lat="43.4372" lon="6.636">
        <ele>84</ele>
        <time>2023-05-17T10:46:56Z</time>
      </trkpt>
      <trkpt lat="43.43719" lon="6.63602">
        <ele>84</ele>
        <time>2023-05-17T10:46:57Z</time>
      </trkpt>
      <trkpt lat="43.43719" lon="6.63603">
        <ele>84</ele>
        <time>2023-05-17T10:46:58Z</time>
      </trkpt>
      <trkpt lat="43.43718" lon="6.63605">
        <ele>84</ele>
        <time>2023-05-17T10:46:59Z</time>
      </trkpt>
      <trkpt lat="43.43717" lon="6.63606">
        <ele>84</ele>
        <time>2023-05-17T10:47:01Z</time>
      </trkpt>
      <trkpt lat="43.43716" lon="6.63607">
        <ele>84</ele>
        <time>2023-05-17T10:47:02Z</time>
      </trkpt>
      <trkpt lat="43.43715" lon="6.63609">
        <ele>84</ele>
        <time>2023-05-17T10:47:03Z</time>
      </trkpt>
      <trkpt lat="43.43714" lon="6.63609">
        <ele>84</ele>
        <time>2023-05-17T10:47:04Z</time>
      </trkpt>
      <trkpt lat="43.43712" lon="6.6361">
        <ele>84</ele>
        <time>2023-05-17T10:47:05Z</time>
      </trkpt>
      <trkpt lat="43.43711" lon="6.63611">
        <ele>84</ele>
        <time>2023-05-17T10:47:06Z</time>
      </trkpt>
      <trkpt lat="43.43709" lon="6.63612">
        <ele>84</ele>
        <time>2023-05-17T10:47:07Z</time>
      </trkpt>
      <trkpt lat="43.43709" lon="6.63613">
        <ele>84</ele>
        <time>2023-05-17T10:47:08Z</time>
      </trkpt>
      <trkpt lat="43.43709" lon="6.63614">
        <ele>84.1</ele>
        <time>2023-05-17T10:47:10Z</time>
      </trkpt>
      <trkpt lat="43.43708" lon="6.63616">
        <ele>84.1</ele>
        <time>2023-05-17T10:47:11Z</time>
      </trkpt>
      <trkpt lat="43.43707" lon="6.63617">
        <ele>84.1</ele>
        <time>2023-05-17T10:47:12Z</time>
      </trkpt>
      <trkpt lat="43.43706" lon="6.63618">
        <ele>84.1</ele>
        <time>2023-05-17T10:47:13Z</time>
      </trkpt>
      <trkpt lat="43.43705" lon="6.63619">
        <ele>84.2</ele>
        <time>2023-05-17T10:47:14Z</time>
      </trkpt>
      <trkpt lat="43.43705" lon="6.6362">
        <ele>84.2</ele>
        <time>2023-05-17T10:47:15Z</time>
      </trkpt>
      <trkpt lat="43.43704" lon="6.63621">
        <ele>84.2</ele>
        <time>2023-05-17T10:47:16Z</time>
      </trkpt>
      <trkpt lat="43.43703" lon="6.63623">
        <ele>84.3</ele>
        <time>2023-05-17T10:47:17Z</time>
      </trkpt>
      <trkpt lat="43.43702" lon="6.63624">
        <ele>84.3</ele>
        <time>2023-05-17T10:47:18Z</time>
      </trkpt>
      <trkpt lat="43.43701" lon="6.63625">
        <ele>84.4</ele>
        <time>2023-05-17T10:47:20Z</time>
      </trkpt>
      <trkpt lat="43.437" lon="6.63626">
        <ele>84.4</ele>
        <time>2023-05-17T10:47:21Z</time>
      </trkpt>
      <trkpt lat="43.43699" lon="6.63627">
        <ele>84.4</ele>
        <time>2023-05-17T10:47:22Z</time>
      </trkpt>
      <trkpt lat="43.43699" lon="6.63628">
        <ele>84.5</ele>
        <time>2023-05-17T10:47:23Z</time>
      </trkpt>
      <trkpt lat="43.43698" lon="6.63629">
        <ele>84.5</ele>
        <time>2023-05-17T10:47:24Z</time>
      </trkpt>
      <trkpt lat="43.43697" lon="6.63629">
        <ele>84.6</ele>
        <time>2023-05-17T10:47:25Z</time>
      </trkpt>
      <trkpt lat="43.43696" lon="6.63631">
        <ele>84.6</ele>
        <time>2023-05-17T10:47:26Z</time>
      </trkpt>
      <trkpt lat="43.43694" lon="6.63632">
        <ele>84.7</ele>
        <time>2023-05-17T10:47:27Z</time>
      </trkpt>
      <trkpt lat="43.43694" lon="6.63633">
        <ele>84.8</ele>
        <time>2023-05-17T10:47:29Z</time>
      </trkpt>
      <trkpt lat="43.43693" lon="6.63634">
        <ele>84.8</ele>
        <time>2023-05-17T10:47:30Z</time>
      </trkpt>
      <trkpt lat="43.43692" lon="6.63636">
        <ele>84.9</ele>
        <time>2023-05-17T10:47:31Z</time>
      </trkpt>
      <trkpt lat="43.43691" lon="6.63636">
        <ele>85</ele>
        <time>2023-05-17T10:47:32Z</time>
      </trkpt>
      <trkpt lat="43.4369" lon="6.63638">
        <ele>85</ele>
        <time>2023-05-17T10:47:33Z</time>
      </trkpt>
      <trkpt lat="43.4369" lon="6.63639">
        <ele>85.1</ele>
        <time>2023-05-17T10:47:34Z</time>
      </trkpt>
      <trkpt lat="43.43689" lon="6.6364">
        <ele>85.1</ele>
        <time>2023-05-17T10:47:35Z</time>
      </trkpt>
      <trkpt lat="43.43688" lon="6.63641">
        <ele>85.2</ele>
        <time>2023-05-17T10:47:36Z</time>
      </trkpt>
      <trkpt lat="43.43687" lon="6.63642">
        <ele>85.2</ele>
        <time>2023-05-17T10:47:37Z</time>
      </trkpt>
      <trkpt lat="43.43686" lon="6.63644">
        <ele>85.3</ele>
        <time>2023-05-17T10:47:39Z</time>
      </trkpt>
      <trkpt lat="43.43685" lon="6.63645">
        <ele>85.3</ele>
        <time>2023-05-17T10:47:40Z</time>
      </trkpt>
      <trkpt lat="43.43684" lon="6.63646">
        <ele>85.4</ele>
        <time>2023-05-17T10:47:41Z</time>
      </trkpt>
      <trkpt lat="43.43684" lon="6.63647">
        <ele>85.4</ele>
        <time>2023-05-17T10:47:42Z</time>
      </trkpt>
      <trkpt lat="43.43683" lon="6.63648">
        <ele>85.5</ele>
        <time>2023-05-17T10:47:43Z</time>
      </trkpt>
      <trkpt lat="43.43682" lon="6.63648">
        <ele>85.5</ele>
        <time>2023-05-17T10:47:44Z</time>
      </trkpt>
      <trkpt lat="43.43681" lon="6.63648">
        <ele>85.5</ele>
        <time>2023-05-17T10:47:45Z</time>
      </trkpt>
      <trkpt lat="43.4368" lon="6.63648">
        <ele>85.6</ele>
        <time>2023-05-17T10:47:46Z</time>
      </trkpt>
      <trkpt lat="43.43679" lon="6.63647">
        <ele>85.6</ele>
        <time>2023-05-17T10:47:47Z</time>
      </trkpt>
      <trkpt lat="43.43678" lon="6.63647">
        <ele>85.6</ele>
        <time>2023-05-17T10:47:49Z</time>
      </trkpt>
      <trkpt lat="43.43677" lon="6.63647">
        <ele>85.6</ele>
        <time>2023-05-17T10:47:50Z</time>
      </trkpt>
      <trkpt lat="43.43676" lon="6.63646">
        <ele>85.6</ele>
        <time>2023-05-17T10:47:51Z</time>
      </trkpt>
      <trkpt lat="43.43675" lon="6.63645">
        <ele>85.7</ele>
        <time>2023-05-17T10:47:52Z</time>
      </trkpt>
      <trkpt lat="43.43675" lon="6.63643">
        <ele>85.7</ele>
        <time>2023-05-17T10:47:53Z</time>
      </trkpt>
      <trkpt lat="43.43674" lon="6.63642">
        <ele>85.7</ele>
        <time>2023-05-17T10:47:54Z</time>
      </trkpt>
      <trkpt lat="43.43673" lon="6.63642">
        <ele>85.7</ele>
        <time>2023-05-17T10:47:55Z</time>
      </trkpt>
      <trkpt lat="43.43673" lon="6.63641">
        <ele>85.7</ele>
        <time>2023-05-17T10:47:57Z</time>
      </trkpt>
      <trkpt lat="43.43672" lon="6.63641">
        <ele>85.7</ele>
        <time>2023-05-17T10:47:58Z</time>
      </trkpt>
      <trkpt lat="43.43671" lon="6.63641">
        <ele>85.7</ele>
        <time>2023-05-17T10:47:59Z</time>
      </trkpt>
      <trkpt lat="43.43671" lon="6.63642">
        <ele>85.7</ele>
        <time>2023-05-17T10:48:00Z</time>
      </trkpt>
      <trkpt lat="43.43669" lon="6.63642">
        <ele>85.7</ele>
        <time>2023-05-17T10:48:02Z</time>
      </trkpt>
      <trkpt lat="43.43669" lon="6.63642">
        <ele>85.7</ele>
        <time>2023-05-17T10:48:03Z</time>
      </trkpt>
      <trkpt lat="43.43668" lon="6.63642">
        <ele>85.7</ele>
        <time>2023-05-17T10:48:04Z</time>
      </trkpt>
      <trkpt lat="43.43667" lon="6.63644">
        <ele>85.7</ele>
        <time>2023-05-17T10:48:06Z</time>
      </trkpt>
      <trkpt lat="43.43667" lon="6.63646">
        <ele>85.7</ele>
        <time>2023-05-17T10:48:07Z</time>
      </trkpt>
      <trkpt lat="43.43667" lon="6.63649">
        <ele>85.7</ele>
        <time>2023-05-17T10:48:08Z</time>
      </trkpt>
      <trkpt lat="43.43665" lon="6.63651">
        <ele>85.7</ele>
        <time>2023-05-17T10:48:10Z</time>
      </trkpt>
      <trkpt lat="43.43664" lon="6.63652">
        <ele>85.8</ele>
        <time>2023-05-17T10:48:11Z</time>
      </trkpt>
      <trkpt lat="43.43663" lon="6.63652">
        <ele>85.8</ele>
        <time>2023-05-17T10:48:12Z</time>
      </trkpt>
      <trkpt lat="43.43662" lon="6.63652">
        <ele>85.8</ele>
        <time>2023-05-17T10:48:13Z</time>
      </trkpt>
      <trkpt lat="43.43661" lon="6.63652">
        <ele>85.8</ele>
        <time>2023-05-17T10:48:14Z</time>
      </trkpt>
      <trkpt lat="43.4366" lon="6.63652">
        <ele>85.8</ele>
        <time>2023-05-17T10:48:15Z</time>
      </trkpt>
      <trkpt lat="43.43659" lon="6.63652">
        <ele>85.8</ele>
        <time>2023-05-17T10:48:16Z</time>
      </trkpt>
      <trkpt lat="43.43658" lon="6.63652">
        <ele>85.8</ele>
        <time>2023-05-17T10:48:17Z</time>
      </trkpt>
      <trkpt lat="43.43657" lon="6.63651">
        <ele>85.9</ele>
        <time>2023-05-17T10:48:18Z</time>
      </trkpt>
      <trkpt lat="43.43656" lon="6.63651">
        <ele>85.9</ele>
        <time>2023-05-17T10:48:19Z</time>
      </trkpt>
      <trkpt lat="43.43655" lon="6.63649">
        <ele>85.9</ele>
        <time>2023-05-17T10:48:20Z</time>
      </trkpt>
      <trkpt lat="43.43654" lon="6.63648">
        <ele>85.9</ele>
        <time>2023-05-17T10:48:22Z</time>
      </trkpt>
      <trkpt lat="43.43653" lon="6.63646">
        <ele>85.9</ele>
        <time>2023-05-17T10:48:23Z</time>
      </trkpt>
      <trkpt lat="43.43653" lon="6.63645">
        <ele>85.9</ele>
        <time>2023-05-17T10:48:24Z</time>
      </trkpt>
      <trkpt lat="43.43653" lon="6.63645">
        <ele>85.9</ele>
        <time>2023-05-17T10:48:26Z</time>
      </trkpt>
      <trkpt lat="43.43653" lon="6.63645">
        <ele>85.9</ele>
        <time>2023-05-17T10:48:27Z</time>
      </trkpt>
      <trkpt lat="43.43653" lon="6.63644">
        <ele>85.9</ele>
        <time>2023-05-17T10:48:28Z</time>
      </trkpt>
      <trkpt lat="43.43652" lon="6.63644">
        <ele>86</ele>
        <time>2023-05-17T10:48:30Z</time>
      </trkpt>
      <trkpt lat="43.43652" lon="6.63643">
        <ele>86</ele>
        <time>2023-05-17T10:48:31Z</time>
      </trkpt>
      <trkpt lat="43.43652" lon="6.63643">
        <ele>86</ele>
        <time>2023-05-17T10:48:32Z</time>
      </trkpt>
      <trkpt lat="43.43652" lon="6.63642">
        <ele>86</ele>
        <time>2023-05-17T10:48:33Z</time>
      </trkpt>
      <trkpt lat="43.43652" lon="6.63642">
        <ele>86</ele>
        <time>2023-05-17T10:48:35Z</time>
      </trkpt>
      <trkpt lat="43.43651" lon="6.63642">
        <ele>86</ele>
        <time>2023-05-17T10:48:36Z</time>
      </trkpt>
      <trkpt lat="43.43651" lon="6.63642">
        <ele>86</ele>
        <time>2023-05-17T10:48:37Z</time>
      </trkpt>
      <trkpt lat="43.4365" lon="6.63642">
        <ele>86</ele>
        <time>2023-05-17T10:48:38Z</time>
      </trkpt>
      <trkpt lat="43.43648" lon="6.63643">
        <ele>86</ele>
        <time>2023-05-17T10:48:39Z</time>
      </trkpt>
      <trkpt lat="43.43647" lon="6.63643">
        <ele>86</ele>
        <time>2023-05-17T10:48:40Z</time>
      </trkpt>
      <trkpt lat="43.43646" lon="6.63643">
        <ele>86.1</ele>
        <time>2023-05-17T10:48:41Z</time>
      </trkpt>
      <trkpt lat="43.43646" lon="6.63643">
        <ele>86.1</ele>
        <time>2023-05-17T10:48:43Z</time>
      </trkpt>
      <trkpt lat="43.43645" lon="6.63643">
        <ele>86.1</ele>
        <time>2023-05-17T10:48:44Z</time>
      </trkpt>
      <trkpt lat="43.43644" lon="6.63642">
        <ele>86.1</ele>
        <time>2023-05-17T10:48:45Z</time>
      </trkpt>
      <trkpt lat="43.43644" lon="6.63641">
        <ele>86.1</ele>
        <time>2023-05-17T10:48:46Z</time>
      </trkpt>
      <trkpt lat="43.43643" lon="6.6364">
        <ele>86.1</ele>
        <time>2023-05-17T10:48:47Z</time>
      </trkpt>
      <trkpt lat="43.43643" lon="6.63639">
        <ele>86.1</ele>
        <time>2023-05-17T10:48:49Z</time>
      </trkpt>
      <trkpt lat="43.43642" lon="6.63638">
        <ele>86.1</ele>
        <time>2023-05-17T10:48:50Z</time>
      </trkpt>
      <trkpt lat="43.43642" lon="6.63636">
        <ele>86.1</ele>
        <time>2023-05-17T10:48:51Z</time>
      </trkpt>
      <trkpt lat="43.43641" lon="6.63635">
        <ele>86.1</ele>
        <time>2023-05-17T10:48:52Z</time>
      </trkpt>
      <trkpt lat="43.4364" lon="6.63634">
        <ele>86.1</ele>
        <time>2023-05-17T10:48:53Z</time>
      </trkpt>
      <trkpt lat="43.43639" lon="6.63634">
        <ele>86.1</ele>
        <time>2023-05-17T10:48:54Z</time>
      </trkpt>
      <trkpt lat="43.43638" lon="6.63634">
        <ele>86.2</ele>
        <time>2023-05-17T10:48:55Z</time>
      </trkpt>
      <trkpt lat="43.43638" lon="6.63634">
        <ele>86.2</ele>
        <time>2023-05-17T10:48:56Z</time>
      </trkpt>
      <trkpt lat="43.43637" lon="6.63634">
        <ele>86.2</ele>
        <time>2023-05-17T10:48:57Z</time>
      </trkpt>
      <trkpt lat="43.43636" lon="6.63635">
        <ele>86.2</ele>
        <time>2023-05-17T10:48:58Z</time>
      </trkpt>
      <trkpt lat="43.43636" lon="6.63635">
        <ele>86.2</ele>
        <time>2023-05-17T10:49:00Z</time>
      </trkpt>
      <trkpt lat="43.43635" lon="6.63635">
        <ele>86.2</ele>
        <time>2023-05-17T10:49:01Z</time>
      </trkpt>
      <trkpt lat="43.43634" lon="6.63634">
        <ele>86.2</ele>
        <time>2023-05-17T10:49:02Z</time>
      </trkpt>
      <trkpt lat="43.43633" lon="6.63633">
        <ele>86.2</ele>
        <time>2023-05-17T10:49:03Z</time>
      </trkpt>
      <trkpt lat="43.43632" lon="6.63632">
        <ele>86.2</ele>
        <time>2023-05-17T10:49:04Z</time>
      </trkpt>
      <trkpt lat="43.43631" lon="6.63631">
        <ele>86.2</ele>
        <time>2023-05-17T10:49:05Z</time>
      </trkpt>
      <trkpt lat="43.43631" lon="6.63629">
        <ele>86.2</ele>
        <time>2023-05-17T10:49:06Z</time>
      </trkpt>
      <trkpt lat="43.4363" lon="6.63629">
        <ele>86.2</ele>
        <time>2023-05-17T10:49:07Z</time>
      </trkpt>
      <trkpt lat="43.43628" lon="6.63628">
        <ele>86.3</ele>
        <time>2023-05-17T10:49:08Z</time>
      </trkpt>
      <trkpt lat="43.43627" lon="6.63627">
        <ele>86.3</ele>
        <time>2023-05-17T10:49:10Z</time>
      </trkpt>
      <trkpt lat="43.43627" lon="6.63626">
        <ele>86.3</ele>
        <time>2023-05-17T10:49:11Z</time>
      </trkpt>
      <trkpt lat="43.43626" lon="6.63626">
        <ele>86.3</ele>
        <time>2023-05-17T10:49:12Z</time>
      </trkpt>
      <trkpt lat="43.43625" lon="6.63625">
        <ele>86.3</ele>
        <time>2023-05-17T10:49:13Z</time>
      </trkpt>
      <trkpt lat="43.43624" lon="6.63625">
        <ele>86.3</ele>
        <time>2023-05-17T10:49:14Z</time>
      </trkpt>
      <trkpt lat="43.43623" lon="6.63624">
        <ele>86.4</ele>
        <time>2023-05-17T10:49:15Z</time>
      </trkpt>
      <trkpt lat="43.43621" lon="6.63623">
        <ele>86.4</ele>
        <time>2023-05-17T10:49:17Z</time>
      </trkpt>
      <trkpt lat="43.43621" lon="6.63623">
        <ele>86.4</ele>
        <time>2023-05-17T10:49:18Z</time>
      </trkpt>
      <trkpt lat="43.43619" lon="6.63622">
        <ele>86.4</ele>
        <time>2023-05-17T10:49:19Z</time>
      </trkpt>
      <trkpt lat="43.43618" lon="6.63623">
        <ele>86.5</ele>
        <time>2023-05-17T10:49:20Z</time>
      </trkpt>
      <trkpt lat="43.43616" lon="6.63624">
        <ele>86.5</ele>
        <time>2023-05-17T10:49:21Z</time>
      </trkpt>
      <trkpt lat="43.43615" lon="6.63624">
        <ele>86.5</ele>
        <time>2023-05-17T10:49:22Z</time>
      </trkpt>
      <trkpt lat="43.43614" lon="6.63625">
        <ele>86.5</ele>
        <time>2023-05-17T10:49:24Z</time>
      </trkpt>
      <trkpt lat="43.43613" lon="6.63626">
        <ele>86.6</ele>
        <time>2023-05-17T10:49:25Z</time>
      </trkpt>
      <trkpt lat="43.43612" lon="6.63628">
        <ele>86.6</ele>
        <time>2023-05-17T10:49:26Z</time>
      </trkpt>
      <trkpt lat="43.43611" lon="6.63628">
        <ele>86.6</ele>
        <time>2023-05-17T10:49:27Z</time>
      </trkpt>
      <trkpt lat="43.4361" lon="6.63629">
        <ele>86.7</ele>
        <time>2023-05-17T10:49:28Z</time>
      </trkpt>
      <trkpt lat="43.43609" lon="6.6363">
        <ele>86.7</ele>
        <time>2023-05-17T10:49:29Z</time>
      </trkpt>
      <trkpt lat="43.43607" lon="6.63631">
        <ele>86.8</ele>
        <time>2023-05-17T10:49:30Z</time>
      </trkpt>
      <trkpt lat="43.43606" lon="6.63632">
        <ele>86.8</ele>
        <time>2023-05-17T10:49:31Z</time>
      </trkpt>
      <trkpt lat="43.43605" lon="6.63633">
        <ele>86.8</ele>
        <time>2023-05-17T10:49:33Z</time>
      </trkpt>
      <trkpt lat="43.43605" lon="6.63634">
        <ele>86.8</ele>
        <time>2023-05-17T10:49:34Z</time>
      </trkpt>
      <trkpt lat="43.43604" lon="6.63635">
        <ele>86.9</ele>
        <time>2023-05-17T10:49:35Z</time>
      </trkpt>
      <trkpt lat="43.43603" lon="6.63635">
        <ele>86.9</ele>
        <time>2023-05-17T10:49:36Z</time>
      </trkpt>
      <trkpt lat="43.43603" lon="6.63636">
        <ele>86.9</ele>
        <time>2023-05-17T10:49:37Z</time>
      </trkpt>
      <trkpt lat="43.43602" lon="6.63637">
        <ele>86.9</ele>
        <time>2023-05-17T10:49:38Z</time>
      </trkpt>
      <trkpt lat="43.43601" lon="6.63638">
        <ele>87</ele>
        <time>2023-05-17T10:49:39Z</time>
      </trkpt>
      <trkpt lat="43.43601" lon="6.63639">
        <ele>87</ele>
        <time>2023-05-17T10:49:41Z</time>
      </trkpt>
      <trkpt lat="43.43599" lon="6.6364">
        <ele>87</ele>
        <time>2023-05-17T10:49:42Z</time>
      </trkpt>
      <trkpt lat="43.43599" lon="6.63641">
        <ele>87.1</ele>
        <time>2023-05-17T10:49:43Z</time>
      </trkpt>
      <trkpt lat="43.43598" lon="6.63643">
        <ele>87.1</ele>
        <time>2023-05-17T10:49:44Z</time>
      </trkpt>
      <trkpt lat="43.43598" lon="6.63644">
        <ele>87.1</ele>
        <time>2023-05-17T10:49:45Z</time>
      </trkpt>
      <trkpt lat="43.43596" lon="6.63646">
        <ele>87.2</ele>
        <time>2023-05-17T10:49:46Z</time>
      </trkpt>
      <trkpt lat="43.43595" lon="6.63646">
        <ele>87.2</ele>
        <time>2023-05-17T10:49:47Z</time>
      </trkpt>
      <trkpt lat="43.43594" lon="6.63647">
        <ele>87.2</ele>
        <time>2023-05-17T10:49:48Z</time>
      </trkpt>
      <trkpt lat="43.43593" lon="6.63647">
        <ele>87.3</ele>
        <time>2023-05-17T10:49:50Z</time>
      </trkpt>
      <trkpt lat="43.43592" lon="6.63647">
        <ele>87.3</ele>
        <time>2023-05-17T10:49:51Z</time>
      </trkpt>
      <trkpt lat="43.4359" lon="6.63647">
        <ele>87.3</ele>
        <time>2023-05-17T10:49:52Z</time>
      </trkpt>
      <trkpt lat="43.43588" lon="6.63646">
        <ele>87.4</ele>
        <time>2023-05-17T10:49:53Z</time>
      </trkpt>
      <trkpt lat="43.43588" lon="6.63645">
        <ele>87.4</ele>
        <time>2023-05-17T10:49:54Z</time>
      </trkpt>
      <trkpt lat="43.43587" lon="6.63645">
        <ele>87.4</ele>
        <time>2023-05-17T10:49:55Z</time>
      </trkpt>
      <trkpt lat="43.43585" lon="6.63643">
        <ele>87.4</ele>
        <time>2023-05-17T10:49:56Z</time>
      </trkpt>
      <trkpt lat="43.43585" lon="6.63643">
        <ele>87.4</ele>
        <time>2023-05-17T10:49:57Z</time>
      </trkpt>
      <trkpt lat="43.43584" lon="6.6364">
        <ele>87.5</ele>
        <time>2023-05-17T10:49:58Z</time>
      </trkpt>
      <trkpt lat="43.43583" lon="6.63639">
        <ele>87.5</ele>
        <time>2023-05-17T10:50:00Z</time>
      </trkpt>
      <trkpt lat="43.43583" lon="6.63638">
        <ele>87.5</ele>
        <time>2023-05-17T10:50:01Z</time>
      </trkpt>
      <trkpt lat="43.43582" lon="6.63635">
        <ele>87.5</ele>
        <time>2023-05-17T10:50:02Z</time>
      </trkpt>
      <trkpt lat="43.43582" lon="6.63634">
        <ele>87.5</ele>
        <time>2023-05-17T10:50:03Z</time>
      </trkpt>
      <trkpt lat="43.43582" lon="6.63633">
        <ele>87.5</ele>
        <time>2023-05-17T10:50:04Z</time>
      </trkpt>
      <trkpt lat="43.43582" lon="6.63632">
        <ele>87.5</ele>
        <time>2023-05-17T10:50:05Z</time>
      </trkpt>
      <trkpt lat="43.43581" lon="6.63629">
        <ele>87.6</ele>
        <time>2023-05-17T10:50:06Z</time>
      </trkpt>
      <trkpt lat="43.43581" lon="6.63628">
        <ele>87.6</ele>
        <time>2023-05-17T10:50:07Z</time>
      </trkpt>
      <trkpt lat="43.43581" lon="6.63626">
        <ele>87.6</ele>
        <time>2023-05-17T10:50:09Z</time>
      </trkpt>
      <trkpt lat="43.43581" lon="6.63625">
        <ele>87.6</ele>
        <time>2023-05-17T10:50:10Z</time>
      </trkpt>
      <trkpt lat="43.43581" lon="6.63623">
        <ele>87.6</ele>
        <time>2023-05-17T10:50:11Z</time>
      </trkpt>
      <trkpt lat="43.4358" lon="6.63621">
        <ele>87.7</ele>
        <time>2023-05-17T10:50:12Z</time>
      </trkpt>
      <trkpt lat="43.43578" lon="6.6362">
        <ele>87.7</ele>
        <time>2023-05-17T10:50:13Z</time>
      </trkpt>
      <trkpt lat="43.43577" lon="6.63619">
        <ele>87.7</ele>
        <time>2023-05-17T10:50:14Z</time>
      </trkpt>
      <trkpt lat="43.43576" lon="6.63619">
        <ele>87.7</ele>
        <time>2023-05-17T10:50:15Z</time>
      </trkpt>
      <trkpt lat="43.43574" lon="6.63619">
        <ele>87.8</ele>
        <time>2023-05-17T10:50:16Z</time>
      </trkpt>
      <trkpt lat="43.43572" lon="6.6362">
        <ele>87.8</ele>
        <time>2023-05-17T10:50:18Z</time>
      </trkpt>
      <trkpt lat="43.43571" lon="6.6362">
        <ele>87.8</ele>
        <time>2023-05-17T10:50:19Z</time>
      </trkpt>
      <trkpt lat="43.43569" lon="6.63621">
        <ele>87.9</ele>
        <time>2023-05-17T10:50:20Z</time>
      </trkpt>
      <trkpt lat="43.43568" lon="6.63621">
        <ele>87.9</ele>
        <time>2023-05-17T10:50:21Z</time>
      </trkpt>
      <trkpt lat="43.43566" lon="6.63622">
        <ele>88</ele>
        <time>2023-05-17T10:50:22Z</time>
      </trkpt>
      <trkpt lat="43.43565" lon="6.63622">
        <ele>88</ele>
        <time>2023-05-17T10:50:23Z</time>
      </trkpt>
      <trkpt lat="43.43564" lon="6.63621">
        <ele>88</ele>
        <time>2023-05-17T10:50:24Z</time>
      </trkpt>
      <trkpt lat="43.43563" lon="6.63621">
        <ele>88</ele>
        <time>2023-05-17T10:50:25Z</time>
      </trkpt>
      <trkpt lat="43.43561" lon="6.63622">
        <ele>88.1</ele>
        <time>2023-05-17T10:50:26Z</time>
      </trkpt>
      <trkpt lat="43.4356" lon="6.63622">
        <ele>88.1</ele>
        <time>2023-05-17T10:50:28Z</time>
      </trkpt>
      <trkpt lat="43.43559" lon="6.63622">
        <ele>88.1</ele>
        <time>2023-05-17T10:50:29Z</time>
      </trkpt>
      <trkpt lat="43.43558" lon="6.63622">
        <ele>88.1</ele>
        <time>2023-05-17T10:50:30Z</time>
      </trkpt>
      <trkpt lat="43.43556" lon="6.63621">
        <ele>88.2</ele>
        <time>2023-05-17T10:50:31Z</time>
      </trkpt>
      <trkpt lat="43.43555" lon="6.63621">
        <ele>88.2</ele>
        <time>2023-05-17T10:50:32Z</time>
      </trkpt>
      <trkpt lat="43.43554" lon="6.6362">
        <ele>88.2</ele>
        <time>2023-05-17T10:50:33Z</time>
      </trkpt>
      <trkpt lat="43.43554" lon="6.63619">
        <ele>88.2</ele>
        <time>2023-05-17T10:50:34Z</time>
      </trkpt>
      <trkpt lat="43.43552" lon="6.63618">
        <ele>88.2</ele>
        <time>2023-05-17T10:50:36Z</time>
      </trkpt>
      <trkpt lat="43.43551" lon="6.63616">
        <ele>88.2</ele>
        <time>2023-05-17T10:50:37Z</time>
      </trkpt>
      <trkpt lat="43.43551" lon="6.63615">
        <ele>88.2</ele>
        <time>2023-05-17T10:50:38Z</time>
      </trkpt>
      <trkpt lat="43.4355" lon="6.63613">
        <ele>88.3</ele>
        <time>2023-05-17T10:50:39Z</time>
      </trkpt>
      <trkpt lat="43.4355" lon="6.63612">
        <ele>88.3</ele>
        <time>2023-05-17T10:50:40Z</time>
      </trkpt>
      <trkpt lat="43.43549" lon="6.63609">
        <ele>88.3</ele>
        <time>2023-05-17T10:50:41Z</time>
      </trkpt>
      <trkpt lat="43.43549" lon="6.63608">
        <ele>88.3</ele>
        <time>2023-05-17T10:50:42Z</time>
      </trkpt>
      <trkpt lat="43.43549" lon="6.63605">
        <ele>88.3</ele>
        <time>2023-05-17T10:50:43Z</time>
      </trkpt>
      <trkpt lat="43.43549" lon="6.63604">
        <ele>88.3</ele>
        <time>2023-05-17T10:50:45Z</time>
      </trkpt>
      <trkpt lat="43.43548" lon="6.63603">
        <ele>88.3</ele>
        <time>2023-05-17T10:50:46Z</time>
      </trkpt>
      <trkpt lat="43.43548" lon="6.636">
        <ele>88.3</ele>
        <time>2023-05-17T10:50:47Z</time>
      </trkpt>
      <trkpt lat="43.43547" lon="6.63599">
        <ele>88.3</ele>
        <time>2023-05-17T10:50:48Z</time>
      </trkpt>
      <trkpt lat="43.43546" lon="6.63596">
        <ele>88.3</ele>
        <time>2023-05-17T10:50:49Z</time>
      </trkpt>
      <trkpt lat="43.43545" lon="6.63595">
        <ele>88.3</ele>
        <time>2023-05-17T10:50:50Z</time>
      </trkpt>
      <trkpt lat="43.43544" lon="6.63594">
        <ele>88.3</ele>
        <time>2023-05-17T10:50:51Z</time>
      </trkpt>
      <trkpt lat="43.43544" lon="6.63593">
        <ele>88.3</ele>
        <time>2023-05-17T10:50:52Z</time>
      </trkpt>
      <trkpt lat="43.43542" lon="6.63593">
        <ele>88.3</ele>
        <time>2023-05-17T10:50:53Z</time>
      </trkpt>
      <trkpt lat="43.43541" lon="6.63592">
        <ele>88.3</ele>
        <time>2023-05-17T10:50:55Z</time>
      </trkpt>
      <trkpt lat="43.4354" lon="6.63591">
        <ele>88.3</ele>
        <time>2023-05-17T10:50:56Z</time>
      </trkpt>
      <trkpt lat="43.43539" lon="6.6359">
        <ele>88.3</ele>
        <time>2023-05-17T10:50:57Z</time>
      </trkpt>
      <trkpt lat="43.43538" lon="6.63587">
        <ele>88.3</ele>
        <time>2023-05-17T10:50:58Z</time>
      </trkpt>
      <trkpt lat="43.43537" lon="6.63587">
        <ele>88.3</ele>
        <time>2023-05-17T10:50:59Z</time>
      </trkpt>
      <trkpt lat="43.43536" lon="6.63586">
        <ele>88.3</ele>
        <time>2023-05-17T10:51:00Z</time>
      </trkpt>
      <trkpt lat="43.43535" lon="6.63583">
        <ele>88.3</ele>
        <time>2023-05-17T10:51:01Z</time>
      </trkpt>
      <trkpt lat="43.43535" lon="6.63582">
        <ele>88.3</ele>
        <time>2023-05-17T10:51:02Z</time>
      </trkpt>
      <trkpt lat="43.43535" lon="6.63581">
        <ele>88.3</ele>
        <time>2023-05-17T10:51:04Z</time>
      </trkpt>
      <trkpt lat="43.43533" lon="6.63579">
        <ele>88.4</ele>
        <time>2023-05-17T10:51:05Z</time>
      </trkpt>
      <trkpt lat="43.43533" lon="6.63578">
        <ele>88.4</ele>
        <time>2023-05-17T10:51:06Z</time>
      </trkpt>
      <trkpt lat="43.43532" lon="6.63577">
        <ele>88.4</ele>
        <time>2023-05-17T10:51:07Z</time>
      </trkpt>
      <trkpt lat="43.4353" lon="6.63575">
        <ele>88.4</ele>
        <time>2023-05-17T10:51:08Z</time>
      </trkpt>
      <trkpt lat="43.4353" lon="6.63574">
        <ele>88.4</ele>
        <time>2023-05-17T10:51:09Z</time>
      </trkpt>
      <trkpt lat="43.43529" lon="6.63573">
        <ele>88.4</ele>
        <time>2023-05-17T10:51:10Z</time>
      </trkpt>
      <trkpt lat="43.43528" lon="6.6357">
        <ele>88.4</ele>
        <time>2023-05-17T10:51:11Z</time>
      </trkpt>
      <trkpt lat="43.43528" lon="6.6357">
        <ele>88.4</ele>
        <time>2023-05-17T10:51:12Z</time>
      </trkpt>
      <trkpt lat="43.43527" lon="6.63569">
        <ele>88.4</ele>
        <time>2023-05-17T10:51:14Z</time>
      </trkpt>
      <trkpt lat="43.43526" lon="6.63566">
        <ele>88.4</ele>
        <time>2023-05-17T10:51:15Z</time>
      </trkpt>
      <trkpt lat="43.43526" lon="6.63564">
        <ele>88.4</ele>
        <time>2023-05-17T10:51:16Z</time>
      </trkpt>
      <trkpt lat="43.43525" lon="6.63563">
        <ele>88.4</ele>
        <time>2023-05-17T10:51:17Z</time>
      </trkpt>
      <trkpt lat="43.43525" lon="6.63562">
        <ele>88.4</ele>
        <time>2023-05-17T10:51:18Z</time>
      </trkpt>
      <trkpt lat="43.43524" lon="6.6356">
        <ele>88.4</ele>
        <time>2023-05-17T10:51:19Z</time>
      </trkpt>
      <trkpt lat="43.43524" lon="6.63559">
        <ele>88.4</ele>
        <time>2023-05-17T10:51:20Z</time>
      </trkpt>
      <trkpt lat="43.43523" lon="6.63556">
        <ele>88.4</ele>
        <time>2023-05-17T10:51:22Z</time>
      </trkpt>
      <trkpt lat="43.43523" lon="6.63555">
        <ele>88.4</ele>
        <time>2023-05-17T10:51:23Z</time>
      </trkpt>
      <trkpt lat="43.43523" lon="6.63553">
        <ele>88.4</ele>
        <time>2023-05-17T10:51:24Z</time>
      </trkpt>
      <trkpt lat="43.43522" lon="6.63552">
        <ele>88.4</ele>
        <time>2023-05-17T10:51:25Z</time>
      </trkpt>
      <trkpt lat="43.43522" lon="6.6355">
        <ele>88.5</ele>
        <time>2023-05-17T10:51:26Z</time>
      </trkpt>
      <trkpt lat="43.43521" lon="6.63549">
        <ele>88.5</ele>
        <time>2023-05-17T10:51:27Z</time>
      </trkpt>
      <trkpt lat="43.43521" lon="6.63547">
        <ele>88.5</ele>
        <time>2023-05-17T10:51:28Z</time>
      </trkpt>
      <trkpt lat="43.43521" lon="6.63546">
        <ele>88.5</ele>
        <time>2023-05-17T10:51:29Z</time>
      </trkpt>
      <trkpt lat="43.43521" lon="6.63544">
        <ele>88.5</ele>
        <time>2023-05-17T10:51:30Z</time>
      </trkpt>
      <trkpt lat="43.43521" lon="6.63542">
        <ele>88.5</ele>
        <time>2023-05-17T10:51:31Z</time>
      </trkpt>
      <trkpt lat="43.43521" lon="6.6354">
        <ele>88.5</ele>
        <time>2023-05-17T10:51:32Z</time>
      </trkpt>
      <trkpt lat="43.43522" lon="6.63539">
        <ele>88.5</ele>
        <time>2023-05-17T10:51:34Z</time>
      </trkpt>
      <trkpt lat="43.43522" lon="6.63537">
        <ele>88.5</ele>
        <time>2023-05-17T10:51:35Z</time>
      </trkpt>
      <trkpt lat="43.43522" lon="6.63536">
        <ele>88.5</ele>
        <time>2023-05-17T10:51:36Z</time>
      </trkpt>
      <trkpt lat="43.43522" lon="6.63533">
        <ele>88.5</ele>
        <time>2023-05-17T10:51:37Z</time>
      </trkpt>
      <trkpt lat="43.43522" lon="6.63532">
        <ele>88.6</ele>
        <time>2023-05-17T10:51:38Z</time>
      </trkpt>
      <trkpt lat="43.43521" lon="6.6353">
        <ele>88.6</ele>
        <time>2023-05-17T10:51:39Z</time>
      </trkpt>
      <trkpt lat="43.4352" lon="6.63529">
        <ele>88.6</ele>
        <time>2023-05-17T10:51:40Z</time>
      </trkpt>
      <trkpt lat="43.43519" lon="6.63528">
        <ele>88.6</ele>
        <time>2023-05-17T10:51:41Z</time>
      </trkpt>
      <trkpt lat="43.43517" lon="6.63528">
        <ele>88.6</ele>
        <time>2023-05-17T10:51:43Z</time>
      </trkpt>
      <trkpt lat="43.43516" lon="6.63528">
        <ele>88.6</ele>
        <time>2023-05-17T10:51:44Z</time>
      </trkpt>
      <trkpt lat="43.43515" lon="6.63527">
        <ele>88.7</ele>
        <time>2023-05-17T10:51:45Z</time>
      </trkpt>
      <trkpt lat="43.43514" lon="6.63527">
        <ele>88.7</ele>
        <time>2023-05-17T10:51:46Z</time>
      </trkpt>
      <trkpt lat="43.43513" lon="6.63527">
        <ele>88.7</ele>
        <time>2023-05-17T10:51:47Z</time>
      </trkpt>
      <trkpt lat="43.43511" lon="6.63527">
        <ele>88.7</ele>
        <time>2023-05-17T10:51:48Z</time>
      </trkpt>
      <trkpt lat="43.4351" lon="6.63527">
        <ele>88.7</ele>
        <time>2023-05-17T10:51:49Z</time>
      </trkpt>
      <trkpt lat="43.43509" lon="6.63527">
        <ele>88.7</ele>
        <time>2023-05-17T10:51:50Z</time>
      </trkpt>
      <trkpt lat="43.43507" lon="6.63526">
        <ele>88.8</ele>
        <time>2023-05-17T10:51:51Z</time>
      </trkpt>
      <trkpt lat="43.43506" lon="6.63527">
        <ele>88.8</ele>
        <time>2023-05-17T10:51:53Z</time>
      </trkpt>
      <trkpt lat="43.43505" lon="6.63527">
        <ele>88.8</ele>
        <time>2023-05-17T10:51:54Z</time>
      </trkpt>
      <trkpt lat="43.43504" lon="6.63527">
        <ele>88.8</ele>
        <time>2023-05-17T10:51:55Z</time>
      </trkpt>
      <trkpt lat="43.43503" lon="6.63528">
        <ele>88.8</ele>
        <time>2023-05-17T10:51:56Z</time>
      </trkpt>
      <trkpt lat="43.43502" lon="6.63528">
        <ele>88.8</ele>
        <time>2023-05-17T10:51:57Z</time>
      </trkpt>
      <trkpt lat="43.43501" lon="6.63528">
        <ele>88.9</ele>
        <time>2023-05-17T10:51:58Z</time>
      </trkpt>
      <trkpt lat="43.435" lon="6.63528">
        <ele>88.9</ele>
        <time>2023-05-17T10:51:59Z</time>
      </trkpt>
      <trkpt lat="43.43499" lon="6.63528">
        <ele>88.9</ele>
        <time>2023-05-17T10:52:00Z</time>
      </trkpt>
      <trkpt lat="43.43497" lon="6.63527">
        <ele>88.9</ele>
        <time>2023-05-17T10:52:02Z</time>
      </trkpt>
      <trkpt lat="43.43496" lon="6.63526">
        <ele>88.9</ele>
        <time>2023-05-17T10:52:03Z</time>
      </trkpt>
      <trkpt lat="43.43495" lon="6.63525">
        <ele>88.9</ele>
        <time>2023-05-17T10:52:04Z</time>
      </trkpt>
      <trkpt lat="43.43494" lon="6.63524">
        <ele>88.9</ele>
        <time>2023-05-17T10:52:05Z</time>
      </trkpt>
      <trkpt lat="43.43493" lon="6.63523">
        <ele>88.9</ele>
        <time>2023-05-17T10:52:06Z</time>
      </trkpt>
      <trkpt lat="43.43493" lon="6.63521">
        <ele>89</ele>
        <time>2023-05-17T10:52:07Z</time>
      </trkpt>
      <trkpt lat="43.43492" lon="6.6352">
        <ele>89</ele>
        <time>2023-05-17T10:52:08Z</time>
      </trkpt>
      <trkpt lat="43.43493" lon="6.63518">
        <ele>89</ele>
        <time>2023-05-17T10:52:09Z</time>
      </trkpt>
      <trkpt lat="43.43492" lon="6.63516">
        <ele>89</ele>
        <time>2023-05-17T10:52:11Z</time>
      </trkpt>
      <trkpt lat="43.43491" lon="6.63514">
        <ele>89</ele>
        <time>2023-05-17T10:52:12Z</time>
      </trkpt>
      <trkpt lat="43.4349" lon="6.63514">
        <ele>89</ele>
        <time>2023-05-17T10:52:13Z</time>
      </trkpt>
      <trkpt lat="43.43489" lon="6.63513">
        <ele>89</ele>
        <time>2023-05-17T10:52:14Z</time>
      </trkpt>
      <trkpt lat="43.43489" lon="6.63512">
        <ele>89</ele>
        <time>2023-05-17T10:52:15Z</time>
      </trkpt>
      <trkpt lat="43.43488" lon="6.6351">
        <ele>89</ele>
        <time>2023-05-17T10:52:16Z</time>
      </trkpt>
      <trkpt lat="43.43487" lon="6.63507">
        <ele>89.1</ele>
        <time>2023-05-17T10:52:17Z</time>
      </trkpt>
      <trkpt lat="43.43486" lon="6.63505">
        <ele>89.1</ele>
        <time>2023-05-17T10:52:19Z</time>
      </trkpt>
      <trkpt lat="43.43486" lon="6.63504">
        <ele>89.1</ele>
        <time>2023-05-17T10:52:20Z</time>
      </trkpt>
      <trkpt lat="43.43486" lon="6.63502">
        <ele>89.1</ele>
        <time>2023-05-17T10:52:21Z</time>
      </trkpt>
      <trkpt lat="43.43485" lon="6.63501">
        <ele>89.1</ele>
        <time>2023-05-17T10:52:22Z</time>
      </trkpt>
      <trkpt lat="43.43485" lon="6.635">
        <ele>89.1</ele>
        <time>2023-05-17T10:52:23Z</time>
      </trkpt>
      <trkpt lat="43.43485" lon="6.63499">
        <ele>89.1</ele>
        <time>2023-05-17T10:52:24Z</time>
      </trkpt>
      <trkpt lat="43.43484" lon="6.63498">
        <ele>89.1</ele>
        <time>2023-05-17T10:52:25Z</time>
      </trkpt>
      <trkpt lat="43.43484" lon="6.63497">
        <ele>89.1</ele>
        <time>2023-05-17T10:52:26Z</time>
      </trkpt>
      <trkpt lat="43.43483" lon="6.63495">
        <ele>89.1</ele>
        <time>2023-05-17T10:52:27Z</time>
      </trkpt>
      <trkpt lat="43.43483" lon="6.63494">
        <ele>89.1</ele>
        <time>2023-05-17T10:52:28Z</time>
      </trkpt>
      <trkpt lat="43.43482" lon="6.63493">
        <ele>89.2</ele>
        <time>2023-05-17T10:52:30Z</time>
      </trkpt>
      <trkpt lat="43.43481" lon="6.63491">
        <ele>89.2</ele>
        <time>2023-05-17T10:52:31Z</time>
      </trkpt>
      <trkpt lat="43.4348" lon="6.6349">
        <ele>89.2</ele>
        <time>2023-05-17T10:52:32Z</time>
      </trkpt>
      <trkpt lat="43.43478" lon="6.6349">
        <ele>89.2</ele>
        <time>2023-05-17T10:52:33Z</time>
      </trkpt>
      <trkpt lat="43.43477" lon="6.6349">
        <ele>89.1</ele>
        <time>2023-05-17T10:52:34Z</time>
      </trkpt>
      <trkpt lat="43.43476" lon="6.6349">
        <ele>89.1</ele>
        <time>2023-05-17T10:52:35Z</time>
      </trkpt>
      <trkpt lat="43.43474" lon="6.6349">
        <ele>89.2</ele>
        <time>2023-05-17T10:52:36Z</time>
      </trkpt>
      <trkpt lat="43.43473" lon="6.63489">
        <ele>89.2</ele>
        <time>2023-05-17T10:52:37Z</time>
      </trkpt>
      <trkpt lat="43.43472" lon="6.63489">
        <ele>89.2</ele>
        <time>2023-05-17T10:52:39Z</time>
      </trkpt>
      <trkpt lat="43.43471" lon="6.63488">
        <ele>89.2</ele>
        <time>2023-05-17T10:52:40Z</time>
      </trkpt>
      <trkpt lat="43.4347" lon="6.63488">
        <ele>89.2</ele>
        <time>2023-05-17T10:52:41Z</time>
      </trkpt>
      <trkpt lat="43.43468" lon="6.63487">
        <ele>89.3</ele>
        <time>2023-05-17T10:52:42Z</time>
      </trkpt>
      <trkpt lat="43.43468" lon="6.63485">
        <ele>89.3</ele>
        <time>2023-05-17T10:52:43Z</time>
      </trkpt>
      <trkpt lat="43.43467" lon="6.63484">
        <ele>89.3</ele>
        <time>2023-05-17T10:52:44Z</time>
      </trkpt>
      <trkpt lat="43.43467" lon="6.63483">
        <ele>89.3</ele>
        <time>2023-05-17T10:52:45Z</time>
      </trkpt>
      <trkpt lat="43.43465" lon="6.63481">
        <ele>89.3</ele>
        <time>2023-05-17T10:52:47Z</time>
      </trkpt>
      <trkpt lat="43.43465" lon="6.6348">
        <ele>89.3</ele>
        <time>2023-05-17T10:52:48Z</time>
      </trkpt>
      <trkpt lat="43.43465" lon="6.63478">
        <ele>89.3</ele>
        <time>2023-05-17T10:52:49Z</time>
      </trkpt>
      <trkpt lat="43.43465" lon="6.63477">
        <ele>89.3</ele>
        <time>2023-05-17T10:52:50Z</time>
      </trkpt>
      <trkpt lat="43.43465" lon="6.63475">
        <ele>89.3</ele>
        <time>2023-05-17T10:52:51Z</time>
      </trkpt>
      <trkpt lat="43.43464" lon="6.63473">
        <ele>89.4</ele>
        <time>2023-05-17T10:52:52Z</time>
      </trkpt>
      <trkpt lat="43.43464" lon="6.63472">
        <ele>89.4</ele>
        <time>2023-05-17T10:52:53Z</time>
      </trkpt>
      <trkpt lat="43.43463" lon="6.63471">
        <ele>89.4</ele>
        <time>2023-05-17T10:52:54Z</time>
      </trkpt>
      <trkpt lat="43.43462" lon="6.63469">
        <ele>89.4</ele>
        <time>2023-05-17T10:52:55Z</time>
      </trkpt>
      <trkpt lat="43.43461" lon="6.63468">
        <ele>89.4</ele>
        <time>2023-05-17T10:52:57Z</time>
      </trkpt>
      <trkpt lat="43.4346" lon="6.63467">
        <ele>89.4</ele>
        <time>2023-05-17T10:52:58Z</time>
      </trkpt>
      <trkpt lat="43.43459" lon="6.63466">
        <ele>89.4</ele>
        <time>2023-05-17T10:52:59Z</time>
      </trkpt>
      <trkpt lat="43.43458" lon="6.63465">
        <ele>89.4</ele>
        <time>2023-05-17T10:53:00Z</time>
      </trkpt>
      <trkpt lat="43.43458" lon="6.63464">
        <ele>89.4</ele>
        <time>2023-05-17T10:53:01Z</time>
      </trkpt>
      <trkpt lat="43.43457" lon="6.63462">
        <ele>89.4</ele>
        <time>2023-05-17T10:53:02Z</time>
      </trkpt>
      <trkpt lat="43.43457" lon="6.63462">
        <ele>89.4</ele>
        <time>2023-05-17T10:53:03Z</time>
      </trkpt>
      <trkpt lat="43.43456" lon="6.63462">
        <ele>89.4</ele>
        <time>2023-05-17T10:53:04Z</time>
      </trkpt>
      <trkpt lat="43.43456" lon="6.63462">
        <ele>89.4</ele>
        <time>2023-05-17T10:53:06Z</time>
      </trkpt>
      <trkpt lat="43.43456" lon="6.63462">
        <ele>89.4</ele>
        <time>2023-05-17T10:53:07Z</time>
      </trkpt>
      <trkpt lat="43.43456" lon="6.63462">
        <ele>89.4</ele>
        <time>2023-05-17T10:53:08Z</time>
      </trkpt>
      <trkpt lat="43.43455" lon="6.63463">
        <ele>89.4</ele>
        <time>2023-05-17T10:53:10Z</time>
      </trkpt>
      <trkpt lat="43.43455" lon="6.63463">
        <ele>89.4</ele>
        <time>2023-05-17T10:53:11Z</time>
      </trkpt>
      <trkpt lat="43.43455" lon="6.63463">
        <ele>89.4</ele>
        <time>2023-05-17T10:53:12Z</time>
      </trkpt>
      <trkpt lat="43.43454" lon="6.63463">
        <ele>89.4</ele>
        <time>2023-05-17T10:53:13Z</time>
      </trkpt>
      <trkpt lat="43.43454" lon="6.63463">
        <ele>89.4</ele>
        <time>2023-05-17T10:53:15Z</time>
      </trkpt>
      <trkpt lat="43.43454" lon="6.63463">
        <ele>89.4</ele>
        <time>2023-05-17T10:53:16Z</time>
      </trkpt>
      <trkpt lat="43.43451" lon="6.63464">
        <ele>89.4</ele>
        <time>2023-05-17T10:53:17Z</time>
      </trkpt>
      <trkpt lat="43.43449" lon="6.63464">
        <ele>89.4</ele>
        <time>2023-05-17T10:53:18Z</time>
      </trkpt>
      <trkpt lat="43.43449" lon="6.63464">
        <ele>89.4</ele>
        <time>2023-05-17T10:53:19Z</time>
      </trkpt>
      <trkpt lat="43.43448" lon="6.63464">
        <ele>89.4</ele>
        <time>2023-05-17T10:53:20Z</time>
      </trkpt>
      <trkpt lat="43.43447" lon="6.63464">
        <ele>89.4</ele>
        <time>2023-05-17T10:53:21Z</time>
      </trkpt>
      <trkpt lat="43.43445" lon="6.63462">
        <ele>89.4</ele>
        <time>2023-05-17T10:53:22Z</time>
      </trkpt>
      <trkpt lat="43.43445" lon="6.63461">
        <ele>89.4</ele>
        <time>2023-05-17T10:53:23Z</time>
      </trkpt>
      <trkpt lat="43.43444" lon="6.63461">
        <ele>89.4</ele>
        <time>2023-05-17T10:53:25Z</time>
      </trkpt>
      <trkpt lat="43.43443" lon="6.6346">
        <ele>89.4</ele>
        <time>2023-05-17T10:53:26Z</time>
      </trkpt>
      <trkpt lat="43.43442" lon="6.63457">
        <ele>89.4</ele>
        <time>2023-05-17T10:53:27Z</time>
      </trkpt>
      <trkpt lat="43.43442" lon="6.63456">
        <ele>89.4</ele>
        <time>2023-05-17T10:53:28Z</time>
      </trkpt>
      <trkpt lat="43.43443" lon="6.63455">
        <ele>89.4</ele>
        <time>2023-05-17T10:53:30Z</time>
      </trkpt>
      <trkpt lat="43.43443" lon="6.63455">
        <ele>89.4</ele>
        <time>2023-05-17T10:53:31Z</time>
      </trkpt>
      <trkpt lat="43.43443" lon="6.63455">
        <ele>89.4</ele>
        <time>2023-05-17T10:53:32Z</time>
      </trkpt>
      <trkpt lat="43.43443" lon="6.63455">
        <ele>89.4</ele>
        <time>2023-05-17T10:53:34Z</time>
      </trkpt>
      <trkpt lat="43.43444" lon="6.63455">
        <ele>89.4</ele>
        <time>2023-05-17T10:53:35Z</time>
      </trkpt>
      <trkpt lat="43.43444" lon="6.63456">
        <ele>89.4</ele>
        <time>2023-05-17T10:53:36Z</time>
      </trkpt>
      <trkpt lat="43.43444" lon="6.63456">
        <ele>89.4</ele>
        <time>2023-05-17T10:53:38Z</time>
      </trkpt>
      <trkpt lat="43.43445" lon="6.63456">
        <ele>89.4</ele>
        <time>2023-05-17T10:53:39Z</time>
      </trkpt>
      <trkpt lat="43.43445" lon="6.63456">
        <ele>89.4</ele>
        <time>2023-05-17T10:53:40Z</time>
      </trkpt>
      <trkpt lat="43.43445" lon="6.63457">
        <ele>89.4</ele>
        <time>2023-05-17T10:53:41Z</time>
      </trkpt>
      <trkpt lat="43.43446" lon="6.63457">
        <ele>89.4</ele>
        <time>2023-05-17T10:53:43Z</time>
      </trkpt>
      <trkpt lat="43.43446" lon="6.63457">
        <ele>89.4</ele>
        <time>2023-05-17T10:53:44Z</time>
      </trkpt>
      <trkpt lat="43.43446" lon="6.63457">
        <ele>89.4</ele>
        <time>2023-05-17T10:53:47Z</time>
      </trkpt>
      <trkpt lat="43.43446" lon="6.63458">
        <ele>89.4</ele>
        <time>2023-05-17T10:53:48Z</time>
      </trkpt>
      <trkpt lat="43.43447" lon="6.63458">
        <ele>89.4</ele>
        <time>2023-05-17T10:53:49Z</time>
      </trkpt>
      <trkpt lat="43.43447" lon="6.63458">
        <ele>89.4</ele>
        <time>2023-05-17T10:53:50Z</time>
      </trkpt>
      <trkpt lat="43.43447" lon="6.63458">
        <ele>89.4</ele>
        <time>2023-05-17T10:53:51Z</time>
      </trkpt>
      <trkpt lat="43.43447" lon="6.63459">
        <ele>89.4</ele>
        <time>2023-05-17T10:53:52Z</time>
      </trkpt>
      <trkpt lat="43.43448" lon="6.63459">
        <ele>89.4</ele>
        <time>2023-05-17T10:53:53Z</time>
      </trkpt>
      <trkpt lat="43.43448" lon="6.63459">
        <ele>89.4</ele>
        <time>2023-05-17T10:53:54Z</time>
      </trkpt>
      <trkpt lat="43.43448" lon="6.63459">
        <ele>89.4</ele>
        <time>2023-05-17T10:53:55Z</time>
      </trkpt>
      <trkpt lat="43.4345" lon="6.6346">
        <ele>89.4</ele>
        <time>2023-05-17T10:53:56Z</time>
      </trkpt>
      <trkpt lat="43.43451" lon="6.63461">
        <ele>89.4</ele>
        <time>2023-05-17T10:53:57Z</time>
      </trkpt>
      <trkpt lat="43.43452" lon="6.63461">
        <ele>89.4</ele>
        <time>2023-05-17T10:53:58Z</time>
      </trkpt>
      <trkpt lat="43.43453" lon="6.63461">
        <ele>89.4</ele>
        <time>2023-05-17T10:54:00Z</time>
      </trkpt>
      <trkpt lat="43.43454" lon="6.63462">
        <ele>89.4</ele>
        <time>2023-05-17T10:54:01Z</time>
      </trkpt>
      <trkpt lat="43.43455" lon="6.63462">
        <ele>89.4</ele>
        <time>2023-05-17T10:54:02Z</time>
      </trkpt>
      <trkpt lat="43.43457" lon="6.63465">
        <ele>89.4</ele>
        <time>2023-05-17T10:54:03Z</time>
      </trkpt>
      <trkpt lat="43.43459" lon="6.63466">
        <ele>89.4</ele>
        <time>2023-05-17T10:54:04Z</time>
      </trkpt>
      <trkpt lat="43.43459" lon="6.63467">
        <ele>89.4</ele>
        <time>2023-05-17T10:54:05Z</time>
      </trkpt>
      <trkpt lat="43.4346" lon="6.63468">
        <ele>89.4</ele>
        <time>2023-05-17T10:54:06Z</time>
      </trkpt>
      <trkpt lat="43.43461" lon="6.63469">
        <ele>89.4</ele>
        <time>2023-05-17T10:54:08Z</time>
      </trkpt>
      <trkpt lat="43.43462" lon="6.63471">
        <ele>89.4</ele>
        <time>2023-05-17T10:54:09Z</time>
      </trkpt>
      <trkpt lat="43.43463" lon="6.63472">
        <ele>89.4</ele>
        <time>2023-05-17T10:54:10Z</time>
      </trkpt>
      <trkpt lat="43.43465" lon="6.6347">
        <ele>89.4</ele>
        <time>2023-05-17T10:54:11Z</time>
      </trkpt>
      <trkpt lat="43.43465" lon="6.63469">
        <ele>89.4</ele>
        <time>2023-05-17T10:54:13Z</time>
      </trkpt>
      <trkpt lat="43.43466" lon="6.63468">
        <ele>89.4</ele>
        <time>2023-05-17T10:54:14Z</time>
      </trkpt>
      <trkpt lat="43.43465" lon="6.63464">
        <ele>89.4</ele>
        <time>2023-05-17T10:54:15Z</time>
      </trkpt>
      <trkpt lat="43.43464" lon="6.63461">
        <ele>89.4</ele>
        <time>2023-05-17T10:54:17Z</time>
      </trkpt>
      <trkpt lat="43.43463" lon="6.6346">
        <ele>89.4</ele>
        <time>2023-05-17T10:54:18Z</time>
      </trkpt>
      <trkpt lat="43.43462" lon="6.63458">
        <ele>89.4</ele>
        <time>2023-05-17T10:54:19Z</time>
      </trkpt>
      <trkpt lat="43.43461" lon="6.63456">
        <ele>89.4</ele>
        <time>2023-05-17T10:54:20Z</time>
      </trkpt>
      <trkpt lat="43.4346" lon="6.63455">
        <ele>89.4</ele>
        <time>2023-05-17T10:54:21Z</time>
      </trkpt>
      <trkpt lat="43.43459" lon="6.63455">
        <ele>89.4</ele>
        <time>2023-05-17T10:54:22Z</time>
      </trkpt>
      <trkpt lat="43.43458" lon="6.63454">
        <ele>89.4</ele>
        <time>2023-05-17T10:54:23Z</time>
      </trkpt>
      <trkpt lat="43.43457" lon="6.63452">
        <ele>89.4</ele>
        <time>2023-05-17T10:54:24Z</time>
      </trkpt>
      <trkpt lat="43.43456" lon="6.63452">
        <ele>89.4</ele>
        <time>2023-05-17T10:54:26Z</time>
      </trkpt>
      <trkpt lat="43.43455" lon="6.63452">
        <ele>89.4</ele>
        <time>2023-05-17T10:54:27Z</time>
      </trkpt>
      <trkpt lat="43.43454" lon="6.63452">
        <ele>89.5</ele>
        <time>2023-05-17T10:54:28Z</time>
      </trkpt>
      <trkpt lat="43.43453" lon="6.63451">
        <ele>89.5</ele>
        <time>2023-05-17T10:54:29Z</time>
      </trkpt>
      <trkpt lat="43.43452" lon="6.63451">
        <ele>89.5</ele>
        <time>2023-05-17T10:54:30Z</time>
      </trkpt>
      <trkpt lat="43.43451" lon="6.6345">
        <ele>89.5</ele>
        <time>2023-05-17T10:54:31Z</time>
      </trkpt>
      <trkpt lat="43.43451" lon="6.63449">
        <ele>89.5</ele>
        <time>2023-05-17T10:54:32Z</time>
      </trkpt>
      <trkpt lat="43.4345" lon="6.63448">
        <ele>89.5</ele>
        <time>2023-05-17T10:54:33Z</time>
      </trkpt>
      <trkpt lat="43.43449" lon="6.63448">
        <ele>89.6</ele>
        <time>2023-05-17T10:54:34Z</time>
      </trkpt>
      <trkpt lat="43.43448" lon="6.63448">
        <ele>89.5</ele>
        <time>2023-05-17T10:54:35Z</time>
      </trkpt>
      <trkpt lat="43.43447" lon="6.63447">
        <ele>89.5</ele>
        <time>2023-05-17T10:54:37Z</time>
      </trkpt>
      <trkpt lat="43.43446" lon="6.63446">
        <ele>89.5</ele>
        <time>2023-05-17T10:54:38Z</time>
      </trkpt>
      <trkpt lat="43.43445" lon="6.63447">
        <ele>89.5</ele>
        <time>2023-05-17T10:54:39Z</time>
      </trkpt>
      <trkpt lat="43.43446" lon="6.63448">
        <ele>89.5</ele>
        <time>2023-05-17T10:54:41Z</time>
      </trkpt>
      <trkpt lat="43.43446" lon="6.63448">
        <ele>89.5</ele>
        <time>2023-05-17T10:54:42Z</time>
      </trkpt>
      <trkpt lat="43.43445" lon="6.63448">
        <ele>89.5</ele>
        <time>2023-05-17T10:54:43Z</time>
      </trkpt>
      <trkpt lat="43.43445" lon="6.63448">
        <ele>89.5</ele>
        <time>2023-05-17T10:54:44Z</time>
      </trkpt>
      <trkpt lat="43.43444" lon="6.63447">
        <ele>89.5</ele>
        <time>2023-05-17T10:54:46Z</time>
      </trkpt>
      <trkpt lat="43.43443" lon="6.63445">
        <ele>89.5</ele>
        <time>2023-05-17T10:54:47Z</time>
      </trkpt>
      <trkpt lat="43.43442" lon="6.63443">
        <ele>89.5</ele>
        <time>2023-05-17T10:54:48Z</time>
      </trkpt>
      <trkpt lat="43.43442" lon="6.63442">
        <ele>89.5</ele>
        <time>2023-05-17T10:54:49Z</time>
      </trkpt>
      <trkpt lat="43.43441" lon="6.63441">
        <ele>89.5</ele>
        <time>2023-05-17T10:54:51Z</time>
      </trkpt>
      <trkpt lat="43.43441" lon="6.63439">
        <ele>89.5</ele>
        <time>2023-05-17T10:54:52Z</time>
      </trkpt>
      <trkpt lat="43.4344" lon="6.63438">
        <ele>89.5</ele>
        <time>2023-05-17T10:54:53Z</time>
      </trkpt>
      <trkpt lat="43.4344" lon="6.63437">
        <ele>89.5</ele>
        <time>2023-05-17T10:54:54Z</time>
      </trkpt>
      <trkpt lat="43.4344" lon="6.63435">
        <ele>89.5</ele>
        <time>2023-05-17T10:54:55Z</time>
      </trkpt>
      <trkpt lat="43.4344" lon="6.63433">
        <ele>89.5</ele>
        <time>2023-05-17T10:54:56Z</time>
      </trkpt>
      <trkpt lat="43.4344" lon="6.63432">
        <ele>89.5</ele>
        <time>2023-05-17T10:54:57Z</time>
      </trkpt>
      <trkpt lat="43.4344" lon="6.6343">
        <ele>89.5</ele>
        <time>2023-05-17T10:54:59Z</time>
      </trkpt>
      <trkpt lat="43.4344" lon="6.63428">
        <ele>89.5</ele>
        <time>2023-05-17T10:55:00Z</time>
      </trkpt>
      <trkpt lat="43.4344" lon="6.63427">
        <ele>89.5</ele>
        <time>2023-05-17T10:55:01Z</time>
      </trkpt>
      <trkpt lat="43.43438" lon="6.63426">
        <ele>89.5</ele>
        <time>2023-05-17T10:55:02Z</time>
      </trkpt>
      <trkpt lat="43.43438" lon="6.63427">
        <ele>89.5</ele>
        <time>2023-05-17T10:55:04Z</time>
      </trkpt>
      <trkpt lat="43.43438" lon="6.63428">
        <ele>89.5</ele>
        <time>2023-05-17T10:55:05Z</time>
      </trkpt>
      <trkpt lat="43.43438" lon="6.63429">
        <ele>89.5</ele>
        <time>2023-05-17T10:55:06Z</time>
      </trkpt>
      <trkpt lat="43.43438" lon="6.6343">
        <ele>89.5</ele>
        <time>2023-05-17T10:55:07Z</time>
      </trkpt>
      <trkpt lat="43.43438" lon="6.6343">
        <ele>89.5</ele>
        <time>2023-05-17T10:55:09Z</time>
      </trkpt>
      <trkpt lat="43.43438" lon="6.6343">
        <ele>89.5</ele>
        <time>2023-05-17T10:55:10Z</time>
      </trkpt>
      <trkpt lat="43.43437" lon="6.63429">
        <ele>89.5</ele>
        <time>2023-05-17T10:55:11Z</time>
      </trkpt>
      <trkpt lat="43.43437" lon="6.63426">
        <ele>89.5</ele>
        <time>2023-05-17T10:55:12Z</time>
      </trkpt>
      <trkpt lat="43.43436" lon="6.63425">
        <ele>89.5</ele>
        <time>2023-05-17T10:55:13Z</time>
      </trkpt>
      <trkpt lat="43.43436" lon="6.63423">
        <ele>89.5</ele>
        <time>2023-05-17T10:55:14Z</time>
      </trkpt>
      <trkpt lat="43.43435" lon="6.63422">
        <ele>89.5</ele>
        <time>2023-05-17T10:55:15Z</time>
      </trkpt>
      <trkpt lat="43.43435" lon="6.63423">
        <ele>89.5</ele>
        <time>2023-05-17T10:55:16Z</time>
      </trkpt>
      <trkpt lat="43.43436" lon="6.63425">
        <ele>89.5</ele>
        <time>2023-05-17T10:55:18Z</time>
      </trkpt>
      <trkpt lat="43.43436" lon="6.63427">
        <ele>89.5</ele>
        <time>2023-05-17T10:55:19Z</time>
      </trkpt>
      <trkpt lat="43.43436" lon="6.63427">
        <ele>89.5</ele>
        <time>2023-05-17T10:55:20Z</time>
      </trkpt>
      <trkpt lat="43.43436" lon="6.63427">
        <ele>89.5</ele>
        <time>2023-05-17T10:55:22Z</time>
      </trkpt>
      <trkpt lat="43.43437" lon="6.63426">
        <ele>89.5</ele>
        <time>2023-05-17T10:55:23Z</time>
      </trkpt>
      <trkpt lat="43.43437" lon="6.63426">
        <ele>89.5</ele>
        <time>2023-05-17T10:55:24Z</time>
      </trkpt>
      <trkpt lat="43.43437" lon="6.63425">
        <ele>89.5</ele>
        <time>2023-05-17T10:55:26Z</time>
      </trkpt>
      <trkpt lat="43.43437" lon="6.63425">
        <ele>89.5</ele>
        <time>2023-05-17T10:55:27Z</time>
      </trkpt>
      <trkpt lat="43.43437" lon="6.63424">
        <ele>89.5</ele>
        <time>2023-05-17T10:55:28Z</time>
      </trkpt>
      <trkpt lat="43.43437" lon="6.63423">
        <ele>89.5</ele>
        <time>2023-05-17T10:55:29Z</time>
      </trkpt>
      <trkpt lat="43.43437" lon="6.63423">
        <ele>89.5</ele>
        <time>2023-05-17T10:55:31Z</time>
      </trkpt>
      <trkpt lat="43.43437" lon="6.63422">
        <ele>89.6</ele>
        <time>2023-05-17T10:55:32Z</time>
      </trkpt>
      <trkpt lat="43.43436" lon="6.63418">
        <ele>89.6</ele>
        <time>2023-05-17T10:55:33Z</time>
      </trkpt>
      <trkpt lat="43.43435" lon="6.63416">
        <ele>89.6</ele>
        <time>2023-05-17T10:55:34Z</time>
      </trkpt>
      <trkpt lat="43.43434" lon="6.63416">
        <ele>89.6</ele>
        <time>2023-05-17T10:55:36Z</time>
      </trkpt>
      <trkpt lat="43.43434" lon="6.63416">
        <ele>89.6</ele>
        <time>2023-05-17T10:55:37Z</time>
      </trkpt>
      <trkpt lat="43.43434" lon="6.63416">
        <ele>89.7</ele>
        <time>2023-05-17T10:55:38Z</time>
      </trkpt>
      <trkpt lat="43.43434" lon="6.63416">
        <ele>89.7</ele>
        <time>2023-05-17T10:55:39Z</time>
      </trkpt>
      <trkpt lat="43.43434" lon="6.63417">
        <ele>89.7</ele>
        <time>2023-05-17T10:55:41Z</time>
      </trkpt>
      <trkpt lat="43.43434" lon="6.63417">
        <ele>89.7</ele>
        <time>2023-05-17T10:55:42Z</time>
      </trkpt>
      <trkpt lat="43.43434" lon="6.63417">
        <ele>89.7</ele>
        <time>2023-05-17T10:55:43Z</time>
      </trkpt>
      <trkpt lat="43.43434" lon="6.63416">
        <ele>89.7</ele>
        <time>2023-05-17T10:55:45Z</time>
      </trkpt>
      <trkpt lat="43.43434" lon="6.63416">
        <ele>89.7</ele>
        <time>2023-05-17T10:55:46Z</time>
      </trkpt>
      <trkpt lat="43.43434" lon="6.63416">
        <ele>89.7</ele>
        <time>2023-05-17T10:55:47Z</time>
      </trkpt>
      <trkpt lat="43.43434" lon="6.63416">
        <ele>89.7</ele>
        <time>2023-05-17T10:55:49Z</time>
      </trkpt>
      <trkpt lat="43.43433" lon="6.63416">
        <ele>89.7</ele>
        <time>2023-05-17T10:55:50Z</time>
      </trkpt>
      <trkpt lat="43.43432" lon="6.63415">
        <ele>89.7</ele>
        <time>2023-05-17T10:55:51Z</time>
      </trkpt>
      <trkpt lat="43.43432" lon="6.63412">
        <ele>89.8</ele>
        <time>2023-05-17T10:55:53Z</time>
      </trkpt>
      <trkpt lat="43.43432" lon="6.63411">
        <ele>89.8</ele>
        <time>2023-05-17T10:55:54Z</time>
      </trkpt>
      <trkpt lat="43.43431" lon="6.6341">
        <ele>89.8</ele>
        <time>2023-05-17T10:55:55Z</time>
      </trkpt>
      <trkpt lat="43.43431" lon="6.63408">
        <ele>89.9</ele>
        <time>2023-05-17T10:55:56Z</time>
      </trkpt>
      <trkpt lat="43.43431" lon="6.63405">
        <ele>89.9</ele>
        <time>2023-05-17T10:55:57Z</time>
      </trkpt>
      <trkpt lat="43.43431" lon="6.634">
        <ele>90</ele>
        <time>2023-05-17T10:55:58Z</time>
      </trkpt>
      <trkpt lat="43.4343" lon="6.63399">
        <ele>90.1</ele>
        <time>2023-05-17T10:55:59Z</time>
      </trkpt>
      <trkpt lat="43.4343" lon="6.63397">
        <ele>90.1</ele>
        <time>2023-05-17T10:56:00Z</time>
      </trkpt>
      <trkpt lat="43.43429" lon="6.63395">
        <ele>90.2</ele>
        <time>2023-05-17T10:56:01Z</time>
      </trkpt>
      <trkpt lat="43.43428" lon="6.63394">
        <ele>90.3</ele>
        <time>2023-05-17T10:56:03Z</time>
      </trkpt>
      <trkpt lat="43.43427" lon="6.63391">
        <ele>90.4</ele>
        <time>2023-05-17T10:56:04Z</time>
      </trkpt>
      <trkpt lat="43.43426" lon="6.63389">
        <ele>90.4</ele>
        <time>2023-05-17T10:56:05Z</time>
      </trkpt>
      <trkpt lat="43.43425" lon="6.63388">
        <ele>90.5</ele>
        <time>2023-05-17T10:56:06Z</time>
      </trkpt>
      <trkpt lat="43.43424" lon="6.63387">
        <ele>90.6</ele>
        <time>2023-05-17T10:56:07Z</time>
      </trkpt>
      <trkpt lat="43.43422" lon="6.63386">
        <ele>90.7</ele>
        <time>2023-05-17T10:56:09Z</time>
      </trkpt>
      <trkpt lat="43.43421" lon="6.63385">
        <ele>90.8</ele>
        <time>2023-05-17T10:56:10Z</time>
      </trkpt>
      <trkpt lat="43.43419" lon="6.63385">
        <ele>90.8</ele>
        <time>2023-05-17T10:56:11Z</time>
      </trkpt>
      <trkpt lat="43.43418" lon="6.63385">
        <ele>90.9</ele>
        <time>2023-05-17T10:56:12Z</time>
      </trkpt>
      <trkpt lat="43.43417" lon="6.63386">
        <ele>91</ele>
        <time>2023-05-17T10:56:13Z</time>
      </trkpt>
      <trkpt lat="43.43417" lon="6.63386">
        <ele>91</ele>
        <time>2023-05-17T10:56:14Z</time>
      </trkpt>
      <trkpt lat="43.43417" lon="6.63386">
        <ele>91</ele>
        <time>2023-05-17T10:56:15Z</time>
      </trkpt>
      <trkpt lat="43.43416" lon="6.63387">
        <ele>91.1</ele>
        <time>2023-05-17T10:56:16Z</time>
      </trkpt>
      <trkpt lat="43.43417" lon="6.63387">
        <ele>91.1</ele>
        <time>2023-05-17T10:56:18Z</time>
      </trkpt>
      <trkpt lat="43.43417" lon="6.63387">
        <ele>91.1</ele>
        <time>2023-05-17T10:56:19Z</time>
      </trkpt>
      <trkpt lat="43.43417" lon="6.63388">
        <ele>91.2</ele>
        <time>2023-05-17T10:56:20Z</time>
      </trkpt>
      <trkpt lat="43.43418" lon="6.63388">
        <ele>91.2</ele>
        <time>2023-05-17T10:56:22Z</time>
      </trkpt>
      <trkpt lat="43.43418" lon="6.63389">
        <ele>91.2</ele>
        <time>2023-05-17T10:56:23Z</time>
      </trkpt>
      <trkpt lat="43.43418" lon="6.63389">
        <ele>91.2</ele>
        <time>2023-05-17T10:56:24Z</time>
      </trkpt>
      <trkpt lat="43.43418" lon="6.63389">
        <ele>91.2</ele>
        <time>2023-05-17T10:56:26Z</time>
      </trkpt>
      <trkpt lat="43.43418" lon="6.63389">
        <ele>91.2</ele>
        <time>2023-05-17T10:56:27Z</time>
      </trkpt>
      <trkpt lat="43.43418" lon="6.63389">
        <ele>91.2</ele>
        <time>2023-05-17T10:56:28Z</time>
      </trkpt>
      <trkpt lat="43.43418" lon="6.63389">
        <ele>91.2</ele>
        <time>2023-05-17T10:56:30Z</time>
      </trkpt>
      <trkpt lat="43.43418" lon="6.63389">
        <ele>91.2</ele>
        <time>2023-05-17T10:56:31Z</time>
      </trkpt>
      <trkpt lat="43.43418" lon="6.63389">
        <ele>91.3</ele>
        <time>2023-05-17T10:56:32Z</time>
      </trkpt>
      <trkpt lat="43.43419" lon="6.63389">
        <ele>91.3</ele>
        <time>2023-05-17T10:56:33Z</time>
      </trkpt>
      <trkpt lat="43.43419" lon="6.63389">
        <ele>91.3</ele>
        <time>2023-05-17T10:56:34Z</time>
      </trkpt>
      <trkpt lat="43.43419" lon="6.63389">
        <ele>91.3</ele>
        <time>2023-05-17T10:56:35Z</time>
      </trkpt>
      <trkpt lat="43.43419" lon="6.63389">
        <ele>91.3</ele>
        <time>2023-05-17T10:56:36Z</time>
      </trkpt>
      <trkpt lat="43.43419" lon="6.63389">
        <ele>91.3</ele>
        <time>2023-05-17T10:56:37Z</time>
      </trkpt>
      <trkpt lat="43.43419" lon="6.63389">
        <ele>91.4</ele>
        <time>2023-05-17T10:56:38Z</time>
      </trkpt>
      <trkpt lat="43.4342" lon="6.63389">
        <ele>91.4</ele>
        <time>2023-05-17T10:56:39Z</time>
      </trkpt>
      <trkpt lat="43.4342" lon="6.63389">
        <ele>91.4</ele>
        <time>2023-05-17T10:56:40Z</time>
      </trkpt>
      <trkpt lat="43.4342" lon="6.63389">
        <ele>91.4</ele>
        <time>2023-05-17T10:56:41Z</time>
      </trkpt>
      <trkpt lat="43.4342" lon="6.63389">
        <ele>91.4</ele>
        <time>2023-05-17T10:56:42Z</time>
      </trkpt>
      <trkpt lat="43.4342" lon="6.63389">
        <ele>91.4</ele>
        <time>2023-05-17T10:56:43Z</time>
      </trkpt>
      <trkpt lat="43.4342" lon="6.63389">
        <ele>91.4</ele>
        <time>2023-05-17T10:56:44Z</time>
      </trkpt>
      <trkpt lat="43.4342" lon="6.63389">
        <ele>91.4</ele>
        <time>2023-05-17T10:56:45Z</time>
      </trkpt>
      <trkpt lat="43.4342" lon="6.63389">
        <ele>91.4</ele>
        <time>2023-05-17T10:56:46Z</time>
      </trkpt>
      <trkpt lat="43.4342" lon="6.63389">
        <ele>91.4</ele>
        <time>2023-05-17T10:56:47Z</time>
      </trkpt>
      <trkpt lat="43.4342" lon="6.63389">
        <ele>91.4</ele>
        <time>2023-05-17T10:56:48Z</time>
      </trkpt>
      <trkpt lat="43.4342" lon="6.6339">
        <ele>91.5</ele>
        <time>2023-05-17T10:56:49Z</time>
      </trkpt>
      <trkpt lat="43.4342" lon="6.6339">
        <ele>91.5</ele>
        <time>2023-05-17T10:56:50Z</time>
      </trkpt>
      <trkpt lat="43.4342" lon="6.6339">
        <ele>91.5</ele>
        <time>2023-05-17T10:56:51Z</time>
      </trkpt>
      <trkpt lat="43.4342" lon="6.6339">
        <ele>91.5</ele>
        <time>2023-05-17T10:56:52Z</time>
      </trkpt>
      <trkpt lat="43.4342" lon="6.6339">
        <ele>91.5</ele>
        <time>2023-05-17T10:56:53Z</time>
      </trkpt>
      <trkpt lat="43.4342" lon="6.6339">
        <ele>91.5</ele>
        <time>2023-05-17T10:56:54Z</time>
      </trkpt>
      <trkpt lat="43.4342" lon="6.6339">
        <ele>91.5</ele>
        <time>2023-05-17T10:56:55Z</time>
      </trkpt>
      <trkpt lat="43.4342" lon="6.6339">
        <ele>91.5</ele>
        <time>2023-05-17T10:56:56Z</time>
      </trkpt>
      <trkpt lat="43.4342" lon="6.6339">
        <ele>91.5</ele>
        <time>2023-05-17T10:57:01Z</time>
      </trkpt>
      <trkpt lat="43.4342" lon="6.6339">
        <ele>91.5</ele>
        <time>2023-05-17T10:57:02Z</time>
      </trkpt>
      <trkpt lat="43.4342" lon="6.6339">
        <ele>91.5</ele>
        <time>2023-05-17T10:57:03Z</time>
      </trkpt>
      <trkpt lat="43.4342" lon="6.6339">
        <ele>91.5</ele>
        <time>2023-05-17T10:57:04Z</time>
      </trkpt>
      <trkpt lat="43.4342" lon="6.6339">
        <ele>91.5</ele>
        <time>2023-05-17T10:57:05Z</time>
      </trkpt>
      <trkpt lat="43.4342" lon="6.6339">
        <ele>91.5</ele>
        <time>2023-05-17T10:57:07Z</time>
      </trkpt>
      <trkpt lat="43.4342" lon="6.6339">
        <ele>91.5</ele>
        <time>2023-05-17T10:57:08Z</time>
      </trkpt>
      <trkpt lat="43.4342" lon="6.6339">
        <ele>91.5</ele>
        <time>2023-05-17T10:57:09Z</time>
      </trkpt>
      <trkpt lat="43.4342" lon="6.6339">
        <ele>91.5</ele>
        <time>2023-05-17T10:57:10Z</time>
      </trkpt>
      <trkpt lat="43.4342" lon="6.6339">
        <ele>91.5</ele>
        <time>2023-05-17T10:57:11Z</time>
      </trkpt>
      <trkpt lat="43.4342" lon="6.6339">
        <ele>91.5</ele>
        <time>2023-05-17T10:57:12Z</time>
      </trkpt>
      <trkpt lat="43.4342" lon="6.6339">
        <ele>91.5</ele>
        <time>2023-05-17T10:57:13Z</time>
      </trkpt>
      <trkpt lat="43.4342" lon="6.6339">
        <ele>91.5</ele>
        <time>2023-05-17T10:57:14Z</time>
      </trkpt>
      <trkpt lat="43.4342" lon="6.6339">
        <ele>91.5</ele>
        <time>2023-05-17T10:57:15Z</time>
      </trkpt>
      <trkpt lat="43.4342" lon="6.6339">
        <ele>91.5</ele>
        <time>2023-05-17T10:57:16Z</time>
      </trkpt>
      <trkpt lat="43.4342" lon="6.6339">
        <ele>91.5</ele>
        <time>2023-05-17T10:57:17Z</time>
      </trkpt>
      <trkpt lat="43.4342" lon="6.63389">
        <ele>91.5</ele>
        <time>2023-05-17T10:57:18Z</time>
      </trkpt>
      <trkpt lat="43.4342" lon="6.63389">
        <ele>91.5</ele>
        <time>2023-05-17T10:57:19Z</time>
      </trkpt>
      <trkpt lat="43.4342" lon="6.63389">
        <ele>91.6</ele>
        <time>2023-05-17T10:57:20Z</time>
      </trkpt>
      <trkpt lat="43.4342" lon="6.63389">
        <ele>91.6</ele>
        <time>2023-05-17T10:57:21Z</time>
      </trkpt>
      <trkpt lat="43.4342" lon="6.63389">
        <ele>91.6</ele>
        <time>2023-05-17T10:57:22Z</time>
      </trkpt>
      <trkpt lat="43.4342" lon="6.63389">
        <ele>91.6</ele>
        <time>2023-05-17T10:57:23Z</time>
      </trkpt>
      <trkpt lat="43.4342" lon="6.63389">
        <ele>91.6</ele>
        <time>2023-05-17T10:57:24Z</time>
      </trkpt>
      <trkpt lat="43.4342" lon="6.63389">
        <ele>91.6</ele>
        <time>2023-05-17T10:57:25Z</time>
      </trkpt>
      <trkpt lat="43.4342" lon="6.63389">
        <ele>91.6</ele>
        <time>2023-05-17T10:57:26Z</time>
      </trkpt>
      <trkpt lat="43.4342" lon="6.63389">
        <ele>91.6</ele>
        <time>2023-05-17T10:57:27Z</time>
      </trkpt>
      <trkpt lat="43.4342" lon="6.63389">
        <ele>91.6</ele>
        <time>2023-05-17T10:57:28Z</time>
      </trkpt>
      <trkpt lat="43.4342" lon="6.63389">
        <ele>91.6</ele>
        <time>2023-05-17T10:57:29Z</time>
      </trkpt>
      <trkpt lat="43.4342" lon="6.63389">
        <ele>91.6</ele>
        <time>2023-05-17T10:57:30Z</time>
      </trkpt>
      <trkpt lat="43.4342" lon="6.63389">
        <ele>91.6</ele>
        <time>2023-05-17T10:57:31Z</time>
      </trkpt>
      <trkpt lat="43.4342" lon="6.63389">
        <ele>91.6</ele>
        <time>2023-05-17T10:57:32Z</time>
      </trkpt>
      <trkpt lat="43.4342" lon="6.63389">
        <ele>91.6</ele>
        <time>2023-05-17T10:57:33Z</time>
      </trkpt>
      <trkpt lat="43.4342" lon="6.63389">
        <ele>91.6</ele>
        <time>2023-05-17T10:57:34Z</time>
      </trkpt>
      <trkpt lat="43.4342" lon="6.63388">
        <ele>91.6</ele>
        <time>2023-05-17T10:57:35Z</time>
      </trkpt>
      <trkpt lat="43.4342" lon="6.63388">
        <ele>91.6</ele>
        <time>2023-05-17T10:57:36Z</time>
      </trkpt>
      <trkpt lat="43.4342" lon="6.63388">
        <ele>91.6</ele>
        <time>2023-05-17T10:57:37Z</time>
      </trkpt>
      <trkpt lat="43.4342" lon="6.63387">
        <ele>91.7</ele>
        <time>2023-05-17T10:57:38Z</time>
      </trkpt>
      <trkpt lat="43.43419" lon="6.63386">
        <ele>91.7</ele>
        <time>2023-05-17T10:57:39Z</time>
      </trkpt>
      <trkpt lat="43.43418" lon="6.63385">
        <ele>91.8</ele>
        <time>2023-05-17T10:57:40Z</time>
      </trkpt>
      <trkpt lat="43.43418" lon="6.63384">
        <ele>91.9</ele>
        <time>2023-05-17T10:57:41Z</time>
      </trkpt>
      <trkpt lat="43.43418" lon="6.63383">
        <ele>91.9</ele>
        <time>2023-05-17T10:57:42Z</time>
      </trkpt>
      <trkpt lat="43.43417" lon="6.63382">
        <ele>92</ele>
        <time>2023-05-17T10:57:43Z</time>
      </trkpt>
      <trkpt lat="43.43417" lon="6.63381">
        <ele>92</ele>
        <time>2023-05-17T10:57:44Z</time>
      </trkpt>
      <trkpt lat="43.43417" lon="6.6338">
        <ele>92.1</ele>
        <time>2023-05-17T10:57:46Z</time>
      </trkpt>
      <trkpt lat="43.43417" lon="6.63379">
        <ele>92.1</ele>
        <time>2023-05-17T10:57:47Z</time>
      </trkpt>
      <trkpt lat="43.43417" lon="6.63378">
        <ele>92.2</ele>
        <time>2023-05-17T10:57:48Z</time>
      </trkpt>
      <trkpt lat="43.43417" lon="6.63376">
        <ele>92.3</ele>
        <time>2023-05-17T10:57:49Z</time>
      </trkpt>
      <trkpt lat="43.43417" lon="6.63374">
        <ele>92.7</ele>
        <time>2023-05-17T10:57:50Z</time>
      </trkpt>
      <trkpt lat="43.43416" lon="6.63372">
        <ele>92.8</ele>
        <time>2023-05-17T10:57:51Z</time>
      </trkpt>
      <trkpt lat="43.43416" lon="6.63369">
        <ele>93</ele>
        <time>2023-05-17T10:57:53Z</time>
      </trkpt>
      <trkpt lat="43.43416" lon="6.63368">
        <ele>93.1</ele>
        <time>2023-05-17T10:57:54Z</time>
      </trkpt>
      <trkpt lat="43.43415" lon="6.63367">
        <ele>93.2</ele>
        <time>2023-05-17T10:57:55Z</time>
      </trkpt>
      <trkpt lat="43.43415" lon="6.63366">
        <ele>93.3</ele>
        <time>2023-05-17T10:57:56Z</time>
      </trkpt>
      <trkpt lat="43.43415" lon="6.63365">
        <ele>93.4</ele>
        <time>2023-05-17T10:57:57Z</time>
      </trkpt>
      <trkpt lat="43.43415" lon="6.63363">
        <ele>93.6</ele>
        <time>2023-05-17T10:57:58Z</time>
      </trkpt>
      <trkpt lat="43.43415" lon="6.63362">
        <ele>93.7</ele>
        <time>2023-05-17T10:57:59Z</time>
      </trkpt>
      <trkpt lat="43.43415" lon="6.63361">
        <ele>93.8</ele>
        <time>2023-05-17T10:58:00Z</time>
      </trkpt>
      <trkpt lat="43.43414" lon="6.63359">
        <ele>93.9</ele>
        <time>2023-05-17T10:58:02Z</time>
      </trkpt>
      <trkpt lat="43.43414" lon="6.63358">
        <ele>93.9</ele>
        <time>2023-05-17T10:58:03Z</time>
      </trkpt>
      <trkpt lat="43.43414" lon="6.63357">
        <ele>94.1</ele>
        <time>2023-05-17T10:58:04Z</time>
      </trkpt>
      <trkpt lat="43.43414" lon="6.63355">
        <ele>94.2</ele>
        <time>2023-05-17T10:58:05Z</time>
      </trkpt>
      <trkpt lat="43.43414" lon="6.63355">
        <ele>94.3</ele>
        <time>2023-05-17T10:58:06Z</time>
      </trkpt>
      <trkpt lat="43.43413" lon="6.63353">
        <ele>94.3</ele>
        <time>2023-05-17T10:58:07Z</time>
      </trkpt>
      <trkpt lat="43.43413" lon="6.63353">
        <ele>94.4</ele>
        <time>2023-05-17T10:58:08Z</time>
      </trkpt>
      <trkpt lat="43.43413" lon="6.63351">
        <ele>94.5</ele>
        <time>2023-05-17T10:58:09Z</time>
      </trkpt>
      <trkpt lat="43.43413" lon="6.6335">
        <ele>94.6</ele>
        <time>2023-05-17T10:58:10Z</time>
      </trkpt>
      <trkpt lat="43.43412" lon="6.63348">
        <ele>94.8</ele>
        <time>2023-05-17T10:58:12Z</time>
      </trkpt>
      <trkpt lat="43.43412" lon="6.63347">
        <ele>94.9</ele>
        <time>2023-05-17T10:58:13Z</time>
      </trkpt>
      <trkpt lat="43.43412" lon="6.63346">
        <ele>94.9</ele>
        <time>2023-05-17T10:58:14Z</time>
      </trkpt>
      <trkpt lat="43.43412" lon="6.63344">
        <ele>95</ele>
        <time>2023-05-17T10:58:15Z</time>
      </trkpt>
      <trkpt lat="43.43412" lon="6.63344">
        <ele>95.1</ele>
        <time>2023-05-17T10:58:16Z</time>
      </trkpt>
      <trkpt lat="43.43412" lon="6.63343">
        <ele>95.1</ele>
        <time>2023-05-17T10:58:17Z</time>
      </trkpt>
      <trkpt lat="43.43412" lon="6.63342">
        <ele>95.2</ele>
        <time>2023-05-17T10:58:18Z</time>
      </trkpt>
      <trkpt lat="43.43412" lon="6.6334">
        <ele>95.3</ele>
        <time>2023-05-17T10:58:20Z</time>
      </trkpt>
      <trkpt lat="43.43412" lon="6.63338">
        <ele>95.4</ele>
        <time>2023-05-17T10:58:21Z</time>
      </trkpt>
      <trkpt lat="43.43412" lon="6.63337">
        <ele>95.5</ele>
        <time>2023-05-17T10:58:22Z</time>
      </trkpt>
      <trkpt lat="43.43412" lon="6.63336">
        <ele>95.6</ele>
        <time>2023-05-17T10:58:24Z</time>
      </trkpt>
      <trkpt lat="43.43412" lon="6.63334">
        <ele>95.7</ele>
        <time>2023-05-17T10:58:25Z</time>
      </trkpt>
      <trkpt lat="43.43412" lon="6.63333">
        <ele>95.7</ele>
        <time>2023-05-17T10:58:26Z</time>
      </trkpt>
      <trkpt lat="43.43412" lon="6.63332">
        <ele>95.8</ele>
        <time>2023-05-17T10:58:27Z</time>
      </trkpt>
      <trkpt lat="43.43412" lon="6.6333">
        <ele>95.9</ele>
        <time>2023-05-17T10:58:28Z</time>
      </trkpt>
      <trkpt lat="43.43412" lon="6.63329">
        <ele>96</ele>
        <time>2023-05-17T10:58:29Z</time>
      </trkpt>
      <trkpt lat="43.43412" lon="6.63327">
        <ele>96.1</ele>
        <time>2023-05-17T10:58:30Z</time>
      </trkpt>
      <trkpt lat="43.43412" lon="6.63325">
        <ele>96.2</ele>
        <time>2023-05-17T10:58:31Z</time>
      </trkpt>
      <trkpt lat="43.43413" lon="6.63324">
        <ele>96.3</ele>
        <time>2023-05-17T10:58:33Z</time>
      </trkpt>
      <trkpt lat="43.43413" lon="6.63323">
        <ele>96.3</ele>
        <time>2023-05-17T10:58:34Z</time>
      </trkpt>
      <trkpt lat="43.43413" lon="6.63321">
        <ele>96.4</ele>
        <time>2023-05-17T10:58:35Z</time>
      </trkpt>
      <trkpt lat="43.43414" lon="6.6332">
        <ele>96.5</ele>
        <time>2023-05-17T10:58:36Z</time>
      </trkpt>
      <trkpt lat="43.43414" lon="6.63319">
        <ele>96.5</ele>
        <time>2023-05-17T10:58:37Z</time>
      </trkpt>
      <trkpt lat="43.43414" lon="6.63318">
        <ele>96.6</ele>
        <time>2023-05-17T10:58:38Z</time>
      </trkpt>
      <trkpt lat="43.43414" lon="6.63317">
        <ele>96.7</ele>
        <time>2023-05-17T10:58:39Z</time>
      </trkpt>
      <trkpt lat="43.43414" lon="6.63315">
        <ele>96.8</ele>
        <time>2023-05-17T10:58:41Z</time>
      </trkpt>
      <trkpt lat="43.43414" lon="6.63313">
        <ele>96.8</ele>
        <time>2023-05-17T10:58:42Z</time>
      </trkpt>
      <trkpt lat="43.43414" lon="6.63312">
        <ele>96.9</ele>
        <time>2023-05-17T10:58:43Z</time>
      </trkpt>
      <trkpt lat="43.43414" lon="6.63311">
        <ele>97</ele>
        <time>2023-05-17T10:58:44Z</time>
      </trkpt>
      <trkpt lat="43.43414" lon="6.63309">
        <ele>97.1</ele>
        <time>2023-05-17T10:58:45Z</time>
      </trkpt>
      <trkpt lat="43.43414" lon="6.63308">
        <ele>97.1</ele>
        <time>2023-05-17T10:58:46Z</time>
      </trkpt>
      <trkpt lat="43.43415" lon="6.63306">
        <ele>97.3</ele>
        <time>2023-05-17T10:58:47Z</time>
      </trkpt>
      <trkpt lat="43.43416" lon="6.63304">
        <ele>97.4</ele>
        <time>2023-05-17T10:58:48Z</time>
      </trkpt>
      <trkpt lat="43.43416" lon="6.63303">
        <ele>97.5</ele>
        <time>2023-05-17T10:58:50Z</time>
      </trkpt>
      <trkpt lat="43.43417" lon="6.63302">
        <ele>97.6</ele>
        <time>2023-05-17T10:58:51Z</time>
      </trkpt>
      <trkpt lat="43.43417" lon="6.633">
        <ele>97.7</ele>
        <time>2023-05-17T10:58:52Z</time>
      </trkpt>
      <trkpt lat="43.43417" lon="6.63299">
        <ele>97.7</ele>
        <time>2023-05-17T10:58:53Z</time>
      </trkpt>
      <trkpt lat="43.43418" lon="6.63297">
        <ele>97.9</ele>
        <time>2023-05-17T10:58:54Z</time>
      </trkpt>
      <trkpt lat="43.43419" lon="6.63295">
        <ele>98</ele>
        <time>2023-05-17T10:58:55Z</time>
      </trkpt>
      <trkpt lat="43.43419" lon="6.63294">
        <ele>98.1</ele>
        <time>2023-05-17T10:58:56Z</time>
      </trkpt>
      <trkpt lat="43.4342" lon="6.63293">
        <ele>98.1</ele>
        <time>2023-05-17T10:58:57Z</time>
      </trkpt>
      <trkpt lat="43.4342" lon="6.63292">
        <ele>98.2</ele>
        <time>2023-05-17T10:58:59Z</time>
      </trkpt>
      <trkpt lat="43.4342" lon="6.6329">
        <ele>98.4</ele>
        <time>2023-05-17T10:59:00Z</time>
      </trkpt>
      <trkpt lat="43.43422" lon="6.63288">
        <ele>98.6</ele>
        <time>2023-05-17T10:59:01Z</time>
      </trkpt>
      <trkpt lat="43.43423" lon="6.63287">
        <ele>98.6</ele>
        <time>2023-05-17T10:59:02Z</time>
      </trkpt>
      <trkpt lat="43.43423" lon="6.63286">
        <ele>98.7</ele>
        <time>2023-05-17T10:59:03Z</time>
      </trkpt>
      <trkpt lat="43.43424" lon="6.63285">
        <ele>98.8</ele>
        <time>2023-05-17T10:59:04Z</time>
      </trkpt>
      <trkpt lat="43.43424" lon="6.63283">
        <ele>99</ele>
        <time>2023-05-17T10:59:05Z</time>
      </trkpt>
      <trkpt lat="43.43425" lon="6.63282">
        <ele>99.1</ele>
        <time>2023-05-17T10:59:07Z</time>
      </trkpt>
      <trkpt lat="43.43425" lon="6.63281">
        <ele>99.2</ele>
        <time>2023-05-17T10:59:08Z</time>
      </trkpt>
      <trkpt lat="43.43425" lon="6.63279">
        <ele>99.3</ele>
        <time>2023-05-17T10:59:09Z</time>
      </trkpt>
      <trkpt lat="43.43426" lon="6.63277">
        <ele>99.5</ele>
        <time>2023-05-17T10:59:10Z</time>
      </trkpt>
      <trkpt lat="43.43426" lon="6.63276">
        <ele>99.5</ele>
        <time>2023-05-17T10:59:11Z</time>
      </trkpt>
      <trkpt lat="43.43426" lon="6.63275">
        <ele>99.6</ele>
        <time>2023-05-17T10:59:12Z</time>
      </trkpt>
      <trkpt lat="43.43426" lon="6.63274">
        <ele>99.8</ele>
        <time>2023-05-17T10:59:13Z</time>
      </trkpt>
      <trkpt lat="43.43426" lon="6.63272">
        <ele>99.9</ele>
        <time>2023-05-17T10:59:14Z</time>
      </trkpt>
      <trkpt lat="43.43427" lon="6.6327">
        <ele>100</ele>
        <time>2023-05-17T10:59:16Z</time>
      </trkpt>
      <trkpt lat="43.43427" lon="6.63269">
        <ele>100.1</ele>
        <time>2023-05-17T10:59:17Z</time>
      </trkpt>
      <trkpt lat="43.43427" lon="6.63268">
        <ele>100.3</ele>
        <time>2023-05-17T10:59:18Z</time>
      </trkpt>
      <trkpt lat="43.43428" lon="6.63267">
        <ele>100.4</ele>
        <time>2023-05-17T10:59:19Z</time>
      </trkpt>
      <trkpt lat="43.43429" lon="6.63265">
        <ele>100.6</ele>
        <time>2023-05-17T10:59:20Z</time>
      </trkpt>
      <trkpt lat="43.43429" lon="6.63264">
        <ele>100.7</ele>
        <time>2023-05-17T10:59:21Z</time>
      </trkpt>
      <trkpt lat="43.4343" lon="6.63263">
        <ele>100.8</ele>
        <time>2023-05-17T10:59:22Z</time>
      </trkpt>
      <trkpt lat="43.43431" lon="6.63262">
        <ele>100.9</ele>
        <time>2023-05-17T10:59:24Z</time>
      </trkpt>
      <trkpt lat="43.43431" lon="6.63261">
        <ele>101</ele>
        <time>2023-05-17T10:59:25Z</time>
      </trkpt>
      <trkpt lat="43.43433" lon="6.6326">
        <ele>101.2</ele>
        <time>2023-05-17T10:59:26Z</time>
      </trkpt>
      <trkpt lat="43.43434" lon="6.63259">
        <ele>101.5</ele>
        <time>2023-05-17T10:59:27Z</time>
      </trkpt>
      <trkpt lat="43.43434" lon="6.63258">
        <ele>101.6</ele>
        <time>2023-05-17T10:59:28Z</time>
      </trkpt>
      <trkpt lat="43.43434" lon="6.63257">
        <ele>101.7</ele>
        <time>2023-05-17T10:59:29Z</time>
      </trkpt>
      <trkpt lat="43.43435" lon="6.63256">
        <ele>101.8</ele>
        <time>2023-05-17T10:59:30Z</time>
      </trkpt>
      <trkpt lat="43.43435" lon="6.63255">
        <ele>101.8</ele>
        <time>2023-05-17T10:59:31Z</time>
      </trkpt>
      <trkpt lat="43.43435" lon="6.63255">
        <ele>101.9</ele>
        <time>2023-05-17T10:59:32Z</time>
      </trkpt>
      <trkpt lat="43.43435" lon="6.63254">
        <ele>102</ele>
        <time>2023-05-17T10:59:34Z</time>
      </trkpt>
      <trkpt lat="43.43435" lon="6.63253">
        <ele>102.1</ele>
        <time>2023-05-17T10:59:35Z</time>
      </trkpt>
      <trkpt lat="43.43436" lon="6.63251">
        <ele>102.3</ele>
        <time>2023-05-17T10:59:36Z</time>
      </trkpt>
      <trkpt lat="43.43436" lon="6.6325">
        <ele>102.4</ele>
        <time>2023-05-17T10:59:37Z</time>
      </trkpt>
      <trkpt lat="43.43436" lon="6.63249">
        <ele>102.6</ele>
        <time>2023-05-17T10:59:38Z</time>
      </trkpt>
      <trkpt lat="43.43437" lon="6.63247">
        <ele>102.7</ele>
        <time>2023-05-17T10:59:39Z</time>
      </trkpt>
      <trkpt lat="43.43438" lon="6.63245">
        <ele>103</ele>
        <time>2023-05-17T10:59:41Z</time>
      </trkpt>
      <trkpt lat="43.43438" lon="6.63245">
        <ele>103.1</ele>
        <time>2023-05-17T10:59:42Z</time>
      </trkpt>
      <trkpt lat="43.43438" lon="6.63244">
        <ele>103.2</ele>
        <time>2023-05-17T10:59:43Z</time>
      </trkpt>
      <trkpt lat="43.43438" lon="6.63243">
        <ele>103.2</ele>
        <time>2023-05-17T10:59:45Z</time>
      </trkpt>
      <trkpt lat="43.43438" lon="6.63243">
        <ele>103.3</ele>
        <time>2023-05-17T10:59:46Z</time>
      </trkpt>
      <trkpt lat="43.43438" lon="6.63242">
        <ele>103.4</ele>
        <time>2023-05-17T10:59:47Z</time>
      </trkpt>
      <trkpt lat="43.4344" lon="6.63241">
        <ele>103.7</ele>
        <time>2023-05-17T10:59:48Z</time>
      </trkpt>
      <trkpt lat="43.43441" lon="6.63241">
        <ele>103.9</ele>
        <time>2023-05-17T10:59:50Z</time>
      </trkpt>
      <trkpt lat="43.43442" lon="6.63241">
        <ele>104</ele>
        <time>2023-05-17T10:59:51Z</time>
      </trkpt>
      <trkpt lat="43.43443" lon="6.63241">
        <ele>104.1</ele>
        <time>2023-05-17T10:59:52Z</time>
      </trkpt>
      <trkpt lat="43.43443" lon="6.6324">
        <ele>104.2</ele>
        <time>2023-05-17T10:59:53Z</time>
      </trkpt>
      <trkpt lat="43.43444" lon="6.6324">
        <ele>104.3</ele>
        <time>2023-05-17T10:59:54Z</time>
      </trkpt>
      <trkpt lat="43.43445" lon="6.63238">
        <ele>104.6</ele>
        <time>2023-05-17T10:59:55Z</time>
      </trkpt>
      <trkpt lat="43.43445" lon="6.63237">
        <ele>104.7</ele>
        <time>2023-05-17T10:59:56Z</time>
      </trkpt>
      <trkpt lat="43.43445" lon="6.63236">
        <ele>104.9</ele>
        <time>2023-05-17T10:59:57Z</time>
      </trkpt>
      <trkpt lat="43.43445" lon="6.63235">
        <ele>105</ele>
        <time>2023-05-17T10:59:59Z</time>
      </trkpt>
      <trkpt lat="43.43446" lon="6.63234">
        <ele>105.1</ele>
        <time>2023-05-17T11:00:00Z</time>
      </trkpt>
      <trkpt lat="43.43446" lon="6.63233">
        <ele>105.2</ele>
        <time>2023-05-17T11:00:01Z</time>
      </trkpt>
      <trkpt lat="43.43446" lon="6.63232">
        <ele>105.3</ele>
        <time>2023-05-17T11:00:02Z</time>
      </trkpt>
      <trkpt lat="43.43446" lon="6.63231">
        <ele>105.4</ele>
        <time>2023-05-17T11:00:03Z</time>
      </trkpt>
      <trkpt lat="43.43445" lon="6.63229">
        <ele>105.7</ele>
        <time>2023-05-17T11:00:04Z</time>
      </trkpt>
      <trkpt lat="43.43444" lon="6.63229">
        <ele>105.8</ele>
        <time>2023-05-17T11:00:05Z</time>
      </trkpt>
      <trkpt lat="43.43444" lon="6.63228">
        <ele>106</ele>
        <time>2023-05-17T11:00:06Z</time>
      </trkpt>
      <trkpt lat="43.43443" lon="6.63227">
        <ele>106.1</ele>
        <time>2023-05-17T11:00:08Z</time>
      </trkpt>
      <trkpt lat="43.43442" lon="6.63227">
        <ele>106.3</ele>
        <time>2023-05-17T11:00:09Z</time>
      </trkpt>
      <trkpt lat="43.43441" lon="6.63226">
        <ele>106.4</ele>
        <time>2023-05-17T11:00:10Z</time>
      </trkpt>
      <trkpt lat="43.4344" lon="6.63226">
        <ele>106.6</ele>
        <time>2023-05-17T11:00:12Z</time>
      </trkpt>
      <trkpt lat="43.43439" lon="6.63225">
        <ele>106.7</ele>
        <time>2023-05-17T11:00:13Z</time>
      </trkpt>
      <trkpt lat="43.43438" lon="6.63224">
        <ele>106.9</ele>
        <time>2023-05-17T11:00:14Z</time>
      </trkpt>
      <trkpt lat="43.43438" lon="6.63224">
        <ele>107</ele>
        <time>2023-05-17T11:00:15Z</time>
      </trkpt>
      <trkpt lat="43.43434" lon="6.63222">
        <ele>107.6</ele>
        <time>2023-05-17T11:00:16Z</time>
      </trkpt>
      <trkpt lat="43.43431" lon="6.63222">
        <ele>108</ele>
        <time>2023-05-17T11:00:17Z</time>
      </trkpt>
      <trkpt lat="43.4343" lon="6.63223">
        <ele>108.1</ele>
        <time>2023-05-17T11:00:18Z</time>
      </trkpt>
      <trkpt lat="43.4343" lon="6.63222">
        <ele>108.2</ele>
        <time>2023-05-17T11:00:19Z</time>
      </trkpt>
      <trkpt lat="43.43432" lon="6.63222">
        <ele>108.4</ele>
        <time>2023-05-17T11:00:21Z</time>
      </trkpt>
      <trkpt lat="43.43433" lon="6.63221">
        <ele>108.6</ele>
        <time>2023-05-17T11:00:22Z</time>
      </trkpt>
      <trkpt lat="43.43435" lon="6.63221">
        <ele>108.8</ele>
        <time>2023-05-17T11:00:23Z</time>
      </trkpt>
      <trkpt lat="43.43437" lon="6.6322">
        <ele>109.1</ele>
        <time>2023-05-17T11:00:24Z</time>
      </trkpt>
      <trkpt lat="43.4344" lon="6.6322">
        <ele>109.4</ele>
        <time>2023-05-17T11:00:25Z</time>
      </trkpt>
      <trkpt lat="43.43442" lon="6.63218">
        <ele>109.6</ele>
        <time>2023-05-17T11:00:26Z</time>
      </trkpt>
      <trkpt lat="43.43443" lon="6.63217">
        <ele>109.8</ele>
        <time>2023-05-17T11:00:27Z</time>
      </trkpt>
      <trkpt lat="43.43445" lon="6.63216">
        <ele>110</ele>
        <time>2023-05-17T11:00:29Z</time>
      </trkpt>
      <trkpt lat="43.43446" lon="6.63215">
        <ele>110.2</ele>
        <time>2023-05-17T11:00:30Z</time>
      </trkpt>
      <trkpt lat="43.43447" lon="6.63214">
        <ele>110.4</ele>
        <time>2023-05-17T11:00:31Z</time>
      </trkpt>
      <trkpt lat="43.43449" lon="6.63213">
        <ele>110.6</ele>
        <time>2023-05-17T11:00:32Z</time>
      </trkpt>
      <trkpt lat="43.43451" lon="6.63213">
        <ele>110.9</ele>
        <time>2023-05-17T11:00:33Z</time>
      </trkpt>
      <trkpt lat="43.43452" lon="6.63212">
        <ele>111</ele>
        <time>2023-05-17T11:00:34Z</time>
      </trkpt>
      <trkpt lat="43.43453" lon="6.63212">
        <ele>111.1</ele>
        <time>2023-05-17T11:00:35Z</time>
      </trkpt>
      <trkpt lat="43.43455" lon="6.63212">
        <ele>111.3</ele>
        <time>2023-05-17T11:00:36Z</time>
      </trkpt>
      <trkpt lat="43.43456" lon="6.63212">
        <ele>111.5</ele>
        <time>2023-05-17T11:00:37Z</time>
      </trkpt>
      <trkpt lat="43.43457" lon="6.63211">
        <ele>111.6</ele>
        <time>2023-05-17T11:00:39Z</time>
      </trkpt>
      <trkpt lat="43.43458" lon="6.6321">
        <ele>111.8</ele>
        <time>2023-05-17T11:00:40Z</time>
      </trkpt>
      <trkpt lat="43.43459" lon="6.63208">
        <ele>112</ele>
        <time>2023-05-17T11:00:41Z</time>
      </trkpt>
      <trkpt lat="43.4346" lon="6.63207">
        <ele>112.1</ele>
        <time>2023-05-17T11:00:42Z</time>
      </trkpt>
      <trkpt lat="43.4346" lon="6.63206">
        <ele>112.2</ele>
        <time>2023-05-17T11:00:43Z</time>
      </trkpt>
      <trkpt lat="43.43461" lon="6.63206">
        <ele>112.3</ele>
        <time>2023-05-17T11:00:44Z</time>
      </trkpt>
      <trkpt lat="43.43461" lon="6.63205">
        <ele>112.4</ele>
        <time>2023-05-17T11:00:45Z</time>
      </trkpt>
      <trkpt lat="43.43462" lon="6.63204">
        <ele>112.6</ele>
        <time>2023-05-17T11:00:46Z</time>
      </trkpt>
      <trkpt lat="43.43462" lon="6.63204">
        <ele>112.6</ele>
        <time>2023-05-17T11:00:47Z</time>
      </trkpt>
      <trkpt lat="43.43462" lon="6.63203">
        <ele>112.7</ele>
        <time>2023-05-17T11:00:48Z</time>
      </trkpt>
      <trkpt lat="43.43463" lon="6.63201">
        <ele>112.9</ele>
        <time>2023-05-17T11:00:49Z</time>
      </trkpt>
      <trkpt lat="43.43463" lon="6.632">
        <ele>113.1</ele>
        <time>2023-05-17T11:00:50Z</time>
      </trkpt>
      <trkpt lat="43.43464" lon="6.63198">
        <ele>113.3</ele>
        <time>2023-05-17T11:00:51Z</time>
      </trkpt>
      <trkpt lat="43.43464" lon="6.63197">
        <ele>113.3</ele>
        <time>2023-05-17T11:00:52Z</time>
      </trkpt>
      <trkpt lat="43.43464" lon="6.63196">
        <ele>113.4</ele>
        <time>2023-05-17T11:00:53Z</time>
      </trkpt>
      <trkpt lat="43.43465" lon="6.63195">
        <ele>113.5</ele>
        <time>2023-05-17T11:00:54Z</time>
      </trkpt>
      <trkpt lat="43.43465" lon="6.63194">
        <ele>113.7</ele>
        <time>2023-05-17T11:00:55Z</time>
      </trkpt>
      <trkpt lat="43.43466" lon="6.63193">
        <ele>113.9</ele>
        <time>2023-05-17T11:00:56Z</time>
      </trkpt>
      <trkpt lat="43.43467" lon="6.63192">
        <ele>114</ele>
        <time>2023-05-17T11:00:57Z</time>
      </trkpt>
      <trkpt lat="43.43467" lon="6.63192">
        <ele>114</ele>
        <time>2023-05-17T11:00:58Z</time>
      </trkpt>
      <trkpt lat="43.43468" lon="6.63192">
        <ele>114.1</ele>
        <time>2023-05-17T11:00:59Z</time>
      </trkpt>
      <trkpt lat="43.43469" lon="6.63191">
        <ele>114.3</ele>
        <time>2023-05-17T11:01:00Z</time>
      </trkpt>
      <trkpt lat="43.4347" lon="6.63191">
        <ele>114.4</ele>
        <time>2023-05-17T11:01:01Z</time>
      </trkpt>
      <trkpt lat="43.4347" lon="6.63192">
        <ele>114.5</ele>
        <time>2023-05-17T11:01:02Z</time>
      </trkpt>
      <trkpt lat="43.43471" lon="6.63192">
        <ele>114.6</ele>
        <time>2023-05-17T11:01:03Z</time>
      </trkpt>
      <trkpt lat="43.43472" lon="6.63192">
        <ele>114.7</ele>
        <time>2023-05-17T11:01:04Z</time>
      </trkpt>
      <trkpt lat="43.43474" lon="6.63192">
        <ele>115</ele>
        <time>2023-05-17T11:01:05Z</time>
      </trkpt>
      <trkpt lat="43.43475" lon="6.63192">
        <ele>115.1</ele>
        <time>2023-05-17T11:01:06Z</time>
      </trkpt>
      <trkpt lat="43.43476" lon="6.63192">
        <ele>115.3</ele>
        <time>2023-05-17T11:01:07Z</time>
      </trkpt>
      <trkpt lat="43.43476" lon="6.63192">
        <ele>115.3</ele>
        <time>2023-05-17T11:01:08Z</time>
      </trkpt>
      <trkpt lat="43.43477" lon="6.63191">
        <ele>115.5</ele>
        <time>2023-05-17T11:01:09Z</time>
      </trkpt>
      <trkpt lat="43.4348" lon="6.63192">
        <ele>115.9</ele>
        <time>2023-05-17T11:01:11Z</time>
      </trkpt>
      <trkpt lat="43.43482" lon="6.63192">
        <ele>116.1</ele>
        <time>2023-05-17T11:01:12Z</time>
      </trkpt>
      <trkpt lat="43.43483" lon="6.63193">
        <ele>116.3</ele>
        <time>2023-05-17T11:01:13Z</time>
      </trkpt>
      <trkpt lat="43.43484" lon="6.63193">
        <ele>116.5</ele>
        <time>2023-05-17T11:01:14Z</time>
      </trkpt>
      <trkpt lat="43.43486" lon="6.63194">
        <ele>116.7</ele>
        <time>2023-05-17T11:01:16Z</time>
      </trkpt>
      <trkpt lat="43.43487" lon="6.63194">
        <ele>116.9</ele>
        <time>2023-05-17T11:01:17Z</time>
      </trkpt>
      <trkpt lat="43.43488" lon="6.63195">
        <ele>117</ele>
        <time>2023-05-17T11:01:18Z</time>
      </trkpt>
      <trkpt lat="43.43488" lon="6.63194">
        <ele>117.1</ele>
        <time>2023-05-17T11:01:19Z</time>
      </trkpt>
      <trkpt lat="43.43489" lon="6.63194">
        <ele>117.3</ele>
        <time>2023-05-17T11:01:21Z</time>
      </trkpt>
      <trkpt lat="43.43491" lon="6.63194">
        <ele>117.5</ele>
        <time>2023-05-17T11:01:22Z</time>
      </trkpt>
      <trkpt lat="43.43492" lon="6.63194">
        <ele>117.6</ele>
        <time>2023-05-17T11:01:23Z</time>
      </trkpt>
      <trkpt lat="43.43492" lon="6.63193">
        <ele>117.7</ele>
        <time>2023-05-17T11:01:24Z</time>
      </trkpt>
      <trkpt lat="43.43493" lon="6.63193">
        <ele>117.8</ele>
        <time>2023-05-17T11:01:25Z</time>
      </trkpt>
      <trkpt lat="43.43493" lon="6.63193">
        <ele>117.9</ele>
        <time>2023-05-17T11:01:26Z</time>
      </trkpt>
      <trkpt lat="43.43495" lon="6.63193">
        <ele>118.1</ele>
        <time>2023-05-17T11:01:27Z</time>
      </trkpt>
      <trkpt lat="43.43495" lon="6.63192">
        <ele>118.2</ele>
        <time>2023-05-17T11:01:29Z</time>
      </trkpt>
      <trkpt lat="43.43496" lon="6.63192">
        <ele>118.2</ele>
        <time>2023-05-17T11:01:30Z</time>
      </trkpt>
      <trkpt lat="43.43496" lon="6.63192">
        <ele>118.4</ele>
        <time>2023-05-17T11:01:31Z</time>
      </trkpt>
      <trkpt lat="43.43498" lon="6.63191">
        <ele>118.5</ele>
        <time>2023-05-17T11:01:32Z</time>
      </trkpt>
      <trkpt lat="43.43498" lon="6.63191">
        <ele>118.6</ele>
        <time>2023-05-17T11:01:33Z</time>
      </trkpt>
      <trkpt lat="43.43498" lon="6.6319">
        <ele>118.7</ele>
        <time>2023-05-17T11:01:34Z</time>
      </trkpt>
      <trkpt lat="43.43499" lon="6.63189">
        <ele>118.8</ele>
        <time>2023-05-17T11:01:36Z</time>
      </trkpt>
      <trkpt lat="43.43499" lon="6.63188">
        <ele>119</ele>
        <time>2023-05-17T11:01:37Z</time>
      </trkpt>
      <trkpt lat="43.43499" lon="6.63187">
        <ele>119.1</ele>
        <time>2023-05-17T11:01:38Z</time>
      </trkpt>
      <trkpt lat="43.43499" lon="6.63186">
        <ele>119.2</ele>
        <time>2023-05-17T11:01:39Z</time>
      </trkpt>
      <trkpt lat="43.43499" lon="6.63185">
        <ele>119.3</ele>
        <time>2023-05-17T11:01:40Z</time>
      </trkpt>
      <trkpt lat="43.43499" lon="6.63183">
        <ele>119.5</ele>
        <time>2023-05-17T11:01:41Z</time>
      </trkpt>
      <trkpt lat="43.43498" lon="6.63182">
        <ele>119.6</ele>
        <time>2023-05-17T11:01:43Z</time>
      </trkpt>
      <trkpt lat="43.43498" lon="6.63182">
        <ele>119.6</ele>
        <time>2023-05-17T11:01:44Z</time>
      </trkpt>
      <trkpt lat="43.43497" lon="6.63182">
        <ele>119.7</ele>
        <time>2023-05-17T11:01:45Z</time>
      </trkpt>
      <trkpt lat="43.43497" lon="6.63183">
        <ele>119.7</ele>
        <time>2023-05-17T11:01:47Z</time>
      </trkpt>
      <trkpt lat="43.43497" lon="6.63183">
        <ele>119.8</ele>
        <time>2023-05-17T11:01:48Z</time>
      </trkpt>
      <trkpt lat="43.43497" lon="6.63183">
        <ele>119.8</ele>
        <time>2023-05-17T11:01:49Z</time>
      </trkpt>
      <trkpt lat="43.43497" lon="6.63182">
        <ele>119.9</ele>
        <time>2023-05-17T11:01:50Z</time>
      </trkpt>
      <trkpt lat="43.43497" lon="6.63181">
        <ele>120</ele>
        <time>2023-05-17T11:01:52Z</time>
      </trkpt>
      <trkpt lat="43.43498" lon="6.63179">
        <ele>120.2</ele>
        <time>2023-05-17T11:01:53Z</time>
      </trkpt>
      <trkpt lat="43.43498" lon="6.63178">
        <ele>120.4</ele>
        <time>2023-05-17T11:01:54Z</time>
      </trkpt>
      <trkpt lat="43.43499" lon="6.63176">
        <ele>120.6</ele>
        <time>2023-05-17T11:01:55Z</time>
      </trkpt>
      <trkpt lat="43.43501" lon="6.63174">
        <ele>120.8</ele>
        <time>2023-05-17T11:01:57Z</time>
      </trkpt>
      <trkpt lat="43.43501" lon="6.63174">
        <ele>120.9</ele>
        <time>2023-05-17T11:01:58Z</time>
      </trkpt>
      <trkpt lat="43.43502" lon="6.63173">
        <ele>121.1</ele>
        <time>2023-05-17T11:01:59Z</time>
      </trkpt>
      <trkpt lat="43.43503" lon="6.63172">
        <ele>121.2</ele>
        <time>2023-05-17T11:02:00Z</time>
      </trkpt>
      <trkpt lat="43.43504" lon="6.63171">
        <ele>121.3</ele>
        <time>2023-05-17T11:02:01Z</time>
      </trkpt>
      <trkpt lat="43.43505" lon="6.6317">
        <ele>121.5</ele>
        <time>2023-05-17T11:02:02Z</time>
      </trkpt>
      <trkpt lat="43.43506" lon="6.6317">
        <ele>121.5</ele>
        <time>2023-05-17T11:02:03Z</time>
      </trkpt>
      <trkpt lat="43.43506" lon="6.63169">
        <ele>121.6</ele>
        <time>2023-05-17T11:02:04Z</time>
      </trkpt>
      <trkpt lat="43.43508" lon="6.63169">
        <ele>121.8</ele>
        <time>2023-05-17T11:02:06Z</time>
      </trkpt>
      <trkpt lat="43.43509" lon="6.63169">
        <ele>121.9</ele>
        <time>2023-05-17T11:02:07Z</time>
      </trkpt>
      <trkpt lat="43.43509" lon="6.63169">
        <ele>122</ele>
        <time>2023-05-17T11:02:08Z</time>
      </trkpt>
      <trkpt lat="43.4351" lon="6.63169">
        <ele>122.1</ele>
        <time>2023-05-17T11:02:10Z</time>
      </trkpt>
      <trkpt lat="43.43511" lon="6.63169">
        <ele>122.1</ele>
        <time>2023-05-17T11:02:11Z</time>
      </trkpt>
      <trkpt lat="43.43512" lon="6.63168">
        <ele>122.3</ele>
        <time>2023-05-17T11:02:12Z</time>
      </trkpt>
      <trkpt lat="43.43512" lon="6.63168">
        <ele>122.3</ele>
        <time>2023-05-17T11:02:14Z</time>
      </trkpt>
      <trkpt lat="43.43513" lon="6.63168">
        <ele>122.4</ele>
        <time>2023-05-17T11:02:15Z</time>
      </trkpt>
      <trkpt lat="43.43514" lon="6.63168">
        <ele>122.5</ele>
        <time>2023-05-17T11:02:16Z</time>
      </trkpt>
      <trkpt lat="43.43515" lon="6.63167">
        <ele>122.7</ele>
        <time>2023-05-17T11:02:17Z</time>
      </trkpt>
      <trkpt lat="43.43515" lon="6.63166">
        <ele>122.7</ele>
        <time>2023-05-17T11:02:18Z</time>
      </trkpt>
      <trkpt lat="43.43516" lon="6.63165">
        <ele>122.9</ele>
        <time>2023-05-17T11:02:19Z</time>
      </trkpt>
      <trkpt lat="43.43517" lon="6.63165">
        <ele>123</ele>
        <time>2023-05-17T11:02:20Z</time>
      </trkpt>
      <trkpt lat="43.43518" lon="6.63164">
        <ele>123.1</ele>
        <time>2023-05-17T11:02:21Z</time>
      </trkpt>
      <trkpt lat="43.4352" lon="6.63162">
        <ele>123.3</ele>
        <time>2023-05-17T11:02:23Z</time>
      </trkpt>
      <trkpt lat="43.4352" lon="6.63161">
        <ele>123.4</ele>
        <time>2023-05-17T11:02:24Z</time>
      </trkpt>
      <trkpt lat="43.43522" lon="6.6316">
        <ele>123.5</ele>
        <time>2023-05-17T11:02:25Z</time>
      </trkpt>
      <trkpt lat="43.43522" lon="6.63159">
        <ele>123.7</ele>
        <time>2023-05-17T11:02:26Z</time>
      </trkpt>
      <trkpt lat="43.43524" lon="6.63159">
        <ele>123.8</ele>
        <time>2023-05-17T11:02:27Z</time>
      </trkpt>
      <trkpt lat="43.43524" lon="6.63159">
        <ele>123.8</ele>
        <time>2023-05-17T11:02:28Z</time>
      </trkpt>
      <trkpt lat="43.43526" lon="6.63158">
        <ele>123.9</ele>
        <time>2023-05-17T11:02:29Z</time>
      </trkpt>
      <trkpt lat="43.43526" lon="6.63159">
        <ele>124</ele>
        <time>2023-05-17T11:02:30Z</time>
      </trkpt>
      <trkpt lat="43.43528" lon="6.63159">
        <ele>124.2</ele>
        <time>2023-05-17T11:02:32Z</time>
      </trkpt>
      <trkpt lat="43.43529" lon="6.63158">
        <ele>124.3</ele>
        <time>2023-05-17T11:02:33Z</time>
      </trkpt>
      <trkpt lat="43.4353" lon="6.63158">
        <ele>124.3</ele>
        <time>2023-05-17T11:02:34Z</time>
      </trkpt>
      <trkpt lat="43.43531" lon="6.63158">
        <ele>124.4</ele>
        <time>2023-05-17T11:02:35Z</time>
      </trkpt>
      <trkpt lat="43.43532" lon="6.63158">
        <ele>124.5</ele>
        <time>2023-05-17T11:02:36Z</time>
      </trkpt>
      <trkpt lat="43.43533" lon="6.63158">
        <ele>124.6</ele>
        <time>2023-05-17T11:02:37Z</time>
      </trkpt>
      <trkpt lat="43.43534" lon="6.63158">
        <ele>124.7</ele>
        <time>2023-05-17T11:02:38Z</time>
      </trkpt>
      <trkpt lat="43.43536" lon="6.63157">
        <ele>124.9</ele>
        <time>2023-05-17T11:02:39Z</time>
      </trkpt>
      <trkpt lat="43.43537" lon="6.63156">
        <ele>125</ele>
        <time>2023-05-17T11:02:41Z</time>
      </trkpt>
      <trkpt lat="43.43538" lon="6.63156">
        <ele>125.1</ele>
        <time>2023-05-17T11:02:42Z</time>
      </trkpt>
      <trkpt lat="43.43538" lon="6.63155">
        <ele>125.2</ele>
        <time>2023-05-17T11:02:43Z</time>
      </trkpt>
      <trkpt lat="43.43539" lon="6.63154">
        <ele>125.3</ele>
        <time>2023-05-17T11:02:44Z</time>
      </trkpt>
      <trkpt lat="43.4354" lon="6.63153">
        <ele>125.5</ele>
        <time>2023-05-17T11:02:45Z</time>
      </trkpt>
      <trkpt lat="43.4354" lon="6.63153">
        <ele>125.6</ele>
        <time>2023-05-17T11:02:46Z</time>
      </trkpt>
      <trkpt lat="43.43542" lon="6.63151">
        <ele>125.9</ele>
        <time>2023-05-17T11:02:47Z</time>
      </trkpt>
      <trkpt lat="43.43542" lon="6.6315">
        <ele>126</ele>
        <time>2023-05-17T11:02:48Z</time>
      </trkpt>
      <trkpt lat="43.43543" lon="6.63149">
        <ele>126.1</ele>
        <time>2023-05-17T11:02:49Z</time>
      </trkpt>
      <trkpt lat="43.43544" lon="6.63148">
        <ele>126.3</ele>
        <time>2023-05-17T11:02:51Z</time>
      </trkpt>
      <trkpt lat="43.43546" lon="6.63147">
        <ele>126.6</ele>
        <time>2023-05-17T11:02:52Z</time>
      </trkpt>
      <trkpt lat="43.43546" lon="6.63147">
        <ele>126.7</ele>
        <time>2023-05-17T11:02:53Z</time>
      </trkpt>
      <trkpt lat="43.43547" lon="6.63146">
        <ele>126.8</ele>
        <time>2023-05-17T11:02:54Z</time>
      </trkpt>
      <trkpt lat="43.43548" lon="6.63146">
        <ele>126.9</ele>
        <time>2023-05-17T11:02:55Z</time>
      </trkpt>
      <trkpt lat="43.43549" lon="6.63146">
        <ele>127</ele>
        <time>2023-05-17T11:02:57Z</time>
      </trkpt>
      <trkpt lat="43.4355" lon="6.63146">
        <ele>127.2</ele>
        <time>2023-05-17T11:02:58Z</time>
      </trkpt>
      <trkpt lat="43.43551" lon="6.63145">
        <ele>127.4</ele>
        <time>2023-05-17T11:02:59Z</time>
      </trkpt>
      <trkpt lat="43.43552" lon="6.63145">
        <ele>127.5</ele>
        <time>2023-05-17T11:03:00Z</time>
      </trkpt>
      <trkpt lat="43.43552" lon="6.63144">
        <ele>127.6</ele>
        <time>2023-05-17T11:03:02Z</time>
      </trkpt>
      <trkpt lat="43.43553" lon="6.63144">
        <ele>127.7</ele>
        <time>2023-05-17T11:03:03Z</time>
      </trkpt>
      <trkpt lat="43.43554" lon="6.63144">
        <ele>127.8</ele>
        <time>2023-05-17T11:03:04Z</time>
      </trkpt>
      <trkpt lat="43.43555" lon="6.63144">
        <ele>128</ele>
        <time>2023-05-17T11:03:05Z</time>
      </trkpt>
      <trkpt lat="43.43555" lon="6.63145">
        <ele>128.1</ele>
        <time>2023-05-17T11:03:06Z</time>
      </trkpt>
      <trkpt lat="43.43556" lon="6.63144">
        <ele>128.2</ele>
        <time>2023-05-17T11:03:07Z</time>
      </trkpt>
      <trkpt lat="43.43557" lon="6.63143">
        <ele>128.4</ele>
        <time>2023-05-17T11:03:08Z</time>
      </trkpt>
      <trkpt lat="43.43558" lon="6.63142">
        <ele>128.6</ele>
        <time>2023-05-17T11:03:09Z</time>
      </trkpt>
      <trkpt lat="43.43559" lon="6.63141">
        <ele>128.7</ele>
        <time>2023-05-17T11:03:11Z</time>
      </trkpt>
      <trkpt lat="43.43559" lon="6.63139">
        <ele>128.9</ele>
        <time>2023-05-17T11:03:12Z</time>
      </trkpt>
      <trkpt lat="43.4356" lon="6.63138">
        <ele>129</ele>
        <time>2023-05-17T11:03:13Z</time>
      </trkpt>
      <trkpt lat="43.4356" lon="6.63138">
        <ele>129.1</ele>
        <time>2023-05-17T11:03:14Z</time>
      </trkpt>
      <trkpt lat="43.43561" lon="6.63138">
        <ele>129.2</ele>
        <time>2023-05-17T11:03:15Z</time>
      </trkpt>
      <trkpt lat="43.43561" lon="6.63139">
        <ele>129.3</ele>
        <time>2023-05-17T11:03:16Z</time>
      </trkpt>
      <trkpt lat="43.43561" lon="6.63139">
        <ele>129.3</ele>
        <time>2023-05-17T11:03:17Z</time>
      </trkpt>
      <trkpt lat="43.43562" lon="6.63139">
        <ele>129.5</ele>
        <time>2023-05-17T11:03:19Z</time>
      </trkpt>
      <trkpt lat="43.43564" lon="6.63138">
        <ele>129.8</ele>
        <time>2023-05-17T11:03:20Z</time>
      </trkpt>
      <trkpt lat="43.43565" lon="6.63137">
        <ele>129.9</ele>
        <time>2023-05-17T11:03:21Z</time>
      </trkpt>
      <trkpt lat="43.43565" lon="6.63137">
        <ele>130</ele>
        <time>2023-05-17T11:03:22Z</time>
      </trkpt>
      <trkpt lat="43.43566" lon="6.63137">
        <ele>130.1</ele>
        <time>2023-05-17T11:03:23Z</time>
      </trkpt>
      <trkpt lat="43.43567" lon="6.63136">
        <ele>130.2</ele>
        <time>2023-05-17T11:03:24Z</time>
      </trkpt>
      <trkpt lat="43.43568" lon="6.63136">
        <ele>130.2</ele>
        <time>2023-05-17T11:03:25Z</time>
      </trkpt>
      <trkpt lat="43.43569" lon="6.63135">
        <ele>130.1</ele>
        <time>2023-05-17T11:03:27Z</time>
      </trkpt>
      <trkpt lat="43.4357" lon="6.63135">
        <ele>130.1</ele>
        <time>2023-05-17T11:03:28Z</time>
      </trkpt>
      <trkpt lat="43.43571" lon="6.63134">
        <ele>130.1</ele>
        <time>2023-05-17T11:03:29Z</time>
      </trkpt>
      <trkpt lat="43.43572" lon="6.63134">
        <ele>130</ele>
        <time>2023-05-17T11:03:30Z</time>
      </trkpt>
      <trkpt lat="43.43572" lon="6.63134">
        <ele>130</ele>
        <time>2023-05-17T11:03:32Z</time>
      </trkpt>
      <trkpt lat="43.43572" lon="6.63134">
        <ele>130</ele>
        <time>2023-05-17T11:03:33Z</time>
      </trkpt>
      <trkpt lat="43.43572" lon="6.63134">
        <ele>130</ele>
        <time>2023-05-17T11:03:34Z</time>
      </trkpt>
      <trkpt lat="43.43572" lon="6.63134">
        <ele>130</ele>
        <time>2023-05-17T11:03:35Z</time>
      </trkpt>
      <trkpt lat="43.43572" lon="6.63134">
        <ele>130</ele>
        <time>2023-05-17T11:03:36Z</time>
      </trkpt>
      <trkpt lat="43.43572" lon="6.63134">
        <ele>130</ele>
        <time>2023-05-17T11:03:37Z</time>
      </trkpt>
      <trkpt lat="43.43572" lon="6.63134">
        <ele>130</ele>
        <time>2023-05-17T11:03:38Z</time>
      </trkpt>
      <trkpt lat="43.43572" lon="6.63134">
        <ele>130</ele>
        <time>2023-05-17T11:03:39Z</time>
      </trkpt>
      <trkpt lat="43.43572" lon="6.63135">
        <ele>130</ele>
        <time>2023-05-17T11:03:41Z</time>
      </trkpt>
      <trkpt lat="43.43572" lon="6.63135">
        <ele>130</ele>
        <time>2023-05-17T11:03:42Z</time>
      </trkpt>
      <trkpt lat="43.43572" lon="6.63135">
        <ele>130</ele>
        <time>2023-05-17T11:03:43Z</time>
      </trkpt>
      <trkpt lat="43.43572" lon="6.63135">
        <ele>130</ele>
        <time>2023-05-17T11:03:45Z</time>
      </trkpt>
      <trkpt lat="43.43572" lon="6.63135">
        <ele>130</ele>
        <time>2023-05-17T11:03:46Z</time>
      </trkpt>
      <trkpt lat="43.43572" lon="6.63135">
        <ele>130</ele>
        <time>2023-05-17T11:03:47Z</time>
      </trkpt>
      <trkpt lat="43.43572" lon="6.63135">
        <ele>130</ele>
        <time>2023-05-17T11:03:48Z</time>
      </trkpt>
      <trkpt lat="43.43572" lon="6.63135">
        <ele>130</ele>
        <time>2023-05-17T11:03:50Z</time>
      </trkpt>
      <trkpt lat="43.43572" lon="6.63135">
        <ele>130</ele>
        <time>2023-05-17T11:03:51Z</time>
      </trkpt>
      <trkpt lat="43.43572" lon="6.63135">
        <ele>130</ele>
        <time>2023-05-17T11:03:52Z</time>
      </trkpt>
      <trkpt lat="43.43572" lon="6.63135">
        <ele>130</ele>
        <time>2023-05-17T11:03:54Z</time>
      </trkpt>
      <trkpt lat="43.43572" lon="6.63135">
        <ele>130</ele>
        <time>2023-05-17T11:03:55Z</time>
      </trkpt>
      <trkpt lat="43.43572" lon="6.63136">
        <ele>130</ele>
        <time>2023-05-17T11:03:56Z</time>
      </trkpt>
      <trkpt lat="43.43572" lon="6.63136">
        <ele>130</ele>
        <time>2023-05-17T11:03:57Z</time>
      </trkpt>
      <trkpt lat="43.43572" lon="6.63136">
        <ele>130</ele>
        <time>2023-05-17T11:03:58Z</time>
      </trkpt>
      <trkpt lat="43.43572" lon="6.63136">
        <ele>130</ele>
        <time>2023-05-17T11:03:59Z</time>
      </trkpt>
      <trkpt lat="43.43572" lon="6.63136">
        <ele>130</ele>
        <time>2023-05-17T11:04:00Z</time>
      </trkpt>
      <trkpt lat="43.43572" lon="6.63136">
        <ele>130</ele>
        <time>2023-05-17T11:04:01Z</time>
      </trkpt>
      <trkpt lat="43.43572" lon="6.63136">
        <ele>130</ele>
        <time>2023-05-17T11:04:02Z</time>
      </trkpt>
      <trkpt lat="43.43572" lon="6.63136">
        <ele>130</ele>
        <time>2023-05-17T11:04:03Z</time>
      </trkpt>
      <trkpt lat="43.43572" lon="6.63136">
        <ele>130</ele>
        <time>2023-05-17T11:04:04Z</time>
      </trkpt>
      <trkpt lat="43.43572" lon="6.63136">
        <ele>130</ele>
        <time>2023-05-17T11:04:05Z</time>
      </trkpt>
      <trkpt lat="43.43572" lon="6.63136">
        <ele>130</ele>
        <time>2023-05-17T11:04:06Z</time>
      </trkpt>
      <trkpt lat="43.43572" lon="6.63136">
        <ele>130</ele>
        <time>2023-05-17T11:04:07Z</time>
      </trkpt>
      <trkpt lat="43.43572" lon="6.63136">
        <ele>130</ele>
        <time>2023-05-17T11:04:08Z</time>
      </trkpt>
      <trkpt lat="43.43572" lon="6.63137">
        <ele>130</ele>
        <time>2023-05-17T11:04:09Z</time>
      </trkpt>
      <trkpt lat="43.43572" lon="6.63137">
        <ele>130</ele>
        <time>2023-05-17T11:04:10Z</time>
      </trkpt>
      <trkpt lat="43.43572" lon="6.63137">
        <ele>130</ele>
        <time>2023-05-17T11:04:11Z</time>
      </trkpt>
      <trkpt lat="43.43572" lon="6.63137">
        <ele>130</ele>
        <time>2023-05-17T11:04:12Z</time>
      </trkpt>
      <trkpt lat="43.43572" lon="6.63137">
        <ele>130</ele>
        <time>2023-05-17T11:04:13Z</time>
      </trkpt>
      <trkpt lat="43.43572" lon="6.63137">
        <ele>130</ele>
        <time>2023-05-17T11:04:14Z</time>
      </trkpt>
      <trkpt lat="43.43572" lon="6.63137">
        <ele>130</ele>
        <time>2023-05-17T11:04:15Z</time>
      </trkpt>
      <trkpt lat="43.43572" lon="6.63137">
        <ele>130</ele>
        <time>2023-05-17T11:04:16Z</time>
      </trkpt>
      <trkpt lat="43.43572" lon="6.63137">
        <ele>130</ele>
        <time>2023-05-17T11:04:17Z</time>
      </trkpt>
      <trkpt lat="43.43572" lon="6.63137">
        <ele>130</ele>
        <time>2023-05-17T11:04:18Z</time>
      </trkpt>
      <trkpt lat="43.43572" lon="6.63137">
        <ele>130</ele>
        <time>2023-05-17T11:04:19Z</time>
      </trkpt>
      <trkpt lat="43.43572" lon="6.63137">
        <ele>130</ele>
        <time>2023-05-17T11:04:20Z</time>
      </trkpt>
      <trkpt lat="43.43572" lon="6.63138">
        <ele>130</ele>
        <time>2023-05-17T11:04:21Z</time>
      </trkpt>
      <trkpt lat="43.43572" lon="6.63138">
        <ele>130</ele>
        <time>2023-05-17T11:04:22Z</time>
      </trkpt>
      <trkpt lat="43.43572" lon="6.63138">
        <ele>130</ele>
        <time>2023-05-17T11:04:23Z</time>
      </trkpt>
      <trkpt lat="43.43572" lon="6.63138">
        <ele>130</ele>
        <time>2023-05-17T11:04:24Z</time>
      </trkpt>
      <trkpt lat="43.43572" lon="6.63138">
        <ele>130</ele>
        <time>2023-05-17T11:04:25Z</time>
      </trkpt>
      <trkpt lat="43.43572" lon="6.63138">
        <ele>130</ele>
        <time>2023-05-17T11:04:26Z</time>
      </trkpt>
      <trkpt lat="43.43572" lon="6.63138">
        <ele>130</ele>
        <time>2023-05-17T11:04:27Z</time>
      </trkpt>
      <trkpt lat="43.43572" lon="6.63138">
        <ele>130</ele>
        <time>2023-05-17T11:04:28Z</time>
      </trkpt>
      <trkpt lat="43.43572" lon="6.63138">
        <ele>130</ele>
        <time>2023-05-17T11:04:29Z</time>
      </trkpt>
      <trkpt lat="43.43572" lon="6.63138">
        <ele>130</ele>
        <time>2023-05-17T11:04:30Z</time>
      </trkpt>
      <trkpt lat="43.43572" lon="6.63138">
        <ele>130</ele>
        <time>2023-05-17T11:04:31Z</time>
      </trkpt>
      <trkpt lat="43.43572" lon="6.63139">
        <ele>130</ele>
        <time>2023-05-17T11:04:32Z</time>
      </trkpt>
      <trkpt lat="43.43572" lon="6.63139">
        <ele>130</ele>
        <time>2023-05-17T11:04:33Z</time>
      </trkpt>
      <trkpt lat="43.43572" lon="6.63139">
        <ele>130</ele>
        <time>2023-05-17T11:04:34Z</time>
      </trkpt>
      <trkpt lat="43.43572" lon="6.63139">
        <ele>130</ele>
        <time>2023-05-17T11:04:35Z</time>
      </trkpt>
      <trkpt lat="43.43572" lon="6.63139">
        <ele>130</ele>
        <time>2023-05-17T11:04:36Z</time>
      </trkpt>
      <trkpt lat="43.43572" lon="6.63139">
        <ele>130</ele>
        <time>2023-05-17T11:04:37Z</time>
      </trkpt>
      <trkpt lat="43.43572" lon="6.63139">
        <ele>130</ele>
        <time>2023-05-17T11:04:38Z</time>
      </trkpt>
      <trkpt lat="43.43572" lon="6.63139">
        <ele>130</ele>
        <time>2023-05-17T11:04:39Z</time>
      </trkpt>
      <trkpt lat="43.43572" lon="6.6314">
        <ele>129.9</ele>
        <time>2023-05-17T11:04:40Z</time>
      </trkpt>
      <trkpt lat="43.43572" lon="6.63141">
        <ele>129.9</ele>
        <time>2023-05-17T11:04:41Z</time>
      </trkpt>
      <trkpt lat="43.43572" lon="6.63142">
        <ele>129.9</ele>
        <time>2023-05-17T11:04:42Z</time>
      </trkpt>
      <trkpt lat="43.43572" lon="6.63143">
        <ele>129.9</ele>
        <time>2023-05-17T11:04:43Z</time>
      </trkpt>
      <trkpt lat="43.43572" lon="6.63143">
        <ele>129.9</ele>
        <time>2023-05-17T11:04:44Z</time>
      </trkpt>
      <trkpt lat="43.43572" lon="6.63145">
        <ele>129.9</ele>
        <time>2023-05-17T11:04:45Z</time>
      </trkpt>
      <trkpt lat="43.43572" lon="6.63146">
        <ele>129.8</ele>
        <time>2023-05-17T11:04:46Z</time>
      </trkpt>
      <trkpt lat="43.43571" lon="6.63146">
        <ele>129.8</ele>
        <time>2023-05-17T11:04:47Z</time>
      </trkpt>
      <trkpt lat="43.43571" lon="6.63146">
        <ele>129.8</ele>
        <time>2023-05-17T11:04:48Z</time>
      </trkpt>
      <trkpt lat="43.43571" lon="6.63146">
        <ele>129.8</ele>
        <time>2023-05-17T11:04:49Z</time>
      </trkpt>
      <trkpt lat="43.43571" lon="6.63146">
        <ele>129.8</ele>
        <time>2023-05-17T11:04:50Z</time>
      </trkpt>
      <trkpt lat="43.43571" lon="6.63146">
        <ele>129.8</ele>
        <time>2023-05-17T11:04:51Z</time>
      </trkpt>
      <trkpt lat="43.43571" lon="6.63146">
        <ele>129.8</ele>
        <time>2023-05-17T11:04:52Z</time>
      </trkpt>
      <trkpt lat="43.43571" lon="6.63146">
        <ele>129.8</ele>
        <time>2023-05-17T11:04:53Z</time>
      </trkpt>
      <trkpt lat="43.43571" lon="6.63146">
        <ele>129.8</ele>
        <time>2023-05-17T11:04:54Z</time>
      </trkpt>
      <trkpt lat="43.43572" lon="6.63146">
        <ele>129.8</ele>
        <time>2023-05-17T11:04:55Z</time>
      </trkpt>
      <trkpt lat="43.43572" lon="6.63146">
        <ele>129.8</ele>
        <time>2023-05-17T11:04:56Z</time>
      </trkpt>
      <trkpt lat="43.43571" lon="6.63145">
        <ele>129.8</ele>
        <time>2023-05-17T11:04:57Z</time>
      </trkpt>
      <trkpt lat="43.43571" lon="6.63145">
        <ele>129.8</ele>
        <time>2023-05-17T11:04:58Z</time>
      </trkpt>
      <trkpt lat="43.43571" lon="6.63144">
        <ele>129.8</ele>
        <time>2023-05-17T11:04:59Z</time>
      </trkpt>
      <trkpt lat="43.43571" lon="6.63144">
        <ele>129.7</ele>
        <time>2023-05-17T11:05:00Z</time>
      </trkpt>
      <trkpt lat="43.43571" lon="6.63143">
        <ele>129.7</ele>
        <time>2023-05-17T11:05:01Z</time>
      </trkpt>
      <trkpt lat="43.4357" lon="6.63141">
        <ele>129.7</ele>
        <time>2023-05-17T11:05:02Z</time>
      </trkpt>
      <trkpt lat="43.4357" lon="6.6314">
        <ele>129.6</ele>
        <time>2023-05-17T11:05:03Z</time>
      </trkpt>
      <trkpt lat="43.43569" lon="6.63139">
        <ele>129.6</ele>
        <time>2023-05-17T11:05:04Z</time>
      </trkpt>
      <trkpt lat="43.43569" lon="6.63137">
        <ele>129.6</ele>
        <time>2023-05-17T11:05:05Z</time>
      </trkpt>
      <trkpt lat="43.43569" lon="6.63136">
        <ele>129.5</ele>
        <time>2023-05-17T11:05:06Z</time>
      </trkpt>
      <trkpt lat="43.43569" lon="6.63135">
        <ele>129.5</ele>
        <time>2023-05-17T11:05:07Z</time>
      </trkpt>
      <trkpt lat="43.43569" lon="6.63133">
        <ele>129.5</ele>
        <time>2023-05-17T11:05:08Z</time>
      </trkpt>
      <trkpt lat="43.43569" lon="6.63132">
        <ele>129.4</ele>
        <time>2023-05-17T11:05:10Z</time>
      </trkpt>
      <trkpt lat="43.43569" lon="6.63129">
        <ele>129.4</ele>
        <time>2023-05-17T11:05:11Z</time>
      </trkpt>
      <trkpt lat="43.43569" lon="6.63127">
        <ele>129.3</ele>
        <time>2023-05-17T11:05:12Z</time>
      </trkpt>
      <trkpt lat="43.43569" lon="6.63126">
        <ele>129.3</ele>
        <time>2023-05-17T11:05:13Z</time>
      </trkpt>
      <trkpt lat="43.43569" lon="6.63125">
        <ele>129.3</ele>
        <time>2023-05-17T11:05:15Z</time>
      </trkpt>
      <trkpt lat="43.43569" lon="6.63123">
        <ele>129.2</ele>
        <time>2023-05-17T11:05:16Z</time>
      </trkpt>
      <trkpt lat="43.43569" lon="6.63122">
        <ele>129.2</ele>
        <time>2023-05-17T11:05:17Z</time>
      </trkpt>
      <trkpt lat="43.43569" lon="6.63121">
        <ele>129.2</ele>
        <time>2023-05-17T11:05:18Z</time>
      </trkpt>
      <trkpt lat="43.43569" lon="6.6312">
        <ele>129.1</ele>
        <time>2023-05-17T11:05:19Z</time>
      </trkpt>
      <trkpt lat="43.4357" lon="6.63119">
        <ele>129.1</ele>
        <time>2023-05-17T11:05:20Z</time>
      </trkpt>
      <trkpt lat="43.4357" lon="6.63118">
        <ele>129.1</ele>
        <time>2023-05-17T11:05:21Z</time>
      </trkpt>
      <trkpt lat="43.4357" lon="6.63117">
        <ele>129.1</ele>
        <time>2023-05-17T11:05:22Z</time>
      </trkpt>
      <trkpt lat="43.43569" lon="6.63117">
        <ele>129.1</ele>
        <time>2023-05-17T11:05:24Z</time>
      </trkpt>
      <trkpt lat="43.43569" lon="6.63117">
        <ele>129</ele>
        <time>2023-05-17T11:05:25Z</time>
      </trkpt>
      <trkpt lat="43.43569" lon="6.63117">
        <ele>129</ele>
        <time>2023-05-17T11:05:26Z</time>
      </trkpt>
      <trkpt lat="43.43569" lon="6.63117">
        <ele>129</ele>
        <time>2023-05-17T11:05:28Z</time>
      </trkpt>
      <trkpt lat="43.43569" lon="6.63117">
        <ele>129</ele>
        <time>2023-05-17T11:05:29Z</time>
      </trkpt>
      <trkpt lat="43.43569" lon="6.63117">
        <ele>129</ele>
        <time>2023-05-17T11:05:30Z</time>
      </trkpt>
      <trkpt lat="43.43569" lon="6.63117">
        <ele>129</ele>
        <time>2023-05-17T11:05:32Z</time>
      </trkpt>
      <trkpt lat="43.43569" lon="6.63117">
        <ele>129</ele>
        <time>2023-05-17T11:05:33Z</time>
      </trkpt>
      <trkpt lat="43.43569" lon="6.63117">
        <ele>129</ele>
        <time>2023-05-17T11:05:34Z</time>
      </trkpt>
      <trkpt lat="43.43569" lon="6.63117">
        <ele>129</ele>
        <time>2023-05-17T11:05:35Z</time>
      </trkpt>
      <trkpt lat="43.43569" lon="6.63118">
        <ele>129</ele>
        <time>2023-05-17T11:05:37Z</time>
      </trkpt>
      <trkpt lat="43.43569" lon="6.63118">
        <ele>129</ele>
        <time>2023-05-17T11:05:38Z</time>
      </trkpt>
      <trkpt lat="43.43569" lon="6.63118">
        <ele>129</ele>
        <time>2023-05-17T11:05:39Z</time>
      </trkpt>
      <trkpt lat="43.43569" lon="6.63118">
        <ele>129</ele>
        <time>2023-05-17T11:05:40Z</time>
      </trkpt>
      <trkpt lat="43.4357" lon="6.63117">
        <ele>129</ele>
        <time>2023-05-17T11:05:41Z</time>
      </trkpt>
      <trkpt lat="43.4357" lon="6.63116">
        <ele>128.9</ele>
        <time>2023-05-17T11:05:42Z</time>
      </trkpt>
      <trkpt lat="43.4357" lon="6.63116">
        <ele>128.9</ele>
        <time>2023-05-17T11:05:43Z</time>
      </trkpt>
      <trkpt lat="43.4357" lon="6.63115">
        <ele>128.9</ele>
        <time>2023-05-17T11:05:44Z</time>
      </trkpt>
      <trkpt lat="43.43571" lon="6.63114">
        <ele>128.8</ele>
        <time>2023-05-17T11:05:45Z</time>
      </trkpt>
      <trkpt lat="43.43571" lon="6.63113">
        <ele>128.8</ele>
        <time>2023-05-17T11:05:46Z</time>
      </trkpt>
      <trkpt lat="43.43571" lon="6.63112">
        <ele>128.8</ele>
        <time>2023-05-17T11:05:47Z</time>
      </trkpt>
      <trkpt lat="43.43572" lon="6.63111">
        <ele>128.7</ele>
        <time>2023-05-17T11:05:48Z</time>
      </trkpt>
      <trkpt lat="43.43573" lon="6.6311">
        <ele>128.7</ele>
        <time>2023-05-17T11:05:49Z</time>
      </trkpt>
      <trkpt lat="43.43573" lon="6.6311">
        <ele>128.7</ele>
        <time>2023-05-17T11:05:51Z</time>
      </trkpt>
      <trkpt lat="43.43574" lon="6.6311">
        <ele>128.7</ele>
        <time>2023-05-17T11:05:52Z</time>
      </trkpt>
      <trkpt lat="43.43575" lon="6.63109">
        <ele>128.6</ele>
        <time>2023-05-17T11:05:53Z</time>
      </trkpt>
      <trkpt lat="43.43575" lon="6.63108">
        <ele>128.6</ele>
        <time>2023-05-17T11:05:55Z</time>
      </trkpt>
      <trkpt lat="43.43576" lon="6.63107">
        <ele>128.5</ele>
        <time>2023-05-17T11:05:56Z</time>
      </trkpt>
      <trkpt lat="43.43576" lon="6.63105">
        <ele>128.5</ele>
        <time>2023-05-17T11:05:57Z</time>
      </trkpt>
      <trkpt lat="43.43577" lon="6.63104">
        <ele>128.4</ele>
        <time>2023-05-17T11:05:58Z</time>
      </trkpt>
      <trkpt lat="43.43577" lon="6.63103">
        <ele>128.4</ele>
        <time>2023-05-17T11:05:59Z</time>
      </trkpt>
      <trkpt lat="43.43578" lon="6.63101">
        <ele>128.4</ele>
        <time>2023-05-17T11:06:00Z</time>
      </trkpt>
      <trkpt lat="43.43579" lon="6.631">
        <ele>128.3</ele>
        <time>2023-05-17T11:06:01Z</time>
      </trkpt>
      <trkpt lat="43.43579" lon="6.63099">
        <ele>128.3</ele>
        <time>2023-05-17T11:06:02Z</time>
      </trkpt>
      <trkpt lat="43.4358" lon="6.63097">
        <ele>128.2</ele>
        <time>2023-05-17T11:06:04Z</time>
      </trkpt>
      <trkpt lat="43.43581" lon="6.63095">
        <ele>128.1</ele>
        <time>2023-05-17T11:06:05Z</time>
      </trkpt>
      <trkpt lat="43.43581" lon="6.63093">
        <ele>128</ele>
        <time>2023-05-17T11:06:06Z</time>
      </trkpt>
      <trkpt lat="43.43582" lon="6.63092">
        <ele>127.9</ele>
        <time>2023-05-17T11:06:07Z</time>
      </trkpt>
      <trkpt lat="43.43583" lon="6.6309">
        <ele>127.7</ele>
        <time>2023-05-17T11:06:08Z</time>
      </trkpt>
      <trkpt lat="43.43585" lon="6.63087">
        <ele>127.5</ele>
        <time>2023-05-17T11:06:10Z</time>
      </trkpt>
      <trkpt lat="43.43586" lon="6.63086">
        <ele>127.3</ele>
        <time>2023-05-17T11:06:11Z</time>
      </trkpt>
      <trkpt lat="43.43588" lon="6.63085">
        <ele>127.2</ele>
        <time>2023-05-17T11:06:12Z</time>
      </trkpt>
      <trkpt lat="43.43588" lon="6.63084">
        <ele>127.1</ele>
        <time>2023-05-17T11:06:14Z</time>
      </trkpt>
      <trkpt lat="43.43589" lon="6.63083">
        <ele>127</ele>
        <time>2023-05-17T11:06:15Z</time>
      </trkpt>
      <trkpt lat="43.4359" lon="6.63082">
        <ele>126.9</ele>
        <time>2023-05-17T11:06:16Z</time>
      </trkpt>
      <trkpt lat="43.43591" lon="6.63082">
        <ele>126.8</ele>
        <time>2023-05-17T11:06:18Z</time>
      </trkpt>
      <trkpt lat="43.43592" lon="6.63082">
        <ele>126.7</ele>
        <time>2023-05-17T11:06:19Z</time>
      </trkpt>
      <trkpt lat="43.43593" lon="6.63081">
        <ele>126.6</ele>
        <time>2023-05-17T11:06:20Z</time>
      </trkpt>
      <trkpt lat="43.43594" lon="6.6308">
        <ele>126.4</ele>
        <time>2023-05-17T11:06:21Z</time>
      </trkpt>
      <trkpt lat="43.43595" lon="6.63079">
        <ele>126.4</ele>
        <time>2023-05-17T11:06:22Z</time>
      </trkpt>
      <trkpt lat="43.43596" lon="6.63079">
        <ele>126.2</ele>
        <time>2023-05-17T11:06:23Z</time>
      </trkpt>
      <trkpt lat="43.43597" lon="6.63078">
        <ele>126.2</ele>
        <time>2023-05-17T11:06:24Z</time>
      </trkpt>
      <trkpt lat="43.43599" lon="6.63078">
        <ele>125.9</ele>
        <time>2023-05-17T11:06:26Z</time>
      </trkpt>
      <trkpt lat="43.43599" lon="6.63077">
        <ele>125.9</ele>
        <time>2023-05-17T11:06:27Z</time>
      </trkpt>
      <trkpt lat="43.436" lon="6.63077">
        <ele>125.8</ele>
        <time>2023-05-17T11:06:28Z</time>
      </trkpt>
      <trkpt lat="43.43601" lon="6.63076">
        <ele>125.7</ele>
        <time>2023-05-17T11:06:29Z</time>
      </trkpt>
      <trkpt lat="43.43602" lon="6.63075">
        <ele>125.6</ele>
        <time>2023-05-17T11:06:31Z</time>
      </trkpt>
      <trkpt lat="43.43603" lon="6.63074">
        <ele>125.4</ele>
        <time>2023-05-17T11:06:32Z</time>
      </trkpt>
      <trkpt lat="43.43604" lon="6.63073">
        <ele>125.3</ele>
        <time>2023-05-17T11:06:33Z</time>
      </trkpt>
      <trkpt lat="43.43604" lon="6.63073">
        <ele>125.2</ele>
        <time>2023-05-17T11:06:35Z</time>
      </trkpt>
      <trkpt lat="43.43606" lon="6.63072">
        <ele>125.1</ele>
        <time>2023-05-17T11:06:36Z</time>
      </trkpt>
      <trkpt lat="43.43606" lon="6.63071">
        <ele>125</ele>
        <time>2023-05-17T11:06:37Z</time>
      </trkpt>
      <trkpt lat="43.43607" lon="6.6307">
        <ele>124.9</ele>
        <time>2023-05-17T11:06:38Z</time>
      </trkpt>
      <trkpt lat="43.43608" lon="6.6307">
        <ele>124.8</ele>
        <time>2023-05-17T11:06:39Z</time>
      </trkpt>
      <trkpt lat="43.43609" lon="6.63069">
        <ele>124.7</ele>
        <time>2023-05-17T11:06:40Z</time>
      </trkpt>
      <trkpt lat="43.4361" lon="6.63068">
        <ele>124.5</ele>
        <time>2023-05-17T11:06:41Z</time>
      </trkpt>
      <trkpt lat="43.43612" lon="6.63066">
        <ele>124.3</ele>
        <time>2023-05-17T11:06:43Z</time>
      </trkpt>
      <trkpt lat="43.43613" lon="6.63065">
        <ele>124.2</ele>
        <time>2023-05-17T11:06:44Z</time>
      </trkpt>
      <trkpt lat="43.43613" lon="6.63065">
        <ele>124.2</ele>
        <time>2023-05-17T11:06:45Z</time>
      </trkpt>
      <trkpt lat="43.43614" lon="6.63064">
        <ele>124</ele>
        <time>2023-05-17T11:06:46Z</time>
      </trkpt>
      <trkpt lat="43.43615" lon="6.63063">
        <ele>123.9</ele>
        <time>2023-05-17T11:06:48Z</time>
      </trkpt>
      <trkpt lat="43.43616" lon="6.63062">
        <ele>123.8</ele>
        <time>2023-05-17T11:06:49Z</time>
      </trkpt>
      <trkpt lat="43.43617" lon="6.63061">
        <ele>123.7</ele>
        <time>2023-05-17T11:06:50Z</time>
      </trkpt>
      <trkpt lat="43.43618" lon="6.6306">
        <ele>123.6</ele>
        <time>2023-05-17T11:06:52Z</time>
      </trkpt>
      <trkpt lat="43.43619" lon="6.63059">
        <ele>123.5</ele>
        <time>2023-05-17T11:06:53Z</time>
      </trkpt>
      <trkpt lat="43.4362" lon="6.63058">
        <ele>123.3</ele>
        <time>2023-05-17T11:06:54Z</time>
      </trkpt>
      <trkpt lat="43.43621" lon="6.63057">
        <ele>123.2</ele>
        <time>2023-05-17T11:06:55Z</time>
      </trkpt>
      <trkpt lat="43.43622" lon="6.63056">
        <ele>123.1</ele>
        <time>2023-05-17T11:06:57Z</time>
      </trkpt>
      <trkpt lat="43.43623" lon="6.63055">
        <ele>122.9</ele>
        <time>2023-05-17T11:06:58Z</time>
      </trkpt>
      <trkpt lat="43.43624" lon="6.63054">
        <ele>122.9</ele>
        <time>2023-05-17T11:06:59Z</time>
      </trkpt>
      <trkpt lat="43.43624" lon="6.63054">
        <ele>122.8</ele>
        <time>2023-05-17T11:07:00Z</time>
      </trkpt>
      <trkpt lat="43.43626" lon="6.63053">
        <ele>122.6</ele>
        <time>2023-05-17T11:07:02Z</time>
      </trkpt>
      <trkpt lat="43.43626" lon="6.63052">
        <ele>122.5</ele>
        <time>2023-05-17T11:07:03Z</time>
      </trkpt>
      <trkpt lat="43.43627" lon="6.63051">
        <ele>122.4</ele>
        <time>2023-05-17T11:07:04Z</time>
      </trkpt>
      <trkpt lat="43.43628" lon="6.63051">
        <ele>122.3</ele>
        <time>2023-05-17T11:07:05Z</time>
      </trkpt>
      <trkpt lat="43.43629" lon="6.63049">
        <ele>122.1</ele>
        <time>2023-05-17T11:07:06Z</time>
      </trkpt>
      <trkpt lat="43.4363" lon="6.63049">
        <ele>122.1</ele>
        <time>2023-05-17T11:07:07Z</time>
      </trkpt>
      <trkpt lat="43.43631" lon="6.63048">
        <ele>122</ele>
        <time>2023-05-17T11:07:08Z</time>
      </trkpt>
      <trkpt lat="43.43633" lon="6.63048">
        <ele>121.7</ele>
        <time>2023-05-17T11:07:09Z</time>
      </trkpt>
      <trkpt lat="43.43634" lon="6.63047">
        <ele>121.6</ele>
        <time>2023-05-17T11:07:10Z</time>
      </trkpt>
      <trkpt lat="43.43635" lon="6.63047">
        <ele>121.5</ele>
        <time>2023-05-17T11:07:11Z</time>
      </trkpt>
      <trkpt lat="43.43637" lon="6.63046">
        <ele>121.3</ele>
        <time>2023-05-17T11:07:13Z</time>
      </trkpt>
      <trkpt lat="43.43638" lon="6.63046">
        <ele>121.2</ele>
        <time>2023-05-17T11:07:14Z</time>
      </trkpt>
      <trkpt lat="43.43638" lon="6.63045">
        <ele>121.1</ele>
        <time>2023-05-17T11:07:15Z</time>
      </trkpt>
      <trkpt lat="43.4364" lon="6.63044">
        <ele>120.9</ele>
        <time>2023-05-17T11:07:16Z</time>
      </trkpt>
      <trkpt lat="43.43641" lon="6.63044">
        <ele>120.8</ele>
        <time>2023-05-17T11:07:17Z</time>
      </trkpt>
      <trkpt lat="43.43642" lon="6.63044">
        <ele>120.7</ele>
        <time>2023-05-17T11:07:18Z</time>
      </trkpt>
      <trkpt lat="43.43643" lon="6.63044">
        <ele>120.6</ele>
        <time>2023-05-17T11:07:20Z</time>
      </trkpt>
      <trkpt lat="43.43644" lon="6.63044">
        <ele>120.5</ele>
        <time>2023-05-17T11:07:21Z</time>
      </trkpt>
      <trkpt lat="43.43646" lon="6.63043">
        <ele>120.3</ele>
        <time>2023-05-17T11:07:22Z</time>
      </trkpt>
      <trkpt lat="43.43647" lon="6.63042">
        <ele>120.2</ele>
        <time>2023-05-17T11:07:23Z</time>
      </trkpt>
      <trkpt lat="43.43649" lon="6.63041">
        <ele>120</ele>
        <time>2023-05-17T11:07:24Z</time>
      </trkpt>
      <trkpt lat="43.4365" lon="6.6304">
        <ele>119.9</ele>
        <time>2023-05-17T11:07:25Z</time>
      </trkpt>
      <trkpt lat="43.43651" lon="6.6304">
        <ele>119.8</ele>
        <time>2023-05-17T11:07:26Z</time>
      </trkpt>
      <trkpt lat="43.43651" lon="6.63039">
        <ele>119.7</ele>
        <time>2023-05-17T11:07:27Z</time>
      </trkpt>
      <trkpt lat="43.43653" lon="6.63038">
        <ele>119.6</ele>
        <time>2023-05-17T11:07:29Z</time>
      </trkpt>
      <trkpt lat="43.43654" lon="6.63038">
        <ele>119.5</ele>
        <time>2023-05-17T11:07:30Z</time>
      </trkpt>
      <trkpt lat="43.43656" lon="6.63037">
        <ele>119.3</ele>
        <time>2023-05-17T11:07:31Z</time>
      </trkpt>
      <trkpt lat="43.43657" lon="6.63037">
        <ele>119.2</ele>
        <time>2023-05-17T11:07:32Z</time>
      </trkpt>
      <trkpt lat="43.43659" lon="6.63037">
        <ele>119.1</ele>
        <time>2023-05-17T11:07:33Z</time>
      </trkpt>
      <trkpt lat="43.4366" lon="6.63036">
        <ele>119</ele>
        <time>2023-05-17T11:07:34Z</time>
      </trkpt>
      <trkpt lat="43.4366" lon="6.63036">
        <ele>118.9</ele>
        <time>2023-05-17T11:07:35Z</time>
      </trkpt>
      <trkpt lat="43.43662" lon="6.63036">
        <ele>118.8</ele>
        <time>2023-05-17T11:07:37Z</time>
      </trkpt>
      <trkpt lat="43.43663" lon="6.63037">
        <ele>118.7</ele>
        <time>2023-05-17T11:07:38Z</time>
      </trkpt>
      <trkpt lat="43.43666" lon="6.63037">
        <ele>118.5</ele>
        <time>2023-05-17T11:07:39Z</time>
      </trkpt>
      <trkpt lat="43.43667" lon="6.63038">
        <ele>118.4</ele>
        <time>2023-05-17T11:07:40Z</time>
      </trkpt>
      <trkpt lat="43.43668" lon="6.63038">
        <ele>118.4</ele>
        <time>2023-05-17T11:07:41Z</time>
      </trkpt>
      <trkpt lat="43.43668" lon="6.63038">
        <ele>118.3</ele>
        <time>2023-05-17T11:07:42Z</time>
      </trkpt>
      <trkpt lat="43.43669" lon="6.63039">
        <ele>118.2</ele>
        <time>2023-05-17T11:07:43Z</time>
      </trkpt>
      <trkpt lat="43.4367" lon="6.63039">
        <ele>118.2</ele>
        <time>2023-05-17T11:07:44Z</time>
      </trkpt>
      <trkpt lat="43.43673" lon="6.6304">
        <ele>118</ele>
        <time>2023-05-17T11:07:45Z</time>
      </trkpt>
      <trkpt lat="43.43673" lon="6.63041">
        <ele>117.9</ele>
        <time>2023-05-17T11:07:47Z</time>
      </trkpt>
      <trkpt lat="43.43674" lon="6.63041">
        <ele>117.9</ele>
        <time>2023-05-17T11:07:48Z</time>
      </trkpt>
      <trkpt lat="43.43676" lon="6.63042">
        <ele>117.8</ele>
        <time>2023-05-17T11:07:49Z</time>
      </trkpt>
      <trkpt lat="43.43676" lon="6.63043">
        <ele>117.7</ele>
        <time>2023-05-17T11:07:50Z</time>
      </trkpt>
      <trkpt lat="43.43678" lon="6.63045">
        <ele>117.5</ele>
        <time>2023-05-17T11:07:51Z</time>
      </trkpt>
      <trkpt lat="43.43679" lon="6.63045">
        <ele>117.5</ele>
        <time>2023-05-17T11:07:52Z</time>
      </trkpt>
      <trkpt lat="43.43681" lon="6.63047">
        <ele>117.3</ele>
        <time>2023-05-17T11:07:53Z</time>
      </trkpt>
      <trkpt lat="43.43682" lon="6.63047">
        <ele>117.3</ele>
        <time>2023-05-17T11:07:54Z</time>
      </trkpt>
      <trkpt lat="43.43683" lon="6.63048">
        <ele>117.2</ele>
        <time>2023-05-17T11:07:55Z</time>
      </trkpt>
      <trkpt lat="43.43684" lon="6.63049">
        <ele>117.1</ele>
        <time>2023-05-17T11:07:57Z</time>
      </trkpt>
      <trkpt lat="43.43685" lon="6.6305">
        <ele>117</ele>
        <time>2023-05-17T11:07:58Z</time>
      </trkpt>
      <trkpt lat="43.43687" lon="6.63052">
        <ele>116.8</ele>
        <time>2023-05-17T11:07:59Z</time>
      </trkpt>
      <trkpt lat="43.43688" lon="6.63052">
        <ele>116.8</ele>
        <time>2023-05-17T11:08:00Z</time>
      </trkpt>
      <trkpt lat="43.43689" lon="6.63053">
        <ele>116.7</ele>
        <time>2023-05-17T11:08:01Z</time>
      </trkpt>
      <trkpt lat="43.43689" lon="6.63053">
        <ele>116.6</ele>
        <time>2023-05-17T11:08:02Z</time>
      </trkpt>
      <trkpt lat="43.4369" lon="6.63054">
        <ele>116.5</ele>
        <time>2023-05-17T11:08:04Z</time>
      </trkpt>
      <trkpt lat="43.43692" lon="6.63055">
        <ele>116.4</ele>
        <time>2023-05-17T11:08:05Z</time>
      </trkpt>
      <trkpt lat="43.43693" lon="6.63055">
        <ele>116.3</ele>
        <time>2023-05-17T11:08:06Z</time>
      </trkpt>
      <trkpt lat="43.43694" lon="6.63055">
        <ele>116.2</ele>
        <time>2023-05-17T11:08:07Z</time>
      </trkpt>
      <trkpt lat="43.43695" lon="6.63055">
        <ele>116.1</ele>
        <time>2023-05-17T11:08:08Z</time>
      </trkpt>
      <trkpt lat="43.43696" lon="6.63055">
        <ele>116.1</ele>
        <time>2023-05-17T11:08:09Z</time>
      </trkpt>
      <trkpt lat="43.43697" lon="6.63055">
        <ele>116</ele>
        <time>2023-05-17T11:08:10Z</time>
      </trkpt>
      <trkpt lat="43.43699" lon="6.63053">
        <ele>115.8</ele>
        <time>2023-05-17T11:08:11Z</time>
      </trkpt>
      <trkpt lat="43.437" lon="6.63053">
        <ele>115.7</ele>
        <time>2023-05-17T11:08:13Z</time>
      </trkpt>
      <trkpt lat="43.43701" lon="6.63052">
        <ele>115.7</ele>
        <time>2023-05-17T11:08:14Z</time>
      </trkpt>
      <trkpt lat="43.43702" lon="6.63052">
        <ele>115.5</ele>
        <time>2023-05-17T11:08:15Z</time>
      </trkpt>
      <trkpt lat="43.43704" lon="6.6305">
        <ele>115.4</ele>
        <time>2023-05-17T11:08:16Z</time>
      </trkpt>
      <trkpt lat="43.43704" lon="6.6305">
        <ele>115.3</ele>
        <time>2023-05-17T11:08:17Z</time>
      </trkpt>
      <trkpt lat="43.43706" lon="6.63049">
        <ele>115.2</ele>
        <time>2023-05-17T11:08:18Z</time>
      </trkpt>
      <trkpt lat="43.43707" lon="6.63048">
        <ele>115.1</ele>
        <time>2023-05-17T11:08:19Z</time>
      </trkpt>
      <trkpt lat="43.43708" lon="6.63047">
        <ele>115</ele>
        <time>2023-05-17T11:08:20Z</time>
      </trkpt>
      <trkpt lat="43.43709" lon="6.63046">
        <ele>114.8</ele>
        <time>2023-05-17T11:08:21Z</time>
      </trkpt>
      <trkpt lat="43.43711" lon="6.63045">
        <ele>114.7</ele>
        <time>2023-05-17T11:08:22Z</time>
      </trkpt>
      <trkpt lat="43.43712" lon="6.63044">
        <ele>114.6</ele>
        <time>2023-05-17T11:08:24Z</time>
      </trkpt>
      <trkpt lat="43.43714" lon="6.63043">
        <ele>114.4</ele>
        <time>2023-05-17T11:08:25Z</time>
      </trkpt>
      <trkpt lat="43.43715" lon="6.63042">
        <ele>114.3</ele>
        <time>2023-05-17T11:08:26Z</time>
      </trkpt>
      <trkpt lat="43.43716" lon="6.63041">
        <ele>114.2</ele>
        <time>2023-05-17T11:08:27Z</time>
      </trkpt>
      <trkpt lat="43.43717" lon="6.63041">
        <ele>114.2</ele>
        <time>2023-05-17T11:08:29Z</time>
      </trkpt>
      <trkpt lat="43.43718" lon="6.6304">
        <ele>114.1</ele>
        <time>2023-05-17T11:08:30Z</time>
      </trkpt>
      <trkpt lat="43.43719" lon="6.63039">
        <ele>114</ele>
        <time>2023-05-17T11:08:31Z</time>
      </trkpt>
      <trkpt lat="43.43721" lon="6.63037">
        <ele>113.9</ele>
        <time>2023-05-17T11:08:32Z</time>
      </trkpt>
      <trkpt lat="43.43722" lon="6.63036">
        <ele>113.9</ele>
        <time>2023-05-17T11:08:33Z</time>
      </trkpt>
      <trkpt lat="43.43722" lon="6.63035">
        <ele>113.8</ele>
        <time>2023-05-17T11:08:34Z</time>
      </trkpt>
      <trkpt lat="43.43723" lon="6.63034">
        <ele>113.8</ele>
        <time>2023-05-17T11:08:35Z</time>
      </trkpt>
      <trkpt lat="43.43725" lon="6.63032">
        <ele>113.7</ele>
        <time>2023-05-17T11:08:37Z</time>
      </trkpt>
      <trkpt lat="43.43726" lon="6.63031">
        <ele>113.6</ele>
        <time>2023-05-17T11:08:38Z</time>
      </trkpt>
      <trkpt lat="43.43726" lon="6.6303">
        <ele>113.6</ele>
        <time>2023-05-17T11:08:39Z</time>
      </trkpt>
      <trkpt lat="43.43727" lon="6.63029">
        <ele>113.5</ele>
        <time>2023-05-17T11:08:40Z</time>
      </trkpt>
      <trkpt lat="43.43729" lon="6.63028">
        <ele>113.4</ele>
        <time>2023-05-17T11:08:41Z</time>
      </trkpt>
      <trkpt lat="43.4373" lon="6.63027">
        <ele>113.4</ele>
        <time>2023-05-17T11:08:42Z</time>
      </trkpt>
      <trkpt lat="43.43731" lon="6.63026">
        <ele>113.3</ele>
        <time>2023-05-17T11:08:43Z</time>
      </trkpt>
      <trkpt lat="43.43732" lon="6.63025">
        <ele>113.3</ele>
        <time>2023-05-17T11:08:44Z</time>
      </trkpt>
      <trkpt lat="43.43732" lon="6.63024">
        <ele>113.2</ele>
        <time>2023-05-17T11:08:45Z</time>
      </trkpt>
      <trkpt lat="43.43734" lon="6.63022">
        <ele>113</ele>
        <time>2023-05-17T11:08:46Z</time>
      </trkpt>
      <trkpt lat="43.43734" lon="6.6302">
        <ele>112.7</ele>
        <time>2023-05-17T11:08:48Z</time>
      </trkpt>
      <trkpt lat="43.43734" lon="6.63018">
        <ele>112.6</ele>
        <time>2023-05-17T11:08:49Z</time>
      </trkpt>
      <trkpt lat="43.43733" lon="6.63018">
        <ele>112.5</ele>
        <time>2023-05-17T11:08:51Z</time>
      </trkpt>
      <trkpt lat="43.43733" lon="6.63018">
        <ele>112.5</ele>
        <time>2023-05-17T11:08:52Z</time>
      </trkpt>
      <trkpt lat="43.43733" lon="6.63018">
        <ele>112.4</ele>
        <time>2023-05-17T11:08:53Z</time>
      </trkpt>
      <trkpt lat="43.43734" lon="6.63017">
        <ele>112.3</ele>
        <time>2023-05-17T11:08:54Z</time>
      </trkpt>
      <trkpt lat="43.43734" lon="6.63017">
        <ele>112.2</ele>
        <time>2023-05-17T11:08:55Z</time>
      </trkpt>
      <trkpt lat="43.43735" lon="6.63016">
        <ele>112.2</ele>
        <time>2023-05-17T11:08:57Z</time>
      </trkpt>
      <trkpt lat="43.43735" lon="6.63015">
        <ele>112.1</ele>
        <time>2023-05-17T11:08:58Z</time>
      </trkpt>
      <trkpt lat="43.43736" lon="6.63015">
        <ele>112</ele>
        <time>2023-05-17T11:08:59Z</time>
      </trkpt>
      <trkpt lat="43.43736" lon="6.63013">
        <ele>111.8</ele>
        <time>2023-05-17T11:09:00Z</time>
      </trkpt>
      <trkpt lat="43.43737" lon="6.63012">
        <ele>111.7</ele>
        <time>2023-05-17T11:09:01Z</time>
      </trkpt>
      <trkpt lat="43.43739" lon="6.63009">
        <ele>111.4</ele>
        <time>2023-05-17T11:09:02Z</time>
      </trkpt>
      <trkpt lat="43.43739" lon="6.63009">
        <ele>111.4</ele>
        <time>2023-05-17T11:09:03Z</time>
      </trkpt>
      <trkpt lat="43.43741" lon="6.63007">
        <ele>111.2</ele>
        <time>2023-05-17T11:09:04Z</time>
      </trkpt>
      <trkpt lat="43.43742" lon="6.63007">
        <ele>111.1</ele>
        <time>2023-05-17T11:09:05Z</time>
      </trkpt>
      <trkpt lat="43.43742" lon="6.63006">
        <ele>111</ele>
        <time>2023-05-17T11:09:06Z</time>
      </trkpt>
      <trkpt lat="43.43743" lon="6.63005">
        <ele>110.9</ele>
        <time>2023-05-17T11:09:07Z</time>
      </trkpt>
      <trkpt lat="43.43744" lon="6.63004">
        <ele>110.8</ele>
        <time>2023-05-17T11:09:09Z</time>
      </trkpt>
      <trkpt lat="43.43745" lon="6.63004">
        <ele>110.7</ele>
        <time>2023-05-17T11:09:10Z</time>
      </trkpt>
      <trkpt lat="43.43746" lon="6.63003">
        <ele>110.6</ele>
        <time>2023-05-17T11:09:11Z</time>
      </trkpt>
      <trkpt lat="43.43748" lon="6.63002">
        <ele>110.3</ele>
        <time>2023-05-17T11:09:12Z</time>
      </trkpt>
      <trkpt lat="43.43749" lon="6.63003">
        <ele>110.2</ele>
        <time>2023-05-17T11:09:13Z</time>
      </trkpt>
      <trkpt lat="43.4375" lon="6.63003">
        <ele>110.2</ele>
        <time>2023-05-17T11:09:14Z</time>
      </trkpt>
      <trkpt lat="43.43751" lon="6.63003">
        <ele>110.1</ele>
        <time>2023-05-17T11:09:15Z</time>
      </trkpt>
      <trkpt lat="43.43753" lon="6.63004">
        <ele>110</ele>
        <time>2023-05-17T11:09:16Z</time>
      </trkpt>
      <trkpt lat="43.43753" lon="6.63004">
        <ele>110</ele>
        <time>2023-05-17T11:09:18Z</time>
      </trkpt>
      <trkpt lat="43.43755" lon="6.63003">
        <ele>109.9</ele>
        <time>2023-05-17T11:09:19Z</time>
      </trkpt>
      <trkpt lat="43.43755" lon="6.63002">
        <ele>109.9</ele>
        <time>2023-05-17T11:09:20Z</time>
      </trkpt>
      <trkpt lat="43.43755" lon="6.63002">
        <ele>109.8</ele>
        <time>2023-05-17T11:09:21Z</time>
      </trkpt>
      <trkpt lat="43.43755" lon="6.63002">
        <ele>109.8</ele>
        <time>2023-05-17T11:09:23Z</time>
      </trkpt>
      <trkpt lat="43.43755" lon="6.63002">
        <ele>109.8</ele>
        <time>2023-05-17T11:09:24Z</time>
      </trkpt>
      <trkpt lat="43.43755" lon="6.63002">
        <ele>109.8</ele>
        <time>2023-05-17T11:09:25Z</time>
      </trkpt>
      <trkpt lat="43.43755" lon="6.63001">
        <ele>109.8</ele>
        <time>2023-05-17T11:09:27Z</time>
      </trkpt>
      <trkpt lat="43.43755" lon="6.63001">
        <ele>109.8</ele>
        <time>2023-05-17T11:09:28Z</time>
      </trkpt>
      <trkpt lat="43.43755" lon="6.63001">
        <ele>109.8</ele>
        <time>2023-05-17T11:09:29Z</time>
      </trkpt>
      <trkpt lat="43.43755" lon="6.63001">
        <ele>109.8</ele>
        <time>2023-05-17T11:09:31Z</time>
      </trkpt>
      <trkpt lat="43.43755" lon="6.63001">
        <ele>109.8</ele>
        <time>2023-05-17T11:09:37Z</time>
      </trkpt>
      <trkpt lat="43.43755" lon="6.63002">
        <ele>109.8</ele>
        <time>2023-05-17T11:09:38Z</time>
      </trkpt>
      <trkpt lat="43.43755" lon="6.63002">
        <ele>109.8</ele>
        <time>2023-05-17T11:09:39Z</time>
      </trkpt>
      <trkpt lat="43.43755" lon="6.63002">
        <ele>109.8</ele>
        <time>2023-05-17T11:09:40Z</time>
      </trkpt>
      <trkpt lat="43.43755" lon="6.63002">
        <ele>109.8</ele>
        <time>2023-05-17T11:09:41Z</time>
      </trkpt>
      <trkpt lat="43.43755" lon="6.63002">
        <ele>109.7</ele>
        <time>2023-05-17T11:09:42Z</time>
      </trkpt>
      <trkpt lat="43.43755" lon="6.63003">
        <ele>109.7</ele>
        <time>2023-05-17T11:09:43Z</time>
      </trkpt>
      <trkpt lat="43.43754" lon="6.63004">
        <ele>109.7</ele>
        <time>2023-05-17T11:09:44Z</time>
      </trkpt>
      <trkpt lat="43.43754" lon="6.63006">
        <ele>109.6</ele>
        <time>2023-05-17T11:09:45Z</time>
      </trkpt>
      <trkpt lat="43.43754" lon="6.63007">
        <ele>109.5</ele>
        <time>2023-05-17T11:09:46Z</time>
      </trkpt>
      <trkpt lat="43.43755" lon="6.63008">
        <ele>109.5</ele>
        <time>2023-05-17T11:09:47Z</time>
      </trkpt>
      <trkpt lat="43.43755" lon="6.6301">
        <ele>109.4</ele>
        <time>2023-05-17T11:09:48Z</time>
      </trkpt>
      <trkpt lat="43.43755" lon="6.63011">
        <ele>109.3</ele>
        <time>2023-05-17T11:09:50Z</time>
      </trkpt>
      <trkpt lat="43.43755" lon="6.63012">
        <ele>109.2</ele>
        <time>2023-05-17T11:09:51Z</time>
      </trkpt>
      <trkpt lat="43.43756" lon="6.63012">
        <ele>109.2</ele>
        <time>2023-05-17T11:09:52Z</time>
      </trkpt>
      <trkpt lat="43.43756" lon="6.63012">
        <ele>109.1</ele>
        <time>2023-05-17T11:09:54Z</time>
      </trkpt>
      <trkpt lat="43.43756" lon="6.63013">
        <ele>109.1</ele>
        <time>2023-05-17T11:09:55Z</time>
      </trkpt>
      <trkpt lat="43.43756" lon="6.63014">
        <ele>109</ele>
        <time>2023-05-17T11:09:56Z</time>
      </trkpt>
      <trkpt lat="43.43755" lon="6.63015">
        <ele>108.9</ele>
        <time>2023-05-17T11:09:58Z</time>
      </trkpt>
      <trkpt lat="43.43755" lon="6.63018">
        <ele>108.7</ele>
        <time>2023-05-17T11:09:59Z</time>
      </trkpt>
      <trkpt lat="43.43755" lon="6.6302">
        <ele>108.6</ele>
        <time>2023-05-17T11:10:00Z</time>
      </trkpt>
      <trkpt lat="43.43755" lon="6.63022">
        <ele>108.5</ele>
        <time>2023-05-17T11:10:01Z</time>
      </trkpt>
      <trkpt lat="43.43755" lon="6.63023">
        <ele>108.4</ele>
        <time>2023-05-17T11:10:03Z</time>
      </trkpt>
      <trkpt lat="43.43756" lon="6.63025">
        <ele>108.3</ele>
        <time>2023-05-17T11:10:04Z</time>
      </trkpt>
      <trkpt lat="43.43756" lon="6.63027">
        <ele>108.2</ele>
        <time>2023-05-17T11:10:05Z</time>
      </trkpt>
      <trkpt lat="43.43756" lon="6.63028">
        <ele>108.1</ele>
        <time>2023-05-17T11:10:07Z</time>
      </trkpt>
      <trkpt lat="43.43756" lon="6.63029">
        <ele>108</ele>
        <time>2023-05-17T11:10:08Z</time>
      </trkpt>
      <trkpt lat="43.43756" lon="6.63029">
        <ele>108</ele>
        <time>2023-05-17T11:10:09Z</time>
      </trkpt>
      <trkpt lat="43.43756" lon="6.63029">
        <ele>108</ele>
        <time>2023-05-17T11:10:11Z</time>
      </trkpt>
      <trkpt lat="43.43756" lon="6.63028">
        <ele>108</ele>
        <time>2023-05-17T11:10:12Z</time>
      </trkpt>
      <trkpt lat="43.43756" lon="6.63029">
        <ele>108</ele>
        <time>2023-05-17T11:10:13Z</time>
      </trkpt>
      <trkpt lat="43.43757" lon="6.63028">
        <ele>107.9</ele>
        <time>2023-05-17T11:10:15Z</time>
      </trkpt>
      <trkpt lat="43.43757" lon="6.63028">
        <ele>107.9</ele>
        <time>2023-05-17T11:10:16Z</time>
      </trkpt>
      <trkpt lat="43.43757" lon="6.63027">
        <ele>107.9</ele>
        <time>2023-05-17T11:10:17Z</time>
      </trkpt>
      <trkpt lat="43.43757" lon="6.63027">
        <ele>107.8</ele>
        <time>2023-05-17T11:10:18Z</time>
      </trkpt>
      <trkpt lat="43.43757" lon="6.63026">
        <ele>107.8</ele>
        <time>2023-05-17T11:10:19Z</time>
      </trkpt>
      <trkpt lat="43.43757" lon="6.63026">
        <ele>107.8</ele>
        <time>2023-05-17T11:10:20Z</time>
      </trkpt>
      <trkpt lat="43.43757" lon="6.63027">
        <ele>107.8</ele>
        <time>2023-05-17T11:10:21Z</time>
      </trkpt>
      <trkpt lat="43.43757" lon="6.63028">
        <ele>107.7</ele>
        <time>2023-05-17T11:10:22Z</time>
      </trkpt>
      <trkpt lat="43.43757" lon="6.63029">
        <ele>107.6</ele>
        <time>2023-05-17T11:10:23Z</time>
      </trkpt>
      <trkpt lat="43.43757" lon="6.6303">
        <ele>107.5</ele>
        <time>2023-05-17T11:10:24Z</time>
      </trkpt>
      <trkpt lat="43.43758" lon="6.63031">
        <ele>107.5</ele>
        <time>2023-05-17T11:10:25Z</time>
      </trkpt>
      <trkpt lat="43.43758" lon="6.63033">
        <ele>107.4</ele>
        <time>2023-05-17T11:10:26Z</time>
      </trkpt>
      <trkpt lat="43.43759" lon="6.63033">
        <ele>107.3</ele>
        <time>2023-05-17T11:10:28Z</time>
      </trkpt>
      <trkpt lat="43.4376" lon="6.63035">
        <ele>107.2</ele>
        <time>2023-05-17T11:10:29Z</time>
      </trkpt>
      <trkpt lat="43.4376" lon="6.63038">
        <ele>107</ele>
        <time>2023-05-17T11:10:30Z</time>
      </trkpt>
      <trkpt lat="43.4376" lon="6.63039">
        <ele>106.9</ele>
        <time>2023-05-17T11:10:31Z</time>
      </trkpt>
      <trkpt lat="43.4376" lon="6.6304">
        <ele>106.8</ele>
        <time>2023-05-17T11:10:32Z</time>
      </trkpt>
      <trkpt lat="43.43761" lon="6.63043">
        <ele>106.7</ele>
        <time>2023-05-17T11:10:34Z</time>
      </trkpt>
      <trkpt lat="43.43761" lon="6.63044">
        <ele>106.6</ele>
        <time>2023-05-17T11:10:35Z</time>
      </trkpt>
      <trkpt lat="43.43761" lon="6.63048">
        <ele>106.4</ele>
        <time>2023-05-17T11:10:36Z</time>
      </trkpt>
      <trkpt lat="43.43761" lon="6.63049">
        <ele>106.3</ele>
        <time>2023-05-17T11:10:37Z</time>
      </trkpt>
      <trkpt lat="43.43762" lon="6.63051">
        <ele>106.2</ele>
        <time>2023-05-17T11:10:38Z</time>
      </trkpt>
      <trkpt lat="43.43762" lon="6.63052">
        <ele>106.2</ele>
        <time>2023-05-17T11:10:39Z</time>
      </trkpt>
      <trkpt lat="43.43762" lon="6.63053">
        <ele>106.1</ele>
        <time>2023-05-17T11:10:40Z</time>
      </trkpt>
      <trkpt lat="43.43762" lon="6.63055">
        <ele>106</ele>
        <time>2023-05-17T11:10:41Z</time>
      </trkpt>
      <trkpt lat="43.43762" lon="6.63057">
        <ele>105.8</ele>
        <time>2023-05-17T11:10:43Z</time>
      </trkpt>
      <trkpt lat="43.43763" lon="6.63059">
        <ele>105.7</ele>
        <time>2023-05-17T11:10:44Z</time>
      </trkpt>
      <trkpt lat="43.43764" lon="6.63061">
        <ele>105.6</ele>
        <time>2023-05-17T11:10:45Z</time>
      </trkpt>
      <trkpt lat="43.43765" lon="6.63062">
        <ele>105.5</ele>
        <time>2023-05-17T11:10:46Z</time>
      </trkpt>
      <trkpt lat="43.43765" lon="6.63063">
        <ele>105.5</ele>
        <time>2023-05-17T11:10:47Z</time>
      </trkpt>
      <trkpt lat="43.43766" lon="6.63065">
        <ele>105.3</ele>
        <time>2023-05-17T11:10:48Z</time>
      </trkpt>
      <trkpt lat="43.43766" lon="6.63067">
        <ele>105.3</ele>
        <time>2023-05-17T11:10:49Z</time>
      </trkpt>
      <trkpt lat="43.43767" lon="6.63068">
        <ele>105.2</ele>
        <time>2023-05-17T11:10:51Z</time>
      </trkpt>
      <trkpt lat="43.43767" lon="6.63071">
        <ele>105</ele>
        <time>2023-05-17T11:10:52Z</time>
      </trkpt>
      <trkpt lat="43.43768" lon="6.63072">
        <ele>105</ele>
        <time>2023-05-17T11:10:53Z</time>
      </trkpt>
      <trkpt lat="43.43768" lon="6.63073">
        <ele>104.9</ele>
        <time>2023-05-17T11:10:54Z</time>
      </trkpt>
      <trkpt lat="43.43768" lon="6.63074">
        <ele>104.8</ele>
        <time>2023-05-17T11:10:55Z</time>
      </trkpt>
      <trkpt lat="43.43769" lon="6.63075">
        <ele>104.8</ele>
        <time>2023-05-17T11:10:56Z</time>
      </trkpt>
      <trkpt lat="43.43769" lon="6.63077">
        <ele>104.7</ele>
        <time>2023-05-17T11:10:57Z</time>
      </trkpt>
      <trkpt lat="43.4377" lon="6.6308">
        <ele>104.5</ele>
        <time>2023-05-17T11:10:58Z</time>
      </trkpt>
      <trkpt lat="43.43771" lon="6.6308">
        <ele>104.5</ele>
        <time>2023-05-17T11:10:59Z</time>
      </trkpt>
      <trkpt lat="43.43771" lon="6.63081">
        <ele>104.4</ele>
        <time>2023-05-17T11:11:00Z</time>
      </trkpt>
      <trkpt lat="43.43772" lon="6.63084">
        <ele>104.2</ele>
        <time>2023-05-17T11:11:01Z</time>
      </trkpt>
      <trkpt lat="43.43772" lon="6.63086">
        <ele>104.1</ele>
        <time>2023-05-17T11:11:03Z</time>
      </trkpt>
      <trkpt lat="43.43772" lon="6.63087">
        <ele>104</ele>
        <time>2023-05-17T11:11:04Z</time>
      </trkpt>
      <trkpt lat="43.43773" lon="6.63088">
        <ele>104</ele>
        <time>2023-05-17T11:11:05Z</time>
      </trkpt>
      <trkpt lat="43.43774" lon="6.6309">
        <ele>103.8</ele>
        <time>2023-05-17T11:11:06Z</time>
      </trkpt>
      <trkpt lat="43.43774" lon="6.63092">
        <ele>103.7</ele>
        <time>2023-05-17T11:11:08Z</time>
      </trkpt>
      <trkpt lat="43.43775" lon="6.63093">
        <ele>103.6</ele>
        <time>2023-05-17T11:11:09Z</time>
      </trkpt>
      <trkpt lat="43.43776" lon="6.63095">
        <ele>103.4</ele>
        <time>2023-05-17T11:11:10Z</time>
      </trkpt>
      <trkpt lat="43.43777" lon="6.63097">
        <ele>103.2</ele>
        <time>2023-05-17T11:11:11Z</time>
      </trkpt>
      <trkpt lat="43.43777" lon="6.63098">
        <ele>103.2</ele>
        <time>2023-05-17T11:11:12Z</time>
      </trkpt>
      <trkpt lat="43.43778" lon="6.63099">
        <ele>103.1</ele>
        <time>2023-05-17T11:11:13Z</time>
      </trkpt>
      <trkpt lat="43.43779" lon="6.631">
        <ele>102.9</ele>
        <time>2023-05-17T11:11:14Z</time>
      </trkpt>
      <trkpt lat="43.4378" lon="6.63101">
        <ele>102.8</ele>
        <time>2023-05-17T11:11:15Z</time>
      </trkpt>
      <trkpt lat="43.43781" lon="6.63103">
        <ele>102.7</ele>
        <time>2023-05-17T11:11:16Z</time>
      </trkpt>
      <trkpt lat="43.43782" lon="6.63104">
        <ele>102.5</ele>
        <time>2023-05-17T11:11:18Z</time>
      </trkpt>
      <trkpt lat="43.43783" lon="6.63106">
        <ele>102.3</ele>
        <time>2023-05-17T11:11:19Z</time>
      </trkpt>
      <trkpt lat="43.43784" lon="6.63108">
        <ele>102.2</ele>
        <time>2023-05-17T11:11:20Z</time>
      </trkpt>
      <trkpt lat="43.43785" lon="6.6311">
        <ele>101.9</ele>
        <time>2023-05-17T11:11:21Z</time>
      </trkpt>
      <trkpt lat="43.43786" lon="6.63112">
        <ele>101.8</ele>
        <time>2023-05-17T11:11:22Z</time>
      </trkpt>
      <trkpt lat="43.43786" lon="6.63113">
        <ele>101.7</ele>
        <time>2023-05-17T11:11:23Z</time>
      </trkpt>
      <trkpt lat="43.43787" lon="6.63114">
        <ele>101.6</ele>
        <time>2023-05-17T11:11:24Z</time>
      </trkpt>
      <trkpt lat="43.43788" lon="6.63115">
        <ele>101.5</ele>
        <time>2023-05-17T11:11:26Z</time>
      </trkpt>
      <trkpt lat="43.43789" lon="6.63116">
        <ele>101.3</ele>
        <time>2023-05-17T11:11:27Z</time>
      </trkpt>
      <trkpt lat="43.43789" lon="6.63118">
        <ele>101.2</ele>
        <time>2023-05-17T11:11:28Z</time>
      </trkpt>
      <trkpt lat="43.4379" lon="6.6312">
        <ele>101</ele>
        <time>2023-05-17T11:11:29Z</time>
      </trkpt>
      <trkpt lat="43.43791" lon="6.63121">
        <ele>100.9</ele>
        <time>2023-05-17T11:11:30Z</time>
      </trkpt>
      <trkpt lat="43.43791" lon="6.63122">
        <ele>100.8</ele>
        <time>2023-05-17T11:11:31Z</time>
      </trkpt>
      <trkpt lat="43.43792" lon="6.63124">
        <ele>100.6</ele>
        <time>2023-05-17T11:11:32Z</time>
      </trkpt>
      <trkpt lat="43.43793" lon="6.63125">
        <ele>100.4</ele>
        <time>2023-05-17T11:11:33Z</time>
      </trkpt>
      <trkpt lat="43.43794" lon="6.63127">
        <ele>100.2</ele>
        <time>2023-05-17T11:11:34Z</time>
      </trkpt>
      <trkpt lat="43.43795" lon="6.63129">
        <ele>100.1</ele>
        <time>2023-05-17T11:11:35Z</time>
      </trkpt>
      <trkpt lat="43.43795" lon="6.6313">
        <ele>100</ele>
        <time>2023-05-17T11:11:36Z</time>
      </trkpt>
      <trkpt lat="43.43796" lon="6.63131">
        <ele>99.8</ele>
        <time>2023-05-17T11:11:38Z</time>
      </trkpt>
      <trkpt lat="43.43797" lon="6.63133">
        <ele>99.6</ele>
        <time>2023-05-17T11:11:39Z</time>
      </trkpt>
      <trkpt lat="43.43798" lon="6.63135">
        <ele>99.5</ele>
        <time>2023-05-17T11:11:40Z</time>
      </trkpt>
      <trkpt lat="43.43798" lon="6.63136">
        <ele>99.3</ele>
        <time>2023-05-17T11:11:41Z</time>
      </trkpt>
      <trkpt lat="43.43799" lon="6.63137">
        <ele>99.2</ele>
        <time>2023-05-17T11:11:42Z</time>
      </trkpt>
      <trkpt lat="43.438" lon="6.63138">
        <ele>99.1</ele>
        <time>2023-05-17T11:11:43Z</time>
      </trkpt>
      <trkpt lat="43.43802" lon="6.6314">
        <ele>98.9</ele>
        <time>2023-05-17T11:11:44Z</time>
      </trkpt>
      <trkpt lat="43.43802" lon="6.63141">
        <ele>98.8</ele>
        <time>2023-05-17T11:11:45Z</time>
      </trkpt>
      <trkpt lat="43.43804" lon="6.63143">
        <ele>98.5</ele>
        <time>2023-05-17T11:11:47Z</time>
      </trkpt>
      <trkpt lat="43.43804" lon="6.63144">
        <ele>98.4</ele>
        <time>2023-05-17T11:11:48Z</time>
      </trkpt>
      <trkpt lat="43.43805" lon="6.63145">
        <ele>98.3</ele>
        <time>2023-05-17T11:11:49Z</time>
      </trkpt>
      <trkpt lat="43.43805" lon="6.63146">
        <ele>98.2</ele>
        <time>2023-05-17T11:11:50Z</time>
      </trkpt>
      <trkpt lat="43.43806" lon="6.63147">
        <ele>98.1</ele>
        <time>2023-05-17T11:11:51Z</time>
      </trkpt>
      <trkpt lat="43.43807" lon="6.63149">
        <ele>97.9</ele>
        <time>2023-05-17T11:11:52Z</time>
      </trkpt>
      <trkpt lat="43.43808" lon="6.6315">
        <ele>97.8</ele>
        <time>2023-05-17T11:11:53Z</time>
      </trkpt>
      <trkpt lat="43.43808" lon="6.63152">
        <ele>97.6</ele>
        <time>2023-05-17T11:11:55Z</time>
      </trkpt>
      <trkpt lat="43.43809" lon="6.63153">
        <ele>97.5</ele>
        <time>2023-05-17T11:11:56Z</time>
      </trkpt>
      <trkpt lat="43.4381" lon="6.63154">
        <ele>97.3</ele>
        <time>2023-05-17T11:11:57Z</time>
      </trkpt>
      <trkpt lat="43.43811" lon="6.63155">
        <ele>97.1</ele>
        <time>2023-05-17T11:11:58Z</time>
      </trkpt>
      <trkpt lat="43.43813" lon="6.63157">
        <ele>96.9</ele>
        <time>2023-05-17T11:11:59Z</time>
      </trkpt>
      <trkpt lat="43.43814" lon="6.63159">
        <ele>96.6</ele>
        <time>2023-05-17T11:12:00Z</time>
      </trkpt>
      <trkpt lat="43.43815" lon="6.6316">
        <ele>96.5</ele>
        <time>2023-05-17T11:12:01Z</time>
      </trkpt>
      <trkpt lat="43.43815" lon="6.63161">
        <ele>96.4</ele>
        <time>2023-05-17T11:12:03Z</time>
      </trkpt>
      <trkpt lat="43.43816" lon="6.63162">
        <ele>96.2</ele>
        <time>2023-05-17T11:12:04Z</time>
      </trkpt>
      <trkpt lat="43.43817" lon="6.63163">
        <ele>96.1</ele>
        <time>2023-05-17T11:12:05Z</time>
      </trkpt>
      <trkpt lat="43.43817" lon="6.63165">
        <ele>96</ele>
        <time>2023-05-17T11:12:06Z</time>
      </trkpt>
      <trkpt lat="43.43818" lon="6.63167">
        <ele>95.7</ele>
        <time>2023-05-17T11:12:07Z</time>
      </trkpt>
      <trkpt lat="43.43818" lon="6.63168">
        <ele>95.6</ele>
        <time>2023-05-17T11:12:08Z</time>
      </trkpt>
      <trkpt lat="43.43819" lon="6.63169">
        <ele>95.5</ele>
        <time>2023-05-17T11:12:09Z</time>
      </trkpt>
      <trkpt lat="43.43819" lon="6.63171">
        <ele>95.3</ele>
        <time>2023-05-17T11:12:10Z</time>
      </trkpt>
      <trkpt lat="43.4382" lon="6.63172">
        <ele>95.2</ele>
        <time>2023-05-17T11:12:11Z</time>
      </trkpt>
      <trkpt lat="43.4382" lon="6.63173">
        <ele>95</ele>
        <time>2023-05-17T11:12:12Z</time>
      </trkpt>
      <trkpt lat="43.43821" lon="6.63175">
        <ele>94.9</ele>
        <time>2023-05-17T11:12:13Z</time>
      </trkpt>
      <trkpt lat="43.43822" lon="6.63176">
        <ele>94.7</ele>
        <time>2023-05-17T11:12:15Z</time>
      </trkpt>
      <trkpt lat="43.43823" lon="6.63177">
        <ele>94.6</ele>
        <time>2023-05-17T11:12:16Z</time>
      </trkpt>
      <trkpt lat="43.43824" lon="6.6318">
        <ele>94.3</ele>
        <time>2023-05-17T11:12:17Z</time>
      </trkpt>
      <trkpt lat="43.43824" lon="6.63181">
        <ele>94.2</ele>
        <time>2023-05-17T11:12:18Z</time>
      </trkpt>
      <trkpt lat="43.43824" lon="6.63183">
        <ele>94</ele>
        <time>2023-05-17T11:12:19Z</time>
      </trkpt>
      <trkpt lat="43.43824" lon="6.63184">
        <ele>93.9</ele>
        <time>2023-05-17T11:12:20Z</time>
      </trkpt>
      <trkpt lat="43.43824" lon="6.63185">
        <ele>93.8</ele>
        <time>2023-05-17T11:12:21Z</time>
      </trkpt>
      <trkpt lat="43.43824" lon="6.63186">
        <ele>93.7</ele>
        <time>2023-05-17T11:12:22Z</time>
      </trkpt>
      <trkpt lat="43.43824" lon="6.63188">
        <ele>93.5</ele>
        <time>2023-05-17T11:12:23Z</time>
      </trkpt>
      <trkpt lat="43.43824" lon="6.6319">
        <ele>93.3</ele>
        <time>2023-05-17T11:12:24Z</time>
      </trkpt>
      <trkpt lat="43.43825" lon="6.63192">
        <ele>93.2</ele>
        <time>2023-05-17T11:12:26Z</time>
      </trkpt>
      <trkpt lat="43.43825" lon="6.63193">
        <ele>93</ele>
        <time>2023-05-17T11:12:27Z</time>
      </trkpt>
      <trkpt lat="43.43825" lon="6.63195">
        <ele>92.8</ele>
        <time>2023-05-17T11:12:28Z</time>
      </trkpt>
      <trkpt lat="43.43825" lon="6.63198">
        <ele>92.6</ele>
        <time>2023-05-17T11:12:29Z</time>
      </trkpt>
      <trkpt lat="43.43825" lon="6.63199">
        <ele>92.5</ele>
        <time>2023-05-17T11:12:30Z</time>
      </trkpt>
      <trkpt lat="43.43825" lon="6.632">
        <ele>92.4</ele>
        <time>2023-05-17T11:12:31Z</time>
      </trkpt>
      <trkpt lat="43.43825" lon="6.63202">
        <ele>92.2</ele>
        <time>2023-05-17T11:12:32Z</time>
      </trkpt>
      <trkpt lat="43.43826" lon="6.63203">
        <ele>92.1</ele>
        <time>2023-05-17T11:12:33Z</time>
      </trkpt>
      <trkpt lat="43.43826" lon="6.63205">
        <ele>92</ele>
        <time>2023-05-17T11:12:35Z</time>
      </trkpt>
      <trkpt lat="43.43826" lon="6.63206">
        <ele>91.8</ele>
        <time>2023-05-17T11:12:36Z</time>
      </trkpt>
      <trkpt lat="43.43826" lon="6.63208">
        <ele>91.7</ele>
        <time>2023-05-17T11:12:37Z</time>
      </trkpt>
      <trkpt lat="43.43826" lon="6.63209">
        <ele>91.6</ele>
        <time>2023-05-17T11:12:38Z</time>
      </trkpt>
      <trkpt lat="43.43826" lon="6.63212">
        <ele>91.4</ele>
        <time>2023-05-17T11:12:39Z</time>
      </trkpt>
      <trkpt lat="43.43826" lon="6.63212">
        <ele>91.4</ele>
        <time>2023-05-17T11:12:40Z</time>
      </trkpt>
      <trkpt lat="43.43827" lon="6.63214">
        <ele>91.4</ele>
        <time>2023-05-17T11:12:41Z</time>
      </trkpt>
      <trkpt lat="43.43827" lon="6.63216">
        <ele>91.4</ele>
        <time>2023-05-17T11:12:43Z</time>
      </trkpt>
      <trkpt lat="43.43827" lon="6.63215">
        <ele>91.4</ele>
        <time>2023-05-17T11:12:44Z</time>
      </trkpt>
      <trkpt lat="43.43827" lon="6.63215">
        <ele>91.4</ele>
        <time>2023-05-17T11:12:45Z</time>
      </trkpt>
      <trkpt lat="43.43827" lon="6.63214">
        <ele>91.4</ele>
        <time>2023-05-17T11:12:47Z</time>
      </trkpt>
      <trkpt lat="43.43827" lon="6.63214">
        <ele>91.4</ele>
        <time>2023-05-17T11:12:48Z</time>
      </trkpt>
      <trkpt lat="43.43827" lon="6.63214">
        <ele>91.4</ele>
        <time>2023-05-17T11:12:49Z</time>
      </trkpt>
      <trkpt lat="43.43827" lon="6.63213">
        <ele>91.4</ele>
        <time>2023-05-17T11:12:50Z</time>
      </trkpt>
      <trkpt lat="43.43827" lon="6.63213">
        <ele>91.4</ele>
        <time>2023-05-17T11:12:52Z</time>
      </trkpt>
      <trkpt lat="43.43827" lon="6.63213">
        <ele>91.4</ele>
        <time>2023-05-17T11:12:53Z</time>
      </trkpt>
      <trkpt lat="43.43827" lon="6.63214">
        <ele>91.4</ele>
        <time>2023-05-17T11:12:54Z</time>
      </trkpt>
      <trkpt lat="43.43826" lon="6.63216">
        <ele>91.4</ele>
        <time>2023-05-17T11:12:56Z</time>
      </trkpt>
      <trkpt lat="43.43826" lon="6.63217">
        <ele>91.4</ele>
        <time>2023-05-17T11:12:57Z</time>
      </trkpt>
      <trkpt lat="43.43825" lon="6.63217">
        <ele>91.4</ele>
        <time>2023-05-17T11:12:58Z</time>
      </trkpt>
      <trkpt lat="43.43825" lon="6.63217">
        <ele>91.4</ele>
        <time>2023-05-17T11:13:00Z</time>
      </trkpt>
      <trkpt lat="43.43826" lon="6.63217">
        <ele>91.4</ele>
        <time>2023-05-17T11:13:01Z</time>
      </trkpt>
      <trkpt lat="43.43826" lon="6.63218">
        <ele>91.4</ele>
        <time>2023-05-17T11:13:02Z</time>
      </trkpt>
      <trkpt lat="43.43826" lon="6.63218">
        <ele>91.4</ele>
        <time>2023-05-17T11:13:03Z</time>
      </trkpt>
      <trkpt lat="43.43826" lon="6.63218">
        <ele>91.4</ele>
        <time>2023-05-17T11:13:04Z</time>
      </trkpt>
      <trkpt lat="43.43826" lon="6.63218">
        <ele>91.4</ele>
        <time>2023-05-17T11:13:05Z</time>
      </trkpt>
      <trkpt lat="43.43826" lon="6.63218">
        <ele>91.4</ele>
        <time>2023-05-17T11:13:06Z</time>
      </trkpt>
      <trkpt lat="43.43826" lon="6.63218">
        <ele>91.4</ele>
        <time>2023-05-17T11:13:07Z</time>
      </trkpt>
      <trkpt lat="43.43826" lon="6.63218">
        <ele>91.4</ele>
        <time>2023-05-17T11:13:08Z</time>
      </trkpt>
      <trkpt lat="43.43826" lon="6.63218">
        <ele>91.4</ele>
        <time>2023-05-17T11:13:09Z</time>
      </trkpt>
      <trkpt lat="43.43826" lon="6.63218">
        <ele>91.4</ele>
        <time>2023-05-17T11:13:10Z</time>
      </trkpt>
      <trkpt lat="43.43826" lon="6.63218">
        <ele>91.4</ele>
        <time>2023-05-17T11:13:11Z</time>
      </trkpt>
      <trkpt lat="43.43826" lon="6.63218">
        <ele>91.4</ele>
        <time>2023-05-17T11:13:12Z</time>
      </trkpt>
      <trkpt lat="43.43826" lon="6.63218">
        <ele>91.4</ele>
        <time>2023-05-17T11:13:13Z</time>
      </trkpt>
      <trkpt lat="43.43826" lon="6.63218">
        <ele>91.4</ele>
        <time>2023-05-17T11:13:14Z</time>
      </trkpt>
      <trkpt lat="43.43826" lon="6.63218">
        <ele>91.4</ele>
        <time>2023-05-17T11:13:15Z</time>
      </trkpt>
      <trkpt lat="43.43826" lon="6.63218">
        <ele>91.4</ele>
        <time>2023-05-17T11:13:16Z</time>
      </trkpt>
      <trkpt lat="43.43826" lon="6.63218">
        <ele>91.4</ele>
        <time>2023-05-17T11:13:17Z</time>
      </trkpt>
      <trkpt lat="43.43826" lon="6.63218">
        <ele>91.4</ele>
        <time>2023-05-17T11:13:18Z</time>
      </trkpt>
      <trkpt lat="43.43826" lon="6.63218">
        <ele>91.4</ele>
        <time>2023-05-17T11:13:19Z</time>
      </trkpt>
      <trkpt lat="43.43826" lon="6.63218">
        <ele>91.4</ele>
        <time>2023-05-17T11:13:20Z</time>
      </trkpt>
      <trkpt lat="43.43826" lon="6.63218">
        <ele>91.4</ele>
        <time>2023-05-17T11:13:21Z</time>
      </trkpt>
      <trkpt lat="43.43826" lon="6.63218">
        <ele>91.4</ele>
        <time>2023-05-17T11:13:22Z</time>
      </trkpt>
      <trkpt lat="43.43826" lon="6.63218">
        <ele>91.4</ele>
        <time>2023-05-17T11:13:23Z</time>
      </trkpt>
      <trkpt lat="43.43826" lon="6.63218">
        <ele>91.4</ele>
        <time>2023-05-17T11:13:24Z</time>
      </trkpt>
      <trkpt lat="43.43826" lon="6.63218">
        <ele>91.4</ele>
        <time>2023-05-17T11:13:25Z</time>
      </trkpt>
      <trkpt lat="43.43826" lon="6.63218">
        <ele>91.4</ele>
        <time>2023-05-17T11:13:26Z</time>
      </trkpt>
      <trkpt lat="43.43826" lon="6.63218">
        <ele>91.4</ele>
        <time>2023-05-17T11:13:27Z</time>
      </trkpt>
      <trkpt lat="43.43826" lon="6.63218">
        <ele>91.4</ele>
        <time>2023-05-17T11:13:28Z</time>
      </trkpt>
      <trkpt lat="43.43826" lon="6.63218">
        <ele>91.4</ele>
        <time>2023-05-17T11:13:29Z</time>
      </trkpt>
      <trkpt lat="43.43826" lon="6.63218">
        <ele>91.4</ele>
        <time>2023-05-17T11:13:30Z</time>
      </trkpt>
      <trkpt lat="43.43826" lon="6.63218">
        <ele>91.4</ele>
        <time>2023-05-17T11:13:31Z</time>
      </trkpt>
      <trkpt lat="43.43826" lon="6.63218">
        <ele>91.4</ele>
        <time>2023-05-17T11:13:32Z</time>
      </trkpt>
      <trkpt lat="43.43826" lon="6.63218">
        <ele>91.4</ele>
        <time>2023-05-17T11:13:33Z</time>
      </trkpt>
      <trkpt lat="43.43826" lon="6.63218">
        <ele>91.4</ele>
        <time>2023-05-17T11:13:34Z</time>
      </trkpt>
      <trkpt lat="43.43826" lon="6.63218">
        <ele>91.4</ele>
        <time>2023-05-17T11:13:35Z</time>
      </trkpt>
      <trkpt lat="43.43826" lon="6.63218">
        <ele>91.4</ele>
        <time>2023-05-17T11:13:36Z</time>
      </trkpt>
      <trkpt lat="43.43826" lon="6.63218">
        <ele>91.4</ele>
        <time>2023-05-17T11:13:37Z</time>
      </trkpt>
      <trkpt lat="43.43826" lon="6.63218">
        <ele>91.4</ele>
        <time>2023-05-17T11:13:38Z</time>
      </trkpt>
      <trkpt lat="43.43826" lon="6.63218">
        <ele>91.4</ele>
        <time>2023-05-17T11:13:39Z</time>
      </trkpt>
      <trkpt lat="43.43826" lon="6.63218">
        <ele>91.4</ele>
        <time>2023-05-17T11:13:40Z</time>
      </trkpt>
      <trkpt lat="43.43826" lon="6.63218">
        <ele>91.4</ele>
        <time>2023-05-17T11:13:41Z</time>
      </trkpt>
      <trkpt lat="43.43826" lon="6.63218">
        <ele>91.4</ele>
        <time>2023-05-17T11:13:42Z</time>
      </trkpt>
      <trkpt lat="43.43826" lon="6.63218">
        <ele>91.4</ele>
        <time>2023-05-17T11:13:43Z</time>
      </trkpt>
      <trkpt lat="43.43826" lon="6.63218">
        <ele>91.4</ele>
        <time>2023-05-17T11:13:44Z</time>
      </trkpt>
      <trkpt lat="43.43826" lon="6.63218">
        <ele>91.4</ele>
        <time>2023-05-17T11:13:45Z</time>
      </trkpt>
      <trkpt lat="43.43826" lon="6.63218">
        <ele>91.4</ele>
        <time>2023-05-17T11:13:46Z</time>
      </trkpt>
      <trkpt lat="43.43826" lon="6.63217">
        <ele>91.4</ele>
        <time>2023-05-17T11:13:47Z</time>
      </trkpt>
      <trkpt lat="43.43826" lon="6.63217">
        <ele>91.4</ele>
        <time>2023-05-17T11:13:48Z</time>
      </trkpt>
      <trkpt lat="43.43826" lon="6.63217">
        <ele>91.4</ele>
        <time>2023-05-17T11:13:49Z</time>
      </trkpt>
      <trkpt lat="43.43826" lon="6.63217">
        <ele>91.4</ele>
        <time>2023-05-17T11:13:50Z</time>
      </trkpt>
      <trkpt lat="43.43826" lon="6.63217">
        <ele>91.4</ele>
        <time>2023-05-17T11:13:51Z</time>
      </trkpt>
      <trkpt lat="43.43826" lon="6.63217">
        <ele>91.4</ele>
        <time>2023-05-17T11:13:52Z</time>
      </trkpt>
      <trkpt lat="43.43826" lon="6.63217">
        <ele>91.4</ele>
        <time>2023-05-17T11:13:53Z</time>
      </trkpt>
      <trkpt lat="43.43826" lon="6.63217">
        <ele>91.4</ele>
        <time>2023-05-17T11:13:54Z</time>
      </trkpt>
      <trkpt lat="43.43826" lon="6.63217">
        <ele>91.4</ele>
        <time>2023-05-17T11:13:55Z</time>
      </trkpt>
      <trkpt lat="43.43826" lon="6.63217">
        <ele>91.4</ele>
        <time>2023-05-17T11:13:56Z</time>
      </trkpt>
      <trkpt lat="43.43826" lon="6.63217">
        <ele>91.4</ele>
        <time>2023-05-17T11:13:57Z</time>
      </trkpt>
      <trkpt lat="43.43826" lon="6.63217">
        <ele>91.4</ele>
        <time>2023-05-17T11:13:58Z</time>
      </trkpt>
      <trkpt lat="43.43826" lon="6.63217">
        <ele>91.4</ele>
        <time>2023-05-17T11:13:59Z</time>
      </trkpt>
      <trkpt lat="43.43826" lon="6.63217">
        <ele>91.4</ele>
        <time>2023-05-17T11:14:00Z</time>
      </trkpt>
      <trkpt lat="43.43826" lon="6.63217">
        <ele>91.4</ele>
        <time>2023-05-17T11:14:01Z</time>
      </trkpt>
      <trkpt lat="43.43826" lon="6.63217">
        <ele>91.4</ele>
        <time>2023-05-17T11:14:02Z</time>
      </trkpt>
      <trkpt lat="43.43826" lon="6.63217">
        <ele>91.4</ele>
        <time>2023-05-17T11:14:03Z</time>
      </trkpt>
      <trkpt lat="43.43826" lon="6.63217">
        <ele>91.4</ele>
        <time>2023-05-17T11:14:04Z</time>
      </trkpt>
      <trkpt lat="43.43826" lon="6.63217">
        <ele>91.4</ele>
        <time>2023-05-17T11:14:05Z</time>
      </trkpt>
      <trkpt lat="43.43826" lon="6.63217">
        <ele>91.4</ele>
        <time>2023-05-17T11:14:06Z</time>
      </trkpt>
      <trkpt lat="43.43826" lon="6.63217">
        <ele>91.4</ele>
        <time>2023-05-17T11:14:07Z</time>
      </trkpt>
      <trkpt lat="43.43826" lon="6.63217">
        <ele>91.4</ele>
        <time>2023-05-17T11:14:08Z</time>
      </trkpt>
      <trkpt lat="43.43826" lon="6.63217">
        <ele>91.4</ele>
        <time>2023-05-17T11:14:09Z</time>
      </trkpt>
      <trkpt lat="43.43826" lon="6.63217">
        <ele>91.4</ele>
        <time>2023-05-17T11:14:10Z</time>
      </trkpt>
      <trkpt lat="43.43826" lon="6.63216">
        <ele>91.4</ele>
        <time>2023-05-17T11:14:11Z</time>
      </trkpt>
      <trkpt lat="43.43826" lon="6.63216">
        <ele>91.4</ele>
        <time>2023-05-17T11:14:12Z</time>
      </trkpt>
      <trkpt lat="43.43826" lon="6.63216">
        <ele>91.4</ele>
        <time>2023-05-17T11:14:13Z</time>
      </trkpt>
      <trkpt lat="43.43826" lon="6.63215">
        <ele>91.4</ele>
        <time>2023-05-17T11:14:14Z</time>
      </trkpt>
      <trkpt lat="43.43826" lon="6.63215">
        <ele>91.4</ele>
        <time>2023-05-17T11:14:15Z</time>
      </trkpt>
      <trkpt lat="43.43826" lon="6.63214">
        <ele>91.4</ele>
        <time>2023-05-17T11:14:16Z</time>
      </trkpt>
      <trkpt lat="43.43826" lon="6.63214">
        <ele>91.4</ele>
        <time>2023-05-17T11:14:17Z</time>
      </trkpt>
      <trkpt lat="43.43826" lon="6.63214">
        <ele>91.4</ele>
        <time>2023-05-17T11:14:18Z</time>
      </trkpt>
      <trkpt lat="43.43826" lon="6.63214">
        <ele>91.4</ele>
        <time>2023-05-17T11:14:19Z</time>
      </trkpt>
      <trkpt lat="43.43826" lon="6.63214">
        <ele>91.4</ele>
        <time>2023-05-17T11:14:20Z</time>
      </trkpt>
      <trkpt lat="43.43826" lon="6.63214">
        <ele>91.4</ele>
        <time>2023-05-17T11:14:21Z</time>
      </trkpt>
      <trkpt lat="43.43826" lon="6.63213">
        <ele>91.4</ele>
        <time>2023-05-17T11:14:22Z</time>
      </trkpt>
      <trkpt lat="43.43826" lon="6.63213">
        <ele>91.4</ele>
        <time>2023-05-17T11:14:23Z</time>
      </trkpt>
      <trkpt lat="43.43826" lon="6.63213">
        <ele>91.4</ele>
        <time>2023-05-17T11:14:24Z</time>
      </trkpt>
      <trkpt lat="43.43826" lon="6.63212">
        <ele>91.4</ele>
        <time>2023-05-17T11:14:25Z</time>
      </trkpt>
      <trkpt lat="43.43825" lon="6.63212">
        <ele>91.3</ele>
        <time>2023-05-17T11:14:26Z</time>
      </trkpt>
      <trkpt lat="43.43825" lon="6.63212">
        <ele>91.3</ele>
        <time>2023-05-17T11:14:27Z</time>
      </trkpt>
      <trkpt lat="43.43825" lon="6.63212">
        <ele>91.3</ele>
        <time>2023-05-17T11:14:28Z</time>
      </trkpt>
      <trkpt lat="43.43825" lon="6.63212">
        <ele>91.3</ele>
        <time>2023-05-17T11:14:29Z</time>
      </trkpt>
      <trkpt lat="43.43825" lon="6.63212">
        <ele>91.3</ele>
        <time>2023-05-17T11:14:30Z</time>
      </trkpt>
      <trkpt lat="43.43825" lon="6.63211">
        <ele>91.3</ele>
        <time>2023-05-17T11:14:31Z</time>
      </trkpt>
      <trkpt lat="43.43825" lon="6.63211">
        <ele>91.3</ele>
        <time>2023-05-17T11:14:32Z</time>
      </trkpt>
      <trkpt lat="43.43825" lon="6.63211">
        <ele>91.3</ele>
        <time>2023-05-17T11:14:33Z</time>
      </trkpt>
      <trkpt lat="43.43825" lon="6.63211">
        <ele>91.3</ele>
        <time>2023-05-17T11:14:34Z</time>
      </trkpt>
      <trkpt lat="43.43825" lon="6.63211">
        <ele>91.3</ele>
        <time>2023-05-17T11:14:35Z</time>
      </trkpt>
      <trkpt lat="43.43825" lon="6.63211">
        <ele>91.3</ele>
        <time>2023-05-17T11:14:36Z</time>
      </trkpt>
      <trkpt lat="43.43825" lon="6.63211">
        <ele>91.3</ele>
        <time>2023-05-17T11:14:37Z</time>
      </trkpt>
      <trkpt lat="43.43825" lon="6.63211">
        <ele>91.3</ele>
        <time>2023-05-17T11:14:38Z</time>
      </trkpt>
      <trkpt lat="43.43825" lon="6.63211">
        <ele>91.3</ele>
        <time>2023-05-17T11:14:39Z</time>
      </trkpt>
      <trkpt lat="43.43825" lon="6.63211">
        <ele>91.3</ele>
        <time>2023-05-17T11:14:40Z</time>
      </trkpt>
      <trkpt lat="43.43825" lon="6.63211">
        <ele>91.3</ele>
        <time>2023-05-17T11:14:41Z</time>
      </trkpt>
      <trkpt lat="43.43825" lon="6.63211">
        <ele>91.3</ele>
        <time>2023-05-17T11:14:42Z</time>
      </trkpt>
      <trkpt lat="43.43825" lon="6.63211">
        <ele>91.3</ele>
        <time>2023-05-17T11:14:43Z</time>
      </trkpt>
      <trkpt lat="43.43825" lon="6.63211">
        <ele>91.3</ele>
        <time>2023-05-17T11:14:44Z</time>
      </trkpt>
      <trkpt lat="43.43825" lon="6.63211">
        <ele>91.3</ele>
        <time>2023-05-17T11:14:45Z</time>
      </trkpt>
      <trkpt lat="43.43825" lon="6.63211">
        <ele>91.3</ele>
        <time>2023-05-17T11:14:46Z</time>
      </trkpt>
      <trkpt lat="43.43825" lon="6.63211">
        <ele>91.3</ele>
        <time>2023-05-17T11:14:47Z</time>
      </trkpt>
      <trkpt lat="43.43825" lon="6.63211">
        <ele>91.3</ele>
        <time>2023-05-17T11:14:48Z</time>
      </trkpt>
      <trkpt lat="43.43825" lon="6.63211">
        <ele>91.3</ele>
        <time>2023-05-17T11:14:49Z</time>
      </trkpt>
      <trkpt lat="43.43825" lon="6.63211">
        <ele>91.3</ele>
        <time>2023-05-17T11:14:50Z</time>
      </trkpt>
      <trkpt lat="43.43825" lon="6.63211">
        <ele>91.3</ele>
        <time>2023-05-17T11:14:51Z</time>
      </trkpt>
      <trkpt lat="43.43825" lon="6.63211">
        <ele>91.3</ele>
        <time>2023-05-17T11:14:52Z</time>
      </trkpt>
      <trkpt lat="43.43826" lon="6.63211">
        <ele>91.3</ele>
        <time>2023-05-17T11:14:53Z</time>
      </trkpt>
      <trkpt lat="43.43826" lon="6.63211">
        <ele>91.3</ele>
        <time>2023-05-17T11:14:54Z</time>
      </trkpt>
      <trkpt lat="43.43826" lon="6.63211">
        <ele>91.3</ele>
        <time>2023-05-17T11:14:55Z</time>
      </trkpt>
      <trkpt lat="43.43826" lon="6.63211">
        <ele>91.3</ele>
        <time>2023-05-17T11:14:56Z</time>
      </trkpt>
      <trkpt lat="43.43827" lon="6.63211">
        <ele>91.3</ele>
        <time>2023-05-17T11:14:57Z</time>
      </trkpt>
      <trkpt lat="43.43828" lon="6.63211">
        <ele>91.3</ele>
        <time>2023-05-17T11:14:58Z</time>
      </trkpt>
      <trkpt lat="43.43829" lon="6.63212">
        <ele>91.3</ele>
        <time>2023-05-17T11:14:59Z</time>
      </trkpt>
      <trkpt lat="43.4383" lon="6.63212">
        <ele>91.3</ele>
        <time>2023-05-17T11:15:00Z</time>
      </trkpt>
      <trkpt lat="43.4383" lon="6.63212">
        <ele>91.3</ele>
        <time>2023-05-17T11:15:01Z</time>
      </trkpt>
      <trkpt lat="43.43831" lon="6.63211">
        <ele>91.3</ele>
        <time>2023-05-17T11:15:02Z</time>
      </trkpt>
      <trkpt lat="43.43833" lon="6.6321">
        <ele>91.3</ele>
        <time>2023-05-17T11:15:03Z</time>
      </trkpt>
      <trkpt lat="43.43833" lon="6.63209">
        <ele>91.3</ele>
        <time>2023-05-17T11:15:05Z</time>
      </trkpt>
      <trkpt lat="43.43834" lon="6.63208">
        <ele>91.3</ele>
        <time>2023-05-17T11:15:06Z</time>
      </trkpt>
      <trkpt lat="43.43834" lon="6.63207">
        <ele>91.3</ele>
        <time>2023-05-17T11:15:07Z</time>
      </trkpt>
      <trkpt lat="43.43835" lon="6.63203">
        <ele>91.3</ele>
        <time>2023-05-17T11:15:09Z</time>
      </trkpt>
      <trkpt lat="43.43835" lon="6.63202">
        <ele>91.2</ele>
        <time>2023-05-17T11:15:10Z</time>
      </trkpt>
      <trkpt lat="43.43834" lon="6.63198">
        <ele>91.1</ele>
        <time>2023-05-17T11:15:11Z</time>
      </trkpt>
      <trkpt lat="43.43834" lon="6.63197">
        <ele>91</ele>
        <time>2023-05-17T11:15:13Z</time>
      </trkpt>
      <trkpt lat="43.43834" lon="6.63195">
        <ele>90.9</ele>
        <time>2023-05-17T11:15:14Z</time>
      </trkpt>
      <trkpt lat="43.43834" lon="6.63193">
        <ele>90.8</ele>
        <time>2023-05-17T11:15:15Z</time>
      </trkpt>
      <trkpt lat="43.43834" lon="6.6319">
        <ele>90.7</ele>
        <time>2023-05-17T11:15:16Z</time>
      </trkpt>
      <trkpt lat="43.43834" lon="6.63189">
        <ele>90.6</ele>
        <time>2023-05-17T11:15:18Z</time>
      </trkpt>
      <trkpt lat="43.43833" lon="6.63188">
        <ele>90.6</ele>
        <time>2023-05-17T11:15:19Z</time>
      </trkpt>
      <trkpt lat="43.43833" lon="6.63185">
        <ele>90.5</ele>
        <time>2023-05-17T11:15:20Z</time>
      </trkpt>
      <trkpt lat="43.43833" lon="6.63184">
        <ele>90.4</ele>
        <time>2023-05-17T11:15:21Z</time>
      </trkpt>
      <trkpt lat="43.43832" lon="6.63182">
        <ele>90.4</ele>
        <time>2023-05-17T11:15:22Z</time>
      </trkpt>
      <trkpt lat="43.43832" lon="6.6318">
        <ele>90.2</ele>
        <time>2023-05-17T11:15:23Z</time>
      </trkpt>
      <trkpt lat="43.43832" lon="6.63179">
        <ele>90.2</ele>
        <time>2023-05-17T11:15:24Z</time>
      </trkpt>
      <trkpt lat="43.43832" lon="6.63176">
        <ele>90.1</ele>
        <time>2023-05-17T11:15:25Z</time>
      </trkpt>
      <trkpt lat="43.43832" lon="6.63176">
        <ele>90</ele>
        <time>2023-05-17T11:15:26Z</time>
      </trkpt>
      <trkpt lat="43.43832" lon="6.63175">
        <ele>90</ele>
        <time>2023-05-17T11:15:28Z</time>
      </trkpt>
      <trkpt lat="43.43832" lon="6.63174">
        <ele>90</ele>
        <time>2023-05-17T11:15:29Z</time>
      </trkpt>
      <trkpt lat="43.43832" lon="6.63173">
        <ele>89.9</ele>
        <time>2023-05-17T11:15:30Z</time>
      </trkpt>
      <trkpt lat="43.43832" lon="6.63172">
        <ele>89.9</ele>
        <time>2023-05-17T11:15:31Z</time>
      </trkpt>
      <trkpt lat="43.43832" lon="6.63172">
        <ele>89.9</ele>
        <time>2023-05-17T11:15:33Z</time>
      </trkpt>
      <trkpt lat="43.43832" lon="6.63171">
        <ele>89.8</ele>
        <time>2023-05-17T11:15:34Z</time>
      </trkpt>
      <trkpt lat="43.43832" lon="6.6317">
        <ele>89.8</ele>
        <time>2023-05-17T11:15:35Z</time>
      </trkpt>
      <trkpt lat="43.43832" lon="6.63169">
        <ele>89.8</ele>
        <time>2023-05-17T11:15:36Z</time>
      </trkpt>
      <trkpt lat="43.43833" lon="6.63168">
        <ele>89.7</ele>
        <time>2023-05-17T11:15:37Z</time>
      </trkpt>
      <trkpt lat="43.43834" lon="6.63167">
        <ele>89.6</ele>
        <time>2023-05-17T11:15:38Z</time>
      </trkpt>
      <trkpt lat="43.43834" lon="6.63166">
        <ele>89.5</ele>
        <time>2023-05-17T11:15:39Z</time>
      </trkpt>
      <trkpt lat="43.43834" lon="6.63164">
        <ele>89.5</ele>
        <time>2023-05-17T11:15:40Z</time>
      </trkpt>
      <trkpt lat="43.43834" lon="6.63163">
        <ele>89.4</ele>
        <time>2023-05-17T11:15:41Z</time>
      </trkpt>
      <trkpt lat="43.43835" lon="6.63162">
        <ele>89.3</ele>
        <time>2023-05-17T11:15:42Z</time>
      </trkpt>
      <trkpt lat="43.43835" lon="6.6316">
        <ele>89.3</ele>
        <time>2023-05-17T11:15:43Z</time>
      </trkpt>
      <trkpt lat="43.43835" lon="6.63159">
        <ele>89.2</ele>
        <time>2023-05-17T11:15:45Z</time>
      </trkpt>
      <trkpt lat="43.43835" lon="6.63158">
        <ele>89.1</ele>
        <time>2023-05-17T11:15:46Z</time>
      </trkpt>
      <trkpt lat="43.43836" lon="6.63157">
        <ele>89.1</ele>
        <time>2023-05-17T11:15:47Z</time>
      </trkpt>
      <trkpt lat="43.43836" lon="6.63155">
        <ele>89</ele>
        <time>2023-05-17T11:15:48Z</time>
      </trkpt>
      <trkpt lat="43.43836" lon="6.63154">
        <ele>88.9</ele>
        <time>2023-05-17T11:15:49Z</time>
      </trkpt>
      <trkpt lat="43.43836" lon="6.63152">
        <ele>88.9</ele>
        <time>2023-05-17T11:15:50Z</time>
      </trkpt>
      <trkpt lat="43.43836" lon="6.63151">
        <ele>88.8</ele>
        <time>2023-05-17T11:15:51Z</time>
      </trkpt>
      <trkpt lat="43.43836" lon="6.63149">
        <ele>88.7</ele>
        <time>2023-05-17T11:15:53Z</time>
      </trkpt>
      <trkpt lat="43.43836" lon="6.63147">
        <ele>88.6</ele>
        <time>2023-05-17T11:15:54Z</time>
      </trkpt>
      <trkpt lat="43.43836" lon="6.63145">
        <ele>88.5</ele>
        <time>2023-05-17T11:15:55Z</time>
      </trkpt>
      <trkpt lat="43.43835" lon="6.63144">
        <ele>88.5</ele>
        <time>2023-05-17T11:15:56Z</time>
      </trkpt>
      <trkpt lat="43.43834" lon="6.63142">
        <ele>88.4</ele>
        <time>2023-05-17T11:15:57Z</time>
      </trkpt>
      <trkpt lat="43.43834" lon="6.6314">
        <ele>88.2</ele>
        <time>2023-05-17T11:15:58Z</time>
      </trkpt>
      <trkpt lat="43.43833" lon="6.63139">
        <ele>88.2</ele>
        <time>2023-05-17T11:15:59Z</time>
      </trkpt>
      <trkpt lat="43.43833" lon="6.63137">
        <ele>88.1</ele>
        <time>2023-05-17T11:16:00Z</time>
      </trkpt>
      <trkpt lat="43.43832" lon="6.63134">
        <ele>87.9</ele>
        <time>2023-05-17T11:16:02Z</time>
      </trkpt>
      <trkpt lat="43.43831" lon="6.63132">
        <ele>87.8</ele>
        <time>2023-05-17T11:16:04Z</time>
      </trkpt>
      <trkpt lat="43.4383" lon="6.6313">
        <ele>87.8</ele>
        <time>2023-05-17T11:16:05Z</time>
      </trkpt>
      <trkpt lat="43.43829" lon="6.63128">
        <ele>87.6</ele>
        <time>2023-05-17T11:16:06Z</time>
      </trkpt>
      <trkpt lat="43.43829" lon="6.63126">
        <ele>87.6</ele>
        <time>2023-05-17T11:16:07Z</time>
      </trkpt>
      <trkpt lat="43.43828" lon="6.63125">
        <ele>87.5</ele>
        <time>2023-05-17T11:16:08Z</time>
      </trkpt>
      <trkpt lat="43.43828" lon="6.63124">
        <ele>87.5</ele>
        <time>2023-05-17T11:16:09Z</time>
      </trkpt>
      <trkpt lat="43.43828" lon="6.63123">
        <ele>87.4</ele>
        <time>2023-05-17T11:16:10Z</time>
      </trkpt>
      <trkpt lat="43.43827" lon="6.63121">
        <ele>87.3</ele>
        <time>2023-05-17T11:16:12Z</time>
      </trkpt>
      <trkpt lat="43.43827" lon="6.63119">
        <ele>87.2</ele>
        <time>2023-05-17T11:16:13Z</time>
      </trkpt>
      <trkpt lat="43.43827" lon="6.63117">
        <ele>87.1</ele>
        <time>2023-05-17T11:16:14Z</time>
      </trkpt>
      <trkpt lat="43.43826" lon="6.63115">
        <ele>87.1</ele>
        <time>2023-05-17T11:16:15Z</time>
      </trkpt>
      <trkpt lat="43.43826" lon="6.63114">
        <ele>87</ele>
        <time>2023-05-17T11:16:16Z</time>
      </trkpt>
      <trkpt lat="43.43825" lon="6.63113">
        <ele>86.9</ele>
        <time>2023-05-17T11:16:17Z</time>
      </trkpt>
      <trkpt lat="43.43824" lon="6.63109">
        <ele>86.8</ele>
        <time>2023-05-17T11:16:18Z</time>
      </trkpt>
      <trkpt lat="43.43824" lon="6.63108">
        <ele>86.7</ele>
        <time>2023-05-17T11:16:20Z</time>
      </trkpt>
      <trkpt lat="43.43823" lon="6.63107">
        <ele>86.7</ele>
        <time>2023-05-17T11:16:21Z</time>
      </trkpt>
      <trkpt lat="43.43823" lon="6.63105">
        <ele>86.6</ele>
        <time>2023-05-17T11:16:22Z</time>
      </trkpt>
      <trkpt lat="43.43823" lon="6.63104">
        <ele>86.6</ele>
        <time>2023-05-17T11:16:23Z</time>
      </trkpt>
      <trkpt lat="43.43822" lon="6.63103">
        <ele>86.5</ele>
        <time>2023-05-17T11:16:24Z</time>
      </trkpt>
      <trkpt lat="43.43822" lon="6.631">
        <ele>86.4</ele>
        <time>2023-05-17T11:16:25Z</time>
      </trkpt>
      <trkpt lat="43.43822" lon="6.63099">
        <ele>86.4</ele>
        <time>2023-05-17T11:16:26Z</time>
      </trkpt>
      <trkpt lat="43.43822" lon="6.63097">
        <ele>86.3</ele>
        <time>2023-05-17T11:16:27Z</time>
      </trkpt>
      <trkpt lat="43.43821" lon="6.63095">
        <ele>86.2</ele>
        <time>2023-05-17T11:16:29Z</time>
      </trkpt>
      <trkpt lat="43.43821" lon="6.63092">
        <ele>86.1</ele>
        <time>2023-05-17T11:16:30Z</time>
      </trkpt>
      <trkpt lat="43.4382" lon="6.63091">
        <ele>86</ele>
        <time>2023-05-17T11:16:31Z</time>
      </trkpt>
      <trkpt lat="43.4382" lon="6.6309">
        <ele>86</ele>
        <time>2023-05-17T11:16:32Z</time>
      </trkpt>
      <trkpt lat="43.4382" lon="6.63088">
        <ele>85.9</ele>
        <time>2023-05-17T11:16:33Z</time>
      </trkpt>
      <trkpt lat="43.43819" lon="6.63086">
        <ele>85.9</ele>
        <time>2023-05-17T11:16:34Z</time>
      </trkpt>
      <trkpt lat="43.43818" lon="6.63083">
        <ele>85.8</ele>
        <time>2023-05-17T11:16:35Z</time>
      </trkpt>
      <trkpt lat="43.43818" lon="6.63082">
        <ele>85.7</ele>
        <time>2023-05-17T11:16:36Z</time>
      </trkpt>
      <trkpt lat="43.43818" lon="6.63081">
        <ele>85.7</ele>
        <time>2023-05-17T11:16:37Z</time>
      </trkpt>
      <trkpt lat="43.43818" lon="6.63077">
        <ele>85.6</ele>
        <time>2023-05-17T11:16:38Z</time>
      </trkpt>
      <trkpt lat="43.43817" lon="6.63076">
        <ele>85.5</ele>
        <time>2023-05-17T11:16:40Z</time>
      </trkpt>
      <trkpt lat="43.43817" lon="6.63074">
        <ele>85.5</ele>
        <time>2023-05-17T11:16:41Z</time>
      </trkpt>
      <trkpt lat="43.43817" lon="6.63073">
        <ele>85.4</ele>
        <time>2023-05-17T11:16:42Z</time>
      </trkpt>
      <trkpt lat="43.43817" lon="6.63072">
        <ele>85.4</ele>
        <time>2023-05-17T11:16:43Z</time>
      </trkpt>
      <trkpt lat="43.43817" lon="6.63069">
        <ele>85.3</ele>
        <time>2023-05-17T11:16:44Z</time>
      </trkpt>
      <trkpt lat="43.43817" lon="6.63068">
        <ele>85.3</ele>
        <time>2023-05-17T11:16:45Z</time>
      </trkpt>
      <trkpt lat="43.43817" lon="6.63066">
        <ele>85.2</ele>
        <time>2023-05-17T11:16:46Z</time>
      </trkpt>
      <trkpt lat="43.43817" lon="6.63064">
        <ele>85.1</ele>
        <time>2023-05-17T11:16:47Z</time>
      </trkpt>
      <trkpt lat="43.43817" lon="6.63061">
        <ele>85</ele>
        <time>2023-05-17T11:16:49Z</time>
      </trkpt>
      <trkpt lat="43.43818" lon="6.63059">
        <ele>85</ele>
        <time>2023-05-17T11:16:50Z</time>
      </trkpt>
      <trkpt lat="43.43818" lon="6.63057">
        <ele>84.9</ele>
        <time>2023-05-17T11:16:51Z</time>
      </trkpt>
      <trkpt lat="43.43819" lon="6.63054">
        <ele>84.8</ele>
        <time>2023-05-17T11:16:52Z</time>
      </trkpt>
      <trkpt lat="43.4382" lon="6.63051">
        <ele>84.7</ele>
        <time>2023-05-17T11:16:53Z</time>
      </trkpt>
      <trkpt lat="43.4382" lon="6.6305">
        <ele>84.6</ele>
        <time>2023-05-17T11:16:54Z</time>
      </trkpt>
      <trkpt lat="43.43821" lon="6.63048">
        <ele>84.5</ele>
        <time>2023-05-17T11:16:55Z</time>
      </trkpt>
      <trkpt lat="43.43821" lon="6.63047">
        <ele>84.4</ele>
        <time>2023-05-17T11:16:56Z</time>
      </trkpt>
      <trkpt lat="43.43822" lon="6.63045">
        <ele>84.3</ele>
        <time>2023-05-17T11:16:57Z</time>
      </trkpt>
      <trkpt lat="43.43825" lon="6.63045">
        <ele>84.1</ele>
        <time>2023-05-17T11:16:59Z</time>
      </trkpt>
      <trkpt lat="43.43825" lon="6.63046">
        <ele>84.1</ele>
        <time>2023-05-17T11:17:00Z</time>
      </trkpt>
      <trkpt lat="43.43824" lon="6.63046">
        <ele>84.1</ele>
        <time>2023-05-17T11:17:01Z</time>
      </trkpt>
      <trkpt lat="43.43824" lon="6.63046">
        <ele>84.1</ele>
        <time>2023-05-17T11:17:03Z</time>
      </trkpt>
      <trkpt lat="43.43824" lon="6.63047">
        <ele>84</ele>
        <time>2023-05-17T11:17:04Z</time>
      </trkpt>
      <trkpt lat="43.43824" lon="6.63047">
        <ele>84</ele>
        <time>2023-05-17T11:17:05Z</time>
      </trkpt>
      <trkpt lat="43.43824" lon="6.63047">
        <ele>84</ele>
        <time>2023-05-17T11:17:07Z</time>
      </trkpt>
      <trkpt lat="43.43824" lon="6.63047">
        <ele>84</ele>
        <time>2023-05-17T11:17:08Z</time>
      </trkpt>
      <trkpt lat="43.43824" lon="6.63047">
        <ele>84</ele>
        <time>2023-05-17T11:17:09Z</time>
      </trkpt>
      <trkpt lat="43.43824" lon="6.63047">
        <ele>84</ele>
        <time>2023-05-17T11:17:11Z</time>
      </trkpt>
      <trkpt lat="43.43824" lon="6.63047">
        <ele>84</ele>
        <time>2023-05-17T11:17:12Z</time>
      </trkpt>
      <trkpt lat="43.43824" lon="6.63048">
        <ele>84</ele>
        <time>2023-05-17T11:17:13Z</time>
      </trkpt>
      <trkpt lat="43.43823" lon="6.63048">
        <ele>84</ele>
        <time>2023-05-17T11:17:14Z</time>
      </trkpt>
      <trkpt lat="43.43823" lon="6.63047">
        <ele>83.9</ele>
        <time>2023-05-17T11:17:15Z</time>
      </trkpt>
      <trkpt lat="43.43824" lon="6.63045">
        <ele>83.8</ele>
        <time>2023-05-17T11:17:17Z</time>
      </trkpt>
      <trkpt lat="43.43826" lon="6.63043">
        <ele>83.5</ele>
        <time>2023-05-17T11:17:18Z</time>
      </trkpt>
      <trkpt lat="43.43827" lon="6.63042">
        <ele>83.5</ele>
        <time>2023-05-17T11:17:19Z</time>
      </trkpt>
      <trkpt lat="43.43828" lon="6.63042">
        <ele>83.3</ele>
        <time>2023-05-17T11:17:21Z</time>
      </trkpt>
      <trkpt lat="43.4383" lon="6.63042">
        <ele>83.1</ele>
        <time>2023-05-17T11:17:22Z</time>
      </trkpt>
      <trkpt lat="43.43831" lon="6.63042">
        <ele>83</ele>
        <time>2023-05-17T11:17:23Z</time>
      </trkpt>
      <trkpt lat="43.43833" lon="6.63041">
        <ele>82.9</ele>
        <time>2023-05-17T11:17:24Z</time>
      </trkpt>
      <trkpt lat="43.43834" lon="6.63041">
        <ele>82.7</ele>
        <time>2023-05-17T11:17:25Z</time>
      </trkpt>
      <trkpt lat="43.43835" lon="6.63041">
        <ele>82.6</ele>
        <time>2023-05-17T11:17:26Z</time>
      </trkpt>
      <trkpt lat="43.43836" lon="6.63041">
        <ele>82.5</ele>
        <time>2023-05-17T11:17:28Z</time>
      </trkpt>
      <trkpt lat="43.43837" lon="6.63041">
        <ele>82.3</ele>
        <time>2023-05-17T11:17:29Z</time>
      </trkpt>
      <trkpt lat="43.43838" lon="6.63041">
        <ele>82.2</ele>
        <time>2023-05-17T11:17:30Z</time>
      </trkpt>
      <trkpt lat="43.43839" lon="6.63041">
        <ele>82.1</ele>
        <time>2023-05-17T11:17:31Z</time>
      </trkpt>
      <trkpt lat="43.4384" lon="6.63041">
        <ele>82</ele>
        <time>2023-05-17T11:17:32Z</time>
      </trkpt>
      <trkpt lat="43.4384" lon="6.63042">
        <ele>81.9</ele>
        <time>2023-05-17T11:17:33Z</time>
      </trkpt>
      <trkpt lat="43.43841" lon="6.63043">
        <ele>81.8</ele>
        <time>2023-05-17T11:17:34Z</time>
      </trkpt>
      <trkpt lat="43.43842" lon="6.63043">
        <ele>81.7</ele>
        <time>2023-05-17T11:17:35Z</time>
      </trkpt>
      <trkpt lat="43.43843" lon="6.63044">
        <ele>81.6</ele>
        <time>2023-05-17T11:17:36Z</time>
      </trkpt>
      <trkpt lat="43.43844" lon="6.63045">
        <ele>81.4</ele>
        <time>2023-05-17T11:17:38Z</time>
      </trkpt>
      <trkpt lat="43.43845" lon="6.63046">
        <ele>81.2</ele>
        <time>2023-05-17T11:17:39Z</time>
      </trkpt>
      <trkpt lat="43.43846" lon="6.63047">
        <ele>81.2</ele>
        <time>2023-05-17T11:17:40Z</time>
      </trkpt>
      <trkpt lat="43.43847" lon="6.63047">
        <ele>81</ele>
        <time>2023-05-17T11:17:41Z</time>
      </trkpt>
      <trkpt lat="43.43849" lon="6.63048">
        <ele>80.8</ele>
        <time>2023-05-17T11:17:42Z</time>
      </trkpt>
      <trkpt lat="43.4385" lon="6.63048">
        <ele>80.7</ele>
        <time>2023-05-17T11:17:43Z</time>
      </trkpt>
      <trkpt lat="43.43851" lon="6.63048">
        <ele>80.5</ele>
        <time>2023-05-17T11:17:44Z</time>
      </trkpt>
      <trkpt lat="43.43853" lon="6.63049">
        <ele>80.3</ele>
        <time>2023-05-17T11:17:45Z</time>
      </trkpt>
      <trkpt lat="43.43854" lon="6.63049">
        <ele>80.2</ele>
        <time>2023-05-17T11:17:47Z</time>
      </trkpt>
      <trkpt lat="43.43855" lon="6.6305">
        <ele>80.1</ele>
        <time>2023-05-17T11:17:48Z</time>
      </trkpt>
      <trkpt lat="43.43856" lon="6.63051">
        <ele>79.9</ele>
        <time>2023-05-17T11:17:49Z</time>
      </trkpt>
      <trkpt lat="43.43857" lon="6.63052">
        <ele>79.8</ele>
        <time>2023-05-17T11:17:50Z</time>
      </trkpt>
      <trkpt lat="43.43859" lon="6.63054">
        <ele>79.5</ele>
        <time>2023-05-17T11:17:51Z</time>
      </trkpt>
      <trkpt lat="43.4386" lon="6.63055">
        <ele>79.4</ele>
        <time>2023-05-17T11:17:52Z</time>
      </trkpt>
      <trkpt lat="43.4386" lon="6.63055">
        <ele>79.3</ele>
        <time>2023-05-17T11:17:53Z</time>
      </trkpt>
      <trkpt lat="43.43862" lon="6.63057">
        <ele>79.1</ele>
        <time>2023-05-17T11:17:54Z</time>
      </trkpt>
      <trkpt lat="43.43863" lon="6.63057">
        <ele>79</ele>
        <time>2023-05-17T11:17:55Z</time>
      </trkpt>
      <trkpt lat="43.43864" lon="6.63058">
        <ele>78.8</ele>
        <time>2023-05-17T11:17:57Z</time>
      </trkpt>
      <trkpt lat="43.43865" lon="6.63059">
        <ele>78.6</ele>
        <time>2023-05-17T11:17:58Z</time>
      </trkpt>
      <trkpt lat="43.43867" lon="6.6306">
        <ele>78.4</ele>
        <time>2023-05-17T11:17:59Z</time>
      </trkpt>
      <trkpt lat="43.43868" lon="6.63061">
        <ele>78.3</ele>
        <time>2023-05-17T11:18:00Z</time>
      </trkpt>
      <trkpt lat="43.4387" lon="6.63062">
        <ele>78.1</ele>
        <time>2023-05-17T11:18:01Z</time>
      </trkpt>
      <trkpt lat="43.43871" lon="6.63062">
        <ele>78</ele>
        <time>2023-05-17T11:18:02Z</time>
      </trkpt>
      <trkpt lat="43.43871" lon="6.63063">
        <ele>77.9</ele>
        <time>2023-05-17T11:18:03Z</time>
      </trkpt>
      <trkpt lat="43.43873" lon="6.63063">
        <ele>77.7</ele>
        <time>2023-05-17T11:18:04Z</time>
      </trkpt>
      <trkpt lat="43.43874" lon="6.63064">
        <ele>77.6</ele>
        <time>2023-05-17T11:18:05Z</time>
      </trkpt>
      <trkpt lat="43.43875" lon="6.63065">
        <ele>77.5</ele>
        <time>2023-05-17T11:18:07Z</time>
      </trkpt>
      <trkpt lat="43.43877" lon="6.63066">
        <ele>77.2</ele>
        <time>2023-05-17T11:18:08Z</time>
      </trkpt>
      <trkpt lat="43.43878" lon="6.63067">
        <ele>77.1</ele>
        <time>2023-05-17T11:18:09Z</time>
      </trkpt>
      <trkpt lat="43.43878" lon="6.63068">
        <ele>77</ele>
        <time>2023-05-17T11:18:10Z</time>
      </trkpt>
      <trkpt lat="43.4388" lon="6.63069">
        <ele>76.9</ele>
        <time>2023-05-17T11:18:11Z</time>
      </trkpt>
      <trkpt lat="43.43881" lon="6.63069">
        <ele>76.8</ele>
        <time>2023-05-17T11:18:12Z</time>
      </trkpt>
      <trkpt lat="43.43882" lon="6.6307">
        <ele>76.8</ele>
        <time>2023-05-17T11:18:13Z</time>
      </trkpt>
      <trkpt lat="43.43883" lon="6.63071">
        <ele>76.7</ele>
        <time>2023-05-17T11:18:14Z</time>
      </trkpt>
      <trkpt lat="43.43884" lon="6.63071">
        <ele>76.6</ele>
        <time>2023-05-17T11:18:15Z</time>
      </trkpt>
      <trkpt lat="43.43886" lon="6.63072">
        <ele>76.5</ele>
        <time>2023-05-17T11:18:17Z</time>
      </trkpt>
      <trkpt lat="43.43887" lon="6.63074">
        <ele>76.4</ele>
        <time>2023-05-17T11:18:18Z</time>
      </trkpt>
      <trkpt lat="43.43889" lon="6.63075">
        <ele>76.2</ele>
        <time>2023-05-17T11:18:19Z</time>
      </trkpt>
      <trkpt lat="43.4389" lon="6.63076">
        <ele>76.2</ele>
        <time>2023-05-17T11:18:20Z</time>
      </trkpt>
      <trkpt lat="43.43891" lon="6.63077">
        <ele>76.1</ele>
        <time>2023-05-17T11:18:21Z</time>
      </trkpt>
      <trkpt lat="43.43892" lon="6.63077">
        <ele>76</ele>
        <time>2023-05-17T11:18:22Z</time>
      </trkpt>
      <trkpt lat="43.43894" lon="6.63079">
        <ele>75.8</ele>
        <time>2023-05-17T11:18:23Z</time>
      </trkpt>
      <trkpt lat="43.43896" lon="6.6308">
        <ele>75.8</ele>
        <time>2023-05-17T11:18:25Z</time>
      </trkpt>
      <trkpt lat="43.43896" lon="6.6308">
        <ele>75.7</ele>
        <time>2023-05-17T11:18:26Z</time>
      </trkpt>
      <trkpt lat="43.43897" lon="6.63081">
        <ele>75.7</ele>
        <time>2023-05-17T11:18:27Z</time>
      </trkpt>
      <trkpt lat="43.43899" lon="6.63082">
        <ele>75.6</ele>
        <time>2023-05-17T11:18:28Z</time>
      </trkpt>
      <trkpt lat="43.439" lon="6.63083">
        <ele>75.5</ele>
        <time>2023-05-17T11:18:29Z</time>
      </trkpt>
      <trkpt lat="43.43901" lon="6.63083">
        <ele>75.4</ele>
        <time>2023-05-17T11:18:30Z</time>
      </trkpt>
      <trkpt lat="43.43902" lon="6.63084">
        <ele>75.4</ele>
        <time>2023-05-17T11:18:31Z</time>
      </trkpt>
      <trkpt lat="43.43903" lon="6.63085">
        <ele>75.3</ele>
        <time>2023-05-17T11:18:32Z</time>
      </trkpt>
      <trkpt lat="43.43904" lon="6.63086">
        <ele>75.2</ele>
        <time>2023-05-17T11:18:34Z</time>
      </trkpt>
      <trkpt lat="43.43906" lon="6.63087">
        <ele>75.1</ele>
        <time>2023-05-17T11:18:35Z</time>
      </trkpt>
      <trkpt lat="43.43907" lon="6.63087">
        <ele>75</ele>
        <time>2023-05-17T11:18:36Z</time>
      </trkpt>
      <trkpt lat="43.43908" lon="6.63087">
        <ele>75</ele>
        <time>2023-05-17T11:18:38Z</time>
      </trkpt>
      <trkpt lat="43.4391" lon="6.63088">
        <ele>74.9</ele>
        <time>2023-05-17T11:18:39Z</time>
      </trkpt>
      <trkpt lat="43.43911" lon="6.63089">
        <ele>74.8</ele>
        <time>2023-05-17T11:18:40Z</time>
      </trkpt>
      <trkpt lat="43.43912" lon="6.6309">
        <ele>74.7</ele>
        <time>2023-05-17T11:18:41Z</time>
      </trkpt>
      <trkpt lat="43.43913" lon="6.63091">
        <ele>74.6</ele>
        <time>2023-05-17T11:18:43Z</time>
      </trkpt>
      <trkpt lat="43.43915" lon="6.63092">
        <ele>74.5</ele>
        <time>2023-05-17T11:18:44Z</time>
      </trkpt>
      <trkpt lat="43.43916" lon="6.63092">
        <ele>74.5</ele>
        <time>2023-05-17T11:18:45Z</time>
      </trkpt>
      <trkpt lat="43.43917" lon="6.63093">
        <ele>74.4</ele>
        <time>2023-05-17T11:18:46Z</time>
      </trkpt>
      <trkpt lat="43.43919" lon="6.63094">
        <ele>74.3</ele>
        <time>2023-05-17T11:18:47Z</time>
      </trkpt>
      <trkpt lat="43.4392" lon="6.63095">
        <ele>74.2</ele>
        <time>2023-05-17T11:18:48Z</time>
      </trkpt>
      <trkpt lat="43.4392" lon="6.63096">
        <ele>74.1</ele>
        <time>2023-05-17T11:18:49Z</time>
      </trkpt>
      <trkpt lat="43.43922" lon="6.63098">
        <ele>74</ele>
        <time>2023-05-17T11:18:51Z</time>
      </trkpt>
      <trkpt lat="43.43922" lon="6.63099">
        <ele>73.9</ele>
        <time>2023-05-17T11:18:52Z</time>
      </trkpt>
      <trkpt lat="43.43923" lon="6.631">
        <ele>73.9</ele>
        <time>2023-05-17T11:18:53Z</time>
      </trkpt>
      <trkpt lat="43.43924" lon="6.63101">
        <ele>73.8</ele>
        <time>2023-05-17T11:18:54Z</time>
      </trkpt>
      <trkpt lat="43.43924" lon="6.63102">
        <ele>73.7</ele>
        <time>2023-05-17T11:18:55Z</time>
      </trkpt>
      <trkpt lat="43.43925" lon="6.63102">
        <ele>73.6</ele>
        <time>2023-05-17T11:18:56Z</time>
      </trkpt>
      <trkpt lat="43.43926" lon="6.63103">
        <ele>73.6</ele>
        <time>2023-05-17T11:18:57Z</time>
      </trkpt>
      <trkpt lat="43.43927" lon="6.63103">
        <ele>73.5</ele>
        <time>2023-05-17T11:18:58Z</time>
      </trkpt>
      <trkpt lat="43.43929" lon="6.63104">
        <ele>73.3</ele>
        <time>2023-05-17T11:19:00Z</time>
      </trkpt>
      <trkpt lat="43.4393" lon="6.63104">
        <ele>73.3</ele>
        <time>2023-05-17T11:19:01Z</time>
      </trkpt>
      <trkpt lat="43.43931" lon="6.63104">
        <ele>73.2</ele>
        <time>2023-05-17T11:19:02Z</time>
      </trkpt>
      <trkpt lat="43.43932" lon="6.63105">
        <ele>73.1</ele>
        <time>2023-05-17T11:19:03Z</time>
      </trkpt>
      <trkpt lat="43.43933" lon="6.63106">
        <ele>72.9</ele>
        <time>2023-05-17T11:19:04Z</time>
      </trkpt>
      <trkpt lat="43.43934" lon="6.63106">
        <ele>72.9</ele>
        <time>2023-05-17T11:19:05Z</time>
      </trkpt>
      <trkpt lat="43.43935" lon="6.63107">
        <ele>72.8</ele>
        <time>2023-05-17T11:19:06Z</time>
      </trkpt>
      <trkpt lat="43.43937" lon="6.63108">
        <ele>72.6</ele>
        <time>2023-05-17T11:19:08Z</time>
      </trkpt>
      <trkpt lat="43.43937" lon="6.63109">
        <ele>72.5</ele>
        <time>2023-05-17T11:19:09Z</time>
      </trkpt>
      <trkpt lat="43.43938" lon="6.63109">
        <ele>72.4</ele>
        <time>2023-05-17T11:19:10Z</time>
      </trkpt>
      <trkpt lat="43.43939" lon="6.6311">
        <ele>72.3</ele>
        <time>2023-05-17T11:19:11Z</time>
      </trkpt>
      <trkpt lat="43.4394" lon="6.63111">
        <ele>72.2</ele>
        <time>2023-05-17T11:19:12Z</time>
      </trkpt>
      <trkpt lat="43.43941" lon="6.63111">
        <ele>72.1</ele>
        <time>2023-05-17T11:19:13Z</time>
      </trkpt>
      <trkpt lat="43.43944" lon="6.63112">
        <ele>71.9</ele>
        <time>2023-05-17T11:19:14Z</time>
      </trkpt>
      <trkpt lat="43.43944" lon="6.63113">
        <ele>71.8</ele>
        <time>2023-05-17T11:19:16Z</time>
      </trkpt>
      <trkpt lat="43.43945" lon="6.63113">
        <ele>71.8</ele>
        <time>2023-05-17T11:19:17Z</time>
      </trkpt>
      <trkpt lat="43.43946" lon="6.63113">
        <ele>71.7</ele>
        <time>2023-05-17T11:19:18Z</time>
      </trkpt>
      <trkpt lat="43.43948" lon="6.63114">
        <ele>71.5</ele>
        <time>2023-05-17T11:19:19Z</time>
      </trkpt>
      <trkpt lat="43.43949" lon="6.63114">
        <ele>71.4</ele>
        <time>2023-05-17T11:19:20Z</time>
      </trkpt>
      <trkpt lat="43.4395" lon="6.63114">
        <ele>71.3</ele>
        <time>2023-05-17T11:19:21Z</time>
      </trkpt>
      <trkpt lat="43.43951" lon="6.63113">
        <ele>71.2</ele>
        <time>2023-05-17T11:19:22Z</time>
      </trkpt>
      <trkpt lat="43.43951" lon="6.63112">
        <ele>71.1</ele>
        <time>2023-05-17T11:19:23Z</time>
      </trkpt>
      <trkpt lat="43.4395" lon="6.6311">
        <ele>71</ele>
        <time>2023-05-17T11:19:25Z</time>
      </trkpt>
      <trkpt lat="43.4395" lon="6.63111">
        <ele>71</ele>
        <time>2023-05-17T11:19:26Z</time>
      </trkpt>
      <trkpt lat="43.4395" lon="6.63111">
        <ele>70.9</ele>
        <time>2023-05-17T11:19:27Z</time>
      </trkpt>
      <trkpt lat="43.4395" lon="6.63111">
        <ele>70.9</ele>
        <time>2023-05-17T11:19:29Z</time>
      </trkpt>
      <trkpt lat="43.4395" lon="6.63111">
        <ele>70.9</ele>
        <time>2023-05-17T11:19:30Z</time>
      </trkpt>
      <trkpt lat="43.4395" lon="6.63111">
        <ele>70.9</ele>
        <time>2023-05-17T11:19:31Z</time>
      </trkpt>
      <trkpt lat="43.4395" lon="6.63111">
        <ele>70.9</ele>
        <time>2023-05-17T11:19:33Z</time>
      </trkpt>
      <trkpt lat="43.4395" lon="6.63111">
        <ele>70.9</ele>
        <time>2023-05-17T11:19:34Z</time>
      </trkpt>
      <trkpt lat="43.4395" lon="6.63111">
        <ele>70.9</ele>
        <time>2023-05-17T11:19:35Z</time>
      </trkpt>
      <trkpt lat="43.4395" lon="6.63111">
        <ele>70.9</ele>
        <time>2023-05-17T11:19:36Z</time>
      </trkpt>
      <trkpt lat="43.43949" lon="6.63111">
        <ele>70.9</ele>
        <time>2023-05-17T11:19:38Z</time>
      </trkpt>
      <trkpt lat="43.43949" lon="6.63111">
        <ele>70.8</ele>
        <time>2023-05-17T11:19:39Z</time>
      </trkpt>
      <trkpt lat="43.43949" lon="6.63111">
        <ele>70.8</ele>
        <time>2023-05-17T11:19:40Z</time>
      </trkpt>
      <trkpt lat="43.4395" lon="6.63111">
        <ele>70.8</ele>
        <time>2023-05-17T11:19:41Z</time>
      </trkpt>
      <trkpt lat="43.4395" lon="6.63112">
        <ele>70.8</ele>
        <time>2023-05-17T11:19:42Z</time>
      </trkpt>
      <trkpt lat="43.4395" lon="6.63112">
        <ele>70.8</ele>
        <time>2023-05-17T11:19:43Z</time>
      </trkpt>
      <trkpt lat="43.4395" lon="6.63112">
        <ele>70.8</ele>
        <time>2023-05-17T11:19:44Z</time>
      </trkpt>
      <trkpt lat="43.4395" lon="6.63112">
        <ele>70.8</ele>
        <time>2023-05-17T11:19:45Z</time>
      </trkpt>
      <trkpt lat="43.4395" lon="6.63112">
        <ele>70.8</ele>
        <time>2023-05-17T11:19:46Z</time>
      </trkpt>
      <trkpt lat="43.4395" lon="6.63112">
        <ele>70.8</ele>
        <time>2023-05-17T11:19:47Z</time>
      </trkpt>
      <trkpt lat="43.4395" lon="6.63112">
        <ele>70.8</ele>
        <time>2023-05-17T11:19:48Z</time>
      </trkpt>
      <trkpt lat="43.4395" lon="6.63112">
        <ele>70.8</ele>
        <time>2023-05-17T11:19:49Z</time>
      </trkpt>
      <trkpt lat="43.4395" lon="6.63112">
        <ele>70.8</ele>
        <time>2023-05-17T11:19:50Z</time>
      </trkpt>
      <trkpt lat="43.4395" lon="6.63112">
        <ele>70.7</ele>
        <time>2023-05-17T11:19:51Z</time>
      </trkpt>
      <trkpt lat="43.4395" lon="6.63112">
        <ele>70.7</ele>
        <time>2023-05-17T11:19:52Z</time>
      </trkpt>
      <trkpt lat="43.4395" lon="6.63112">
        <ele>70.7</ele>
        <time>2023-05-17T11:19:53Z</time>
      </trkpt>
      <trkpt lat="43.4395" lon="6.63112">
        <ele>70.7</ele>
        <time>2023-05-17T11:19:54Z</time>
      </trkpt>
      <trkpt lat="43.4395" lon="6.63112">
        <ele>70.7</ele>
        <time>2023-05-17T11:19:55Z</time>
      </trkpt>
      <trkpt lat="43.4395" lon="6.63112">
        <ele>70.7</ele>
        <time>2023-05-17T11:19:56Z</time>
      </trkpt>
      <trkpt lat="43.4395" lon="6.63112">
        <ele>70.7</ele>
        <time>2023-05-17T11:19:57Z</time>
      </trkpt>
      <trkpt lat="43.4395" lon="6.63112">
        <ele>70.7</ele>
        <time>2023-05-17T11:19:58Z</time>
      </trkpt>
      <trkpt lat="43.4395" lon="6.63112">
        <ele>70.7</ele>
        <time>2023-05-17T11:19:59Z</time>
      </trkpt>
      <trkpt lat="43.4395" lon="6.63112">
        <ele>70.7</ele>
        <time>2023-05-17T11:20:00Z</time>
      </trkpt>
      <trkpt lat="43.4395" lon="6.63112">
        <ele>70.7</ele>
        <time>2023-05-17T11:20:01Z</time>
      </trkpt>
      <trkpt lat="43.4395" lon="6.63112">
        <ele>70.7</ele>
        <time>2023-05-17T11:20:02Z</time>
      </trkpt>
      <trkpt lat="43.4395" lon="6.63112">
        <ele>70.7</ele>
        <time>2023-05-17T11:20:03Z</time>
      </trkpt>
      <trkpt lat="43.4395" lon="6.63112">
        <ele>70.7</ele>
        <time>2023-05-17T11:20:04Z</time>
      </trkpt>
      <trkpt lat="43.4395" lon="6.63112">
        <ele>70.7</ele>
        <time>2023-05-17T11:20:05Z</time>
      </trkpt>
      <trkpt lat="43.4395" lon="6.63112">
        <ele>70.7</ele>
        <time>2023-05-17T11:20:06Z</time>
      </trkpt>
      <trkpt lat="43.4395" lon="6.63112">
        <ele>70.7</ele>
        <time>2023-05-17T11:20:07Z</time>
      </trkpt>
      <trkpt lat="43.4395" lon="6.63112">
        <ele>70.7</ele>
        <time>2023-05-17T11:20:08Z</time>
      </trkpt>
      <trkpt lat="43.4395" lon="6.63112">
        <ele>70.7</ele>
        <time>2023-05-17T11:20:09Z</time>
      </trkpt>
      <trkpt lat="43.4395" lon="6.63112">
        <ele>70.7</ele>
        <time>2023-05-17T11:20:10Z</time>
      </trkpt>
      <trkpt lat="43.4395" lon="6.63112">
        <ele>70.7</ele>
        <time>2023-05-17T11:20:11Z</time>
      </trkpt>
      <trkpt lat="43.4395" lon="6.63112">
        <ele>70.7</ele>
        <time>2023-05-17T11:20:12Z</time>
      </trkpt>
      <trkpt lat="43.4395" lon="6.63112">
        <ele>70.7</ele>
        <time>2023-05-17T11:20:13Z</time>
      </trkpt>
      <trkpt lat="43.4395" lon="6.63112">
        <ele>70.7</ele>
        <time>2023-05-17T11:20:14Z</time>
      </trkpt>
      <trkpt lat="43.4395" lon="6.63112">
        <ele>70.7</ele>
        <time>2023-05-17T11:20:15Z</time>
      </trkpt>
      <trkpt lat="43.4395" lon="6.63112">
        <ele>70.7</ele>
        <time>2023-05-17T11:20:16Z</time>
      </trkpt>
      <trkpt lat="43.4395" lon="6.63112">
        <ele>70.7</ele>
        <time>2023-05-17T11:20:17Z</time>
      </trkpt>
      <trkpt lat="43.4395" lon="6.63112">
        <ele>70.7</ele>
        <time>2023-05-17T11:20:18Z</time>
      </trkpt>
      <trkpt lat="43.4395" lon="6.63112">
        <ele>70.7</ele>
        <time>2023-05-17T11:20:19Z</time>
      </trkpt>
      <trkpt lat="43.4395" lon="6.63112">
        <ele>70.7</ele>
        <time>2023-05-17T11:20:20Z</time>
      </trkpt>
      <trkpt lat="43.4395" lon="6.63112">
        <ele>70.7</ele>
        <time>2023-05-17T11:20:21Z</time>
      </trkpt>
      <trkpt lat="43.4395" lon="6.63112">
        <ele>70.7</ele>
        <time>2023-05-17T11:20:22Z</time>
      </trkpt>
      <trkpt lat="43.4395" lon="6.63112">
        <ele>70.7</ele>
        <time>2023-05-17T11:20:23Z</time>
      </trkpt>
      <trkpt lat="43.4395" lon="6.63112">
        <ele>70.7</ele>
        <time>2023-05-17T11:20:24Z</time>
      </trkpt>
      <trkpt lat="43.4395" lon="6.63112">
        <ele>70.7</ele>
        <time>2023-05-17T11:20:25Z</time>
      </trkpt>
      <trkpt lat="43.4395" lon="6.63112">
        <ele>70.7</ele>
        <time>2023-05-17T11:20:26Z</time>
      </trkpt>
      <trkpt lat="43.4395" lon="6.63112">
        <ele>70.7</ele>
        <time>2023-05-17T11:20:27Z</time>
      </trkpt>
      <trkpt lat="43.4395" lon="6.63112">
        <ele>70.7</ele>
        <time>2023-05-17T11:20:28Z</time>
      </trkpt>
      <trkpt lat="43.4395" lon="6.63112">
        <ele>70.7</ele>
        <time>2023-05-17T11:20:29Z</time>
      </trkpt>
      <trkpt lat="43.4395" lon="6.63112">
        <ele>70.7</ele>
        <time>2023-05-17T11:20:30Z</time>
      </trkpt>
      <trkpt lat="43.4395" lon="6.63112">
        <ele>70.7</ele>
        <time>2023-05-17T11:20:31Z</time>
      </trkpt>
      <trkpt lat="43.4395" lon="6.63112">
        <ele>70.7</ele>
        <time>2023-05-17T11:20:32Z</time>
      </trkpt>
      <trkpt lat="43.4395" lon="6.63112">
        <ele>70.7</ele>
        <time>2023-05-17T11:20:33Z</time>
      </trkpt>
      <trkpt lat="43.4395" lon="6.63112">
        <ele>70.7</ele>
        <time>2023-05-17T11:20:34Z</time>
      </trkpt>
      <trkpt lat="43.4395" lon="6.63112">
        <ele>70.7</ele>
        <time>2023-05-17T11:20:35Z</time>
      </trkpt>
      <trkpt lat="43.4395" lon="6.63112">
        <ele>70.7</ele>
        <time>2023-05-17T11:20:36Z</time>
      </trkpt>
      <trkpt lat="43.4395" lon="6.63112">
        <ele>70.7</ele>
        <time>2023-05-17T11:20:37Z</time>
      </trkpt>
      <trkpt lat="43.4395" lon="6.63112">
        <ele>70.7</ele>
        <time>2023-05-17T11:20:38Z</time>
      </trkpt>
      <trkpt lat="43.4395" lon="6.63112">
        <ele>70.7</ele>
        <time>2023-05-17T11:20:39Z</time>
      </trkpt>
      <trkpt lat="43.4395" lon="6.63112">
        <ele>70.7</ele>
        <time>2023-05-17T11:20:40Z</time>
      </trkpt>
      <trkpt lat="43.4395" lon="6.63112">
        <ele>70.7</ele>
        <time>2023-05-17T11:20:41Z</time>
      </trkpt>
      <trkpt lat="43.4395" lon="6.63112">
        <ele>70.7</ele>
        <time>2023-05-17T11:20:42Z</time>
      </trkpt>
      <trkpt lat="43.4395" lon="6.63112">
        <ele>70.7</ele>
        <time>2023-05-17T11:20:43Z</time>
      </trkpt>
      <trkpt lat="43.4395" lon="6.63112">
        <ele>70.7</ele>
        <time>2023-05-17T11:20:44Z</time>
      </trkpt>
      <trkpt lat="43.4395" lon="6.63112">
        <ele>70.7</ele>
        <time>2023-05-17T11:20:45Z</time>
      </trkpt>
      <trkpt lat="43.4395" lon="6.63112">
        <ele>70.7</ele>
        <time>2023-05-17T11:20:46Z</time>
      </trkpt>
      <trkpt lat="43.4395" lon="6.63112">
        <ele>70.7</ele>
        <time>2023-05-17T11:20:47Z</time>
      </trkpt>
      <trkpt lat="43.4395" lon="6.63112">
        <ele>70.7</ele>
        <time>2023-05-17T11:20:48Z</time>
      </trkpt>
      <trkpt lat="43.4395" lon="6.63112">
        <ele>70.7</ele>
        <time>2023-05-17T11:20:49Z</time>
      </trkpt>
      <trkpt lat="43.4395" lon="6.63112">
        <ele>70.7</ele>
        <time>2023-05-17T11:20:50Z</time>
      </trkpt>
      <trkpt lat="43.4395" lon="6.63112">
        <ele>70.7</ele>
        <time>2023-05-17T11:20:51Z</time>
      </trkpt>
      <trkpt lat="43.4395" lon="6.63112">
        <ele>70.7</ele>
        <time>2023-05-17T11:20:52Z</time>
      </trkpt>
      <trkpt lat="43.4395" lon="6.63112">
        <ele>70.7</ele>
        <time>2023-05-17T11:20:53Z</time>
      </trkpt>
      <trkpt lat="43.4395" lon="6.63112">
        <ele>70.7</ele>
        <time>2023-05-17T11:20:54Z</time>
      </trkpt>
      <trkpt lat="43.43949" lon="6.63112">
        <ele>70.7</ele>
        <time>2023-05-17T11:20:55Z</time>
      </trkpt>
      <trkpt lat="43.43949" lon="6.63112">
        <ele>70.7</ele>
        <time>2023-05-17T11:20:56Z</time>
      </trkpt>
      <trkpt lat="43.43949" lon="6.63112">
        <ele>70.7</ele>
        <time>2023-05-17T11:20:57Z</time>
      </trkpt>
      <trkpt lat="43.43949" lon="6.63112">
        <ele>70.7</ele>
        <time>2023-05-17T11:20:58Z</time>
      </trkpt>
      <trkpt lat="43.43949" lon="6.63112">
        <ele>70.7</ele>
        <time>2023-05-17T11:20:59Z</time>
      </trkpt>
      <trkpt lat="43.43949" lon="6.63112">
        <ele>70.7</ele>
        <time>2023-05-17T11:21:00Z</time>
      </trkpt>
      <trkpt lat="43.43949" lon="6.63112">
        <ele>70.7</ele>
        <time>2023-05-17T11:21:01Z</time>
      </trkpt>
      <trkpt lat="43.43949" lon="6.63112">
        <ele>70.7</ele>
        <time>2023-05-17T11:21:02Z</time>
      </trkpt>
      <trkpt lat="43.43949" lon="6.63112">
        <ele>70.7</ele>
        <time>2023-05-17T11:21:03Z</time>
      </trkpt>
      <trkpt lat="43.43949" lon="6.63112">
        <ele>70.7</ele>
        <time>2023-05-17T11:21:04Z</time>
      </trkpt>
      <trkpt lat="43.43949" lon="6.63112">
        <ele>70.7</ele>
        <time>2023-05-17T11:21:05Z</time>
      </trkpt>
      <trkpt lat="43.43949" lon="6.63112">
        <ele>70.7</ele>
        <time>2023-05-17T11:21:06Z</time>
      </trkpt>
      <trkpt lat="43.43949" lon="6.63112">
        <ele>70.7</ele>
        <time>2023-05-17T11:21:07Z</time>
      </trkpt>
      <trkpt lat="43.43949" lon="6.63112">
        <ele>70.7</ele>
        <time>2023-05-17T11:21:08Z</time>
      </trkpt>
      <trkpt lat="43.43949" lon="6.63112">
        <ele>70.7</ele>
        <time>2023-05-17T11:21:09Z</time>
      </trkpt>
      <trkpt lat="43.43949" lon="6.63112">
        <ele>70.7</ele>
        <time>2023-05-17T11:21:10Z</time>
      </trkpt>
      <trkpt lat="43.43949" lon="6.63112">
        <ele>70.7</ele>
        <time>2023-05-17T11:21:11Z</time>
      </trkpt>
      <trkpt lat="43.43949" lon="6.63112">
        <ele>70.7</ele>
        <time>2023-05-17T11:21:12Z</time>
      </trkpt>
      <trkpt lat="43.43949" lon="6.63112">
        <ele>70.7</ele>
        <time>2023-05-17T11:21:13Z</time>
      </trkpt>
      <trkpt lat="43.43949" lon="6.63112">
        <ele>70.7</ele>
        <time>2023-05-17T11:21:14Z</time>
      </trkpt>
      <trkpt lat="43.43949" lon="6.63112">
        <ele>70.7</ele>
        <time>2023-05-17T11:21:15Z</time>
      </trkpt>
      <trkpt lat="43.4395" lon="6.63112">
        <ele>70.7</ele>
        <time>2023-05-17T11:21:16Z</time>
      </trkpt>
      <trkpt lat="43.43951" lon="6.63111">
        <ele>70.5</ele>
        <time>2023-05-17T11:21:17Z</time>
      </trkpt>
      <trkpt lat="43.43953" lon="6.63109">
        <ele>70.3</ele>
        <time>2023-05-17T11:21:18Z</time>
      </trkpt>
      <trkpt lat="43.43955" lon="6.6311">
        <ele>70.1</ele>
        <time>2023-05-17T11:21:19Z</time>
      </trkpt>
      <trkpt lat="43.43954" lon="6.63113">
        <ele>70</ele>
        <time>2023-05-17T11:21:20Z</time>
      </trkpt>
      <trkpt lat="43.43954" lon="6.63114">
        <ele>69.9</ele>
        <time>2023-05-17T11:21:21Z</time>
      </trkpt>
      <trkpt lat="43.43955" lon="6.63114">
        <ele>69.8</ele>
        <time>2023-05-17T11:21:23Z</time>
      </trkpt>
      <trkpt lat="43.43955" lon="6.63115">
        <ele>69.8</ele>
        <time>2023-05-17T11:21:24Z</time>
      </trkpt>
      <trkpt lat="43.43956" lon="6.63117">
        <ele>69.6</ele>
        <time>2023-05-17T11:21:25Z</time>
      </trkpt>
      <trkpt lat="43.43956" lon="6.63119">
        <ele>69.5</ele>
        <time>2023-05-17T11:21:26Z</time>
      </trkpt>
      <trkpt lat="43.43955" lon="6.63121">
        <ele>69.4</ele>
        <time>2023-05-17T11:21:28Z</time>
      </trkpt>
      <trkpt lat="43.43955" lon="6.63123">
        <ele>69.2</ele>
        <time>2023-05-17T11:21:29Z</time>
      </trkpt>
      <trkpt lat="43.43953" lon="6.63125">
        <ele>69.1</ele>
        <time>2023-05-17T11:21:30Z</time>
      </trkpt>
      <trkpt lat="43.43951" lon="6.63125">
        <ele>68.9</ele>
        <time>2023-05-17T11:21:31Z</time>
      </trkpt>
      <trkpt lat="43.4395" lon="6.63124">
        <ele>68.8</ele>
        <time>2023-05-17T11:21:32Z</time>
      </trkpt>
      <trkpt lat="43.43949" lon="6.63124">
        <ele>68.8</ele>
        <time>2023-05-17T11:21:33Z</time>
      </trkpt>
      <trkpt lat="43.43948" lon="6.63124">
        <ele>68.7</ele>
        <time>2023-05-17T11:21:34Z</time>
      </trkpt>
      <trkpt lat="43.43946" lon="6.63123">
        <ele>68.6</ele>
        <time>2023-05-17T11:21:35Z</time>
      </trkpt>
      <trkpt lat="43.43944" lon="6.63123">
        <ele>68.5</ele>
        <time>2023-05-17T11:21:37Z</time>
      </trkpt>
      <trkpt lat="43.43943" lon="6.63123">
        <ele>68.4</ele>
        <time>2023-05-17T11:21:38Z</time>
      </trkpt>
      <trkpt lat="43.43942" lon="6.63123">
        <ele>68.3</ele>
        <time>2023-05-17T11:21:39Z</time>
      </trkpt>
      <trkpt lat="43.4394" lon="6.63123">
        <ele>68.2</ele>
        <time>2023-05-17T11:21:40Z</time>
      </trkpt>
      <trkpt lat="43.43939" lon="6.63123">
        <ele>68.2</ele>
        <time>2023-05-17T11:21:41Z</time>
      </trkpt>
      <trkpt lat="43.43938" lon="6.63123">
        <ele>68.1</ele>
        <time>2023-05-17T11:21:42Z</time>
      </trkpt>
      <trkpt lat="43.43937" lon="6.63123">
        <ele>68.1</ele>
        <time>2023-05-17T11:21:43Z</time>
      </trkpt>
      <trkpt lat="43.43936" lon="6.63123">
        <ele>68</ele>
        <time>2023-05-17T11:21:44Z</time>
      </trkpt>
      <trkpt lat="43.43934" lon="6.63123">
        <ele>67.9</ele>
        <time>2023-05-17T11:21:45Z</time>
      </trkpt>
      <trkpt lat="43.43933" lon="6.63123">
        <ele>67.9</ele>
        <time>2023-05-17T11:21:46Z</time>
      </trkpt>
      <trkpt lat="43.43931" lon="6.63123">
        <ele>67.8</ele>
        <time>2023-05-17T11:21:47Z</time>
      </trkpt>
      <trkpt lat="43.4393" lon="6.63123">
        <ele>67.7</ele>
        <time>2023-05-17T11:21:49Z</time>
      </trkpt>
      <trkpt lat="43.43928" lon="6.63123">
        <ele>67.7</ele>
        <time>2023-05-17T11:21:50Z</time>
      </trkpt>
      <trkpt lat="43.43927" lon="6.63123">
        <ele>67.6</ele>
        <time>2023-05-17T11:21:51Z</time>
      </trkpt>
      <trkpt lat="43.43925" lon="6.63123">
        <ele>67.5</ele>
        <time>2023-05-17T11:21:52Z</time>
      </trkpt>
      <trkpt lat="43.43924" lon="6.63123">
        <ele>67.5</ele>
        <time>2023-05-17T11:21:53Z</time>
      </trkpt>
      <trkpt lat="43.43923" lon="6.63123">
        <ele>67.5</ele>
        <time>2023-05-17T11:21:54Z</time>
      </trkpt>
      <trkpt lat="43.43921" lon="6.63124">
        <ele>67.4</ele>
        <time>2023-05-17T11:21:55Z</time>
      </trkpt>
      <trkpt lat="43.4392" lon="6.63124">
        <ele>67.3</ele>
        <time>2023-05-17T11:21:56Z</time>
      </trkpt>
      <trkpt lat="43.4392" lon="6.63124">
        <ele>67.3</ele>
        <time>2023-05-17T11:21:57Z</time>
      </trkpt>
      <trkpt lat="43.43918" lon="6.63123">
        <ele>67.2</ele>
        <time>2023-05-17T11:21:59Z</time>
      </trkpt>
      <trkpt lat="43.43916" lon="6.63124">
        <ele>67.2</ele>
        <time>2023-05-17T11:22:00Z</time>
      </trkpt>
      <trkpt lat="43.43916" lon="6.63124">
        <ele>67.1</ele>
        <time>2023-05-17T11:22:01Z</time>
      </trkpt>
      <trkpt lat="43.43914" lon="6.63124">
        <ele>67.1</ele>
        <time>2023-05-17T11:22:02Z</time>
      </trkpt>
      <trkpt lat="43.43913" lon="6.63123">
        <ele>67</ele>
        <time>2023-05-17T11:22:03Z</time>
      </trkpt>
      <trkpt lat="43.43912" lon="6.63123">
        <ele>67</ele>
        <time>2023-05-17T11:22:04Z</time>
      </trkpt>
      <trkpt lat="43.4391" lon="6.63123">
        <ele>66.9</ele>
        <time>2023-05-17T11:22:05Z</time>
      </trkpt>
      <trkpt lat="43.43909" lon="6.63123">
        <ele>66.8</ele>
        <time>2023-05-17T11:22:06Z</time>
      </trkpt>
      <trkpt lat="43.43908" lon="6.63123">
        <ele>66.8</ele>
        <time>2023-05-17T11:22:07Z</time>
      </trkpt>
      <trkpt lat="43.43907" lon="6.63123">
        <ele>66.7</ele>
        <time>2023-05-17T11:22:08Z</time>
      </trkpt>
      <trkpt lat="43.43905" lon="6.63123">
        <ele>66.6</ele>
        <time>2023-05-17T11:22:09Z</time>
      </trkpt>
      <trkpt lat="43.43904" lon="6.63123">
        <ele>66.6</ele>
        <time>2023-05-17T11:22:11Z</time>
      </trkpt>
      <trkpt lat="43.43903" lon="6.63123">
        <ele>66.5</ele>
        <time>2023-05-17T11:22:12Z</time>
      </trkpt>
      <trkpt lat="43.43901" lon="6.63123">
        <ele>66.4</ele>
        <time>2023-05-17T11:22:13Z</time>
      </trkpt>
      <trkpt lat="43.439" lon="6.63122">
        <ele>66.3</ele>
        <time>2023-05-17T11:22:14Z</time>
      </trkpt>
      <trkpt lat="43.43898" lon="6.63123">
        <ele>66.2</ele>
        <time>2023-05-17T11:22:15Z</time>
      </trkpt>
      <trkpt lat="43.43897" lon="6.63123">
        <ele>66.2</ele>
        <time>2023-05-17T11:22:16Z</time>
      </trkpt>
      <trkpt lat="43.43896" lon="6.63125">
        <ele>66.1</ele>
        <time>2023-05-17T11:22:17Z</time>
      </trkpt>
      <trkpt lat="43.43895" lon="6.63126">
        <ele>66</ele>
        <time>2023-05-17T11:22:19Z</time>
      </trkpt>
      <trkpt lat="43.43894" lon="6.63129">
        <ele>65.8</ele>
        <time>2023-05-17T11:22:20Z</time>
      </trkpt>
      <trkpt lat="43.43894" lon="6.6313">
        <ele>65.8</ele>
        <time>2023-05-17T11:22:21Z</time>
      </trkpt>
      <trkpt lat="43.43893" lon="6.63132">
        <ele>65.7</ele>
        <time>2023-05-17T11:22:22Z</time>
      </trkpt>
      <trkpt lat="43.43893" lon="6.63134">
        <ele>65.6</ele>
        <time>2023-05-17T11:22:23Z</time>
      </trkpt>
      <trkpt lat="43.43893" lon="6.63135">
        <ele>65.5</ele>
        <time>2023-05-17T11:22:24Z</time>
      </trkpt>
      <trkpt lat="43.43892" lon="6.63137">
        <ele>65.4</ele>
        <time>2023-05-17T11:22:25Z</time>
      </trkpt>
      <trkpt lat="43.43891" lon="6.63137">
        <ele>65.3</ele>
        <time>2023-05-17T11:22:26Z</time>
      </trkpt>
      <trkpt lat="43.4389" lon="6.63136">
        <ele>65.2</ele>
        <time>2023-05-17T11:22:28Z</time>
      </trkpt>
      <trkpt lat="43.4389" lon="6.63136">
        <ele>65.2</ele>
        <time>2023-05-17T11:22:29Z</time>
      </trkpt>
      <trkpt lat="43.4389" lon="6.63136">
        <ele>65.2</ele>
        <time>2023-05-17T11:22:30Z</time>
      </trkpt>
      <trkpt lat="43.4389" lon="6.63135">
        <ele>65.2</ele>
        <time>2023-05-17T11:22:31Z</time>
      </trkpt>
      <trkpt lat="43.4389" lon="6.63135">
        <ele>65.2</ele>
        <time>2023-05-17T11:22:33Z</time>
      </trkpt>
      <trkpt lat="43.4389" lon="6.63135">
        <ele>65.2</ele>
        <time>2023-05-17T11:22:34Z</time>
      </trkpt>
      <trkpt lat="43.4389" lon="6.63135">
        <ele>65.2</ele>
        <time>2023-05-17T11:22:35Z</time>
      </trkpt>
      <trkpt lat="43.4389" lon="6.63135">
        <ele>65.2</ele>
        <time>2023-05-17T11:22:37Z</time>
      </trkpt>
      <trkpt lat="43.4389" lon="6.63135">
        <ele>65.1</ele>
        <time>2023-05-17T11:22:38Z</time>
      </trkpt>
      <trkpt lat="43.4389" lon="6.63135">
        <ele>65.1</ele>
        <time>2023-05-17T11:22:39Z</time>
      </trkpt>
      <trkpt lat="43.4389" lon="6.63135">
        <ele>65.1</ele>
        <time>2023-05-17T11:22:41Z</time>
      </trkpt>
      <trkpt lat="43.4389" lon="6.63135">
        <ele>65.1</ele>
        <time>2023-05-17T11:22:42Z</time>
      </trkpt>
      <trkpt lat="43.4389" lon="6.63136">
        <ele>65.1</ele>
        <time>2023-05-17T11:22:43Z</time>
      </trkpt>
      <trkpt lat="43.43891" lon="6.63137">
        <ele>65</ele>
        <time>2023-05-17T11:22:44Z</time>
      </trkpt>
      <trkpt lat="43.43893" lon="6.6314">
        <ele>64.8</ele>
        <time>2023-05-17T11:22:45Z</time>
      </trkpt>
      <trkpt lat="43.43894" lon="6.6314">
        <ele>64.7</ele>
        <time>2023-05-17T11:22:46Z</time>
      </trkpt>
      <trkpt lat="43.43895" lon="6.63141">
        <ele>64.6</ele>
        <time>2023-05-17T11:22:47Z</time>
      </trkpt>
      <trkpt lat="43.43897" lon="6.63142">
        <ele>64.5</ele>
        <time>2023-05-17T11:22:48Z</time>
      </trkpt>
      <trkpt lat="43.43898" lon="6.63144">
        <ele>64.4</ele>
        <time>2023-05-17T11:22:49Z</time>
      </trkpt>
      <trkpt lat="43.439" lon="6.63146">
        <ele>64.2</ele>
        <time>2023-05-17T11:22:51Z</time>
      </trkpt>
      <trkpt lat="43.43901" lon="6.63147">
        <ele>64.1</ele>
        <time>2023-05-17T11:22:52Z</time>
      </trkpt>
      <trkpt lat="43.43902" lon="6.63148">
        <ele>64</ele>
        <time>2023-05-17T11:22:53Z</time>
      </trkpt>
      <trkpt lat="43.43903" lon="6.63149">
        <ele>63.9</ele>
        <time>2023-05-17T11:22:54Z</time>
      </trkpt>
      <trkpt lat="43.43905" lon="6.63151">
        <ele>63.7</ele>
        <time>2023-05-17T11:22:55Z</time>
      </trkpt>
      <trkpt lat="43.43905" lon="6.63152">
        <ele>63.7</ele>
        <time>2023-05-17T11:22:56Z</time>
      </trkpt>
      <trkpt lat="43.43906" lon="6.63152">
        <ele>63.6</ele>
        <time>2023-05-17T11:22:57Z</time>
      </trkpt>
      <trkpt lat="43.43908" lon="6.63153">
        <ele>63.5</ele>
        <time>2023-05-17T11:22:58Z</time>
      </trkpt>
      <trkpt lat="43.43909" lon="6.63154">
        <ele>63.4</ele>
        <time>2023-05-17T11:23:00Z</time>
      </trkpt>
      <trkpt lat="43.4391" lon="6.63156">
        <ele>63.2</ele>
        <time>2023-05-17T11:23:01Z</time>
      </trkpt>
      <trkpt lat="43.43912" lon="6.63159">
        <ele>63.1</ele>
        <time>2023-05-17T11:23:02Z</time>
      </trkpt>
      <trkpt lat="43.43912" lon="6.63159">
        <ele>63</ele>
        <time>2023-05-17T11:23:03Z</time>
      </trkpt>
      <trkpt lat="43.43913" lon="6.6316">
        <ele>62.9</ele>
        <time>2023-05-17T11:23:04Z</time>
      </trkpt>
      <trkpt lat="43.43915" lon="6.63162">
        <ele>62.8</ele>
        <time>2023-05-17T11:23:05Z</time>
      </trkpt>
      <trkpt lat="43.43915" lon="6.63163">
        <ele>62.7</ele>
        <time>2023-05-17T11:23:06Z</time>
      </trkpt>
      <trkpt lat="43.43917" lon="6.63165">
        <ele>62.6</ele>
        <time>2023-05-17T11:23:08Z</time>
      </trkpt>
      <trkpt lat="43.43918" lon="6.63166">
        <ele>62.5</ele>
        <time>2023-05-17T11:23:09Z</time>
      </trkpt>
      <trkpt lat="43.43919" lon="6.63168">
        <ele>62.4</ele>
        <time>2023-05-17T11:23:10Z</time>
      </trkpt>
      <trkpt lat="43.4392" lon="6.63169">
        <ele>62.3</ele>
        <time>2023-05-17T11:23:11Z</time>
      </trkpt>
      <trkpt lat="43.43921" lon="6.63171">
        <ele>62.2</ele>
        <time>2023-05-17T11:23:12Z</time>
      </trkpt>
      <trkpt lat="43.43922" lon="6.63173">
        <ele>62.1</ele>
        <time>2023-05-17T11:23:14Z</time>
      </trkpt>
      <trkpt lat="43.43924" lon="6.63176">
        <ele>61.9</ele>
        <time>2023-05-17T11:23:15Z</time>
      </trkpt>
      <trkpt lat="43.43924" lon="6.63177">
        <ele>61.8</ele>
        <time>2023-05-17T11:23:16Z</time>
      </trkpt>
      <trkpt lat="43.43924" lon="6.63178">
        <ele>61.8</ele>
        <time>2023-05-17T11:23:17Z</time>
      </trkpt>
      <trkpt lat="43.43925" lon="6.63182">
        <ele>61.6</ele>
        <time>2023-05-17T11:23:18Z</time>
      </trkpt>
      <trkpt lat="43.43925" lon="6.63183">
        <ele>61.5</ele>
        <time>2023-05-17T11:23:20Z</time>
      </trkpt>
      <trkpt lat="43.43925" lon="6.63185">
        <ele>61.4</ele>
        <time>2023-05-17T11:23:21Z</time>
      </trkpt>
      <trkpt lat="43.43925" lon="6.63187">
        <ele>61.4</ele>
        <time>2023-05-17T11:23:22Z</time>
      </trkpt>
      <trkpt lat="43.43925" lon="6.63189">
        <ele>61.3</ele>
        <time>2023-05-17T11:23:23Z</time>
      </trkpt>
      <trkpt lat="43.43925" lon="6.63192">
        <ele>61.1</ele>
        <time>2023-05-17T11:23:24Z</time>
      </trkpt>
      <trkpt lat="43.43925" lon="6.63196">
        <ele>61</ele>
        <time>2023-05-17T11:23:25Z</time>
      </trkpt>
      <trkpt lat="43.43925" lon="6.63198">
        <ele>60.8</ele>
        <time>2023-05-17T11:23:26Z</time>
      </trkpt>
      <trkpt lat="43.43925" lon="6.63199">
        <ele>60.8</ele>
        <time>2023-05-17T11:23:27Z</time>
      </trkpt>
      <trkpt lat="43.43925" lon="6.63201">
        <ele>60.7</ele>
        <time>2023-05-17T11:23:28Z</time>
      </trkpt>
      <trkpt lat="43.43925" lon="6.63203">
        <ele>60.6</ele>
        <time>2023-05-17T11:23:30Z</time>
      </trkpt>
      <trkpt lat="43.43925" lon="6.63205">
        <ele>60.5</ele>
        <time>2023-05-17T11:23:31Z</time>
      </trkpt>
      <trkpt lat="43.43925" lon="6.63207">
        <ele>60.4</ele>
        <time>2023-05-17T11:23:32Z</time>
      </trkpt>
      <trkpt lat="43.43924" lon="6.6321">
        <ele>60.3</ele>
        <time>2023-05-17T11:23:33Z</time>
      </trkpt>
      <trkpt lat="43.43924" lon="6.63212">
        <ele>60.2</ele>
        <time>2023-05-17T11:23:34Z</time>
      </trkpt>
      <trkpt lat="43.43925" lon="6.63213">
        <ele>60.1</ele>
        <time>2023-05-17T11:23:35Z</time>
      </trkpt>
      <trkpt lat="43.43925" lon="6.63214">
        <ele>60</ele>
        <time>2023-05-17T11:23:36Z</time>
      </trkpt>
      <trkpt lat="43.43926" lon="6.63216">
        <ele>59.9</ele>
        <time>2023-05-17T11:23:37Z</time>
      </trkpt>
      <trkpt lat="43.43926" lon="6.63218">
        <ele>59.8</ele>
        <time>2023-05-17T11:23:38Z</time>
      </trkpt>
      <trkpt lat="43.43926" lon="6.63219">
        <ele>59.8</ele>
        <time>2023-05-17T11:23:39Z</time>
      </trkpt>
      <trkpt lat="43.43927" lon="6.6322">
        <ele>59.7</ele>
        <time>2023-05-17T11:23:40Z</time>
      </trkpt>
      <trkpt lat="43.43928" lon="6.63222">
        <ele>59.5</ele>
        <time>2023-05-17T11:23:42Z</time>
      </trkpt>
      <trkpt lat="43.43929" lon="6.63223">
        <ele>59.4</ele>
        <time>2023-05-17T11:23:43Z</time>
      </trkpt>
      <trkpt lat="43.43929" lon="6.63225">
        <ele>59.3</ele>
        <time>2023-05-17T11:23:44Z</time>
      </trkpt>
      <trkpt lat="43.4393" lon="6.63228">
        <ele>59.2</ele>
        <time>2023-05-17T11:23:45Z</time>
      </trkpt>
      <trkpt lat="43.4393" lon="6.63229">
        <ele>59.1</ele>
        <time>2023-05-17T11:23:46Z</time>
      </trkpt>
      <trkpt lat="43.43931" lon="6.63232">
        <ele>58.9</ele>
        <time>2023-05-17T11:23:47Z</time>
      </trkpt>
      <trkpt lat="43.43931" lon="6.63234">
        <ele>58.8</ele>
        <time>2023-05-17T11:23:48Z</time>
      </trkpt>
      <trkpt lat="43.43931" lon="6.63235">
        <ele>58.7</ele>
        <time>2023-05-17T11:23:49Z</time>
      </trkpt>
      <trkpt lat="43.43932" lon="6.63236">
        <ele>58.6</ele>
        <time>2023-05-17T11:23:50Z</time>
      </trkpt>
      <trkpt lat="43.43932" lon="6.63237">
        <ele>58.5</ele>
        <time>2023-05-17T11:23:52Z</time>
      </trkpt>
      <trkpt lat="43.43933" lon="6.63239">
        <ele>58.4</ele>
        <time>2023-05-17T11:23:53Z</time>
      </trkpt>
      <trkpt lat="43.43933" lon="6.6324">
        <ele>58.3</ele>
        <time>2023-05-17T11:23:54Z</time>
      </trkpt>
      <trkpt lat="43.43934" lon="6.63242">
        <ele>58.1</ele>
        <time>2023-05-17T11:23:55Z</time>
      </trkpt>
      <trkpt lat="43.43936" lon="6.63245">
        <ele>57.9</ele>
        <time>2023-05-17T11:23:56Z</time>
      </trkpt>
      <trkpt lat="43.43936" lon="6.63246">
        <ele>57.9</ele>
        <time>2023-05-17T11:23:57Z</time>
      </trkpt>
      <trkpt lat="43.43937" lon="6.63247">
        <ele>57.8</ele>
        <time>2023-05-17T11:23:58Z</time>
      </trkpt>
      <trkpt lat="43.43937" lon="6.63249">
        <ele>57.6</ele>
        <time>2023-05-17T11:23:59Z</time>
      </trkpt>
      <trkpt lat="43.43938" lon="6.63251">
        <ele>57.5</ele>
        <time>2023-05-17T11:24:01Z</time>
      </trkpt>
      <trkpt lat="43.43939" lon="6.63252">
        <ele>57.4</ele>
        <time>2023-05-17T11:24:02Z</time>
      </trkpt>
      <trkpt lat="43.4394" lon="6.63253">
        <ele>57.3</ele>
        <time>2023-05-17T11:24:03Z</time>
      </trkpt>
      <trkpt lat="43.43941" lon="6.63254">
        <ele>57.1</ele>
        <time>2023-05-17T11:24:04Z</time>
      </trkpt>
      <trkpt lat="43.43942" lon="6.63256">
        <ele>57</ele>
        <time>2023-05-17T11:24:05Z</time>
      </trkpt>
      <trkpt lat="43.43944" lon="6.63258">
        <ele>56.8</ele>
        <time>2023-05-17T11:24:06Z</time>
      </trkpt>
      <trkpt lat="43.43945" lon="6.63258">
        <ele>56.8</ele>
        <time>2023-05-17T11:24:07Z</time>
      </trkpt>
      <trkpt lat="43.43945" lon="6.63259">
        <ele>56.7</ele>
        <time>2023-05-17T11:24:08Z</time>
      </trkpt>
      <trkpt lat="43.43947" lon="6.63261">
        <ele>56.5</ele>
        <time>2023-05-17T11:24:09Z</time>
      </trkpt>
      <trkpt lat="43.43948" lon="6.63262">
        <ele>56.4</ele>
        <time>2023-05-17T11:24:11Z</time>
      </trkpt>
      <trkpt lat="43.43948" lon="6.63263">
        <ele>56.4</ele>
        <time>2023-05-17T11:24:12Z</time>
      </trkpt>
      <trkpt lat="43.43949" lon="6.63264">
        <ele>56.3</ele>
        <time>2023-05-17T11:24:13Z</time>
      </trkpt>
      <trkpt lat="43.4395" lon="6.63265">
        <ele>56.2</ele>
        <time>2023-05-17T11:24:14Z</time>
      </trkpt>
      <trkpt lat="43.43952" lon="6.63267">
        <ele>56</ele>
        <time>2023-05-17T11:24:15Z</time>
      </trkpt>
      <trkpt lat="43.43952" lon="6.63268">
        <ele>55.9</ele>
        <time>2023-05-17T11:24:16Z</time>
      </trkpt>
      <trkpt lat="43.43953" lon="6.63268">
        <ele>55.9</ele>
        <time>2023-05-17T11:24:17Z</time>
      </trkpt>
      <trkpt lat="43.43954" lon="6.6327">
        <ele>55.8</ele>
        <time>2023-05-17T11:24:18Z</time>
      </trkpt>
      <trkpt lat="43.43955" lon="6.63271">
        <ele>55.6</ele>
        <time>2023-05-17T11:24:19Z</time>
      </trkpt>
      <trkpt lat="43.43956" lon="6.63272">
        <ele>55.6</ele>
        <time>2023-05-17T11:24:21Z</time>
      </trkpt>
      <trkpt lat="43.43957" lon="6.63273">
        <ele>55.5</ele>
        <time>2023-05-17T11:24:22Z</time>
      </trkpt>
      <trkpt lat="43.43958" lon="6.63274">
        <ele>55.3</ele>
        <time>2023-05-17T11:24:23Z</time>
      </trkpt>
      <trkpt lat="43.43959" lon="6.63275">
        <ele>55.3</ele>
        <time>2023-05-17T11:24:24Z</time>
      </trkpt>
      <trkpt lat="43.4396" lon="6.63277">
        <ele>55.1</ele>
        <time>2023-05-17T11:24:25Z</time>
      </trkpt>
      <trkpt lat="43.43961" lon="6.63278">
        <ele>55.1</ele>
        <time>2023-05-17T11:24:26Z</time>
      </trkpt>
      <trkpt lat="43.43962" lon="6.63279">
        <ele>55</ele>
        <time>2023-05-17T11:24:27Z</time>
      </trkpt>
      <trkpt lat="43.43963" lon="6.6328">
        <ele>54.9</ele>
        <time>2023-05-17T11:24:28Z</time>
      </trkpt>
      <trkpt lat="43.43964" lon="6.63281">
        <ele>54.8</ele>
        <time>2023-05-17T11:24:30Z</time>
      </trkpt>
      <trkpt lat="43.43965" lon="6.63282">
        <ele>54.7</ele>
        <time>2023-05-17T11:24:31Z</time>
      </trkpt>
      <trkpt lat="43.43966" lon="6.63283">
        <ele>54.6</ele>
        <time>2023-05-17T11:24:32Z</time>
      </trkpt>
      <trkpt lat="43.43968" lon="6.63284">
        <ele>54.4</ele>
        <time>2023-05-17T11:24:33Z</time>
      </trkpt>
      <trkpt lat="43.43969" lon="6.63284">
        <ele>54.4</ele>
        <time>2023-05-17T11:24:34Z</time>
      </trkpt>
      <trkpt lat="43.4397" lon="6.63286">
        <ele>54.3</ele>
        <time>2023-05-17T11:24:35Z</time>
      </trkpt>
      <trkpt lat="43.43971" lon="6.63286">
        <ele>54.2</ele>
        <time>2023-05-17T11:24:36Z</time>
      </trkpt>
      <trkpt lat="43.43972" lon="6.63288">
        <ele>54</ele>
        <time>2023-05-17T11:24:38Z</time>
      </trkpt>
      <trkpt lat="43.43973" lon="6.63289">
        <ele>53.9</ele>
        <time>2023-05-17T11:24:39Z</time>
      </trkpt>
      <trkpt lat="43.43974" lon="6.6329">
        <ele>53.9</ele>
        <time>2023-05-17T11:24:40Z</time>
      </trkpt>
      <trkpt lat="43.43975" lon="6.63291">
        <ele>53.8</ele>
        <time>2023-05-17T11:24:41Z</time>
      </trkpt>
      <trkpt lat="43.43975" lon="6.63292">
        <ele>53.7</ele>
        <time>2023-05-17T11:24:42Z</time>
      </trkpt>
      <trkpt lat="43.43976" lon="6.63294">
        <ele>53.6</ele>
        <time>2023-05-17T11:24:43Z</time>
      </trkpt>
      <trkpt lat="43.43977" lon="6.63296">
        <ele>53.4</ele>
        <time>2023-05-17T11:24:44Z</time>
      </trkpt>
      <trkpt lat="43.43977" lon="6.63297">
        <ele>53.3</ele>
        <time>2023-05-17T11:24:45Z</time>
      </trkpt>
      <trkpt lat="43.43978" lon="6.63299">
        <ele>53.2</ele>
        <time>2023-05-17T11:24:47Z</time>
      </trkpt>
      <trkpt lat="43.43979" lon="6.63301">
        <ele>53</ele>
        <time>2023-05-17T11:24:48Z</time>
      </trkpt>
      <trkpt lat="43.4398" lon="6.63302">
        <ele>53</ele>
        <time>2023-05-17T11:24:49Z</time>
      </trkpt>
      <trkpt lat="43.4398" lon="6.63303">
        <ele>52.9</ele>
        <time>2023-05-17T11:24:50Z</time>
      </trkpt>
      <trkpt lat="43.43982" lon="6.63306">
        <ele>52.7</ele>
        <time>2023-05-17T11:24:51Z</time>
      </trkpt>
      <trkpt lat="43.43982" lon="6.63306">
        <ele>52.6</ele>
        <time>2023-05-17T11:24:52Z</time>
      </trkpt>
      <trkpt lat="43.43983" lon="6.63307">
        <ele>52.6</ele>
        <time>2023-05-17T11:24:53Z</time>
      </trkpt>
      <trkpt lat="43.43984" lon="6.63309">
        <ele>52.4</ele>
        <time>2023-05-17T11:24:54Z</time>
      </trkpt>
      <trkpt lat="43.43985" lon="6.6331">
        <ele>52.3</ele>
        <time>2023-05-17T11:24:55Z</time>
      </trkpt>
      <trkpt lat="43.43986" lon="6.63311">
        <ele>52.2</ele>
        <time>2023-05-17T11:24:56Z</time>
      </trkpt>
      <trkpt lat="43.43986" lon="6.63312">
        <ele>52.1</ele>
        <time>2023-05-17T11:24:57Z</time>
      </trkpt>
      <trkpt lat="43.43987" lon="6.63314">
        <ele>52</ele>
        <time>2023-05-17T11:24:59Z</time>
      </trkpt>
      <trkpt lat="43.43988" lon="6.63316">
        <ele>51.8</ele>
        <time>2023-05-17T11:25:00Z</time>
      </trkpt>
      <trkpt lat="43.43988" lon="6.63317">
        <ele>51.7</ele>
        <time>2023-05-17T11:25:01Z</time>
      </trkpt>
      <trkpt lat="43.43989" lon="6.6332">
        <ele>51.6</ele>
        <time>2023-05-17T11:25:02Z</time>
      </trkpt>
      <trkpt lat="43.4399" lon="6.63321">
        <ele>51.5</ele>
        <time>2023-05-17T11:25:03Z</time>
      </trkpt>
      <trkpt lat="43.4399" lon="6.63322">
        <ele>51.4</ele>
        <time>2023-05-17T11:25:04Z</time>
      </trkpt>
      <trkpt lat="43.43992" lon="6.63324">
        <ele>51.2</ele>
        <time>2023-05-17T11:25:05Z</time>
      </trkpt>
      <trkpt lat="43.43992" lon="6.63325">
        <ele>51.1</ele>
        <time>2023-05-17T11:25:06Z</time>
      </trkpt>
      <trkpt lat="43.43992" lon="6.63326">
        <ele>51.1</ele>
        <time>2023-05-17T11:25:07Z</time>
      </trkpt>
      <trkpt lat="43.43993" lon="6.63328">
        <ele>50.9</ele>
        <time>2023-05-17T11:25:09Z</time>
      </trkpt>
      <trkpt lat="43.43994" lon="6.6333">
        <ele>50.8</ele>
        <time>2023-05-17T11:25:10Z</time>
      </trkpt>
      <trkpt lat="43.43994" lon="6.63332">
        <ele>50.7</ele>
        <time>2023-05-17T11:25:11Z</time>
      </trkpt>
      <trkpt lat="43.43994" lon="6.63333">
        <ele>50.6</ele>
        <time>2023-05-17T11:25:12Z</time>
      </trkpt>
      <trkpt lat="43.43995" lon="6.63335">
        <ele>50.5</ele>
        <time>2023-05-17T11:25:13Z</time>
      </trkpt>
      <trkpt lat="43.43995" lon="6.63335">
        <ele>50.5</ele>
        <time>2023-05-17T11:25:14Z</time>
      </trkpt>
      <trkpt lat="43.43995" lon="6.63336">
        <ele>50.4</ele>
        <time>2023-05-17T11:25:15Z</time>
      </trkpt>
      <trkpt lat="43.43995" lon="6.63336">
        <ele>50.4</ele>
        <time>2023-05-17T11:25:16Z</time>
      </trkpt>
      <trkpt lat="43.43995" lon="6.63336">
        <ele>50.4</ele>
        <time>2023-05-17T11:25:18Z</time>
      </trkpt>
      <trkpt lat="43.43995" lon="6.63334">
        <ele>50.3</ele>
        <time>2023-05-17T11:25:19Z</time>
      </trkpt>
      <trkpt lat="43.43995" lon="6.63334">
        <ele>50.3</ele>
        <time>2023-05-17T11:25:20Z</time>
      </trkpt>
      <trkpt lat="43.43995" lon="6.63333">
        <ele>50.2</ele>
        <time>2023-05-17T11:25:22Z</time>
      </trkpt>
      <trkpt lat="43.43995" lon="6.63332">
        <ele>50.2</ele>
        <time>2023-05-17T11:25:23Z</time>
      </trkpt>
      <trkpt lat="43.43995" lon="6.63332">
        <ele>50.2</ele>
        <time>2023-05-17T11:25:24Z</time>
      </trkpt>
      <trkpt lat="43.43995" lon="6.63331">
        <ele>50.2</ele>
        <time>2023-05-17T11:25:26Z</time>
      </trkpt>
      <trkpt lat="43.43995" lon="6.63331">
        <ele>50.1</ele>
        <time>2023-05-17T11:25:27Z</time>
      </trkpt>
      <trkpt lat="43.43995" lon="6.63331">
        <ele>50.1</ele>
        <time>2023-05-17T11:25:28Z</time>
      </trkpt>
      <trkpt lat="43.43995" lon="6.63331">
        <ele>50.1</ele>
        <time>2023-05-17T11:25:29Z</time>
      </trkpt>
      <trkpt lat="43.43995" lon="6.63331">
        <ele>50.1</ele>
        <time>2023-05-17T11:25:31Z</time>
      </trkpt>
      <trkpt lat="43.43995" lon="6.6333">
        <ele>50.1</ele>
        <time>2023-05-17T11:25:32Z</time>
      </trkpt>
      <trkpt lat="43.43995" lon="6.6333">
        <ele>50.1</ele>
        <time>2023-05-17T11:25:33Z</time>
      </trkpt>
      <trkpt lat="43.43995" lon="6.6333">
        <ele>50.1</ele>
        <time>2023-05-17T11:25:34Z</time>
      </trkpt>
      <trkpt lat="43.43995" lon="6.6333">
        <ele>50.1</ele>
        <time>2023-05-17T11:25:35Z</time>
      </trkpt>
      <trkpt lat="43.43995" lon="6.6333">
        <ele>50</ele>
        <time>2023-05-17T11:25:36Z</time>
      </trkpt>
      <trkpt lat="43.43995" lon="6.6333">
        <ele>50</ele>
        <time>2023-05-17T11:25:37Z</time>
      </trkpt>
      <trkpt lat="43.43995" lon="6.63331">
        <ele>50</ele>
        <time>2023-05-17T11:25:38Z</time>
      </trkpt>
      <trkpt lat="43.43995" lon="6.63332">
        <ele>49.9</ele>
        <time>2023-05-17T11:25:39Z</time>
      </trkpt>
      <trkpt lat="43.43995" lon="6.63332">
        <ele>49.9</ele>
        <time>2023-05-17T11:25:40Z</time>
      </trkpt>
      <trkpt lat="43.43995" lon="6.63333">
        <ele>49.9</ele>
        <time>2023-05-17T11:25:41Z</time>
      </trkpt>
      <trkpt lat="43.43995" lon="6.63334">
        <ele>49.8</ele>
        <time>2023-05-17T11:25:42Z</time>
      </trkpt>
      <trkpt lat="43.43995" lon="6.63335">
        <ele>49.8</ele>
        <time>2023-05-17T11:25:43Z</time>
      </trkpt>
      <trkpt lat="43.43996" lon="6.63336">
        <ele>49.7</ele>
        <time>2023-05-17T11:25:45Z</time>
      </trkpt>
      <trkpt lat="43.43996" lon="6.63337">
        <ele>49.6</ele>
        <time>2023-05-17T11:25:46Z</time>
      </trkpt>
      <trkpt lat="43.43996" lon="6.6334">
        <ele>49.5</ele>
        <time>2023-05-17T11:25:48Z</time>
      </trkpt>
      <trkpt lat="43.43996" lon="6.63342">
        <ele>49.4</ele>
        <time>2023-05-17T11:25:49Z</time>
      </trkpt>
      <trkpt lat="43.43996" lon="6.63343">
        <ele>49.4</ele>
        <time>2023-05-17T11:25:50Z</time>
      </trkpt>
      <trkpt lat="43.43995" lon="6.63343">
        <ele>49.3</ele>
        <time>2023-05-17T11:25:51Z</time>
      </trkpt>
      <trkpt lat="43.43995" lon="6.63345">
        <ele>49.3</ele>
        <time>2023-05-17T11:25:53Z</time>
      </trkpt>
      <trkpt lat="43.43994" lon="6.63345">
        <ele>49.2</ele>
        <time>2023-05-17T11:25:54Z</time>
      </trkpt>
      <trkpt lat="43.43994" lon="6.63346">
        <ele>49.2</ele>
        <time>2023-05-17T11:25:55Z</time>
      </trkpt>
      <trkpt lat="43.43994" lon="6.63345">
        <ele>49.2</ele>
        <time>2023-05-17T11:25:57Z</time>
      </trkpt>
      <trkpt lat="43.43993" lon="6.63346">
        <ele>49.2</ele>
        <time>2023-05-17T11:25:58Z</time>
      </trkpt>
      <trkpt lat="43.43993" lon="6.63346">
        <ele>49.2</ele>
        <time>2023-05-17T11:25:59Z</time>
      </trkpt>
      <trkpt lat="43.43993" lon="6.63346">
        <ele>49.2</ele>
        <time>2023-05-17T11:26:00Z</time>
      </trkpt>
      <trkpt lat="43.43992" lon="6.63346">
        <ele>49.1</ele>
        <time>2023-05-17T11:26:02Z</time>
      </trkpt>
      <trkpt lat="43.43992" lon="6.63348">
        <ele>49.1</ele>
        <time>2023-05-17T11:26:03Z</time>
      </trkpt>
      <trkpt lat="43.43992" lon="6.63351">
        <ele>48.9</ele>
        <time>2023-05-17T11:26:04Z</time>
      </trkpt>
      <trkpt lat="43.43992" lon="6.63352">
        <ele>48.9</ele>
        <time>2023-05-17T11:26:05Z</time>
      </trkpt>
      <trkpt lat="43.43992" lon="6.63353">
        <ele>48.9</ele>
        <time>2023-05-17T11:26:06Z</time>
      </trkpt>
      <trkpt lat="43.43991" lon="6.63355">
        <ele>48.8</ele>
        <time>2023-05-17T11:26:07Z</time>
      </trkpt>
      <trkpt lat="43.43992" lon="6.63356">
        <ele>48.7</ele>
        <time>2023-05-17T11:26:08Z</time>
      </trkpt>
      <trkpt lat="43.43992" lon="6.63359">
        <ele>48.7</ele>
        <time>2023-05-17T11:26:10Z</time>
      </trkpt>
      <trkpt lat="43.43992" lon="6.63361">
        <ele>48.6</ele>
        <time>2023-05-17T11:26:11Z</time>
      </trkpt>
      <trkpt lat="43.43992" lon="6.63363">
        <ele>48.6</ele>
        <time>2023-05-17T11:26:12Z</time>
      </trkpt>
      <trkpt lat="43.43993" lon="6.63363">
        <ele>48.5</ele>
        <time>2023-05-17T11:26:13Z</time>
      </trkpt>
      <trkpt lat="43.43994" lon="6.63364">
        <ele>48.5</ele>
        <time>2023-05-17T11:26:15Z</time>
      </trkpt>
      <trkpt lat="43.43995" lon="6.63365">
        <ele>48.5</ele>
        <time>2023-05-17T11:26:16Z</time>
      </trkpt>
      <trkpt lat="43.43994" lon="6.63367">
        <ele>48.4</ele>
        <time>2023-05-17T11:26:17Z</time>
      </trkpt>
      <trkpt lat="43.43994" lon="6.63368">
        <ele>48.4</ele>
        <time>2023-05-17T11:26:18Z</time>
      </trkpt>
      <trkpt lat="43.43993" lon="6.63369">
        <ele>48.4</ele>
        <time>2023-05-17T11:26:19Z</time>
      </trkpt>
      <trkpt lat="43.43993" lon="6.63369">
        <ele>48.4</ele>
        <time>2023-05-17T11:26:20Z</time>
      </trkpt>
      <trkpt lat="43.43992" lon="6.63371">
        <ele>48.3</ele>
        <time>2023-05-17T11:26:21Z</time>
      </trkpt>
      <trkpt lat="43.43992" lon="6.63373">
        <ele>48.3</ele>
        <time>2023-05-17T11:26:22Z</time>
      </trkpt>
      <trkpt lat="43.43992" lon="6.63374">
        <ele>48.3</ele>
        <time>2023-05-17T11:26:23Z</time>
      </trkpt>
      <trkpt lat="43.43992" lon="6.63376">
        <ele>48.2</ele>
        <time>2023-05-17T11:26:25Z</time>
      </trkpt>
      <trkpt lat="43.43993" lon="6.63377">
        <ele>48.2</ele>
        <time>2023-05-17T11:26:26Z</time>
      </trkpt>
      <trkpt lat="43.43993" lon="6.63379">
        <ele>48.2</ele>
        <time>2023-05-17T11:26:27Z</time>
      </trkpt>
      <trkpt lat="43.43993" lon="6.6338">
        <ele>48.2</ele>
        <time>2023-05-17T11:26:28Z</time>
      </trkpt>
      <trkpt lat="43.43993" lon="6.63381">
        <ele>48.2</ele>
        <time>2023-05-17T11:26:29Z</time>
      </trkpt>
      <trkpt lat="43.43993" lon="6.63382">
        <ele>48.3</ele>
        <time>2023-05-17T11:26:30Z</time>
      </trkpt>
      <trkpt lat="43.43993" lon="6.63383">
        <ele>48.3</ele>
        <time>2023-05-17T11:26:31Z</time>
      </trkpt>
      <trkpt lat="43.43992" lon="6.63383">
        <ele>48.3</ele>
        <time>2023-05-17T11:26:32Z</time>
      </trkpt>
      <trkpt lat="43.43991" lon="6.63383">
        <ele>48.3</ele>
        <time>2023-05-17T11:26:34Z</time>
      </trkpt>
      <trkpt lat="43.43991" lon="6.63382">
        <ele>48.3</ele>
        <time>2023-05-17T11:26:35Z</time>
      </trkpt>
      <trkpt lat="43.4399" lon="6.63382">
        <ele>48.3</ele>
        <time>2023-05-17T11:26:36Z</time>
      </trkpt>
      <trkpt lat="43.43991" lon="6.6338">
        <ele>48.3</ele>
        <time>2023-05-17T11:26:37Z</time>
      </trkpt>
      <trkpt lat="43.43993" lon="6.63378">
        <ele>48.3</ele>
        <time>2023-05-17T11:26:39Z</time>
      </trkpt>
      <trkpt lat="43.43994" lon="6.63378">
        <ele>48.3</ele>
        <time>2023-05-17T11:26:40Z</time>
      </trkpt>
      <trkpt lat="43.43994" lon="6.63378">
        <ele>48.3</ele>
        <time>2023-05-17T11:26:41Z</time>
      </trkpt>
      <trkpt lat="43.43995" lon="6.63377">
        <ele>48.3</ele>
        <time>2023-05-17T11:26:43Z</time>
      </trkpt>
      <trkpt lat="43.43995" lon="6.63377">
        <ele>48.3</ele>
        <time>2023-05-17T11:26:45Z</time>
      </trkpt>
      <trkpt lat="43.43995" lon="6.63377">
        <ele>48.3</ele>
        <time>2023-05-17T11:26:47Z</time>
      </trkpt>
      <trkpt lat="43.43994" lon="6.63377">
        <ele>48.3</ele>
        <time>2023-05-17T11:26:48Z</time>
      </trkpt>
      <trkpt lat="43.43994" lon="6.63378">
        <ele>48.3</ele>
        <time>2023-05-17T11:26:49Z</time>
      </trkpt>
      <trkpt lat="43.43994" lon="6.63378">
        <ele>48.3</ele>
        <time>2023-05-17T11:26:50Z</time>
      </trkpt>
      <trkpt lat="43.43994" lon="6.63378">
        <ele>48.3</ele>
        <time>2023-05-17T11:26:51Z</time>
      </trkpt>
      <trkpt lat="43.43994" lon="6.63378">
        <ele>48.3</ele>
        <time>2023-05-17T11:26:52Z</time>
      </trkpt>
      <trkpt lat="43.43994" lon="6.63378">
        <ele>48.3</ele>
        <time>2023-05-17T11:26:53Z</time>
      </trkpt>
      <trkpt lat="43.43994" lon="6.63379">
        <ele>48.3</ele>
        <time>2023-05-17T11:26:54Z</time>
      </trkpt>
      <trkpt lat="43.43994" lon="6.63379">
        <ele>48.3</ele>
        <time>2023-05-17T11:26:55Z</time>
      </trkpt>
      <trkpt lat="43.43994" lon="6.63379">
        <ele>48.3</ele>
        <time>2023-05-17T11:26:56Z</time>
      </trkpt>
      <trkpt lat="43.43994" lon="6.63379">
        <ele>48.3</ele>
        <time>2023-05-17T11:26:57Z</time>
      </trkpt>
      <trkpt lat="43.43994" lon="6.63379">
        <ele>48.3</ele>
        <time>2023-05-17T11:26:58Z</time>
      </trkpt>
      <trkpt lat="43.43994" lon="6.63379">
        <ele>48.3</ele>
        <time>2023-05-17T11:26:59Z</time>
      </trkpt>
      <trkpt lat="43.43994" lon="6.63379">
        <ele>48.3</ele>
        <time>2023-05-17T11:27:00Z</time>
      </trkpt>
      <trkpt lat="43.43994" lon="6.63379">
        <ele>48.3</ele>
        <time>2023-05-17T11:27:01Z</time>
      </trkpt>
      <trkpt lat="43.43994" lon="6.63379">
        <ele>48.3</ele>
        <time>2023-05-17T11:27:02Z</time>
      </trkpt>
      <trkpt lat="43.43994" lon="6.63379">
        <ele>48.3</ele>
        <time>2023-05-17T11:27:03Z</time>
      </trkpt>
      <trkpt lat="43.43994" lon="6.63379">
        <ele>48.3</ele>
        <time>2023-05-17T11:27:04Z</time>
      </trkpt>
      <trkpt lat="43.43994" lon="6.63379">
        <ele>48.3</ele>
        <time>2023-05-17T11:27:05Z</time>
      </trkpt>
      <trkpt lat="43.43994" lon="6.63379">
        <ele>48.3</ele>
        <time>2023-05-17T11:27:06Z</time>
      </trkpt>
      <trkpt lat="43.43994" lon="6.63379">
        <ele>48.3</ele>
        <time>2023-05-17T11:27:07Z</time>
      </trkpt>
      <trkpt lat="43.43994" lon="6.63379">
        <ele>48.3</ele>
        <time>2023-05-17T11:27:08Z</time>
      </trkpt>
      <trkpt lat="43.43994" lon="6.63379">
        <ele>48.3</ele>
        <time>2023-05-17T11:27:09Z</time>
      </trkpt>
      <trkpt lat="43.43987" lon="6.63381">
        <ele>48.3</ele>
        <time>2023-05-17T11:27:38Z</time>
      </trkpt>
      <trkpt lat="43.43987" lon="6.6338">
        <ele>48.3</ele>
        <time>2023-05-17T11:27:39Z</time>
      </trkpt>
      <trkpt lat="43.43987" lon="6.63379">
        <ele>48.3</ele>
        <time>2023-05-17T11:27:40Z</time>
      </trkpt>
      <trkpt lat="43.43988" lon="6.63378">
        <ele>48.3</ele>
        <time>2023-05-17T11:27:41Z</time>
      </trkpt>
      <trkpt lat="43.43988" lon="6.63378">
        <ele>48.3</ele>
        <time>2023-05-17T11:27:42Z</time>
      </trkpt>
      <trkpt lat="43.43988" lon="6.63378">
        <ele>48.3</ele>
        <time>2023-05-17T11:27:43Z</time>
      </trkpt>
      <trkpt lat="43.43988" lon="6.63378">
        <ele>48.3</ele>
        <time>2023-05-17T11:27:44Z</time>
      </trkpt>
      <trkpt lat="43.43988" lon="6.63378">
        <ele>48.3</ele>
        <time>2023-05-17T11:27:45Z</time>
      </trkpt>
      <trkpt lat="43.43988" lon="6.63378">
        <ele>48.3</ele>
        <time>2023-05-17T11:27:46Z</time>
      </trkpt>
      <trkpt lat="43.43988" lon="6.63378">
        <ele>48.3</ele>
        <time>2023-05-17T11:27:47Z</time>
      </trkpt>
      <trkpt lat="43.43988" lon="6.63378">
        <ele>48.3</ele>
        <time>2023-05-17T11:27:48Z</time>
      </trkpt>
    </trkseg>
  </trk>
</gpx>